
Distance (Route):
Temperature : 23.4°C
Humidity : 52.8%
Pressure : 0hPa| Receiver | Frames | First received | Last received |
|---|---|---|---|
| OM5KV | 456 | 2026-08-31 01:13:04 | 2026-08-31 02:04:13 |
| PG1ADW-2 | 317 | 2026-08-30 23:43:09 | 2026-08-31 01:54:06 |
| OE5MMP-10 | 311 | 2026-08-31 00:29:30 | 2026-08-31 01:42:48 |
| HA6NAB-11 | 255 | 2026-08-30 23:58:25 | 2026-08-31 01:58:35 |
| OE5DRO-10 | 228 | 2026-08-30 23:40:15 | 2026-08-31 01:53:52 |
| OE3OSB-13 | 226 | 2026-08-30 23:35:28 | 2026-08-31 02:03:35 |
| ATIDSZ-14 | 221 | 2026-08-31 00:09:27 | 2026-08-31 02:03:45 |
| OE3JTB-15 | 207 | 2026-08-30 23:31:40 | 2026-08-31 02:03:54 |
| S52SK | 114 | 2026-08-30 23:41:34 | 2026-08-31 01:59:30 |
| OE5DXL-15 | 68 | 2026-08-31 00:08:52 | 2026-08-31 01:49:22 |
| SONDE2-11 | 51 | 2026-08-31 01:01:42 | 2026-08-31 01:36:54 |
| EDDB2-12 | 41 | 2026-08-31 01:12:46 | 2026-08-31 01:37:04 |
| GYPAP8-17 | 40 | 2026-08-31 00:30:28 | 2026-08-31 01:45:11 |
| DO3MHA-11 | 39 | 2026-08-31 00:18:56 | 2026-08-31 01:45:18 |
| OK1ALN | 29 | 2026-08-31 01:19:12 | 2026-08-31 01:39:25 |
| OE5WHR-10 | 22 | 2026-08-31 01:21:21 | 2026-08-31 01:44:14 |
| SP9KGR-15 | 18 | 2026-08-31 01:17:31 | 2026-08-31 01:26:17 |
| POL1PZ | 17 | 2026-08-31 01:08:18 | 2026-08-31 01:18:11 |
| DO3MHA-12 | 9 | 2026-08-31 00:19:56 | 2026-08-31 01:10:11 |
| LZ4TU-5 | 3 | 2026-08-31 01:25:15 | 2026-08-31 01:25:39 |
| Receiver | Date | Latitude | Longitude | Direction | Speed | Altitude | Climb | Temperature | Humidity | Pressure | Voltage | Killtimer | Uptime | BKT | XDATA |
|---|---|---|---|---|---|---|---|---|---|---|---|---|---|---|---|
| OM5KV | 2026-08-31 02:04:13 | 48.32428 | 17.54734 | 360° | 15km/h | 637m | -12.2m/s | 23.4°C | 52.8% | 0hPa | 2.6V | 07:57:00 | 00:00:00 | 00:00:00 | |
| OM5KV | 2026-08-31 02:04:10 | 48.32415 | 17.54735 | 349° | 18km/h | 671m | -11.9m/s | 23.1°C | 53.7% | 0hPa | 2.6V | 07:57:00 | 00:00:00 | 00:00:00 | |
| OM5KV | 2026-08-31 02:04:08 | 48.32406 | 17.54736 | 354° | 16km/h | 694m | -11.9m/s | 22.9°C | 54.2% | 0hPa | 2.6V | 07:57:00 | 00:00:00 | 00:00:00 | |
| OM5KV | 2026-08-31 02:04:04 | 48.32388 | 17.54736 | 8° | 20km/h | 741m | -12.3m/s | 22.5°C | 55.2% | 0hPa | 2.6V | 07:57:00 | 00:00:00 | 00:00:00 | |
| OM5KV | 2026-08-31 02:04:02 | 48.32378 | 17.54736 | 2° | 22km/h | 765m | -12.1m/s | 22.4°C | 55.6% | 0hPa | 2.6V | 07:57:00 | 00:00:00 | 00:00:00 | |
| OM5KV | 2026-08-31 02:03:59 | 48.32363 | 17.54733 | 12° | 22km/h | 800m | -12.4m/s | 22.1°C | 56.4% | 0hPa | 2.6V | 07:57:00 | 00:00:00 | 00:00:00 | |
| OM5KV | 2026-08-31 02:03:57 | 48.32352 | 17.54732 | 5° | 24km/h | 824m | -12.0m/s | 22.0°C | 56.4% | 0hPa | 2.6V | 07:57:00 | 00:00:00 | 00:00:00 | |
| OM5KV | 2026-08-31 02:03:54 | 48.32335 | 17.54729 | 14° | 24km/h | 861m | -12.9m/s | 21.7°C | 55.9% | 0hPa | 2.6V | 07:57:00 | 00:00:00 | 00:00:00 | |
| OE3JTB-15 | 2026-08-31 02:03:54 | 48.32329 | 17.54728 | 3° | 26km/h | 874m | -12.0m/s | 21.6°C | 55.3% | 0hPa | 2.6V | 00:00:00 | 00:00:00 | 00:00:00 | |
| OM5KV | 2026-08-31 02:03:48 | 48.32298 | 17.54720 | 12° | 24km/h | 933m | -10.4m/s | 21.2°C | 53.7% | 0hPa | 2.6V | 07:57:00 | 00:00:00 | 00:00:00 | |
| ATIDSZ-14 | 2026-08-31 02:03:45 | 48.32279 | 17.54714 | 18° | 26km/h | 961m | -9.9m/s | 21.0°C | 54.3% | 0hPa | 2.6V | 07:58:00 | 00:00:00 | 00:00:00 | |
| OM5KV | 2026-08-31 02:03:43 | 48.32258 | 17.54707 | 10° | 29km/h | 988m | -9.1m/s | 20.7°C | 54.6% | 0hPa | 2.6V | 07:58:00 | 00:00:00 | 00:00:00 | |
| OM5KV | 2026-08-31 02:03:42 | 48.32258 | 17.54707 | 10° | 29km/h | 988m | -9.1m/s | 20.7°C | 54.6% | 0hPa | 2.6V | 07:58:00 | 00:00:00 | 00:00:00 | |
| OM5KV | 2026-08-31 02:03:37 | 48.32224 | 17.54692 | 14° | 27km/h | 1038m | -10.7m/s | 20.4°C | 56.9% | 0hPa | 2.6V | 07:58:00 | 00:00:00 | 00:00:00 | |
| OM5KV | 2026-08-31 02:03:36 | 48.32217 | 17.54690 | 14° | 31km/h | 1048m | -11.5m/s | 20.3°C | 58.5% | 0hPa | 2.6V | 07:58:00 | 00:00:00 | 00:00:00 | |
| OE3OSB-13 | 2026-08-31 02:03:35 | 48.32189 | 17.54677 | 11° | 29km/h | 1090m | -13.4m/s | 20.0°C | 60.1% | -1.0hPa | 2.6V | 00:00:00 | 00:00:00 | 00:00:00 | |
| OM5KV | 2026-08-31 02:03:28 | 48.32159 | 17.54664 | 16° | 33km/h | 1143m | -13.1m/s | 19.6°C | 60.2% | 0hPa | 2.6V | 07:58:00 | 00:00:00 | 00:00:00 | |
| OM5KV | 2026-08-31 02:03:21 | 48.32106 | 17.54643 | 15° | 29km/h | 1226m | -12.3m/s | 19.0°C | 57.8% | 0hPa | 2.6V | 07:58:00 | 00:00:00 | 00:00:00 | |
| OM5KV | 2026-08-31 02:03:10 | 48.32019 | 17.54615 | 8° | 35km/h | 1350m | -10.8m/s | 18.0°C | 61.4% | 0hPa | 2.6V | 07:58:00 | 00:00:00 | 00:00:00 | |
| OE3JTB-15 | 2026-08-31 02:03:10 | 48.32011 | 17.54612 | 16° | 33km/h | 1361m | -11.1m/s | 17.9°C | 61.7% | 0hPa | 2.6V | 00:00:00 | 00:00:00 | 00:00:00 | |
| OM5KV | 2026-08-31 02:03:09 | 48.32011 | 17.54612 | 16° | 33km/h | 1361m | -11.1m/s | 17.9°C | 61.3% | 0hPa | 2.6V | 07:58:00 | 00:00:00 | 00:00:00 | |
| ATIDSZ-14 | 2026-08-31 02:03:05 | 48.31978 | 17.54602 | 11° | 35km/h | 1403m | -10.7m/s | 17.6°C | 60.7% | 0hPa | 2.6V | 07:58:00 | 00:00:00 | 00:00:00 | |
| OE3OSB-13 | 2026-08-31 02:03:04 | 48.31962 | 17.54595 | 13° | 31km/h | 1423m | -10.4m/s | 17.5°C | 59.0% | -1.0hPa | 2.6V | 00:00:00 | 00:00:00 | 00:00:00 | |
| OM5KV | 2026-08-31 02:03:03 | 48.31962 | 17.54595 | 15° | 31km/h | 1423m | -10.4m/s | 17.5°C | 59.0% | 0hPa | 2.6V | 07:58:00 | 00:00:00 | 00:00:00 | |
| OM5KV | 2026-08-31 02:03:01 | 48.31945 | 17.54589 | 17° | 37km/h | 1443m | -10.4m/s | 17.4°C | 58.9% | 0hPa | 2.6V | 07:58:00 | 00:00:00 | 00:00:00 | |
| OE3JTB-15 | 2026-08-31 02:02:59 | 48.31919 | 17.54578 | 13° | 38km/h | 1473m | -10.8m/s | 17.1°C | 61.6% | 0hPa | 2.6V | 00:00:00 | 02:44:06 | 00:00:00 | |
| OM5KV | 2026-08-31 02:02:57 | 48.31910 | 17.54574 | 19° | 38km/h | 1484m | -11.2m/s | 17.1°C | 61.3% | 0hPa | 2.6V | 07:58:00 | 00:00:00 | 00:00:00 | |
| OE3JTB-15 | 2026-08-31 02:02:57 | 48.31901 | 17.54571 | 16° | 33km/h | 1494m | -11.3m/s | 16.9°C | 61.8% | 0hPa | 2.6V | 07:58:00 | 00:00:00 | 00:00:00 | |
| OM5KV | 2026-08-31 02:02:55 | 48.31892 | 17.54568 | 11° | 37km/h | 1505m | -10.6m/s | 16.9°C | 61.9% | 0hPa | 2.6V | 07:58:00 | 00:00:00 | 00:00:00 | |
| OE3JTB-15 | 2026-08-31 02:02:53 | 48.31865 | 17.54558 | 11° | 38km/h | 1536m | -10.6m/s | 16.6°C | 63.5% | 0hPa | 2.6V | 00:00:00 | 00:00:00 | 00:00:00 | |
| OM5KV | 2026-08-31 02:02:51 | 48.31856 | 17.54555 | 17° | 37km/h | 1547m | -11.3m/s | 16.6°C | 63.4% | 0hPa | 2.6V | 07:59:00 | 00:00:00 | 00:00:00 | |
| OE3JTB-15 | 2026-08-31 02:02:51 | 48.31847 | 17.54552 | 10° | 38km/h | 1558m | -10.6m/s | 16.4°C | 64.0% | 0hPa | 2.6V | 00:00:00 | 02:43:58 | 00:00:00 | |
| OM5KV | 2026-08-31 02:02:49 | 48.31838 | 17.54548 | 16° | 37km/h | 1568m | -11.5m/s | 16.4°C | 63.8% | 0hPa | 2.6V | 07:59:00 | 00:00:00 | 00:00:00 | |
| OE3JTB-15 | 2026-08-31 02:02:48 | 48.31820 | 17.54543 | 15° | 37km/h | 1590m | -11.8m/s | 16.1°C | 64.3% | 0hPa | 2.6V | 00:00:00 | 00:00:00 | 00:00:00 | |
| OM5KV | 2026-08-31 02:02:45 | 48.31801 | 17.54537 | 16° | 35km/h | 1611m | -11.1m/s | 16.0°C | 62.9% | 0hPa | 2.5V | 07:59:00 | 00:00:00 | 00:00:00 | |
| ATIDSZ-14 | 2026-08-31 02:02:45 | 48.31801 | 17.54537 | 16° | 35km/h | 1611m | -11.1m/s | 16.0°C | 62.9% | 0hPa | 2.5V | 07:59:00 | 00:00:00 | 00:00:00 | |
| OE3JTB-15 | 2026-08-31 02:02:44 | 48.31784 | 17.54532 | 13° | 33km/h | 1633m | -11.0m/s | 15.8°C | 62.6% | 0hPa | 2.5V | 00:00:00 | 00:00:00 | 00:00:00 | |
| OM5KV | 2026-08-31 02:02:43 | 48.31784 | 17.54532 | 14° | 33km/h | 1633m | -11.0m/s | 15.9°C | 62.2% | 0hPa | 2.5V | 07:59:00 | 00:00:00 | 00:00:00 | |
| OE3JTB-15 | 2026-08-31 02:02:41 | 48.31758 | 17.54525 | 13° | 35km/h | 1662m | -10.6m/s | 15.7°C | 60.4% | 0hPa | 2.5V | 00:00:00 | 02:43:48 | 00:00:00 | |
| OM5KV | 2026-08-31 02:02:39 | 48.31750 | 17.54523 | 5° | 35km/h | 1673m | -9.9m/s | 15.7°C | 59.2% | 0hPa | 2.5V | 07:59:00 | 00:00:00 | 00:00:00 | |
| OE3JTB-15 | 2026-08-31 02:02:39 | 48.31742 | 17.54522 | 10° | 29km/h | 1683m | -10.3m/s | 15.6°C | 59.0% | 0hPa | 2.5V | 00:00:00 | 00:00:00 | 00:00:00 | |
| OM5KV | 2026-08-31 02:02:37 | 48.31733 | 17.54521 | 3° | 35km/h | 1693m | -10.2m/s | 15.6°C | 58.3% | 0hPa | 2.6V | 07:59:00 | 00:00:00 | 00:00:00 | |
| OM5KV | 2026-08-31 02:02:33 | 48.31701 | 17.54518 | 4° | 33km/h | 1732m | -9.2m/s | 15.6°C | 53.9% | 0hPa | 2.6V | 07:59:00 | 00:00:00 | 00:00:00 | |
| OE3OSB-13 | 2026-08-31 02:02:33 | 48.31694 | 17.54518 | 359° | 27km/h | 1741m | -10.1m/s | 15.5°C | 54.3% | -1.0hPa | 2.6V | 00:00:00 | 00:00:00 | 00:00:00 | |
| OM5KV | 2026-08-31 02:02:32 | 48.31694 | 17.54518 | 360° | 27km/h | 1741m | -10.1m/s | 15.5°C | 54.3% | 0hPa | 2.6V | 07:59:00 | 00:00:00 | 00:00:00 | |
| OE3JTB-15 | 2026-08-31 02:02:29 | 48.31664 | 17.54520 | 355° | 29km/h | 1780m | -9.7m/s | 15.2°C | 53.5% | 0hPa | 2.6V | 00:00:00 | 00:00:00 | 00:00:00 | |
| OM5KV | 2026-08-31 02:02:27 | 48.31657 | 17.54520 | 359° | 31km/h | 1790m | -9.8m/s | 15.2°C | 53.3% | 0hPa | 2.6V | 07:59:00 | 00:00:00 | 00:00:00 | |
| OM5KV | 2026-08-31 02:02:27 | 48.31657 | 17.54520 | 359° | 31km/h | 1790m | -9.8m/s | 15.2°C | 53.3% | 0hPa | 2.6V | 07:59:00 | 00:00:00 | 00:00:00 | |
| ATIDSZ-14 | 2026-08-31 02:02:24 | 48.31635 | 17.54523 | 351° | 29km/h | 1818m | -10.2m/s | 14.9°C | 53.2% | 0hPa | 2.6V | 07:59:00 | 00:00:00 | 00:00:00 | |
| OM5KV | 2026-08-31 02:02:21 | 48.31614 | 17.54527 | 354° | 29km/h | 1848m | -10.5m/s | 14.6°C | 53.1% | 0hPa | 2.6V | 07:59:00 | 00:00:00 | 00:00:00 | |
| OE3JTB-15 | 2026-08-31 02:02:20 | 48.31601 | 17.54530 | 348° | 24km/h | 1868m | -10.5m/s | 14.5°C | 52.2% | 0hPa | 2.6V | 07:58:00 | 02:43:27 | 00:00:00 | |
| OM5KV | 2026-08-31 02:02:15 | 48.31575 | 17.54537 | 347° | 26km/h | 1909m | -10.4m/s | 14.4°C | 48.4% | 0hPa | 2.6V | 07:59:00 | 00:00:00 | 00:00:00 | |
| OE3JTB-15 | 2026-08-31 02:02:11 | 48.31547 | 17.54542 | 351° | 18km/h | 1959m | -9.2m/s | 14.3°C | 50.6% | 0hPa | 2.6V | 00:00:00 | 00:00:00 | 00:00:00 | |
| ATIDSZ-14 | 2026-08-31 02:02:04 | 48.31521 | 17.54543 | 355° | 15km/h | 2016m | -9.9m/s | 14.1°C | 48.3% | 0hPa | 2.6V | 07:59:00 | 00:00:00 | 00:00:00 | |
| OM5KV | 2026-08-31 02:02:03 | 48.31518 | 17.54543 | 13° | 16km/h | 2025m | -10.6m/s | 14.0°C | 48.5% | 0hPa | 2.6V | 07:59:00 | 00:00:00 | 00:00:00 | |
| OE3OSB-13 | 2026-08-31 02:02:02 | 48.31507 | 17.54541 | 16° | 11km/h | 2055m | -10.0m/s | 13.8°C | 48.9% | -1.0hPa | 2.6V | 00:00:00 | 00:00:00 | 00:00:00 | |
| OM5KV | 2026-08-31 02:01:58 | 48.31500 | 17.54541 | 5° | 15km/h | 2074m | -10.2m/s | 13.6°C | 48.9% | 0hPa | 2.6V | 07:59:00 | 00:00:00 | 00:00:00 | |
| OE3JTB-15 | 2026-08-31 02:01:53 | 48.31484 | 17.54539 | 359° | 11km/h | 2135m | -10.6m/s | 13.2°C | 48.8% | 0hPa | 2.6V | 00:00:00 | 02:43:00 | 00:00:00 | |
| OM5KV | 2026-08-31 02:01:52 | 48.31484 | 17.54539 | 360° | 9km/h | 2135m | -10.7m/s | 13.2°C | 48.5% | 0hPa | 2.6V | 07:59:00 | 00:00:00 | 00:00:00 | |
| OM5KV | 2026-08-31 02:01:47 | 48.31472 | 17.54534 | 15° | 11km/h | 2186m | -9.9m/s | 12.8°C | 49.0% | 0hPa | 2.6V | 07:59:00 | 00:00:00 | 00:00:00 | |
| OM5KV | 2026-08-31 02:01:46 | 48.31470 | 17.54532 | 38° | 9km/h | 2195m | -10.2m/s | 12.8°C | 49.1% | 0hPa | 2.6V | 07:59:00 | 00:00:00 | 00:00:00 | |
| OE3JTB-15 | 2026-08-31 02:01:44 | 48.31465 | 17.54529 | 10° | 7km/h | 2225m | -9.9m/s | 12.4°C | 50.2% | 0hPa | 2.6V | 00:00:00 | 00:00:00 | 00:00:00 | |
| ATIDSZ-14 | 2026-08-31 02:01:43 | 48.31465 | 17.54529 | 10° | 11km/h | 2225m | -9.9m/s | 12.5°C | 49.8% | 0hPa | 2.5V | 07:59:00 | 00:00:00 | 00:00:00 | |
| OM5KV | 2026-08-31 02:01:42 | 48.31462 | 17.54528 | 24° | 11km/h | 2234m | -10.2m/s | 12.4°C | 50.0% | 0hPa | 2.5V | 07:59:00 | 00:00:00 | 00:00:00 | |
| OM5KV | 2026-08-31 02:01:40 | 48.31459 | 17.54523 | 53° | 5km/h | 2254m | -10.7m/s | 12.2°C | 50.4% | 0hPa | 2.5V | 07:59:00 | 00:00:00 | 00:00:00 | |
| OM5KV | 2026-08-31 02:01:34 | 48.31451 | 17.54514 | 20° | 5km/h | 2316m | -9.9m/s | 11.7°C | 51.5% | 0hPa | 2.5V | 07:59:00 | 00:00:00 | 00:00:00 | |
| OE3OSB-13 | 2026-08-31 02:01:31 | 48.31444 | 17.54505 | 28° | 7km/h | 2364m | -9.8m/s | 11.3°C | 52.3% | -1.0hPa | 2.5V | 00:00:00 | 00:00:00 | 00:00:00 | |
| OM5KV | 2026-08-31 02:01:28 | 48.31442 | 17.54502 | 49° | 11km/h | 2374m | -10.0m/s | 11.2°C | 52.5% | 0hPa | 2.5V | 07:59:00 | 00:00:00 | 00:00:00 | |
| OM5KV | 2026-08-31 02:01:25 | 48.31439 | 17.54495 | 33° | 7km/h | 2403m | -10.2m/s | 10.9°C | 53.3% | 0hPa | 2.5V | 07:59:00 | 00:00:00 | 00:00:00 | |
| OE3JTB-15 | 2026-08-31 02:01:23 | 48.31436 | 17.54486 | 70° | 9km/h | 2433m | -10.5m/s | 10.6°C | 54.3% | 0hPa | 2.5V | 00:00:00 | 00:00:00 | 00:00:00 | |
| ATIDSZ-14 | 2026-08-31 02:01:22 | 48.31436 | 17.54486 | 71° | 7km/h | 2433m | -10.6m/s | 10.6°C | 53.9% | 0hPa | 2.5V | 07:59:00 | 00:00:00 | 00:00:00 | |
| OM5KV | 2026-08-31 02:01:19 | 48.31433 | 17.54477 | 89° | 7km/h | 2463m | -10.0m/s | 10.4°C | 54.7% | 0hPa | 2.5V | 07:59:00 | 00:00:00 | 00:00:00 | |
| OM5KV | 2026-08-31 02:01:08 | 48.31430 | 17.54440 | 101° | 9km/h | 2571m | -10.1m/s | 9.4°C | 56.5% | 0hPa | 2.5V | 08:00:00 | 00:00:00 | 00:00:00 | |
| OM5KV | 2026-08-31 02:01:05 | 48.31431 | 17.54428 | 87° | 11km/h | 2599m | -9.4m/s | 9.2°C | 57.0% | 0hPa | 2.5V | 08:00:00 | 00:00:00 | 00:00:00 | |
| OE3JTB-15 | 2026-08-31 02:01:04 | 48.31432 | 17.54420 | 107° | 11km/h | 2618m | -9.4m/s | 9.0°C | 58.0% | 0hPa | 2.5V | 00:00:00 | 02:42:11 | 00:00:00 | |
| ATIDSZ-14 | 2026-08-31 02:01:02 | 48.31433 | 17.54416 | 95° | 13km/h | 2628m | -10.2m/s | 8.9°C | 57.5% | 0hPa | 2.5V | 08:00:00 | 00:00:00 | 00:00:00 | |
| OE3OSB-13 | 2026-08-31 02:01:00 | 48.31436 | 17.54398 | 104° | 9km/h | 2665m | -9.4m/s | 8.6°C | 58.1% | -1.0hPa | 2.5V | 00:00:00 | 00:00:00 | 00:00:00 | |
| OM5KV | 2026-08-31 02:00:58 | 48.31436 | 17.54398 | 105° | 11km/h | 2665m | -9.4m/s | 8.6°C | 58.1% | 0hPa | 2.5V | 08:00:00 | 00:00:00 | 00:00:00 | |
| OM5KV | 2026-08-31 02:00:54 | 48.31440 | 17.54378 | 121° | 15km/h | 2706m | -10.2m/s | 8.3°C | 58.8% | 0hPa | 2.5V | 08:00:00 | 00:00:00 | 00:00:00 | |
| OM5KV | 2026-08-31 02:00:53 | 48.31441 | 17.54373 | 107° | 13km/h | 2715m | -10.3m/s | 8.2°C | 58.9% | 0hPa | 2.5V | 08:00:00 | 00:00:00 | 00:00:00 | |
| OM5KV | 2026-08-31 02:00:49 | 48.31448 | 17.54351 | 108° | 13km/h | 2757m | -12.4m/s | 7.9°C | 59.3% | 0hPa | 2.5V | 08:00:00 | 00:00:00 | 00:00:00 | |
| OM5KV | 2026-08-31 02:00:47 | 48.31451 | 17.54341 | 113° | 15km/h | 2781m | -11.5m/s | 7.7°C | 59.8% | 0hPa | 2.5V | 08:00:00 | 00:00:00 | 00:00:00 | |
| OM5KV | 2026-08-31 02:00:43 | 48.31460 | 17.54318 | 114° | 16km/h | 2826m | -12.3m/s | 7.3°C | 60.6% | 0hPa | 2.5V | 08:00:00 | 00:00:00 | 00:00:00 | |
| ATIDSZ-14 | 2026-08-31 02:00:41 | 48.31465 | 17.54305 | 125° | 22km/h | 2849m | -11.9m/s | 7.1°C | 61.2% | 0hPa | 2.5V | 08:00:00 | 00:00:00 | 00:00:00 | |
| OM5KV | 2026-08-31 02:00:37 | 48.31475 | 17.54279 | 124° | 20km/h | 2895m | -11.8m/s | 6.7°C | 62.4% | 0hPa | 2.5V | 08:00:00 | 00:00:00 | 00:00:00 | |
| OM5KV | 2026-08-31 02:00:35 | 48.31479 | 17.54265 | 117° | 24km/h | 2917m | -11.9m/s | 6.5°C | 62.7% | 0hPa | 2.5V | 08:00:00 | 00:00:00 | 00:00:00 | |
| OM5KV | 2026-08-31 02:00:31 | 48.31489 | 17.54234 | 116° | 26km/h | 2961m | -10.8m/s | 6.2°C | 63.2% | 0hPa | 2.5V | 08:00:00 | 00:00:00 | 00:00:00 | |
| OE3OSB-13 | 2026-08-31 02:00:28 | 48.31496 | 17.54200 | 109° | 26km/h | 3000m | -10.3m/s | 6.0°C | 63.0% | -1.0hPa | 2.5V | 00:00:00 | 00:00:00 | 00:00:00 | |
| OM5KV | 2026-08-31 02:00:25 | 48.31499 | 17.54182 | 106° | 27km/h | 3020m | -9.8m/s | 5.8°C | 62.8% | 0hPa | 2.5V | 08:00:00 | 00:00:00 | 00:00:00 | |
| OM5KV | 2026-08-31 02:00:23 | 48.31502 | 17.54163 | 100° | 26km/h | 3038m | -9.5m/s | 5.7°C | 62.4% | 0hPa | 2.5V | 08:00:00 | 00:00:00 | 00:00:00 | |
| ATIDSZ-14 | 2026-08-31 02:00:21 | 48.31505 | 17.54143 | 101° | 26km/h | 3057m | -9.8m/s | 5.7°C | 60.5% | 0hPa | 2.5V | 08:01:00 | 00:00:00 | 00:00:00 | |
| OM5KV | 2026-08-31 02:00:20 | 48.31506 | 17.54133 | 94° | 26km/h | 3067m | -10.2m/s | 5.8°C | 59.1% | 0hPa | 2.5V | 08:01:00 | 00:00:00 | 00:00:00 | |
| OM5KV | 2026-08-31 02:00:18 | 48.31507 | 17.54112 | 102° | 27km/h | 3086m | -9.6m/s | 5.6°C | 59.8% | 0hPa | 2.5V | 08:01:00 | 00:00:00 | 00:00:00 | |
| OM5KV | 2026-08-31 02:00:14 | 48.31511 | 17.54069 | 103° | 29km/h | 3125m | -9.9m/s | 5.2°C | 61.9% | 0hPa | 2.5V | 08:01:00 | 00:00:00 | 00:00:00 | |
| OM5KV | 2026-08-31 02:00:08 | 48.31517 | 17.54003 | 102° | 29km/h | 3180m | -10.2m/s | 4.7°C | 63.5% | 0hPa | 2.5V | 08:01:00 | 00:00:00 | 00:00:00 | |
| OM5KV | 2026-08-31 02:00:07 | 48.31518 | 17.53992 | 92° | 29km/h | 3189m | -9.9m/s | 4.6°C | 64.4% | 0hPa | 2.5V | 08:01:00 | 00:00:00 | 00:00:00 | |
| OM5KV | 2026-08-31 02:00:03 | 48.31519 | 17.53949 | 94° | 27km/h | 3226m | -9.1m/s | 4.2°C | 66.2% | 0hPa | 2.5V | 08:01:00 | 00:00:00 | 00:00:00 | |
| OE3OSB-13 | 2026-08-31 01:59:57 | 48.31520 | 17.53870 | 83° | 29km/h | 3290m | -9.1m/s | 3.7°C | 68.6% | -1.0hPa | 2.5V | 00:00:00 | 00:00:00 | 00:00:00 | |
| OM5KV | 2026-08-31 01:59:56 | 48.31520 | 17.53870 | 84° | 31km/h | 3291m | -9.1m/s | 3.7°C | 68.6% | 0hPa | 2.5V | 08:01:00 | 00:00:00 | 00:00:00 | |
| OM5KV | 2026-08-31 01:59:51 | 48.31517 | 17.53811 | 90° | 33km/h | 3335m | -10.3m/s | 3.4°C | 69.7% | 0hPa | 2.5V | 08:01:00 | 00:00:00 | 00:00:00 | |
| OM5KV | 2026-08-31 01:59:45 | 48.31514 | 17.53743 | 82° | 31km/h | 3406m | -12.0m/s | 2.7°C | 71.5% | 0hPa | 2.5V | 08:01:00 | 00:00:00 | 00:00:00 | |
| OM5KV | 2026-08-31 01:59:44 | 48.31513 | 17.53731 | 86° | 35km/h | 3418m | -12.1m/s | 2.6°C | 71.9% | 0hPa | 2.5V | 08:01:00 | 00:00:00 | 00:00:00 | |
| ATIDSZ-14 | 2026-08-31 01:59:40 | 48.31512 | 17.53682 | 89° | 35km/h | 3463m | -11.7m/s | 2.2°C | 73.5% | 0hPa | 2.5V | 08:01:00 | 00:00:00 | 00:00:00 | |
| OM5KV | 2026-08-31 01:59:39 | 48.31511 | 17.53669 | 92° | 33km/h | 3474m | -11.7m/s | 2.1°C | 73.8% | 0hPa | 2.5V | 08:01:00 | 00:00:00 | 00:00:00 | |
| OM5KV | 2026-08-31 01:59:33 | 48.31509 | 17.53596 | 86° | 31km/h | 3539m | -10.8m/s | 1.5°C | 76.2% | 0hPa | 2.5V | 08:01:00 | 00:00:00 | 00:00:00 | |
| S52SK | 2026-08-31 01:59:30 | 48.31507 | 17.53557 | 88° | 37km/h | 3570m | -11.9m/s | 1.2°C | 77.1% | 0hPa | 2.5V | 00:00:00 | 00:00:00 | 00:00:00 | |
| OE3OSB-13 | 2026-08-31 01:59:26 | 48.31505 | 17.53493 | 89° | 37km/h | 3622m | -10.4m/s | 0.7°C | 78.6% | -1.0hPa | 2.5V | 00:00:00 | 00:00:00 | 00:00:00 | |
| S52SK | 2026-08-31 01:59:25 | 48.31505 | 17.53492 | 91° | 37km/h | 3622m | -10.4m/s | 0.7°C | 78.6% | 0hPa | 2.5V | 00:00:00 | 00:00:00 | 00:00:00 | |
| ATIDSZ-14 | 2026-08-31 01:59:20 | 48.31505 | 17.53426 | 93° | 38km/h | 3672m | -10.3m/s | 0.2°C | 79.7% | 0hPa | 2.5V | 08:02:00 | 00:00:00 | 00:00:00 | |
| OM5KV | 2026-08-31 01:59:19 | 48.31506 | 17.53412 | 95° | 33km/h | 3681m | -10.2m/s | 0.1°C | 80.1% | 0hPa | 2.5V | 08:02:00 | 00:00:00 | 00:00:00 | |
| OM5KV | 2026-08-31 01:59:17 | 48.31506 | 17.53387 | 88° | 33km/h | 3701m | -10.3m/s | -0.0°C | 80.0% | 0hPa | 2.5V | 08:02:00 | 00:00:00 | 00:00:00 | |
| OM5KV | 2026-08-31 01:59:13 | 48.31507 | 17.53333 | 99° | 35km/h | 3741m | -10.6m/s | -0.4°C | 80.0% | 0hPa | 2.5V | 08:02:00 | 00:00:00 | 00:00:00 | |
| OM5KV | 2026-08-31 01:59:08 | 48.31509 | 17.53270 | 94° | 37km/h | 3793m | -10.7m/s | -0.8°C | 79.1% | 0hPa | 2.5V | 08:02:00 | 00:00:00 | 00:00:00 | |
| OM5KV | 2026-08-31 01:59:06 | 48.31511 | 17.53243 | 101° | 37km/h | 3815m | -10.5m/s | -1.0°C | 79.2% | 0hPa | 2.5V | 08:02:00 | 00:00:00 | 00:00:00 | |
| ATIDSZ-14 | 2026-08-31 01:58:59 | 48.31519 | 17.53152 | 97° | 33km/h | 3886m | -9.0m/s | -1.7°C | 80.2% | 0hPa | 2.5V | 08:02:00 | 00:00:00 | 00:00:00 | |
| OM5KV | 2026-08-31 01:58:57 | 48.31521 | 17.53126 | 104° | 35km/h | 3904m | -10.2m/s | -1.8°C | 79.9% | 0hPa | 2.5V | 08:02:00 | 00:00:00 | 00:00:00 | |
| OM5KV | 2026-08-31 01:58:55 | 48.31525 | 17.53101 | 105° | 31km/h | 3924m | -9.4m/s | -2.0°C | 79.1% | 0hPa | 2.5V | 08:02:00 | 00:00:00 | 00:00:00 | |
| OM5KV | 2026-08-31 01:58:49 | 48.31534 | 17.53029 | 105° | 33km/h | 3984m | -9.7m/s | -2.5°C | 76.8% | 0hPa | 2.5V | 08:02:00 | 00:00:00 | 00:00:00 | |
| OM5KV | 2026-08-31 01:58:46 | 48.31539 | 17.52992 | 99° | 35km/h | 4011m | -9.1m/s | -2.8°C | 74.3% | 0hPa | 2.5V | 08:02:00 | 00:00:00 | 00:00:00 | |
| OM5KV | 2026-08-31 01:58:41 | 48.31545 | 17.52935 | 105° | 29km/h | 4052m | -9.5m/s | -2.9°C | 62.5% | 0hPa | 2.5V | 08:02:00 | 00:00:00 | 00:00:00 | |
| OM5KV | 2026-08-31 01:58:39 | 48.31547 | 17.52906 | 91° | 26km/h | 4077m | -8.9m/s | -2.3°C | 49.8% | 0hPa | 2.5V | 08:03:00 | 00:00:00 | 00:00:00 | |
| ATIDSZ-14 | 2026-08-31 01:58:38 | 48.31547 | 17.52906 | 91° | 26km/h | 4077m | -8.9m/s | -2.3°C | 49.8% | 0hPa | 2.5V | 08:03:00 | 00:00:00 | 00:00:00 | |
| HA6NAB-11 | 2026-08-31 01:58:35 | 48.31547 | 17.52880 | 93° | 24km/h | 4103m | -9.4m/s | -2.4°C | 46.3% | 0hPa | 2.5V | 08:03:00 | 00:00:00 | 00:00:00 | |
| OM5KV | 2026-08-31 01:58:31 | 48.31547 | 17.52849 | 75° | 18km/h | 4141m | -10.0m/s | -2.2°C | 36.5% | 0hPa | 2.5V | 08:03:00 | 00:00:00 | 00:00:00 | |
| OE3OSB-13 | 2026-08-31 01:58:24 | 48.31541 | 17.52796 | 86° | 15km/h | 4217m | -9.3m/s | -2.9°C | 34.9% | -1.0hPa | 2.5V | 00:00:00 | 00:00:00 | 00:00:00 | |
| ATIDSZ-14 | 2026-08-31 01:58:18 | 48.31535 | 17.52765 | 78° | 16km/h | 4263m | -9.8m/s | -3.2°C | 29.4% | 0hPa | 2.5V | 08:03:00 | 00:00:00 | 00:00:00 | |
| OM5KV | 2026-08-31 01:58:12 | 48.31523 | 17.52729 | 56° | 18km/h | 4318m | -9.1m/s | -3.6°C | 25.8% | 0hPa | 2.5V | 08:03:00 | 00:00:00 | 00:00:00 | |
| OM5KV | 2026-08-31 01:58:08 | 48.31514 | 17.52703 | 54° | 20km/h | 4355m | -9.7m/s | -3.8°C | 22.4% | 0hPa | 2.5V | 08:03:00 | 00:00:00 | 00:00:00 | |
| OM5KV | 2026-08-31 01:58:06 | 48.31508 | 17.52689 | 63° | 20km/h | 4375m | -9.8m/s | -3.9°C | 20.2% | 0hPa | 2.5V | 08:03:00 | 00:00:00 | 00:00:00 | |
| OM5KV | 2026-08-31 01:58:02 | 48.31496 | 17.52661 | 57° | 22km/h | 4411m | -8.7m/s | -4.2°C | 17.6% | 0hPa | 2.5V | 08:03:00 | 00:00:00 | 00:00:00 | |
| OE3OSB-13 | 2026-08-31 01:57:53 | 48.31461 | 17.52582 | 59° | 27km/h | 4499m | -9.0m/s | -4.7°C | 12.4% | -1.0hPa | 2.5V | 00:00:00 | 00:00:00 | 00:00:00 | |
| HA6NAB-11 | 2026-08-31 01:57:51 | 48.31458 | 17.52573 | 65° | 24km/h | 4508m | -9.1m/s | -4.8°C | 12.1% | 0hPa | 2.5V | 08:03:00 | 00:00:00 | 00:00:00 | |
| OM5KV | 2026-08-31 01:57:49 | 48.31451 | 17.52555 | 72° | 26km/h | 4525m | -9.0m/s | -4.7°C | 10.8% | 0hPa | 2.5V | 08:03:00 | 00:00:00 | 00:00:00 | |
| HA6NAB-11 | 2026-08-31 01:57:46 | 48.31442 | 17.52528 | 70° | 29km/h | 4553m | -10.4m/s | -4.8°C | 10.0% | 0hPa | 2.5V | 00:00:00 | 00:00:00 | 00:00:00 | |
| OM5KV | 2026-08-31 01:57:43 | 48.31434 | 17.52500 | 67° | 29km/h | 4582m | -9.5m/s | -4.5°C | 8.1% | 0hPa | 2.5V | 08:04:00 | 00:00:00 | 00:00:00 | |
| HA6NAB-11 | 2026-08-31 01:57:40 | 48.31427 | 17.52469 | 67° | 31km/h | 4609m | -9.4m/s | -4.1°C | 7.3% | 0hPa | 2.5V | 00:00:00 | 00:00:00 | 00:00:00 | |
| OM5KV | 2026-08-31 01:57:39 | 48.31425 | 17.52458 | 78° | 31km/h | 4618m | -9.8m/s | -4.1°C | 7.2% | 0hPa | 2.5V | 08:04:00 | 00:00:00 | 00:00:00 | |
| OM5KV | 2026-08-31 01:57:38 | 48.31423 | 17.52447 | 74° | 27km/h | 4627m | -10.2m/s | -4.1°C | 7.1% | 0hPa | 2.5V | 08:04:00 | 00:00:00 | 00:00:00 | |
| ATIDSZ-14 | 2026-08-31 01:57:37 | 48.31421 | 17.52437 | 67° | 29km/h | 4637m | -9.1m/s | -4.0°C | 7.1% | 0hPa | 2.5V | 08:04:00 | 00:00:00 | 00:00:00 | |
| HA6NAB-11 | 2026-08-31 01:57:35 | 48.31416 | 17.52415 | 72° | 29km/h | 4654m | -9.9m/s | -3.9°C | 8.1% | 0hPa | 2.5V | 00:00:00 | 00:00:00 | 00:00:00 | |
| OM5KV | 2026-08-31 01:57:32 | 48.31408 | 17.52381 | 69° | 33km/h | 4681m | -9.3m/s | -4.0°C | 8.6% | 0hPa | 2.5V | 08:04:00 | 00:00:00 | 00:00:00 | |
| HA6NAB-11 | 2026-08-31 01:57:29 | 48.31401 | 17.52344 | 69° | 35km/h | 4709m | -9.6m/s | -4.0°C | 7.9% | 0hPa | 2.5V | 00:00:00 | 00:00:00 | 00:00:00 | |
| HA6NAB-11 | 2026-08-31 01:57:24 | 48.31386 | 17.52278 | 71° | 40km/h | 4755m | -9.5m/s | -4.0°C | 7.0% | 0hPa | 2.5V | 00:00:00 | 00:00:00 | 00:00:00 | |
| OE3OSB-13 | 2026-08-31 01:57:22 | 48.31378 | 17.52237 | 71° | 35km/h | 4781m | -9.6m/s | -4.1°C | 7.1% | -1.0hPa | 2.5V | 00:00:00 | 00:00:00 | 00:00:00 | |
| OM5KV | 2026-08-31 01:57:21 | 48.31378 | 17.52237 | 72° | 37km/h | 4781m | -9.6m/s | -4.1°C | 7.1% | 0hPa | 2.5V | 08:04:00 | 00:00:00 | 00:00:00 | |
| HA6NAB-11 | 2026-08-31 01:57:19 | 48.31372 | 17.52210 | 71° | 38km/h | 4800m | -9.9m/s | -4.1°C | 6.8% | 0hPa | 2.5V | 00:00:00 | 00:00:00 | 00:00:00 | |
| ATIDSZ-14 | 2026-08-31 01:57:17 | 48.31366 | 17.52183 | 75° | 35km/h | 4819m | -10.0m/s | -4.1°C | 6.1% | 0hPa | 2.5V | 08:04:00 | 00:00:00 | 00:00:00 | |
| OM5KV | 2026-08-31 01:57:16 | 48.31363 | 17.52170 | 68° | 35km/h | 4828m | -9.1m/s | -4.1°C | 5.9% | 0hPa | 2.5V | 08:04:00 | 00:00:00 | 00:00:00 | |
| OM5KV | 2026-08-31 01:57:15 | 48.31360 | 17.52158 | 65° | 37km/h | 4837m | -9.7m/s | -4.0°C | 5.7% | 0hPa | 2.5V | 08:04:00 | 00:00:00 | 00:00:00 | |
| HA6NAB-11 | 2026-08-31 01:57:13 | 48.31353 | 17.52132 | 70° | 38km/h | 4855m | -10.8m/s | -4.0°C | 5.6% | 0hPa | 2.5V | 00:00:00 | 00:00:00 | 00:00:00 | |
| S52SK | 2026-08-31 01:57:12 | 48.31349 | 17.52119 | 73° | 37km/h | 4865m | -11.0m/s | -4.1°C | 5.7% | 0hPa | 2.5V | 00:00:00 | 00:00:00 | 00:00:00 | |
| OM5KV | 2026-08-31 01:57:11 | 48.31347 | 17.52106 | 74° | 35km/h | 4875m | -11.0m/s | -4.1°C | 5.7% | 0hPa | 2.5V | 08:04:00 | 00:00:00 | 00:00:00 | |
| OM5KV | 2026-08-31 01:57:09 | 48.31341 | 17.52082 | 66° | 33km/h | 4896m | -10.7m/s | -4.2°C | 5.5% | 0hPa | 2.5V | 08:04:00 | 00:00:00 | 00:00:00 | |
| S52SK | 2026-08-31 01:57:06 | 48.31329 | 17.52047 | 67° | 37km/h | 4925m | -10.7m/s | -4.2°C | 5.0% | 0hPa | 2.5V | 00:00:00 | 00:00:00 | 00:00:00 | |
| OM5KV | 2026-08-31 01:57:05 | 48.31325 | 17.52034 | 70° | 37km/h | 4935m | -10.7m/s | -4.2°C | 5.0% | 0hPa | 2.5V | 08:04:00 | 00:00:00 | 00:00:00 | |
| OM5KV | 2026-08-31 01:57:04 | 48.31322 | 17.52022 | 72° | 35km/h | 4944m | -10.6m/s | -4.3°C | 4.9% | 0hPa | 2.5V | 08:04:00 | 00:00:00 | 00:00:00 | |
| OE3OSB-13 | 2026-08-31 01:56:51 | 48.31278 | 17.51855 | 68° | 35km/h | 5078m | -10.6m/s | -4.8°C | 5.5% | -1.0hPa | 2.5V | 00:00:00 | 00:00:00 | 00:00:00 | |
| OM5KV | 2026-08-31 01:56:41 | 48.31252 | 17.51745 | 67° | 33km/h | 5163m | -10.1m/s | -5.3°C | 5.6% | 0hPa | 2.5V | 08:05:00 | 00:00:00 | 00:00:00 | |
| OM5KV | 2026-08-31 01:56:37 | 48.31239 | 17.51695 | 74° | 35km/h | 5200m | -10.1m/s | -5.4°C | 5.5% | 0hPa | 2.5V | 08:05:00 | 00:00:00 | 00:00:00 | |
| OM5KV | 2026-08-31 01:56:36 | 48.31236 | 17.51682 | 71° | 35km/h | 5210m | -9.6m/s | -5.5°C | 5.5% | 0hPa | 2.5V | 08:05:00 | 00:00:00 | 00:00:00 | |
| OM5KV | 2026-08-31 01:56:30 | 48.31218 | 17.51598 | 74° | 38km/h | 5266m | -10.3m/s | -5.7°C | 5.1% | 0hPa | 2.5V | 08:05:00 | 00:00:00 | 00:00:00 | |
| OM5KV | 2026-08-31 01:56:25 | 48.31201 | 17.51527 | 77° | 42km/h | 5313m | -10.5m/s | -5.9°C | 5.0% | 0hPa | 2.5V | 08:05:00 | 00:00:00 | 00:00:00 | |
| OE3OSB-13 | 2026-08-31 01:56:20 | 48.31186 | 17.51439 | 74° | 42km/h | 5369m | -9.4m/s | -6.2°C | 5.1% | -1.0hPa | 2.5V | 00:00:00 | 00:00:00 | 00:00:00 | |
| OE3JTB-15 | 2026-08-31 01:56:19 | 48.31184 | 17.51423 | 78° | 42km/h | 5378m | -9.7m/s | -6.2°C | 5.3% | 0hPa | 2.5V | 00:00:00 | 00:00:00 | 00:00:00 | |
| ATIDSZ-14 | 2026-08-31 01:56:16 | 48.31180 | 17.51392 | 82° | 40km/h | 5396m | -10.1m/s | -6.3°C | 5.2% | 0hPa | 2.4V | 08:05:00 | 00:00:00 | 00:00:00 | |
| OM5KV | 2026-08-31 01:56:14 | 48.31175 | 17.51363 | 76° | 40km/h | 5415m | -9.9m/s | -6.4°C | 5.2% | 0hPa | 2.4V | 08:05:00 | 00:00:00 | 00:00:00 | |
| OM5KV | 2026-08-31 01:56:08 | 48.31164 | 17.51269 | 80° | 40km/h | 5471m | -10.5m/s | -6.9°C | 5.3% | 0hPa | 2.4V | 08:05:00 | 00:00:00 | 00:00:00 | |
| HA6NAB-11 | 2026-08-31 01:56:03 | 48.31154 | 17.51190 | 83° | 44km/h | 5517m | -10.5m/s | -7.3°C | 5.2% | 0hPa | 2.4V | 00:00:00 | 00:00:00 | 00:00:00 | |
| OM5KV | 2026-08-31 01:56:02 | 48.31152 | 17.51173 | 85° | 44km/h | 5527m | -10.2m/s | -7.4°C | 5.2% | 0hPa | 2.4V | 08:05:00 | 00:00:00 | 00:00:00 | |
| OE3OSB-13 | 2026-08-31 01:55:49 | 48.31129 | 17.50957 | 74° | 42km/h | 5660m | -10.9m/s | -8.5°C | 5.6% | -1.0hPa | 2.4V | 00:00:00 | 00:00:00 | 00:00:00 | |
| HA6NAB-11 | 2026-08-31 01:55:47 | 48.31126 | 17.50941 | 78° | 44km/h | 5670m | -10.1m/s | -8.6°C | 5.6% | 0hPa | 2.4V | 00:00:00 | 00:00:00 | 00:00:00 | |
| OM5KV | 2026-08-31 01:55:45 | 48.31122 | 17.50910 | 82° | 42km/h | 5689m | -9.8m/s | -8.7°C | 5.6% | 0hPa | 2.4V | 08:05:00 | 00:00:00 | 00:00:00 | |
| OM5KV | 2026-08-31 01:55:44 | 48.31120 | 17.50894 | 82° | 40km/h | 5699m | -9.8m/s | -8.8°C | 5.7% | 0hPa | 2.4V | 08:05:00 | 00:00:00 | 00:00:00 | |
| HA6NAB-11 | 2026-08-31 01:55:41 | 48.31114 | 17.50849 | 76° | 44km/h | 5725m | -9.9m/s | -9.0°C | 5.6% | 0hPa | 2.4V | 00:00:00 | 00:00:00 | 00:00:00 | |
| OM5KV | 2026-08-31 01:55:38 | 48.31107 | 17.50801 | 79° | 40km/h | 5753m | -9.9m/s | -9.1°C | 5.6% | 0hPa | 2.4V | 08:05:00 | 00:00:00 | 00:00:00 | |
| ATIDSZ-14 | 2026-08-31 01:55:35 | 48.31098 | 17.50755 | 76° | 46km/h | 5781m | -10.4m/s | -9.3°C | 5.6% | 0hPa | 2.4V | 08:05:00 | 00:00:00 | 00:00:00 | |
| OM5KV | 2026-08-31 01:55:34 | 48.31095 | 17.50739 | 78° | 42km/h | 5790m | -10.3m/s | -9.4°C | 5.6% | 0hPa | 2.4V | 08:05:00 | 00:00:00 | 00:00:00 | |
| OM5KV | 2026-08-31 01:55:33 | 48.31093 | 17.50723 | 74° | 40km/h | 5800m | -9.9m/s | -9.4°C | 5.6% | 0hPa | 2.4V | 08:05:00 | 00:00:00 | 00:00:00 | |
| OM5KV | 2026-08-31 01:55:28 | 48.31075 | 17.50646 | 69° | 42km/h | 5846m | -10.2m/s | -9.7°C | 5.7% | 0hPa | 2.4V | 08:05:00 | 00:00:00 | 00:00:00 | |
| OM5KV | 2026-08-31 01:55:27 | 48.31071 | 17.50630 | 67° | 44km/h | 5855m | -10.2m/s | -9.8°C | 5.7% | 0hPa | 2.4V | 08:05:00 | 00:00:00 | 00:00:00 | |
| OM5KV | 2026-08-31 01:55:22 | 48.31050 | 17.50548 | 68° | 46km/h | 5903m | -10.9m/s | -10.0°C | 5.9% | 0hPa | 2.4V | 08:05:00 | 00:00:00 | 00:00:00 | |
| OM5KV | 2026-08-31 01:55:21 | 48.31045 | 17.50532 | 66° | 46km/h | 5913m | -10.5m/s | -10.0°C | 5.9% | 0hPa | 2.4V | 08:05:00 | 00:00:00 | 00:00:00 | |
| OE3JTB-15 | 2026-08-31 01:55:18 | 48.31026 | 17.50464 | 71° | 53km/h | 5952m | -10.5m/s | -10.2°C | 6.8% | 0hPa | 2.4V | 00:00:00 | 02:36:25 | 00:00:00 | |
| OM5KV | 2026-08-31 01:55:16 | 48.31022 | 17.50447 | 72° | 49km/h | 5962m | -10.7m/s | -10.3°C | 6.6% | 0hPa | 2.4V | 08:05:00 | 00:00:00 | 00:00:00 | |
| ATIDSZ-14 | 2026-08-31 01:55:14 | 48.31013 | 17.50412 | 69° | 47km/h | 5981m | -11.0m/s | -10.4°C | 7.1% | 0hPa | 2.4V | 08:06:00 | 00:00:00 | 00:00:00 | |
| OM5KV | 2026-08-31 01:55:10 | 48.30995 | 17.50342 | 72° | 53km/h | 6021m | -10.6m/s | -10.7°C | 8.1% | 0hPa | 2.4V | 08:06:00 | 00:00:00 | 00:00:00 | |
| OM5KV | 2026-08-31 01:55:05 | 48.30975 | 17.50250 | 71° | 53km/h | 6071m | -9.6m/s | -11.1°C | 8.2% | 0hPa | 2.4V | 08:06:00 | 00:00:00 | 00:00:00 | |
| OM5KV | 2026-08-31 01:55:04 | 48.30970 | 17.50231 | 74° | 55km/h | 6080m | -9.5m/s | -11.1°C | 8.2% | 0hPa | 2.4V | 08:06:00 | 00:00:00 | 00:00:00 | |
| OE3OSB-13 | 2026-08-31 01:54:47 | 48.30906 | 17.49855 | 75° | 51km/h | 6254m | -9.5m/s | -12.2°C | 8.8% | -1.0hPa | 2.4V | 00:00:00 | 00:00:00 | 00:00:00 | |
| OM5KV | 2026-08-31 01:54:43 | 48.30899 | 17.49816 | 79° | 57km/h | 6272m | -10.0m/s | -12.4°C | 9.1% | 0hPa | 2.4V | 08:06:00 | 00:00:00 | 00:00:00 | |
| OM5KV | 2026-08-31 01:54:41 | 48.30894 | 17.49773 | 81° | 55km/h | 6291m | -10.2m/s | -12.5°C | 9.5% | 0hPa | 2.4V | 08:06:00 | 00:00:00 | 00:00:00 | |
| HA6NAB-11 | 2026-08-31 01:54:37 | 48.30882 | 17.49696 | 76° | 53km/h | 6329m | -9.8m/s | -12.9°C | 9.8% | 0hPa | 2.4V | 00:00:00 | 00:00:00 | 00:00:00 | |
| OM5KV | 2026-08-31 01:54:35 | 48.30875 | 17.49656 | 78° | 57km/h | 6347m | -10.5m/s | -13.1°C | 9.9% | 0hPa | 2.4V | 08:06:00 | 00:00:00 | 00:00:00 | |
| ATIDSZ-14 | 2026-08-31 01:54:33 | 48.30870 | 17.49615 | 80° | 55km/h | 6366m | -10.0m/s | -13.2°C | 10.1% | 0hPa | 2.4V | 08:06:00 | 00:00:00 | 00:00:00 | |
| OM5KV | 2026-08-31 01:54:31 | 48.30864 | 17.49576 | 76° | 51km/h | 6384m | -10.0m/s | -13.4°C | 10.3% | 0hPa | 2.4V | 08:06:00 | 00:00:00 | 00:00:00 | |
| OM5KV | 2026-08-31 01:54:30 | 48.30861 | 17.49557 | 75° | 53km/h | 6393m | -10.4m/s | -13.5°C | 10.3% | 0hPa | 2.4V | 08:06:00 | 00:00:00 | 00:00:00 | |
| OM5KV | 2026-08-31 01:54:24 | 48.30840 | 17.49439 | 79° | 53km/h | 6452m | -10.7m/s | -13.9°C | 10.2% | 0hPa | 2.4V | 08:07:00 | 00:00:00 | 00:00:00 | |
| OE3JTB-15 | 2026-08-31 01:54:20 | 48.30822 | 17.49343 | 75° | 55km/h | 6500m | -10.5m/s | -14.2°C | 11.0% | 0hPa | 2.4V | 00:00:00 | 00:00:00 | 00:00:00 | |
| OM5KV | 2026-08-31 01:54:18 | 48.30818 | 17.49323 | 77° | 55km/h | 6510m | -10.4m/s | -14.3°C | 10.5% | 0hPa | 2.4V | 08:07:00 | 00:00:00 | 00:00:00 | |
| OE3OSB-13 | 2026-08-31 01:54:16 | 48.30804 | 17.49244 | 70° | 49km/h | 6550m | -11.1m/s | -14.6°C | 10.5% | -1.0hPa | 2.4V | 00:00:00 | 00:00:00 | 00:00:00 | |
| ATIDSZ-14 | 2026-08-31 01:54:13 | 48.30800 | 17.49225 | 70° | 51km/h | 6561m | -11.4m/s | -14.7°C | 10.6% | 0hPa | 2.4V | 08:07:00 | 00:00:00 | 00:00:00 | |
| OM5KV | 2026-08-31 01:54:08 | 48.30778 | 17.49127 | 76° | 55km/h | 6610m | -11.0m/s | -15.1°C | 11.0% | 0hPa | 2.4V | 08:07:00 | 00:00:00 | 00:00:00 | |
| OM5KV | 2026-08-31 01:54:07 | 48.30774 | 17.49107 | 77° | 55km/h | 6620m | -10.4m/s | -15.2°C | 11.0% | 0hPa | 2.4V | 08:07:00 | 00:00:00 | 00:00:00 | |
| PG1ADW-2 | 2026-08-31 01:54:06 | 48.30767 | 17.49069 | 73° | 55km/h | 6639m | -10.3m/s | -15.2°C | 11.4% | 0hPa | 2.4V | 00:00:00 | 02:35:13 | 00:00:00 | |
| OM5KV | 2026-08-31 01:54:02 | 48.30754 | 17.49011 | 71° | 57km/h | 6667m | -10.6m/s | -15.5°C | 10.8% | 0hPa | 2.4V | 08:07:00 | 00:00:00 | 00:00:00 | |
| OM5KV | 2026-08-31 01:54:01 | 48.30750 | 17.48990 | 73° | 57km/h | 6676m | -10.4m/s | -15.6°C | 11.0% | 0hPa | 2.4V | 08:07:00 | 00:00:00 | 00:00:00 | |
| OM5KV | 2026-08-31 01:53:57 | 48.30734 | 17.48907 | 76° | 55km/h | 6715m | -11.2m/s | -15.9°C | 11.6% | 0hPa | 2.4V | 08:07:00 | 00:00:00 | 00:00:00 | |
| OM5KV | 2026-08-31 01:53:55 | 48.30728 | 17.48867 | 75° | 53km/h | 6736m | -11.7m/s | -16.1°C | 11.8% | 0hPa | 2.4V | 08:07:00 | 00:00:00 | 00:00:00 | |
| ATIDSZ-14 | 2026-08-31 01:53:53 | 48.30720 | 17.48829 | 71° | 55km/h | 6757m | -11.0m/s | -16.3°C | 12.1% | 0hPa | 2.4V | 08:07:00 | 00:00:00 | 00:00:00 | |
| OE5DRO-10 | 2026-08-31 01:53:52 | 48.30711 | 17.48789 | 72° | 57km/h | 6778m | -11.8m/s | -16.4°C | 13.0% | 0hPa | 2.4V | 00:00:00 | 00:00:00 | 00:00:00 | |
| OE3JTB-15 | 2026-08-31 01:53:51 | 48.30707 | 17.48768 | 74° | 57km/h | 6788m | -10.7m/s | -16.5°C | 13.1% | 0hPa | 2.4V | 00:00:00 | 02:34:58 | 00:00:00 | |
| OM5KV | 2026-08-31 01:53:49 | 48.30703 | 17.48747 | 76° | 58km/h | 6799m | -10.7m/s | -16.6°C | 12.5% | 0hPa | 2.4V | 08:07:00 | 00:00:00 | 00:00:00 | |
| PG1ADW-2 | 2026-08-31 01:53:46 | 48.30689 | 17.48661 | 79° | 57km/h | 6838m | -10.7m/s | -16.9°C | 13.6% | 0hPa | 2.4V | 00:00:00 | 00:00:00 | 00:00:00 | |
| OM5KV | 2026-08-31 01:53:45 | 48.30689 | 17.48661 | 79° | 57km/h | 6838m | -10.7m/s | -16.9°C | 12.9% | 0hPa | 2.4V | 08:07:00 | 00:00:00 | 00:00:00 | |
| S52SK | 2026-08-31 01:53:44 | 48.30686 | 17.48640 | 78° | 55km/h | 6847m | -11.4m/s | -17.0°C | 13.0% | 0hPa | 2.4V | 00:00:00 | 00:00:00 | 00:00:00 | |
| OM5KV | 2026-08-31 01:53:43 | 48.30684 | 17.48619 | 77° | 55km/h | 6857m | -11.2m/s | -17.1°C | 13.1% | 0hPa | 2.4V | 08:07:00 | 00:00:00 | 00:00:00 | |
| S52SK | 2026-08-31 01:53:39 | 48.30669 | 17.48539 | 73° | 55km/h | 6899m | -11.8m/s | -17.5°C | 13.5% | 0hPa | 2.4V | 00:00:00 | 00:00:00 | 00:00:00 | |
| OM5KV | 2026-08-31 01:53:37 | 48.30660 | 17.48498 | 73° | 58km/h | 6920m | -11.9m/s | -17.6°C | 13.7% | 0hPa | 2.4V | 08:07:00 | 00:00:00 | 00:00:00 | |
| HA6NAB-11 | 2026-08-31 01:53:35 | 48.30652 | 17.48456 | 76° | 58km/h | 6941m | -11.1m/s | -17.8°C | 13.8% | 0hPa | 2.4V | 08:07:00 | 00:00:00 | 00:00:00 | |
| OE5DRO-10 | 2026-08-31 01:53:33 | 48.30642 | 17.48392 | 79° | 55km/h | 6970m | -11.2m/s | -18.0°C | 14.9% | 0hPa | 2.4V | 08:07:00 | 00:00:00 | 00:00:00 | |
| ATIDSZ-14 | 2026-08-31 01:53:32 | 48.30642 | 17.48392 | 79° | 57km/h | 6970m | -11.2m/s | -18.1°C | 14.1% | 0hPa | 2.4V | 08:08:00 | 00:00:00 | 00:00:00 | |
| OM5KV | 2026-08-31 01:53:30 | 48.30636 | 17.48350 | 77° | 55km/h | 6990m | -10.9m/s | -18.3°C | 14.2% | 0hPa | 2.4V | 08:08:00 | 00:00:00 | 00:00:00 | |
| HA6NAB-11 | 2026-08-31 01:53:29 | 48.30634 | 17.48330 | 77° | 53km/h | 7000m | -11.4m/s | -18.4°C | 14.3% | 0hPa | 2.4V | 00:00:00 | 00:00:00 | 00:00:00 | |
| PG1ADW-2 | 2026-08-31 01:53:26 | 48.30619 | 17.48249 | 75° | 57km/h | 7041m | -10.5m/s | -18.7°C | 15.3% | 0hPa | 2.4V | 00:00:00 | 00:00:00 | 00:00:00 | |
| HA6NAB-11 | 2026-08-31 01:53:23 | 48.30612 | 17.48207 | 78° | 58km/h | 7059m | -11.1m/s | -18.9°C | 14.4% | 0hPa | 2.4V | 00:00:00 | 00:00:00 | 00:00:00 | |
| OE3JTB-15 | 2026-08-31 01:53:22 | 48.30606 | 17.48164 | 80° | 55km/h | 7081m | -11.6m/s | -19.0°C | 14.9% | 0hPa | 2.4V | 08:07:00 | 00:00:00 | 00:00:00 | |
| OM5KV | 2026-08-31 01:53:21 | 48.30606 | 17.48164 | 81° | 58km/h | 7081m | -11.6m/s | -19.1°C | 14.1% | 0hPa | 2.2V | 08:08:00 | 00:00:00 | 00:00:00 | |
| OM5KV | 2026-08-31 01:53:19 | 48.30602 | 17.48121 | 81° | 55km/h | 7099m | -11.2m/s | -19.2°C | 13.6% | 0hPa | 2.2V | 08:08:00 | 00:00:00 | 00:00:00 | |
| HA6NAB-11 | 2026-08-31 01:53:17 | 48.30597 | 17.48080 | 78° | 53km/h | 7119m | -11.9m/s | -19.3°C | 13.9% | 0hPa | 2.2V | 00:00:00 | 00:00:00 | 00:00:00 | |
| OE5DRO-10 | 2026-08-31 01:53:14 | 48.30586 | 17.48000 | 78° | 55km/h | 7163m | -11.5m/s | -19.5°C | 15.7% | 0hPa | 2.2V | 00:00:00 | 00:00:00 | 00:00:00 | |
| OM5KV | 2026-08-31 01:53:13 | 48.30585 | 17.48000 | 79° | 57km/h | 7163m | -11.5m/s | -19.5°C | 14.8% | 0hPa | 2.2V | 08:08:00 | 00:00:00 | 00:00:00 | |
| ATIDSZ-14 | 2026-08-31 01:53:11 | 48.30580 | 17.47957 | 81° | 58km/h | 7183m | -12.0m/s | -19.7°C | 15.4% | 0hPa | 2.2V | 08:08:00 | 00:00:00 | 00:00:00 | |
| OM5KV | 2026-08-31 01:53:07 | 48.30573 | 17.47872 | 84° | 53km/h | 7224m | -11.6m/s | -19.9°C | 16.6% | 0hPa | 2.2V | 08:08:00 | 00:00:00 | 00:00:00 | |
| PG1ADW-2 | 2026-08-31 01:53:06 | 48.30569 | 17.47831 | 82° | 55km/h | 7245m | -12.0m/s | -20.0°C | 18.2% | 0hPa | 2.2V | 00:00:00 | 00:00:00 | 00:00:00 | |
| HA6NAB-11 | 2026-08-31 01:53:05 | 48.30569 | 17.47831 | 83° | 51km/h | 7245m | -12.0m/s | -20.0°C | 17.2% | 0hPa | 2.2V | 00:00:00 | 00:00:00 | 00:00:00 | |
| OM5KV | 2026-08-31 01:53:02 | 48.30563 | 17.47772 | 80° | 51km/h | 7277m | -12.0m/s | -20.2°C | 18.6% | 0hPa | 2.2V | 08:08:00 | 00:00:00 | 00:00:00 | |
| OM5KV | 2026-08-31 01:52:59 | 48.30556 | 17.47713 | 80° | 53km/h | 7309m | -10.5m/s | -20.4°C | 20.3% | 0hPa | 2.2V | 08:08:00 | 00:00:00 | 00:00:00 | |
| OE5DRO-10 | 2026-08-31 01:52:55 | 48.30546 | 17.47608 | 85° | 57km/h | 7360m | -11.5m/s | -20.7°C | 24.5% | 0hPa | 2.2V | 00:00:00 | 00:00:00 | 00:00:00 | |
| OE3JTB-15 | 2026-08-31 01:52:53 | 48.30543 | 17.47565 | 85° | 58km/h | 7380m | -11.5m/s | -20.8°C | 26.7% | 0hPa | 2.2V | 00:00:00 | 00:00:00 | 00:00:00 | |
| OM5KV | 2026-08-31 01:52:52 | 48.30543 | 17.47565 | 85° | 55km/h | 7380m | -11.5m/s | -20.9°C | 25.4% | 0hPa | 2.2V | 08:08:00 | 00:00:00 | 00:00:00 | |
| ATIDSZ-14 | 2026-08-31 01:52:51 | 48.30542 | 17.47544 | 85° | 53km/h | 7390m | -11.8m/s | -21.0°C | 26.8% | 0hPa | 2.2V | 08:08:00 | 00:00:00 | 00:00:00 | |
| PG1ADW-2 | 2026-08-31 01:52:46 | 48.30530 | 17.47421 | 79° | 60km/h | 7456m | -11.6m/s | -21.3°C | 43.6% | 0hPa | 2.2V | 00:00:00 | 02:33:53 | 00:00:00 | |
| OM5KV | 2026-08-31 01:52:45 | 48.30530 | 17.47421 | 80° | 57km/h | 7456m | -11.7m/s | -21.4°C | 41.8% | 0hPa | 2.2V | 08:08:00 | 00:00:00 | 00:00:00 | |
| OE3OSB-13 | 2026-08-31 01:52:43 | 48.30521 | 17.47334 | 83° | 58km/h | 7496m | -11.8m/s | -21.8°C | 0% | -1.0hPa | 2.2V | 00:00:00 | 00:00:00 | 00:00:00 | |
| OM5KV | 2026-08-31 01:52:41 | 48.30521 | 17.47334 | 85° | 60km/h | 7496m | -11.8m/s | -21.8°C | 43.2% | 0hPa | 2.2V | 08:09:00 | 00:00:00 | 00:00:00 | |
| OM5KV | 2026-08-31 01:52:40 | 48.30519 | 17.47312 | 86° | 57km/h | 7506m | -11.0m/s | -21.9°C | 43.2% | 0hPa | 2.2V | 08:09:00 | 00:00:00 | 00:00:00 | |
| OM5KV | 2026-08-31 01:52:36 | 48.30512 | 17.47226 | 82° | 57km/h | 7547m | -11.1m/s | -22.3°C | 41.9% | 0hPa | 2.2V | 08:09:00 | 00:00:00 | 00:00:00 | |
| OM5KV | 2026-08-31 01:52:34 | 48.30508 | 17.47182 | 84° | 62km/h | 7567m | -10.8m/s | -22.4°C | 40.3% | 0hPa | 2.2V | 08:09:00 | 00:00:00 | 00:00:00 | |
| S52SK | 2026-08-31 01:52:33 | 48.30506 | 17.47159 | 85° | 62km/h | 7576m | -11.2m/s | -22.4°C | 39.5% | 0hPa | 2.2V | 00:00:00 | 00:00:00 | 00:00:00 | |
| ATIDSZ-14 | 2026-08-31 01:52:31 | 48.30503 | 17.47111 | 88° | 64km/h | 7597m | -11.5m/s | -22.6°C | 39.2% | 0hPa | 2.2V | 08:09:00 | 00:00:00 | 00:00:00 | |
| HA6NAB-11 | 2026-08-31 01:52:30 | 48.30502 | 17.47087 | 87° | 64km/h | 7608m | -12.3m/s | -22.7°C | 39.2% | 0hPa | 2.2V | 00:00:00 | 00:00:00 | 00:00:00 | |
| OM5KV | 2026-08-31 01:52:28 | 48.30501 | 17.47039 | 89° | 62km/h | 7629m | -11.7m/s | -22.8°C | 39.6% | 0hPa | 2.2V | 08:09:00 | 00:00:00 | 00:00:00 | |
| S52SK | 2026-08-31 01:52:27 | 48.30500 | 17.47015 | 88° | 60km/h | 7640m | -12.0m/s | -22.9°C | 39.9% | 0hPa | 2.2V | 00:00:00 | 00:00:00 | 00:00:00 | |
| PG1ADW-2 | 2026-08-31 01:52:26 | 48.30499 | 17.46968 | 86° | 60km/h | 7661m | -12.1m/s | -23.0°C | 42.3% | 0hPa | 2.2V | 00:00:00 | 00:00:00 | 00:00:00 | |
| OE3JTB-15 | 2026-08-31 01:52:24 | 48.30497 | 17.46923 | 85° | 60km/h | 7683m | -12.3m/s | -23.1°C | 42.7% | 0hPa | 2.2V | 00:00:00 | 02:33:31 | 00:00:00 | |
| OM5KV | 2026-08-31 01:52:22 | 48.30496 | 17.46900 | 84° | 58km/h | 7694m | -12.5m/s | -23.2°C | 41.1% | 0hPa | 2.2V | 08:09:00 | 00:00:00 | 00:00:00 | |
| HA6NAB-11 | 2026-08-31 01:52:19 | 48.30489 | 17.46810 | 84° | 62km/h | 7737m | -11.2m/s | -23.6°C | 42.5% | 0hPa | 2.2V | 00:00:00 | 00:00:00 | 00:00:00 | |
| OM5KV | 2026-08-31 01:52:18 | 48.30489 | 17.46810 | 84° | 62km/h | 7737m | -11.2m/s | -23.6°C | 42.5% | 0hPa | 2.2V | 08:09:00 | 00:00:00 | 00:00:00 | |
| OE5DRO-10 | 2026-08-31 01:52:17 | 48.30486 | 17.46764 | 84° | 58km/h | 7757m | -11.4m/s | -23.8°C | 45.2% | 0hPa | 2.2V | 00:00:00 | 00:00:00 | 00:00:00 | |
| OM5KV | 2026-08-31 01:52:16 | 48.30486 | 17.46764 | 85° | 62km/h | 7757m | -11.4m/s | -23.8°C | 43.2% | 0hPa | 2.2V | 08:09:00 | 00:00:00 | 00:00:00 | |
| OM5KV | 2026-08-31 01:52:12 | 48.30480 | 17.46670 | 88° | 62km/h | 7801m | -12.0m/s | -24.2°C | 44.1% | 0hPa | 2.2V | 08:09:00 | 00:00:00 | 00:00:00 | |
| ATIDSZ-14 | 2026-08-31 01:52:11 | 48.30479 | 17.46646 | 88° | 60km/h | 7812m | -12.1m/s | -24.2°C | 44.3% | 0hPa | 2.2V | 08:09:00 | 00:00:00 | 00:00:00 | |
| OM5KV | 2026-08-31 01:52:10 | 48.30478 | 17.46623 | 89° | 60km/h | 7824m | -11.4m/s | -24.3°C | 45.3% | 0hPa | 2.2V | 08:09:00 | 00:00:00 | 00:00:00 | |
| PG1ADW-2 | 2026-08-31 01:52:06 | 48.30475 | 17.46511 | 86° | 58km/h | 7875m | -11.6m/s | -24.7°C | 50.8% | 0hPa | 2.2V | 00:00:00 | 00:00:00 | 00:00:00 | |
| OM5KV | 2026-08-31 01:52:05 | 48.30475 | 17.46511 | 87° | 57km/h | 7875m | -11.6m/s | -24.8°C | 48.6% | 0hPa | 2.2V | 08:09:00 | 00:00:00 | 00:00:00 | |
| OM5KV | 2026-08-31 01:52:01 | 48.30470 | 17.46425 | 83° | 57km/h | 7918m | -11.9m/s | -25.2°C | 49.4% | 0hPa | 2.2V | 08:09:00 | 00:00:00 | 00:00:00 | |
| HA6NAB-11 | 2026-08-31 01:52:00 | 48.30468 | 17.46404 | 82° | 57km/h | 7929m | -12.3m/s | -25.3°C | 49.4% | 0hPa | 2.2V | 00:00:00 | 00:00:00 | 00:00:00 | |
| OM5KV | 2026-08-31 01:51:59 | 48.30466 | 17.46382 | 81° | 57km/h | 7940m | -12.4m/s | -25.4°C | 49.6% | 0hPa | 2.2V | 08:09:00 | 00:00:00 | 00:00:00 | |
| OE5DRO-10 | 2026-08-31 01:51:58 | 48.30462 | 17.46339 | 82° | 58km/h | 7962m | -10.6m/s | -25.6°C | 52.1% | 0hPa | 2.2V | 00:00:00 | 00:00:00 | 00:00:00 | |
| OE3JTB-15 | 2026-08-31 01:51:55 | 48.30456 | 17.46273 | 82° | 57km/h | 7993m | -12.0m/s | -25.9°C | 52.5% | 0hPa | 2.2V | 00:00:00 | 00:00:00 | 00:00:00 | |
| OM5KV | 2026-08-31 01:51:54 | 48.30455 | 17.46273 | 83° | 60km/h | 7993m | -12.0m/s | -25.9°C | 50.2% | 0hPa | 2.4V | 08:09:00 | 00:00:00 | 00:00:00 | |
| ATIDSZ-14 | 2026-08-31 01:51:50 | 48.30447 | 17.46182 | 84° | 60km/h | 8037m | -12.3m/s | -26.3°C | 50.2% | 0hPa | 2.4V | 08:10:00 | 00:00:00 | 00:00:00 | |
| PG1ADW-2 | 2026-08-31 01:51:46 | 48.30439 | 17.46072 | 84° | 57km/h | 8090m | -11.4m/s | -26.8°C | 52.0% | 0hPa | 2.4V | 00:00:00 | 00:00:00 | 00:00:00 | |
| OE3OSB-13 | 2026-08-31 01:51:40 | 48.30427 | 17.45944 | 77° | 55km/h | 8153m | -11.9m/s | -27.4°C | 50.0% | -1.0hPa | 2.4V | 00:00:00 | 00:00:00 | 00:00:00 | |
| OE5DRO-10 | 2026-08-31 01:51:39 | 48.30424 | 17.45923 | 79° | 58km/h | 8164m | -12.3m/s | -27.5°C | 52.4% | 0hPa | 2.4V | 00:00:00 | 00:00:00 | 00:00:00 | |
| OM5KV | 2026-08-31 01:51:37 | 48.30421 | 17.45902 | 81° | 58km/h | 8175m | -10.8m/s | -27.6°C | 49.8% | 0hPa | 2.2V | 08:10:00 | 00:00:00 | 00:00:00 | |
| OM5KV | 2026-08-31 01:51:31 | 48.30411 | 17.45766 | 87° | 58km/h | 8238m | -12.0m/s | -28.2°C | 48.4% | 0hPa | 2.2V | 08:10:00 | 00:00:00 | 00:00:00 | |
| PG1ADW-2 | 2026-08-31 01:51:26 | 48.30406 | 17.45634 | 85° | 60km/h | 8304m | -12.6m/s | -28.7°C | 49.5% | 0hPa | 2.2V | 08:09:00 | 02:32:33 | 00:00:00 | |
| OM5KV | 2026-08-31 01:51:25 | 48.30406 | 17.45634 | 86° | 57km/h | 8304m | -12.7m/s | -28.7°C | 47.0% | 0hPa | 2.2V | 08:10:00 | 00:00:00 | 00:00:00 | |
| OE3JTB-15 | 2026-08-31 01:51:23 | 48.30402 | 17.45569 | 85° | 62km/h | 8337m | -11.4m/s | -28.9°C | 48.9% | 0hPa | 2.2V | 00:00:00 | 00:00:00 | 00:00:00 | |
| S52SK | 2026-08-31 01:51:21 | 48.30401 | 17.45547 | 85° | 58km/h | 8348m | -11.4m/s | -29.0°C | 46.2% | 0hPa | 2.2V | 00:00:00 | 00:00:00 | 00:00:00 | |
| OE5DRO-10 | 2026-08-31 01:51:20 | 48.30399 | 17.45501 | 88° | 62km/h | 8369m | -11.4m/s | -29.1°C | 48.0% | 0hPa | 2.2V | 00:00:00 | 00:00:00 | 00:00:00 | |
| OM5KV | 2026-08-31 01:51:19 | 48.30399 | 17.45501 | 89° | 62km/h | 8369m | -11.5m/s | -29.2°C | 45.5% | 0hPa | 2.2V | 08:10:00 | 00:00:00 | 00:00:00 | |
| S52SK | 2026-08-31 01:51:15 | 48.30397 | 17.45408 | 91° | 62km/h | 8412m | -13.2m/s | -29.5°C | 45.0% | 0hPa | 2.2V | 00:00:00 | 00:00:00 | 00:00:00 | |
| HA6NAB-11 | 2026-08-31 01:51:14 | 48.30398 | 17.45384 | 91° | 58km/h | 8423m | -13.1m/s | -29.7°C | 45.0% | 0hPa | 2.2V | 08:10:00 | 00:00:00 | 00:00:00 | |
| OM5KV | 2026-08-31 01:51:09 | 48.30395 | 17.45248 | 89° | 64km/h | 8489m | -12.1m/s | -30.2°C | 43.0% | 0hPa | 2.2V | 08:10:00 | 00:00:00 | 00:00:00 | |
| HA6NAB-11 | 2026-08-31 01:51:08 | 48.30395 | 17.45248 | 89° | 64km/h | 8489m | -12.1m/s | -30.2°C | 43.0% | 0hPa | 2.2V | 08:10:00 | 00:00:00 | 00:00:00 | |
| OM5KV | 2026-08-31 01:51:07 | 48.30394 | 17.45224 | 91° | 66km/h | 8500m | -11.5m/s | -30.3°C | 42.6% | 0hPa | 2.2V | 08:10:00 | 00:00:00 | 00:00:00 | |
| PG1ADW-2 | 2026-08-31 01:51:06 | 48.30394 | 17.45175 | 91° | 66km/h | 8523m | -12.4m/s | -30.5°C | 43.9% | 0hPa | 2.2V | 00:00:00 | 00:00:00 | 00:00:00 | |
| OE5DRO-10 | 2026-08-31 01:51:01 | 48.30395 | 17.45047 | 93° | 66km/h | 8579m | -12.0m/s | -30.8°C | 40.3% | 0hPa | 2.2V | 00:00:00 | 00:00:00 | 00:00:00 | |
| HA6NAB-11 | 2026-08-31 01:50:57 | 48.30398 | 17.44970 | 93° | 64km/h | 8611m | -12.0m/s | -31.0°C | 34.3% | 0hPa | 2.2V | 00:00:00 | 00:00:00 | 00:00:00 | |
| OM5KV | 2026-08-31 01:50:56 | 48.30399 | 17.44945 | 93° | 64km/h | 8622m | -12.3m/s | -31.1°C | 33.7% | 0hPa | 2.2V | 08:11:00 | 00:00:00 | 00:00:00 | |
| OM5KV | 2026-08-31 01:50:55 | 48.30399 | 17.44921 | 92° | 64km/h | 8633m | -12.7m/s | -31.1°C | 33.1% | 0hPa | 2.2V | 08:11:00 | 00:00:00 | 00:00:00 | |
| OM5KV | 2026-08-31 01:50:51 | 48.30401 | 17.44822 | 91° | 64km/h | 8680m | -11.6m/s | -31.4°C | 30.3% | 0hPa | 2.2V | 08:11:00 | 00:00:00 | 00:00:00 | |
| ATIDSZ-14 | 2026-08-31 01:50:49 | 48.30402 | 17.44772 | 90° | 66km/h | 8701m | -11.8m/s | -31.5°C | 27.4% | 0hPa | 2.2V | 08:11:00 | 00:00:00 | 00:00:00 | |
| OM5KV | 2026-08-31 01:50:44 | 48.30402 | 17.44646 | 89° | 66km/h | 8755m | -13.2m/s | -31.5°C | 24.2% | 0hPa | 2.2V | 08:11:00 | 00:00:00 | 00:00:00 | |
| OM5KV | 2026-08-31 01:50:39 | 48.30401 | 17.44520 | 90° | 69km/h | 8811m | -12.2m/s | -31.9°C | 24.5% | 0hPa | 2.2V | 08:11:00 | 00:00:00 | 00:00:00 | |
| OE3OSB-13 | 2026-08-31 01:50:38 | 48.30401 | 17.44468 | 88° | 69km/h | 8833m | -12.8m/s | -32.1°C | 24.5% | -1.0hPa | 2.2V | 00:00:00 | 00:00:00 | 00:00:00 | |
| OM5KV | 2026-08-31 01:50:33 | 48.30400 | 17.44364 | 91° | 69km/h | 8878m | -12.5m/s | -32.5°C | 25.0% | 0hPa | 2.2V | 08:11:00 | 00:00:00 | 00:00:00 | |
| ATIDSZ-14 | 2026-08-31 01:50:28 | 48.30400 | 17.44234 | 93° | 68km/h | 8935m | -12.7m/s | -33.0°C | 25.7% | 0hPa | 2.2V | 08:11:00 | 00:00:00 | 00:00:00 | |
| PG1ADW-2 | 2026-08-31 01:50:26 | 48.30402 | 17.44158 | 93° | 66km/h | 8968m | -13.1m/s | -33.3°C | 27.9% | 0hPa | 2.2V | 00:00:00 | 00:00:00 | 00:00:00 | |
| OE3JTB-15 | 2026-08-31 01:50:25 | 48.30402 | 17.44133 | 92° | 68km/h | 8980m | -13.1m/s | -33.4°C | 27.9% | 0hPa | 2.2V | 00:00:00 | 00:00:00 | 00:00:00 | |
| OE5DRO-10 | 2026-08-31 01:50:23 | 48.30403 | 17.44083 | 92° | 66km/h | 9004m | -12.9m/s | -33.6°C | 27.9% | 0hPa | 2.4V | 00:00:00 | 00:00:00 | 00:00:00 | |
| OM5KV | 2026-08-31 01:50:17 | 48.30406 | 17.43961 | 90° | 64km/h | 9062m | -11.9m/s | -34.2°C | 25.7% | 0hPa | 2.4V | 08:11:00 | 00:00:00 | 00:00:00 | |
| S52SK | 2026-08-31 01:50:14 | 48.30406 | 17.43886 | 91° | 68km/h | 9095m | -12.1m/s | -34.5°C | 25.3% | 0hPa | 2.4V | 08:11:00 | 00:00:00 | 00:00:00 | |
| OM5KV | 2026-08-31 01:50:13 | 48.30406 | 17.43861 | 92° | 69km/h | 9106m | -12.3m/s | -34.6°C | 25.1% | 0hPa | 2.4V | 08:11:00 | 00:00:00 | 00:00:00 | |
| OM5KV | 2026-08-31 01:50:11 | 48.30407 | 17.43809 | 94° | 69km/h | 9128m | -12.6m/s | -34.8°C | 24.6% | 0hPa | 2.4V | 08:11:00 | 00:00:00 | 00:00:00 | |
| ATIDSZ-14 | 2026-08-31 01:50:08 | 48.30412 | 17.43731 | 96° | 66km/h | 9162m | -12.8m/s | -35.1°C | 23.2% | 0hPa | 2.4V | 08:11:00 | 00:00:00 | 00:00:00 | |
| OM5KV | 2026-08-31 01:50:07 | 48.30413 | 17.43706 | 96° | 66km/h | 9174m | -12.4m/s | -35.1°C | 22.8% | 0hPa | 2.4V | 08:11:00 | 00:00:00 | 00:00:00 | |
| PG1ADW-2 | 2026-08-31 01:50:06 | 48.30416 | 17.43656 | 95° | 75km/h | 9196m | -12.3m/s | -35.2°C | 24.7% | 0hPa | 2.4V | 00:00:00 | 02:31:13 | 00:00:00 | |
| OE5DRO-10 | 2026-08-31 01:50:04 | 48.30419 | 17.43605 | 96° | 75km/h | 9219m | -11.6m/s | -35.4°C | 25.0% | 0hPa | 2.4V | 00:00:00 | 00:00:00 | 00:00:00 | |
| S52SK | 2026-08-31 01:50:03 | 48.30419 | 17.43605 | 96° | 69km/h | 9219m | -11.6m/s | -35.4°C | 22.7% | 0hPa | 2.4V | 00:00:00 | 00:00:00 | 00:00:00 | |
| OM5KV | 2026-08-31 01:50:02 | 48.30421 | 17.43579 | 98° | 71km/h | 9229m | -11.9m/s | -35.5°C | 23.0% | 0hPa | 2.4V | 08:11:00 | 00:00:00 | 00:00:00 | |
| OM5KV | 2026-08-31 01:50:00 | 48.30427 | 17.43525 | 101° | 73km/h | 9251m | -12.6m/s | -35.6°C | 22.5% | 0hPa | 2.4V | 08:11:00 | 00:00:00 | 00:00:00 | |
| OE3JTB-15 | 2026-08-31 01:49:56 | 48.30443 | 17.43390 | 99° | 84km/h | 9306m | -11.8m/s | -35.9°C | 23.9% | 0hPa | 2.4V | 00:00:00 | 00:00:00 | 00:00:00 | |
| OM5KV | 2026-08-31 01:49:55 | 48.30443 | 17.43390 | 100° | 73km/h | 9306m | -11.8m/s | -36.0°C | 21.7% | 0hPa | 2.4V | 08:11:00 | 00:00:00 | 00:00:00 | |
| OM5KV | 2026-08-31 01:49:50 | 48.30459 | 17.43246 | 102° | 80km/h | 9361m | -12.4m/s | -36.4°C | 21.8% | 0hPa | 2.4V | 08:11:00 | 00:00:00 | 00:00:00 | |
| HA6NAB-11 | 2026-08-31 01:49:49 | 48.30468 | 17.43185 | 103° | 80km/h | 9383m | -12.7m/s | -36.6°C | 22.0% | 0hPa | 2.4V | 00:00:00 | 00:00:00 | 00:00:00 | |
| ATIDSZ-14 | 2026-08-31 01:49:48 | 48.30468 | 17.43185 | 103° | 80km/h | 9383m | -12.7m/s | -36.6°C | 22.0% | 0hPa | 2.4V | 08:11:00 | 00:00:00 | 00:00:00 | |
| PG1ADW-2 | 2026-08-31 01:49:46 | 48.30480 | 17.43095 | 102° | 88km/h | 9417m | -12.6m/s | -36.8°C | 24.3% | 0hPa | 2.4V | 00:00:00 | 00:00:00 | 00:00:00 | |
| OE5DRO-10 | 2026-08-31 01:49:45 | 48.30484 | 17.43065 | 101° | 88km/h | 9428m | -12.2m/s | -36.9°C | 24.3% | 0hPa | 2.4V | 00:00:00 | 00:00:00 | 00:00:00 | |
| HA6NAB-11 | 2026-08-31 01:49:44 | 48.30488 | 17.43035 | 101° | 80km/h | 9439m | -11.9m/s | -37.0°C | 22.0% | 0hPa | 2.4V | 00:00:00 | 00:00:00 | 00:00:00 | |
| OM5KV | 2026-08-31 01:49:38 | 48.30511 | 17.42843 | 103° | 89km/h | 9507m | -13.6m/s | -37.5°C | 19.2% | 0hPa | 2.4V | 08:11:00 | 00:00:00 | 00:00:00 | |
| HA6NAB-11 | 2026-08-31 01:49:37 | 48.30511 | 17.42843 | 103° | 89km/h | 9507m | -13.6m/s | -37.5°C | 19.2% | 0hPa | 2.4V | 00:00:00 | 00:00:00 | 00:00:00 | |
| OE3OSB-13 | 2026-08-31 01:49:36 | 48.30536 | 17.42675 | 101° | 88km/h | 9567m | -13.2m/s | -37.8°C | 17.6% | -1.0hPa | 2.4V | 00:00:00 | 00:00:00 | 00:00:00 | |
| OM5KV | 2026-08-31 01:49:31 | 48.30540 | 17.42641 | 102° | 89km/h | 9580m | -12.6m/s | -37.8°C | 17.6% | 0hPa | 2.4V | 08:11:00 | 00:00:00 | 00:00:00 | |
| OE3JTB-15 | 2026-08-31 01:49:27 | 48.30564 | 17.42469 | 101° | 97km/h | 9639m | -12.6m/s | -38.2°C | 19.2% | 0hPa | 2.4V | 00:00:00 | 02:30:34 | 00:00:00 | |
| PG1ADW-2 | 2026-08-31 01:49:26 | 48.30568 | 17.42434 | 101° | 95km/h | 9651m | -12.7m/s | -38.3°C | 19.2% | 0hPa | 2.4V | 00:00:00 | 00:00:00 | 00:00:00 | |
| HA6NAB-11 | 2026-08-31 01:49:25 | 48.30568 | 17.42434 | 101° | 91km/h | 9651m | -12.7m/s | -38.3°C | 17.0% | 0hPa | 2.2V | 00:00:00 | 00:00:00 | 00:00:00 | |
| OM5KV | 2026-08-31 01:49:24 | 48.30573 | 17.42399 | 101° | 91km/h | 9663m | -12.9m/s | -38.4°C | 17.1% | 0hPa | 2.2V | 08:11:00 | 00:00:00 | 00:00:00 | |
| OE5DXL-15 | 2026-08-31 01:49:22 | 48.30585 | 17.42294 | 100° | 99km/h | 9698m | -12.8m/s | -38.6°C | 19.4% | 0hPa | 2.2V | 00:00:00 | 00:00:00 | 00:00:00 | |
| OM5KV | 2026-08-31 01:49:19 | 48.30593 | 17.42225 | 99° | 93km/h | 9722m | -12.7m/s | -38.9°C | 17.3% | 0hPa | 2.2V | 08:11:00 | 00:00:00 | 00:00:00 | |
| OM5KV | 2026-08-31 01:49:15 | 48.30606 | 17.42084 | 98° | 97km/h | 9769m | -12.3m/s | -39.3°C | 17.5% | 0hPa | 2.2V | 08:12:00 | 00:00:00 | 00:00:00 | |
| OM5KV | 2026-08-31 01:49:14 | 48.30610 | 17.42048 | 98° | 97km/h | 9780m | -12.5m/s | -39.4°C | 17.6% | 0hPa | 2.2V | 08:12:00 | 00:00:00 | 00:00:00 | |
| OM5KV | 2026-08-31 01:49:09 | 48.30625 | 17.41866 | 98° | 100km/h | 9837m | -12.8m/s | -39.9°C | 17.9% | 0hPa | 2.2V | 08:12:00 | 00:00:00 | 00:00:00 | |
| ATIDSZ-14 | 2026-08-31 01:49:07 | 48.30632 | 17.41792 | 99° | 99km/h | 9859m | -13.2m/s | -40.1°C | 17.9% | 0hPa | 2.2V | 08:12:00 | 00:00:00 | 00:00:00 | |
| PG1ADW-2 | 2026-08-31 01:49:06 | 48.30638 | 17.41718 | 98° | 99km/h | 9883m | -13.9m/s | -40.1°C | 19.9% | 0hPa | 2.2V | 00:00:00 | 00:00:00 | 00:00:00 | |
| OE3OSB-13 | 2026-08-31 01:49:05 | 48.30641 | 17.41680 | 97° | 99km/h | 9896m | -13.7m/s | -40.2°C | 17.5% | -1.0hPa | 2.2V | 00:00:00 | 00:00:00 | 00:00:00 | |
| OM5KV | 2026-08-31 01:49:03 | 48.30644 | 17.41642 | 99° | 100km/h | 9908m | -13.6m/s | -40.3°C | 17.7% | 0hPa | 2.2V | 08:12:00 | 00:00:00 | 00:00:00 | |
| OE3JTB-15 | 2026-08-31 01:48:58 | 48.30663 | 17.41415 | 99° | 97km/h | 9981m | -13.4m/s | -40.8°C | 20.4% | 0hPa | 2.2V | 08:12:00 | 00:00:00 | 00:00:00 | |
| OM5KV | 2026-08-31 01:48:57 | 48.30663 | 17.41415 | 100° | 100km/h | 9981m | -13.5m/s | -40.8°C | 18.1% | 0hPa | 2.2V | 08:12:00 | 00:00:00 | 00:00:00 | |
| OE5DXL-15 | 2026-08-31 01:48:52 | 48.30686 | 17.41190 | 99° | 97km/h | 10054m | -13.3m/s | -41.3°C | 20.1% | 0hPa | 2.2V | 00:00:00 | 00:00:00 | 00:00:00 | |
| OM5KV | 2026-08-31 01:48:51 | 48.30686 | 17.41190 | 100° | 97km/h | 10054m | -13.3m/s | -41.4°C | 17.7% | 0hPa | 2.2V | 08:12:00 | 00:00:00 | 00:00:00 | |
| OE5DRO-10 | 2026-08-31 01:48:48 | 48.30702 | 17.41042 | 99° | 97km/h | 10103m | -13.2m/s | -41.7°C | 19.3% | 0hPa | 2.2V | 00:00:00 | 00:00:00 | 00:00:00 | |
| PG1ADW-2 | 2026-08-31 01:48:46 | 48.30710 | 17.40968 | 99° | 97km/h | 10127m | -13.1m/s | -41.8°C | 19.0% | 0hPa | 2.4V | 00:00:00 | 02:29:53 | 00:00:00 | |
| OM5KV | 2026-08-31 01:48:45 | 48.30710 | 17.40968 | 100° | 97km/h | 10127m | -13.2m/s | -41.9°C | 16.6% | 0hPa | 2.4V | 08:12:00 | 00:00:00 | 00:00:00 | |
| OM5KV | 2026-08-31 01:48:40 | 48.30730 | 17.40783 | 100° | 97km/h | 10190m | -12.6m/s | -42.4°C | 16.8% | 0hPa | 2.4V | 08:12:00 | 00:00:00 | 00:00:00 | |
| OM5KV | 2026-08-31 01:48:39 | 48.30734 | 17.40746 | 100° | 97km/h | 10202m | -13.0m/s | -42.5°C | 16.8% | 0hPa | 2.4V | 08:12:00 | 00:00:00 | 00:00:00 | |
| OE3OSB-13 | 2026-08-31 01:48:34 | 48.30759 | 17.40527 | 97° | 97km/h | 10273m | -13.4m/s | -43.1°C | 17.0% | -1.0hPa | 2.4V | 00:00:00 | 00:00:00 | 00:00:00 | |
| OM5KV | 2026-08-31 01:48:33 | 48.30759 | 17.40527 | 99° | 97km/h | 10273m | -13.4m/s | -43.1°C | 17.1% | 0hPa | 2.4V | 08:12:00 | 00:00:00 | 00:00:00 | |
| OE3JTB-15 | 2026-08-31 01:48:29 | 48.30779 | 17.40345 | 98° | 102km/h | 10335m | -13.4m/s | -43.6°C | 19.8% | 0hPa | 2.4V | 00:00:00 | 00:00:00 | 00:00:00 | |
| OM5KV | 2026-08-31 01:48:28 | 48.30779 | 17.40345 | 99° | 99km/h | 10335m | -13.5m/s | -43.7°C | 17.2% | 0hPa | 2.4V | 08:12:00 | 00:00:00 | 00:00:00 | |
| OM5KV | 2026-08-31 01:48:27 | 48.30783 | 17.40308 | 99° | 99km/h | 10348m | -13.2m/s | -43.8°C | 17.3% | 0hPa | 2.4V | 08:13:00 | 00:00:00 | 00:00:00 | |
| PG1ADW-2 | 2026-08-31 01:48:26 | 48.30790 | 17.40234 | 99° | 102km/h | 10372m | -13.5m/s | -43.9°C | 19.8% | 0hPa | 2.4V | 08:12:00 | 00:00:00 | 00:00:00 | |
| OE5DXL-15 | 2026-08-31 01:48:22 | 48.30806 | 17.40084 | 99° | 102km/h | 10421m | -13.0m/s | -44.3°C | 19.8% | 0hPa | 2.2V | 00:00:00 | 00:00:00 | 00:00:00 | |
| OM5KV | 2026-08-31 01:48:21 | 48.30806 | 17.40084 | 100° | 102km/h | 10421m | -13.1m/s | -44.4°C | 17.2% | 0hPa | 2.4V | 08:13:00 | 00:00:00 | 00:00:00 | |
| HA6NAB-11 | 2026-08-31 01:48:20 | 48.30809 | 17.40047 | 100° | 104km/h | 10433m | -13.1m/s | -44.5°C | 17.2% | 0hPa | 2.4V | 00:00:00 | 00:00:00 | 00:00:00 | |
| OM5KV | 2026-08-31 01:48:16 | 48.30827 | 17.39894 | 101° | 104km/h | 10481m | -13.4m/s | -44.9°C | 17.1% | 0hPa | 2.4V | 08:13:00 | 00:00:00 | 00:00:00 | |
| OM5KV | 2026-08-31 01:48:15 | 48.30831 | 17.39856 | 101° | 104km/h | 10494m | -13.2m/s | -45.0°C | 17.1% | 0hPa | 2.4V | 08:13:00 | 00:00:00 | 00:00:00 | |
| OE5DRO-10 | 2026-08-31 01:48:10 | 48.30859 | 17.39628 | 102° | 102km/h | 10567m | -13.3m/s | -45.5°C | 20.3% | 0hPa | 2.4V | 00:00:00 | 00:00:00 | 00:00:00 | |
| PG1ADW-2 | 2026-08-31 01:48:06 | 48.30878 | 17.39477 | 102° | 100km/h | 10618m | -14.0m/s | -45.9°C | 21.1% | 0hPa | 2.4V | 00:00:00 | 00:00:00 | 00:00:00 | |
| ATIDSZ-14 | 2026-08-31 01:48:05 | 48.30878 | 17.39477 | 103° | 102km/h | 10618m | -14.1m/s | -46.0°C | 18.2% | 0hPa | 2.4V | 08:13:00 | 00:00:00 | 00:00:00 | |
| OM5KV | 2026-08-31 01:48:03 | 48.30888 | 17.39401 | 103° | 102km/h | 10645m | -13.1m/s | -46.2°C | 18.5% | 0hPa | 2.4V | 08:13:00 | 00:00:00 | 00:00:00 | |
| OM5KV | 2026-08-31 01:48:02 | 48.30893 | 17.39363 | 103° | 102km/h | 10657m | -13.2m/s | -46.3°C | 18.7% | 0hPa | 2.4V | 08:13:00 | 00:00:00 | 00:00:00 | |
| OE3JTB-15 | 2026-08-31 01:48:00 | 48.30908 | 17.39248 | 103° | 99km/h | 10694m | -13.4m/s | -46.5°C | 22.5% | 0hPa | 2.4V | 00:00:00 | 02:29:07 | 00:00:00 | |
| HA6NAB-11 | 2026-08-31 01:47:59 | 48.30908 | 17.39248 | 103° | 102km/h | 10694m | -13.4m/s | -46.6°C | 19.4% | 0hPa | 2.4V | 00:00:00 | 00:00:00 | 00:00:00 | |
| OM5KV | 2026-08-31 01:47:56 | 48.30925 | 17.39134 | 103° | 100km/h | 10732m | -13.6m/s | -46.9°C | 20.3% | 0hPa | 2.4V | 08:13:00 | 00:00:00 | 00:00:00 | |
| HA6NAB-11 | 2026-08-31 01:47:53 | 48.30941 | 17.39020 | 104° | 100km/h | 10770m | -13.0m/s | -47.2°C | 21.1% | 0hPa | 2.4V | 00:00:00 | 00:00:00 | 00:00:00 | |
| OE5DXL-15 | 2026-08-31 01:47:52 | 48.30953 | 17.38945 | 103° | 97km/h | 10795m | -12.8m/s | -47.3°C | 24.9% | 0hPa | 2.4V | 00:00:00 | 00:00:00 | 00:00:00 | |
| OE5DRO-10 | 2026-08-31 01:47:51 | 48.30959 | 17.38907 | 104° | 97km/h | 10808m | -12.9m/s | -47.5°C | 25.2% | 0hPa | 2.4V | 08:13:00 | 00:00:00 | 00:00:00 | |
| OM5KV | 2026-08-31 01:47:50 | 48.30959 | 17.38907 | 104° | 100km/h | 10808m | -13.0m/s | -47.5°C | 21.9% | 0hPa | 2.4V | 08:13:00 | 00:00:00 | 00:00:00 | |
| PG1ADW-2 | 2026-08-31 01:47:46 | 48.30989 | 17.38720 | 104° | 97km/h | 10869m | -13.4m/s | -48.0°C | 25.6% | 0hPa | 2.4V | 00:00:00 | 00:00:00 | 00:00:00 | |
| ATIDSZ-14 | 2026-08-31 01:47:45 | 48.30989 | 17.38720 | 104° | 99km/h | 10869m | -13.4m/s | -48.1°C | 22.3% | 0hPa | 2.4V | 08:13:00 | 00:00:00 | 00:00:00 | |
| OM5KV | 2026-08-31 01:47:44 | 48.30995 | 17.38684 | 104° | 99km/h | 10881m | -13.4m/s | -48.2°C | 22.3% | 0hPa | 2.4V | 08:13:00 | 00:00:00 | 00:00:00 | |
| OE5DRO-10 | 2026-08-31 01:47:32 | 48.31068 | 17.38215 | 102° | 97km/h | 11043m | -12.6m/s | -49.7°C | 25.9% | 0hPa | 2.4V | 00:00:00 | 00:00:00 | 00:00:00 | |
| OE3JTB-15 | 2026-08-31 01:47:31 | 48.31073 | 17.38180 | 102° | 97km/h | 11054m | -13.0m/s | -49.8°C | 25.7% | 0hPa | 2.4V | 00:00:00 | 00:00:00 | 00:00:00 | |
| PG1ADW-2 | 2026-08-31 01:47:26 | 48.31099 | 17.38002 | 102° | 97km/h | 11114m | -13.4m/s | -50.3°C | 24.5% | 0hPa | 2.4V | 00:00:00 | 02:28:33 | 00:00:00 | |
| ATIDSZ-14 | 2026-08-31 01:47:25 | 48.31099 | 17.38002 | 102° | 97km/h | 11114m | -13.4m/s | -50.3°C | 20.9% | 0hPa | 2.4V | 08:14:00 | 00:00:00 | 00:00:00 | |
| OE5DXL-15 | 2026-08-31 01:47:22 | 48.31120 | 17.37861 | 103° | 95km/h | 11164m | -13.0m/s | -50.6°C | 23.4% | 0hPa | 2.4V | 00:00:00 | 00:00:00 | 00:00:00 | |
| OM5KV | 2026-08-31 01:47:20 | 48.31125 | 17.37826 | 104° | 97km/h | 11176m | -13.2m/s | -50.8°C | 19.6% | 0hPa | 2.4V | 08:14:00 | 00:00:00 | 00:00:00 | |
| OM5KV | 2026-08-31 01:47:14 | 48.31157 | 17.37617 | 105° | 97km/h | 11252m | -13.1m/s | -51.4°C | 18.4% | 0hPa | 2.4V | 08:14:00 | 00:00:00 | 00:00:00 | |
| OE5DRO-10 | 2026-08-31 01:47:13 | 48.31168 | 17.37547 | 104° | 93km/h | 11277m | -13.3m/s | -51.5°C | 21.5% | 0hPa | 2.4V | 00:00:00 | 00:00:00 | 00:00:00 | |
| HA6NAB-11 | 2026-08-31 01:47:12 | 48.31168 | 17.37547 | 105° | 95km/h | 11277m | -13.4m/s | -51.6°C | 18.0% | 0hPa | 2.4V | 00:00:00 | 00:00:00 | 00:00:00 | |
| OM5KV | 2026-08-31 01:47:07 | 48.31194 | 17.37374 | 104° | 95km/h | 11341m | -13.4m/s | -52.0°C | 16.9% | 0hPa | 2.4V | 08:14:00 | 00:00:00 | 00:00:00 | |
| PG1ADW-2 | 2026-08-31 01:47:06 | 48.31204 | 17.37306 | 104° | 91km/h | 11367m | -13.3m/s | -52.1°C | 19.9% | 0hPa | 2.4V | 00:00:00 | 00:00:00 | 00:00:00 | |
| ATIDSZ-14 | 2026-08-31 01:47:04 | 48.31209 | 17.37272 | 105° | 95km/h | 11381m | -13.0m/s | -52.2°C | 16.3% | 0hPa | 2.4V | 08:14:00 | 00:00:00 | 00:00:00 | |
| OM5KV | 2026-08-31 01:47:03 | 48.31214 | 17.37238 | 105° | 95km/h | 11394m | -13.1m/s | -52.3°C | 16.1% | 0hPa | 2.4V | 08:14:00 | 00:00:00 | 00:00:00 | |
| OE3OSB-13 | 2026-08-31 01:47:01 | 48.31236 | 17.37100 | 103° | 93km/h | 11442m | -13.4m/s | -52.6°C | 15.4% | -1.0hPa | 2.4V | 00:00:00 | 00:00:00 | 00:00:00 | |
| HA6NAB-11 | 2026-08-31 01:47:00 | 48.31230 | 17.37134 | 105° | 93km/h | 11430m | -12.8m/s | -52.6°C | 15.7% | 0hPa | 2.4V | 00:00:00 | 00:00:00 | 00:00:00 | |
| OM5KV | 2026-08-31 01:46:57 | 48.31247 | 17.37030 | 105° | 93km/h | 11466m | -14.0m/s | -52.7°C | 15.3% | 0hPa | 2.4V | 08:14:00 | 00:00:00 | 00:00:00 | |
| OM5KV | 2026-08-31 01:46:56 | 48.31252 | 17.36996 | 106° | 91km/h | 11479m | -13.7m/s | -52.7°C | 15.1% | 0hPa | 2.4V | 08:14:00 | 00:00:00 | 00:00:00 | |
| HA6NAB-11 | 2026-08-31 01:46:55 | 48.31258 | 17.36962 | 106° | 91km/h | 11492m | -13.7m/s | -52.8°C | 15.0% | 0hPa | 2.4V | 00:00:00 | 00:00:00 | 00:00:00 | |
| OE5DRO-10 | 2026-08-31 01:46:54 | 48.31269 | 17.36895 | 106° | 89km/h | 11518m | -13.6m/s | -52.9°C | 18.3% | 0hPa | 2.4V | 00:00:00 | 00:00:00 | 00:00:00 | |
| OE5DXL-15 | 2026-08-31 01:46:52 | 48.31281 | 17.36828 | 106° | 89km/h | 11544m | -13.9m/s | -53.1°C | 18.3% | 0hPa | 2.2V | 00:00:00 | 00:00:00 | 00:00:00 | |
| OM5KV | 2026-08-31 01:46:51 | 48.31281 | 17.36827 | 107° | 89km/h | 11544m | -13.9m/s | -53.2°C | 14.8% | 0hPa | 2.2V | 08:14:00 | 00:00:00 | 00:00:00 | |
| OM5KV | 2026-08-31 01:46:50 | 48.31287 | 17.36794 | 107° | 91km/h | 11557m | -13.7m/s | -53.2°C | 14.7% | 0hPa | 2.2V | 08:14:00 | 00:00:00 | 00:00:00 | |
| HA6NAB-11 | 2026-08-31 01:46:49 | 48.31293 | 17.36761 | 107° | 91km/h | 11570m | -14.1m/s | -53.3°C | 14.6% | 0hPa | 2.2V | 00:00:00 | 00:00:00 | 00:00:00 | |
| PG1ADW-2 | 2026-08-31 01:46:46 | 48.31318 | 17.36627 | 107° | 89km/h | 11623m | -13.5m/s | -53.7°C | 17.7% | 0hPa | 2.2V | 00:00:00 | 00:00:00 | 00:00:00 | |
| OM5KV | 2026-08-31 01:46:45 | 48.31318 | 17.36627 | 107° | 89km/h | 11623m | -13.5m/s | -53.7°C | 14.2% | 0hPa | 2.2V | 08:15:00 | 00:00:00 | 00:00:00 | |
| ATIDSZ-14 | 2026-08-31 01:46:43 | 48.31331 | 17.36561 | 107° | 88km/h | 11648m | -13.9m/s | -53.9°C | 14.0% | 0hPa | 2.2V | 08:15:00 | 00:00:00 | 00:00:00 | |
| OM5KV | 2026-08-31 01:46:40 | 48.31349 | 17.36461 | 107° | 89km/h | 11688m | -13.6m/s | -54.3°C | 13.6% | 0hPa | 2.2V | 08:15:00 | 00:00:00 | 00:00:00 | |
| S52SK | 2026-08-31 01:46:39 | 48.31356 | 17.36428 | 107° | 89km/h | 11701m | -13.7m/s | -54.3°C | 13.5% | 0hPa | 2.2V | 00:00:00 | 00:00:00 | 00:00:00 | |
| OE5DRO-10 | 2026-08-31 01:46:35 | 48.31388 | 17.36261 | 106° | 89km/h | 11766m | -13.8m/s | -54.8°C | 16.2% | 0hPa | 2.2V | 00:00:00 | 00:00:00 | 00:00:00 | |
| S52SK | 2026-08-31 01:46:34 | 48.31388 | 17.36261 | 106° | 88km/h | 11766m | -13.8m/s | -54.8°C | 12.7% | 0hPa | 2.2V | 00:00:00 | 00:00:00 | 00:00:00 | |
| OE3JTB-15 | 2026-08-31 01:46:33 | 48.31400 | 17.36194 | 106° | 95km/h | 11793m | -13.4m/s | -54.9°C | 15.9% | 0hPa | 2.2V | 00:00:00 | 02:27:40 | 00:00:00 | |
| OE3OSB-13 | 2026-08-31 01:46:30 | 48.31424 | 17.36061 | 103° | 88km/h | 11844m | -13.3m/s | -55.3°C | 11.7% | -1.0hPa | 2.2V | 00:00:00 | 00:00:00 | 00:00:00 | |
| S52SK | 2026-08-31 01:46:28 | 48.31424 | 17.36061 | 104° | 88km/h | 11845m | -13.3m/s | -55.3°C | 11.8% | 0hPa | 2.2V | 00:00:00 | 00:00:00 | 00:00:00 | |
| PG1ADW-2 | 2026-08-31 01:46:26 | 48.31441 | 17.35962 | 103° | 95km/h | 11883m | -13.4m/s | -55.5°C | 15.0% | 0hPa | 2.2V | 00:00:00 | 00:00:00 | 00:00:00 | |
| ATIDSZ-14 | 2026-08-31 01:46:23 | 48.31451 | 17.35896 | 103° | 89km/h | 11909m | -13.3m/s | -55.7°C | 11.2% | 0hPa | 2.4V | 08:15:00 | 00:00:00 | 00:00:00 | |
| OE5DXL-15 | 2026-08-31 01:46:22 | 48.31462 | 17.35829 | 102° | 99km/h | 11934m | -13.3m/s | -55.6°C | 14.2% | 0hPa | 2.4V | 00:00:00 | 00:00:00 | 00:00:00 | |
| OM5KV | 2026-08-31 01:46:17 | 48.31482 | 17.35690 | 102° | 93km/h | 11986m | -13.7m/s | -55.8°C | 10.1% | 0hPa | 2.4V | 08:15:00 | 00:00:00 | 00:00:00 | |
| OE5DRO-10 | 2026-08-31 01:46:16 | 48.31491 | 17.35621 | 101° | 100km/h | 12011m | -13.6m/s | -55.9°C | 13.2% | 0hPa | 2.4V | 00:00:00 | 00:00:00 | 00:00:00 | |
| HA6NAB-11 | 2026-08-31 01:46:12 | 48.31506 | 17.35516 | 102° | 97km/h | 12049m | -14.1m/s | -56.2°C | 9.6% | 0hPa | 2.4V | 08:15:00 | 00:00:00 | 00:00:00 | |
| HA6NAB-11 | 2026-08-31 01:46:07 | 48.31530 | 17.35333 | 102° | 102km/h | 12114m | -14.3m/s | -56.7°C | 9.1% | 0hPa | 2.4V | 08:15:00 | 00:00:00 | 00:00:00 | |
| PG1ADW-2 | 2026-08-31 01:46:06 | 48.31540 | 17.35258 | 102° | 102km/h | 12140m | -14.1m/s | -56.8°C | 12.3% | 0hPa | 2.4V | 00:00:00 | 02:27:13 | 00:00:00 | |
| OM5KV | 2026-08-31 01:46:05 | 48.31540 | 17.35258 | 103° | 102km/h | 12140m | -14.2m/s | -56.8°C | 8.9% | 0hPa | 2.4V | 08:15:00 | 00:00:00 | 00:00:00 | |
| OE3JTB-15 | 2026-08-31 01:46:04 | 48.31551 | 17.35182 | 103° | 104km/h | 12167m | -14.2m/s | -56.9°C | 12.1% | 0hPa | 2.4V | 00:00:00 | 00:00:00 | 00:00:00 | |
| ATIDSZ-14 | 2026-08-31 01:46:02 | 48.31557 | 17.35145 | 105° | 102km/h | 12181m | -13.7m/s | -57.1°C | 8.7% | 0hPa | 2.2V | 08:15:00 | 00:00:00 | 00:00:00 | |
| OE3OSB-13 | 2026-08-31 01:45:59 | 48.31591 | 17.34957 | 105° | 102km/h | 12247m | -14.2m/s | -57.1°C | 7.9% | -1.0hPa | 2.2V | 00:00:00 | 00:00:00 | 00:00:00 | |
| OE5DRO-10 | 2026-08-31 01:45:57 | 48.31598 | 17.34919 | 106° | 104km/h | 12260m | -14.5m/s | -57.1°C | 11.3% | 0hPa | 2.2V | 00:00:00 | 00:00:00 | 00:00:00 | |
| HA6NAB-11 | 2026-08-31 01:45:56 | 48.31598 | 17.34919 | 107° | 102km/h | 12260m | -14.5m/s | -57.1°C | 8.0% | 0hPa | 2.2V | 08:15:00 | 00:00:00 | 00:00:00 | |
| OM5KV | 2026-08-31 01:45:55 | 48.31604 | 17.34881 | 106° | 102km/h | 12274m | -13.9m/s | -57.2°C | 7.9% | 0hPa | 2.2V | 08:15:00 | 00:00:00 | 00:00:00 | |
| OE5DXL-15 | 2026-08-31 01:45:52 | 48.31631 | 17.34730 | 105° | 108km/h | 12328m | -13.7m/s | -57.5°C | 10.9% | 0hPa | 2.2V | 00:00:00 | 00:00:00 | 00:00:00 | |
| HA6NAB-11 | 2026-08-31 01:45:50 | 48.31638 | 17.34692 | 105° | 102km/h | 12342m | -14.2m/s | -57.6°C | 7.5% | 0hPa | 2.2V | 08:16:00 | 00:00:00 | 00:00:00 | |
| OM5KV | 2026-08-31 01:45:46 | 48.31664 | 17.34539 | 105° | 104km/h | 12397m | -14.3m/s | -57.8°C | 7.0% | 0hPa | 2.2V | 08:16:00 | 00:00:00 | 00:00:00 | |
| HA6NAB-11 | 2026-08-31 01:45:44 | 48.31677 | 17.34461 | 104° | 104km/h | 12423m | -14.1m/s | -57.9°C | 6.7% | 0hPa | 2.2V | 08:16:00 | 00:00:00 | 00:00:00 | |
| OM5KV | 2026-08-31 01:45:43 | 48.31683 | 17.34422 | 103° | 106km/h | 12436m | -13.5m/s | -58.0°C | 6.7% | 0hPa | 2.2V | 08:16:00 | 00:00:00 | 00:00:00 | |
| ATIDSZ-14 | 2026-08-31 01:45:42 | 48.31689 | 17.34384 | 104° | 104km/h | 12450m | -13.6m/s | -58.1°C | 6.6% | 0hPa | 2.2V | 08:16:00 | 00:00:00 | 00:00:00 | |
| OM5KV | 2026-08-31 01:45:40 | 48.31702 | 17.34306 | 103° | 106km/h | 12476m | -13.2m/s | -58.3°C | 6.4% | 0hPa | 2.2V | 08:16:00 | 00:00:00 | 00:00:00 | |
| OE5DRO-10 | 2026-08-31 01:45:38 | 48.31721 | 17.34187 | 103° | 111km/h | 12516m | -13.6m/s | -58.3°C | 9.5% | 0hPa | 2.2V | 00:00:00 | 00:00:00 | 00:00:00 | |
| OE3JTB-15 | 2026-08-31 01:45:35 | 48.31742 | 17.34066 | 104° | 113km/h | 12555m | -14.0m/s | -58.2°C | 9.1% | 0hPa | 2.2V | 00:00:00 | 00:00:00 | 00:00:00 | |
| OM5KV | 2026-08-31 01:45:30 | 48.31770 | 17.33904 | 105° | 111km/h | 12609m | -14.2m/s | -58.5°C | 5.6% | 0hPa | 2.2V | 08:16:00 | 00:00:00 | 00:00:00 | |
| OM5KV | 2026-08-31 01:45:27 | 48.31792 | 17.33782 | 105° | 113km/h | 12650m | -14.3m/s | -58.7°C | 5.3% | 0hPa | 2.2V | 08:16:00 | 00:00:00 | 00:00:00 | |
| PG1ADW-2 | 2026-08-31 01:45:26 | 48.31807 | 17.33701 | 105° | 113km/h | 12678m | -14.1m/s | -58.9°C | 8.4% | 0hPa | 2.2V | 08:15:00 | 00:00:00 | 00:00:00 | |
| OE5DXL-15 | 2026-08-31 01:45:22 | 48.31837 | 17.33539 | 106° | 111km/h | 12733m | -13.7m/s | -59.1°C | 8.2% | 0hPa | 2.4V | 08:15:00 | 00:00:00 | 00:00:00 | |
| OM5KV | 2026-08-31 01:45:21 | 48.31837 | 17.33539 | 106° | 113km/h | 12733m | -13.8m/s | -59.2°C | 5.0% | 0hPa | 2.2V | 08:16:00 | 00:00:00 | 00:00:00 | |
| OE5DRO-10 | 2026-08-31 01:45:19 | 48.31861 | 17.33417 | 106° | 113km/h | 12773m | -13.5m/s | -59.2°C | 8.0% | 0hPa | 2.2V | 00:00:00 | 00:00:00 | 00:00:00 | |
| DO3MHA-11 | 2026-08-31 01:45:18 | 48.31869 | 17.33376 | 106° | 49km/h | 12786m | -14.1m/s | -59.2°C | 8.0% | 0hPa | 2.2V | 00:00:00 | 02:26:25 | 00:00:00 | |
| S52SK | 2026-08-31 01:45:17 | 48.31869 | 17.33376 | 107° | 113km/h | 12786m | -14.1m/s | -59.2°C | 4.6% | 0hPa | 2.4V | 00:00:00 | 00:00:00 | 00:00:00 | |
| OM5KV | 2026-08-31 01:45:16 | 48.31877 | 17.33334 | 107° | 115km/h | 12799m | -13.7m/s | -59.2°C | 4.6% | 0hPa | 2.4V | 08:16:00 | 00:00:00 | 00:00:00 | |
| GYPAP8-17 | 2026-08-31 01:45:11 | 48.31919 | 17.33130 | 107° | 111km/h | 12868m | -15.0m/s | -59.1°C | 4.1% | 0hPa | 2.4V | 00:00:00 | 00:00:00 | 00:00:00 | |
| HA6NAB-11 | 2026-08-31 01:45:10 | 48.31928 | 17.33089 | 108° | 113km/h | 12882m | -14.3m/s | -59.1°C | 4.1% | 0hPa | 2.4V | 08:16:00 | 00:00:00 | 00:00:00 | |
| PG1ADW-2 | 2026-08-31 01:45:06 | 48.31968 | 17.32885 | 106° | 108km/h | 12951m | -13.8m/s | -59.3°C | 7.0% | 0hPa | 2.4V | 00:00:00 | 00:00:00 | 00:00:00 | |
| OE3JTB-15 | 2026-08-31 01:45:05 | 48.31975 | 17.32844 | 106° | 100km/h | 12964m | -14.2m/s | -59.3°C | 7.0% | 0hPa | 2.4V | 00:00:00 | 02:26:12 | 00:00:00 | |
| OM5KV | 2026-08-31 01:45:04 | 48.31975 | 17.32845 | 107° | 111km/h | 12964m | -14.3m/s | -59.4°C | 3.8% | 0hPa | 2.4V | 08:16:00 | 00:00:00 | 00:00:00 | |
| OE3OSB-13 | 2026-08-31 01:44:57 | 48.32045 | 17.32481 | 104° | 106km/h | 13084m | -14.1m/s | -59.6°C | 3.1% | -1.0hPa | 2.4V | 00:00:00 | 00:00:00 | 00:00:00 | |
| OE5DXL-15 | 2026-08-31 01:44:52 | 48.32070 | 17.32324 | 103° | 95km/h | 13137m | -15.0m/s | -59.7°C | 6.3% | 0hPa | 2.4V | 00:00:00 | 02:25:59 | 00:00:00 | |
| OM5KV | 2026-08-31 01:44:51 | 48.32070 | 17.32324 | 103° | 104km/h | 13137m | -15.0m/s | -59.7°C | 3.1% | 0hPa | 2.4V | 08:16:00 | 00:00:00 | 00:00:00 | |
| HA6NAB-11 | 2026-08-31 01:44:47 | 48.32091 | 17.32171 | 100° | 104km/h | 13192m | -14.3m/s | -59.8°C | 3.0% | 0hPa | 2.4V | 00:00:00 | 00:00:00 | 00:00:00 | |
| PG1ADW-2 | 2026-08-31 01:44:46 | 48.32101 | 17.32094 | 100° | 95km/h | 13219m | -13.9m/s | -59.7°C | 6.1% | 0hPa | 2.4V | 00:00:00 | 02:25:53 | 00:00:00 | |
| OM5KV | 2026-08-31 01:44:45 | 48.32101 | 17.32094 | 101° | 104km/h | 13219m | -13.9m/s | -59.7°C | 2.9% | 0hPa | 2.4V | 08:16:00 | 00:00:00 | 00:00:00 | |
| OE5DRO-10 | 2026-08-31 01:44:41 | 48.32123 | 17.31911 | 99° | 91km/h | 13288m | -14.3m/s | -59.2°C | 5.8% | 0hPa | 2.4V | 00:00:00 | 00:00:00 | 00:00:00 | |
| OM5KV | 2026-08-31 01:44:34 | 48.32144 | 17.31702 | 100° | 95km/h | 13375m | -14.4m/s | -59.4°C | 2.7% | 0hPa | 2.4V | 08:16:00 | 00:00:00 | 00:00:00 | |
| OM5KV | 2026-08-31 01:44:31 | 48.32167 | 17.31494 | 102° | 91km/h | 13458m | -14.3m/s | -59.0°C | 2.6% | 0hPa | 2.4V | 08:16:00 | 00:00:00 | 00:00:00 | |
| OE3JTB-15 | 2026-08-31 01:44:29 | 48.32171 | 17.31461 | 102° | 69km/h | 13471m | -14.4m/s | -58.8°C | 5.6% | 0hPa | 2.4V | 08:16:00 | 00:00:00 | 00:00:00 | |
| PG1ADW-2 | 2026-08-31 01:44:28 | 48.32179 | 17.31397 | 102° | 69km/h | 13500m | -14.4m/s | -58.6°C | 5.4% | 0hPa | 2.2V | 00:00:00 | 00:00:00 | 00:00:00 | |
| OE3OSB-13 | 2026-08-31 01:44:26 | 48.32183 | 17.31367 | 101° | 80km/h | 13513m | -14.7m/s | -58.7°C | 2.2% | -1.0hPa | 2.4V | 00:00:00 | 00:00:00 | 00:00:00 | |
| OM5KV | 2026-08-31 01:44:23 | 48.32187 | 17.31336 | 103° | 80km/h | 13529m | -14.0m/s | -58.7°C | 2.5% | 0hPa | 2.4V | 08:16:00 | 00:00:00 | 00:00:00 | |
| OE5DXL-15 | 2026-08-31 01:44:22 | 48.32195 | 17.31276 | 102° | 68km/h | 13557m | -14.0m/s | -58.6°C | 5.4% | 0hPa | 2.4V | 00:00:00 | 00:00:00 | 00:00:00 | |
| ATIDSZ-14 | 2026-08-31 01:44:20 | 48.32199 | 17.31248 | 103° | 75km/h | 13570m | -14.5m/s | -58.4°C | 2.4% | 0hPa | 2.4V | 08:16:00 | 00:00:00 | 00:00:00 | |
| OM5KV | 2026-08-31 01:44:17 | 48.32209 | 17.31165 | 101° | 69km/h | 13611m | -14.2m/s | -58.1°C | 2.3% | 0hPa | 2.4V | 08:16:00 | 00:00:00 | 00:00:00 | |
| OE5WHR-10 | 2026-08-31 01:44:14 | 48.32221 | 17.31062 | 99° | 66km/h | 13668m | -14.7m/s | -57.7°C | 5.0% | 0hPa | 2.4V | 00:00:00 | 00:00:00 | 00:00:00 | |
| S52SK | 2026-08-31 01:44:11 | 48.32225 | 17.31013 | 98° | 62km/h | 13698m | -14.7m/s | -57.7°C | 2.2% | 0hPa | 2.4V | 00:00:00 | 00:00:00 | 00:00:00 | |
| PG1ADW-2 | 2026-08-31 01:44:06 | 48.32232 | 17.30867 | 93° | 71km/h | 13785m | -14.9m/s | -57.8°C | 4.8% | 0hPa | 2.4V | 00:00:00 | 00:00:00 | 00:00:00 | |
| S52SK | 2026-08-31 01:44:05 | 48.32232 | 17.30867 | 94° | 66km/h | 13785m | -14.9m/s | -57.8°C | 2.0% | 0hPa | 2.4V | 00:00:00 | 00:00:00 | 00:00:00 | |
| OE5DRO-10 | 2026-08-31 01:44:03 | 48.32234 | 17.30791 | 92° | 71km/h | 13828m | -15.0m/s | -58.1°C | 4.9% | 0hPa | 2.4V | 00:00:00 | 00:00:00 | 00:00:00 | |
| OE3JTB-15 | 2026-08-31 01:43:58 | 48.32235 | 17.30656 | 88° | 66km/h | 13901m | -15.0m/s | -58.5°C | 5.1% | 0hPa | 2.4V | 00:00:00 | 00:00:00 | 00:00:00 | |
| OM5KV | 2026-08-31 01:43:55 | 48.32234 | 17.30599 | 88° | 73km/h | 13930m | -15.3m/s | -58.4°C | 2.2% | 0hPa | 2.4V | 08:17:00 | 00:00:00 | 00:00:00 | |
| OM5KV | 2026-08-31 01:43:54 | 48.32233 | 17.30571 | 88° | 73km/h | 13945m | -15.4m/s | -58.4°C | 2.2% | 0hPa | 2.4V | 08:17:00 | 00:00:00 | 00:00:00 | |
| OE5WHR-10 | 2026-08-31 01:43:53 | 48.32231 | 17.30514 | 87° | 49km/h | 13975m | -14.7m/s | -58.3°C | 4.9% | 0hPa | 2.4V | 00:00:00 | 02:25:00 | 00:00:00 | |
| OE5DXL-15 | 2026-08-31 01:43:52 | 48.32230 | 17.30487 | 87° | 69km/h | 13989m | -15.0m/s | -58.2°C | 4.9% | 0hPa | 2.4V | 00:00:00 | 00:00:00 | 00:00:00 | |
| HA6NAB-11 | 2026-08-31 01:43:49 | 48.32228 | 17.30430 | 86° | 73km/h | 14018m | -15.4m/s | -58.4°C | 2.1% | 0hPa | 2.2V | 00:00:00 | 00:00:00 | 00:00:00 | |
| OM5KV | 2026-08-31 01:43:48 | 48.32227 | 17.30401 | 87° | 73km/h | 14033m | -15.1m/s | -58.5°C | 2.1% | 0hPa | 2.2V | 08:17:00 | 00:00:00 | 00:00:00 | |
| PG1ADW-2 | 2026-08-31 01:43:46 | 48.32224 | 17.30317 | 86° | 71km/h | 14078m | -15.1m/s | -58.9°C | 5.2% | 0hPa | 2.2V | 00:00:00 | 00:00:00 | 00:00:00 | |
| OE5DRO-10 | 2026-08-31 01:43:44 | 48.32222 | 17.30261 | 86° | 69km/h | 14107m | -15.0m/s | -58.9°C | 5.2% | 0hPa | 2.2V | 00:00:00 | 00:00:00 | 00:00:00 | |
| OM5KV | 2026-08-31 01:43:43 | 48.32221 | 17.30261 | 87° | 73km/h | 14107m | -15.1m/s | -58.9°C | 2.2% | 0hPa | 2.2V | 08:17:00 | 00:00:00 | 00:00:00 | |
| ATIDSZ-14 | 2026-08-31 01:43:39 | 48.32220 | 17.30147 | 91° | 77km/h | 14163m | -14.4m/s | -58.9°C | 2.2% | 0hPa | 2.2V | 08:17:00 | 00:00:00 | 00:00:00 | |
| HA6NAB-11 | 2026-08-31 01:43:38 | 48.32220 | 17.30118 | 92° | 77km/h | 14177m | -15.2m/s | -59.0°C | 2.2% | 0hPa | 2.2V | 00:00:00 | 00:00:00 | 00:00:00 | |
| OM5KV | 2026-08-31 01:43:37 | 48.32221 | 17.30090 | 94° | 75km/h | 14191m | -14.5m/s | -59.0°C | 2.2% | 0hPa | 2.2V | 08:17:00 | 00:00:00 | 00:00:00 | |
| OM5KV | 2026-08-31 01:43:32 | 48.32230 | 17.29956 | 96° | 68km/h | 14264m | -16.2m/s | -58.8°C | 2.1% | 0hPa | 2.2V | 08:17:00 | 00:00:00 | 00:00:00 | |
| OM5KV | 2026-08-31 01:43:31 | 48.32232 | 17.29931 | 97° | 66km/h | 14280m | -16.5m/s | -58.8°C | 2.1% | 0hPa | 2.2V | 08:17:00 | 00:00:00 | 00:00:00 | |
| PG1ADW-2 | 2026-08-31 01:43:26 | 48.32243 | 17.29788 | 94° | 58km/h | 14372m | -15.8m/s | -58.8°C | 5.1% | 0hPa | 2.2V | 00:00:00 | 02:24:33 | 00:00:00 | |
| OE5DRO-10 | 2026-08-31 01:43:25 | 48.32245 | 17.29765 | 95° | 58km/h | 14387m | -15.3m/s | -58.9°C | 5.2% | 0hPa | 2.2V | 00:00:00 | 00:00:00 | 00:00:00 | |
| OE3OSB-13 | 2026-08-31 01:43:23 | 48.32247 | 17.29720 | 94° | 60km/h | 14416m | -15.3m/s | -59.0°C | 1.9% | -1.0hPa | 2.2V | 00:00:00 | 00:00:00 | 00:00:00 | |
| OE5DXL-15 | 2026-08-31 01:43:22 | 48.32249 | 17.29697 | 94° | 62km/h | 14430m | -15.9m/s | -58.9°C | 5.1% | 0hPa | 2.2V | 00:00:00 | 00:00:00 | 00:00:00 | |
| OM5KV | 2026-08-31 01:43:21 | 48.32249 | 17.29697 | 95° | 58km/h | 14430m | -15.9m/s | -59.0°C | 2.1% | 0hPa | 2.2V | 08:18:00 | 00:00:00 | 00:00:00 | |
| OE3JTB-15 | 2026-08-31 01:43:20 | 48.32251 | 17.29654 | 93° | 62km/h | 14461m | -15.9m/s | -59.0°C | 5.2% | 0hPa | 2.2V | 00:00:00 | 02:24:27 | 00:00:00 | |
| ATIDSZ-14 | 2026-08-31 01:43:18 | 48.32252 | 17.29633 | 91° | 57km/h | 14476m | -16.5m/s | -59.0°C | 2.1% | 0hPa | 2.2V | 08:18:00 | 00:00:00 | 00:00:00 | |
| OM5KV | 2026-08-31 01:43:15 | 48.32252 | 17.29570 | 92° | 57km/h | 14523m | -16.2m/s | -58.7°C | 2.1% | 0hPa | 2.2V | 08:18:00 | 00:00:00 | 00:00:00 | |
| OM5KV | 2026-08-31 01:43:14 | 48.32252 | 17.29549 | 91° | 57km/h | 14538m | -15.8m/s | -58.6°C | 2.1% | 0hPa | 2.2V | 08:18:00 | 00:00:00 | 00:00:00 | |
| OM5KV | 2026-08-31 01:43:09 | 48.32250 | 17.29444 | 86° | 58km/h | 14615m | -16.4m/s | -58.5°C | 2.0% | 0hPa | 2.2V | 08:18:00 | 00:00:00 | 00:00:00 | |
| PG1ADW-2 | 2026-08-31 01:43:06 | 48.32245 | 17.29352 | 83° | 66km/h | 14678m | -16.3m/s | -58.4°C | 4.9% | 0hPa | 2.2V | 00:00:00 | 00:00:00 | 00:00:00 | |
| S52SK | 2026-08-31 01:43:04 | 48.32243 | 17.29329 | 83° | 64km/h | 14693m | -16.5m/s | -58.5°C | 2.0% | 0hPa | 2.2V | 00:00:00 | 00:00:00 | 00:00:00 | |
| HA6NAB-11 | 2026-08-31 01:43:02 | 48.32239 | 17.29280 | 82° | 66km/h | 14725m | -16.6m/s | -58.5°C | 2.0% | 0hPa | 2.2V | 00:00:00 | 00:00:00 | 00:00:00 | |
| S52SK | 2026-08-31 01:42:59 | 48.32232 | 17.29206 | 81° | 64km/h | 14774m | -16.1m/s | -58.2°C | 1.9% | 0hPa | 2.2V | 00:00:00 | 00:00:00 | 00:00:00 | |
| OM5KV | 2026-08-31 01:42:58 | 48.32229 | 17.29182 | 81° | 64km/h | 14790m | -15.7m/s | -58.1°C | 1.9% | 0hPa | 2.2V | 08:18:00 | 00:00:00 | 00:00:00 | |
| OM5KV | 2026-08-31 01:42:57 | 48.32227 | 17.29157 | 81° | 66km/h | 14805m | -16.2m/s | -58.0°C | 1.9% | 0hPa | 2.2V | 08:18:00 | 00:00:00 | 00:00:00 | |
| HA6NAB-11 | 2026-08-31 01:42:56 | 48.32224 | 17.29132 | 82° | 66km/h | 14822m | -15.7m/s | -58.0°C | 1.9% | 0hPa | 2.2V | 00:00:00 | 00:00:00 | 00:00:00 | |
| S52SK | 2026-08-31 01:42:53 | 48.32217 | 17.29055 | 86° | 68km/h | 14867m | -16.6m/s | -58.1°C | 1.8% | 0hPa | 2.2V | 00:00:00 | 00:00:00 | 00:00:00 | |
| OE5DXL-15 | 2026-08-31 01:42:52 | 48.32214 | 17.29001 | 86° | 60km/h | 14899m | -16.5m/s | -58.3°C | 4.8% | 0hPa | 2.2V | 00:00:00 | 00:00:00 | 00:00:00 | |
| OE3JTB-15 | 2026-08-31 01:42:51 | 48.32212 | 17.28974 | 87° | 64km/h | 14916m | -16.5m/s | -58.4°C | 4.9% | 0hPa | 2.2V | 00:00:00 | 00:00:00 | 00:00:00 | |
| HA6NAB-11 | 2026-08-31 01:42:50 | 48.32212 | 17.28974 | 87° | 69km/h | 14916m | -16.6m/s | -58.4°C | 2.0% | 0hPa | 2.4V | 00:00:00 | 00:00:00 | 00:00:00 | |
| OE5MMP-10 | 2026-08-31 01:42:48 | 48.32209 | 17.28892 | 88° | 68km/h | 14963m | -15.7m/s | -58.5°C | 4.9% | 0hPa | 2.4V | 00:00:00 | 02:23:55 | 00:00:00 | |
| OE5DRO-10 | 2026-08-31 01:42:47 | 48.32208 | 17.28864 | 88° | 60km/h | 14978m | -16.3m/s | -58.6°C | 5.0% | 0hPa | 2.4V | 00:00:00 | 00:00:00 | 00:00:00 | |
| PG1ADW-2 | 2026-08-31 01:42:46 | 48.32208 | 17.28837 | 88° | 58km/h | 14993m | -15.8m/s | -58.6°C | 5.0% | 0hPa | 2.4V | 00:00:00 | 00:00:00 | 00:00:00 | |
| HA6NAB-11 | 2026-08-31 01:42:45 | 48.32207 | 17.28837 | 89° | 71km/h | 14993m | -15.8m/s | -58.7°C | 2.0% | 0hPa | 2.4V | 00:00:00 | 00:00:00 | 00:00:00 | |
| OM5KV | 2026-08-31 01:42:40 | 48.32208 | 17.28704 | 95° | 66km/h | 15074m | -16.1m/s | -58.4°C | 1.9% | 0hPa | 2.4V | 08:18:00 | 00:00:00 | 00:00:00 | |
| OM5KV | 2026-08-31 01:42:39 | 48.32210 | 17.28679 | 95° | 64km/h | 15090m | -15.9m/s | -58.5°C | 2.0% | 0hPa | 2.4V | 08:18:00 | 00:00:00 | 00:00:00 | |
| OE5MMP-10 | 2026-08-31 01:42:38 | 48.32212 | 17.28631 | 95° | 55km/h | 15121m | -15.5m/s | -58.7°C | 5.1% | 0hPa | 2.4V | 00:00:00 | 02:23:45 | 00:00:00 | |
| ATIDSZ-14 | 2026-08-31 01:42:37 | 48.32212 | 17.28631 | 96° | 60km/h | 15121m | -15.6m/s | -58.8°C | 2.0% | 0hPa | 2.4V | 08:18:00 | 00:00:00 | 00:00:00 | |
| OM5KV | 2026-08-31 01:42:34 | 48.32214 | 17.28562 | 94° | 57km/h | 15167m | -15.6m/s | -58.7°C | 1.9% | 0hPa | 2.4V | 08:18:00 | 00:00:00 | 00:00:00 | |
| OE5MMP-10 | 2026-08-31 01:42:28 | 48.32210 | 17.28419 | 85° | 55km/h | 15275m | -16.0m/s | -58.6°C | 5.0% | 0hPa | 2.4V | 00:00:00 | 02:23:35 | 00:00:00 | |
| PG1ADW-2 | 2026-08-31 01:42:26 | 48.32206 | 17.28381 | 81° | 57km/h | 15307m | -16.2m/s | -58.5°C | 5.1% | 0hPa | 2.2V | 08:18:00 | 00:00:00 | 00:00:00 | |
| OE5DXL-15 | 2026-08-31 01:42:22 | 48.32196 | 17.28301 | 82° | 57km/h | 15372m | -16.7m/s | -57.5°C | 4.6% | 0hPa | 2.4V | 00:00:00 | 00:00:00 | 00:00:00 | |
| OE3OSB-13 | 2026-08-31 01:42:21 | 48.32194 | 17.28281 | 81° | 55km/h | 15387m | -16.4m/s | -57.7°C | 1.6% | -1.0hPa | 2.2V | 00:00:00 | 00:00:00 | 00:00:00 | |
| OE5MMP-10 | 2026-08-31 01:42:18 | 48.32187 | 17.28221 | 84° | 58km/h | 15436m | -16.4m/s | -57.9°C | 4.8% | 0hPa | 2.2V | 00:00:00 | 02:23:25 | 00:00:00 | |
| ATIDSZ-14 | 2026-08-31 01:42:16 | 48.32185 | 17.28199 | 84° | 58km/h | 15452m | -16.4m/s | -58.0°C | 1.8% | 0hPa | 2.2V | 08:19:00 | 00:00:00 | 00:00:00 | |
| OM5KV | 2026-08-31 01:42:13 | 48.32180 | 17.28135 | 84° | 58km/h | 15501m | -17.1m/s | -57.3°C | 1.7% | 0hPa | 2.2V | 08:19:00 | 00:00:00 | 00:00:00 | |
| OE5DRO-10 | 2026-08-31 01:42:09 | 48.32171 | 17.28026 | 83° | 53km/h | 15583m | -17.3m/s | -57.3°C | 4.5% | 0hPa | 2.2V | 08:19:00 | 00:00:00 | 00:00:00 | |
| OE5MMP-10 | 2026-08-31 01:42:08 | 48.32170 | 17.28004 | 85° | 57km/h | 15599m | -16.6m/s | -57.3°C | 4.5% | 0hPa | 2.2V | 00:00:00 | 02:23:15 | 00:00:00 | |
| OM5KV | 2026-08-31 01:42:07 | 48.32170 | 17.28004 | 85° | 60km/h | 15599m | -16.6m/s | -57.4°C | 1.6% | 0hPa | 2.2V | 08:19:00 | 00:00:00 | 00:00:00 | |
| PG1ADW-2 | 2026-08-31 01:42:06 | 48.32167 | 17.27959 | 86° | 49km/h | 15633m | -16.1m/s | -57.2°C | 4.5% | 0hPa | 2.2V | 00:00:00 | 02:23:13 | 00:00:00 | |
| OM5KV | 2026-08-31 01:42:00 | 48.32165 | 17.27849 | 87° | 55km/h | 15714m | -16.6m/s | -57.0°C | 1.6% | 0hPa | 2.2V | 08:19:00 | 00:00:00 | 00:00:00 | |
| ATIDSZ-14 | 2026-08-31 01:41:55 | 48.32164 | 17.27749 | 90° | 49km/h | 15797m | -17.4m/s | -57.1°C | 1.6% | 0hPa | 2.2V | 08:19:00 | 00:00:00 | 00:00:00 | |
| OM5KV | 2026-08-31 01:41:54 | 48.32164 | 17.27730 | 91° | 47km/h | 15814m | -17.3m/s | -57.0°C | 1.6% | 0hPa | 2.2V | 08:19:00 | 00:00:00 | 00:00:00 | |
| OE5DXL-15 | 2026-08-31 01:41:52 | 48.32165 | 17.27675 | 90° | 33km/h | 15863m | -16.7m/s | -56.6°C | 4.2% | 0hPa | 2.2V | 00:00:00 | 00:00:00 | 00:00:00 | |
| OE5DRO-10 | 2026-08-31 01:41:50 | 48.32164 | 17.27642 | 89° | 37km/h | 15895m | -16.9m/s | -56.7°C | 4.2% | 0hPa | 2.2V | 00:00:00 | 00:00:00 | 00:00:00 | |
| OM5KV | 2026-08-31 01:41:49 | 48.32165 | 17.27642 | 90° | 40km/h | 15895m | -17.0m/s | -56.8°C | 1.5% | 0hPa | 2.2V | 08:19:00 | 00:00:00 | 00:00:00 | |
| OE5MMP-10 | 2026-08-31 01:41:48 | 48.32164 | 17.27613 | 89° | 37km/h | 15929m | -17.3m/s | -56.7°C | 4.3% | 0hPa | 2.2V | 00:00:00 | 02:22:55 | 00:00:00 | |
| OE3JTB-15 | 2026-08-31 01:41:47 | 48.32164 | 17.27600 | 89° | 37km/h | 15945m | -17.9m/s | -56.7°C | 4.2% | 0hPa | 2.2V | 00:00:00 | 02:22:54 | 00:00:00 | |
| PG1ADW-2 | 2026-08-31 01:41:46 | 48.32164 | 17.27587 | 90° | 37km/h | 15962m | -17.7m/s | -56.8°C | 4.2% | 0hPa | 2.2V | 00:00:00 | 00:00:00 | 00:00:00 | |
| OM5KV | 2026-08-31 01:41:43 | 48.32164 | 17.27561 | 91° | 35km/h | 15997m | -18.1m/s | -56.9°C | 1.5% | 0hPa | 2.2V | 08:19:00 | 00:00:00 | 00:00:00 | |
| OM5KV | 2026-08-31 01:41:42 | 48.32164 | 17.27548 | 91° | 37km/h | 16014m | -17.9m/s | -56.9°C | 1.5% | 0hPa | 2.2V | 08:19:00 | 00:00:00 | 00:00:00 | |
| S52SK | 2026-08-31 01:41:41 | 48.32163 | 17.27535 | 90° | 37km/h | 16032m | -17.9m/s | -56.8°C | 1.5% | 0hPa | 2.2V | 00:00:00 | 00:00:00 | 00:00:00 | |
| OE5MMP-10 | 2026-08-31 01:41:38 | 48.32161 | 17.27482 | 83° | 37km/h | 16102m | -17.6m/s | -57.1°C | 4.4% | 0hPa | 2.2V | 00:00:00 | 02:22:45 | 00:00:00 | |
| OM5KV | 2026-08-31 01:41:37 | 48.32161 | 17.27482 | 84° | 37km/h | 16102m | -17.7m/s | -57.1°C | 1.6% | 0hPa | 2.2V | 08:20:00 | 00:00:00 | 00:00:00 | |
| OM5KV | 2026-08-31 01:41:36 | 48.32160 | 17.27469 | 82° | 37km/h | 16119m | -17.4m/s | -57.3°C | 1.6% | 0hPa | 2.2V | 08:20:00 | 00:00:00 | 00:00:00 | |
| ATIDSZ-14 | 2026-08-31 01:41:34 | 48.32157 | 17.27443 | 79° | 37km/h | 16153m | -17.2m/s | -57.5°C | 1.6% | 0hPa | 2.2V | 08:20:00 | 00:00:00 | 00:00:00 | |
| OE5DRO-10 | 2026-08-31 01:41:31 | 48.32149 | 17.27392 | 71° | 37km/h | 16221m | -17.7m/s | -57.4°C | 4.6% | 0hPa | 2.2V | 00:00:00 | 00:00:00 | 00:00:00 | |
| OM5KV | 2026-08-31 01:41:30 | 48.32149 | 17.27392 | 72° | 35km/h | 16221m | -17.7m/s | -57.5°C | 1.6% | 0hPa | 2.2V | 08:20:00 | 00:00:00 | 00:00:00 | |
| OE5MMP-10 | 2026-08-31 01:41:28 | 48.32141 | 17.27353 | 68° | 37km/h | 16272m | -17.5m/s | -57.5°C | 4.7% | 0hPa | 2.2V | 08:19:00 | 02:22:35 | 00:00:00 | |
| PG1ADW-2 | 2026-08-31 01:41:26 | 48.32134 | 17.27328 | 62° | 38km/h | 16306m | -18.3m/s | -57.5°C | 4.7% | 0hPa | 2.5V | 00:00:00 | 00:00:00 | 00:00:00 | |
| HA6NAB-11 | 2026-08-31 01:41:24 | 48.32130 | 17.27316 | 61° | 37km/h | 16323m | -18.4m/s | -57.6°C | 1.7% | 0hPa | 2.2V | 00:00:00 | 00:00:00 | 00:00:00 | |
| OM5KV | 2026-08-31 01:41:20 | 48.32111 | 17.27268 | 60° | 35km/h | 16394m | -17.8m/s | -57.4°C | 1.6% | 0hPa | 2.2V | 08:20:00 | 00:00:00 | 00:00:00 | |
| OE3OSB-13 | 2026-08-31 01:41:19 | 48.32102 | 17.27244 | 63° | 37km/h | 16429m | -18.6m/s | -57.2°C | 1.4% | -1.0hPa | 2.2V | 00:00:00 | 00:00:00 | 00:00:00 | |
| OE5MMP-10 | 2026-08-31 01:41:18 | 48.32098 | 17.27231 | 65° | 40km/h | 16448m | -18.3m/s | -56.9°C | 4.6% | 0hPa | 2.2V | 00:00:00 | 02:22:25 | 00:00:00 | |
| OM5KV | 2026-08-31 01:41:14 | 48.32087 | 17.27190 | 75° | 42km/h | 16501m | -17.9m/s | -56.7°C | 1.6% | 0hPa | 2.2V | 08:20:00 | 00:00:00 | 00:00:00 | |
| ATIDSZ-14 | 2026-08-31 01:41:13 | 48.32084 | 17.27175 | 74° | 40km/h | 16518m | -18.0m/s | -56.8°C | 1.6% | 0hPa | 2.2V | 08:20:00 | 00:00:00 | 00:00:00 | |
| OE5DRO-10 | 2026-08-31 01:41:12 | 48.32079 | 17.27145 | 73° | 31km/h | 16555m | -18.4m/s | -56.5°C | 4.5% | 0hPa | 2.2V | 00:00:00 | 00:00:00 | 00:00:00 | |
| OE5MMP-10 | 2026-08-31 01:41:08 | 48.32068 | 17.27090 | 70° | 31km/h | 16627m | -18.9m/s | -56.3°C | 4.5% | 0hPa | 2.5V | 00:00:00 | 02:22:15 | 00:00:00 | |
| OM5KV | 2026-08-31 01:41:07 | 48.32067 | 17.27090 | 71° | 35km/h | 16627m | -18.9m/s | -56.3°C | 1.6% | 0hPa | 2.5V | 08:20:00 | 00:00:00 | 00:00:00 | |
| PG1ADW-2 | 2026-08-31 01:41:06 | 48.32062 | 17.27064 | 70° | 27km/h | 16663m | -18.4m/s | -56.0°C | 4.3% | 0hPa | 2.5V | 00:00:00 | 00:00:00 | 00:00:00 | |
| HA6NAB-11 | 2026-08-31 01:41:02 | 48.32055 | 17.27027 | 72° | 31km/h | 16714m | -18.5m/s | -56.1°C | 1.5% | 0hPa | 2.5V | 00:00:00 | 00:00:00 | 00:00:00 | |
| OM5KV | 2026-08-31 01:41:01 | 48.32052 | 17.27016 | 71° | 29km/h | 16732m | -18.7m/s | -56.1°C | 1.5% | 0hPa | 2.5V | 08:20:00 | 00:00:00 | 00:00:00 | |
| OM5KV | 2026-08-31 01:41:00 | 48.32049 | 17.27006 | 73° | 27km/h | 16750m | -18.0m/s | -55.9°C | 1.5% | 0hPa | 2.5V | 08:20:00 | 00:00:00 | 00:00:00 | |
| OE5MMP-10 | 2026-08-31 01:40:58 | 48.32045 | 17.26978 | 84° | 26km/h | 16804m | -19.5m/s | -54.9°C | 3.9% | 0hPa | 2.5V | 00:00:00 | 02:22:05 | 00:00:00 | |
| GYPAP8-17 | 2026-08-31 01:40:56 | 48.32045 | 17.26969 | 87° | 26km/h | 16823m | -19.1m/s | -54.8°C | 1.3% | 0hPa | 2.2V | 00:00:00 | 00:00:00 | 00:00:00 | |
| OM5KV | 2026-08-31 01:40:55 | 48.32045 | 17.26960 | 86° | 27km/h | 16841m | -20.0m/s | -54.5°C | 1.3% | 0hPa | 2.2V | 08:20:00 | 00:00:00 | 00:00:00 | |
| OE5DRO-10 | 2026-08-31 01:40:53 | 48.32044 | 17.26931 | 87° | 18km/h | 16898m | -19.2m/s | -54.6°C | 3.7% | 0hPa | 2.2V | 00:00:00 | 00:00:00 | 00:00:00 | |
| OM5KV | 2026-08-31 01:40:50 | 48.32043 | 17.26911 | 88° | 26km/h | 16934m | -18.8m/s | -54.9°C | 1.3% | 0hPa | 2.2V | 08:20:00 | 00:00:00 | 00:00:00 | |
| OE3JTB-15 | 2026-08-31 01:40:49 | 48.32043 | 17.26893 | 83° | 18km/h | 16971m | -19.3m/s | -55.1°C | 3.9% | 0hPa | 2.2V | 00:00:00 | 00:00:00 | 00:00:00 | |
| OE5MMP-10 | 2026-08-31 01:40:48 | 48.32042 | 17.26886 | 85° | 16km/h | 16990m | -19.5m/s | -55.2°C | 3.9% | 0hPa | 2.2V | 00:00:00 | 02:21:55 | 00:00:00 | |
| PG1ADW-2 | 2026-08-31 01:40:46 | 48.32042 | 17.26872 | 91° | 18km/h | 17029m | -19.4m/s | -55.3°C | 4.0% | 0hPa | 2.2V | 00:00:00 | 02:21:53 | 00:00:00 | |
| OM5KV | 2026-08-31 01:40:44 | 48.32042 | 17.26866 | 92° | 15km/h | 17047m | -19.3m/s | -55.3°C | 1.3% | 0hPa | 2.2V | 08:21:00 | 00:00:00 | 00:00:00 | |
| OM5KV | 2026-08-31 01:40:43 | 48.32042 | 17.26861 | 93° | 15km/h | 17067m | -19.1m/s | -55.3°C | 1.3% | 0hPa | 2.2V | 08:21:00 | 00:00:00 | 00:00:00 | |
| OE5MMP-10 | 2026-08-31 01:40:38 | 48.32044 | 17.26829 | 95° | 18km/h | 17178m | -20.0m/s | -56.0°C | 4.1% | 0hPa | 2.2V | 00:00:00 | 02:21:45 | 00:00:00 | |
| OM5KV | 2026-08-31 01:40:37 | 48.32044 | 17.26829 | 96° | 18km/h | 17178m | -20.0m/s | -56.0°C | 1.4% | 0hPa | 2.2V | 08:21:00 | 00:00:00 | 00:00:00 | |
| S52SK | 2026-08-31 01:40:35 | 48.32045 | 17.26817 | 97° | 18km/h | 17217m | -19.6m/s | -56.1°C | 1.4% | 0hPa | 2.2V | 00:00:00 | 00:00:00 | 00:00:00 | |
| OE5DRO-10 | 2026-08-31 01:40:34 | 48.32046 | 17.26803 | 96° | 20km/h | 17255m | -18.9m/s | -56.3°C | 4.2% | 0hPa | 2.2V | 00:00:00 | 00:00:00 | 00:00:00 | |
| OM5KV | 2026-08-31 01:40:33 | 48.32046 | 17.26803 | 97° | 20km/h | 17255m | -19.0m/s | -56.4°C | 1.4% | 0hPa | 2.2V | 08:21:00 | 00:00:00 | 00:00:00 | |
| ATIDSZ-14 | 2026-08-31 01:40:32 | 48.32047 | 17.26796 | 100° | 22km/h | 17274m | -18.5m/s | -56.2°C | 1.4% | 0hPa | 2.2V | 08:21:00 | 00:00:00 | 00:00:00 | |
| OM5KV | 2026-08-31 01:40:31 | 48.32047 | 17.26788 | 100° | 22km/h | 17291m | -18.8m/s | -56.0°C | 1.4% | 0hPa | 2.2V | 08:21:00 | 00:00:00 | 00:00:00 | |
| S52SK | 2026-08-31 01:40:30 | 48.32048 | 17.26780 | 98° | 22km/h | 17310m | -19.5m/s | -56.0°C | 1.3% | 0hPa | 2.2V | 00:00:00 | 00:00:00 | 00:00:00 | |
| OE5MMP-10 | 2026-08-31 01:40:28 | 48.32049 | 17.26759 | 91° | 20km/h | 17361m | -16.6m/s | -56.1°C | 4.2% | 0hPa | 2.2V | 00:00:00 | 02:21:35 | 00:00:00 | |
| OM5KV | 2026-08-31 01:40:27 | 48.32049 | 17.26759 | 91° | 22km/h | 17361m | -16.6m/s | -56.2°C | 1.4% | 0hPa | 2.2V | 08:21:00 | 00:00:00 | 00:00:00 | |
| PG1ADW-2 | 2026-08-31 01:40:26 | 48.32049 | 17.26743 | 80° | 18km/h | 17397m | -19.5m/s | -56.1°C | 4.2% | 0hPa | 2.2V | 00:00:00 | 00:00:00 | 00:00:00 | |
| OM5KV | 2026-08-31 01:40:25 | 48.32049 | 17.26743 | 81° | 24km/h | 17397m | -19.6m/s | -56.1°C | 1.4% | 0hPa | 2.2V | 08:21:00 | 00:00:00 | 00:00:00 | |
| OE3JTB-15 | 2026-08-31 01:40:20 | 48.32039 | 17.26696 | 69° | 22km/h | 17514m | -20.2m/s | -56.9°C | 4.5% | 0hPa | 2.2V | 00:00:00 | 02:21:27 | 00:00:00 | |
| OE5MMP-10 | 2026-08-31 01:40:18 | 48.32036 | 17.26683 | 69° | 16km/h | 17553m | -20.9m/s | -57.1°C | 4.6% | 0hPa | 2.2V | 00:00:00 | 02:21:25 | 00:00:00 | |
| OE3OSB-13 | 2026-08-31 01:40:17 | 48.32034 | 17.26677 | 69° | 16km/h | 17575m | -19.8m/s | -57.3°C | 1.4% | -1.0hPa | 2.2V | 00:00:00 | 00:00:00 | 00:00:00 | |
| OE5DRO-10 | 2026-08-31 01:40:15 | 48.32030 | 17.26667 | 75° | 20km/h | 17614m | -19.5m/s | -57.5°C | 4.8% | 0hPa | 2.2V | 00:00:00 | 00:00:00 | 00:00:00 | |
| HA6NAB-11 | 2026-08-31 01:40:14 | 48.32030 | 17.26666 | 76° | 16km/h | 17614m | -19.6m/s | -57.6°C | 1.6% | 0hPa | 2.2V | 08:21:00 | 00:00:00 | 00:00:00 | |
| ATIDSZ-14 | 2026-08-31 01:40:12 | 48.32027 | 17.26656 | 78° | 16km/h | 17653m | -20.0m/s | -57.5°C | 1.7% | 0hPa | 2.2V | 08:21:00 | 00:00:00 | 00:00:00 | |
| GYPAP8-17 | 2026-08-31 01:40:10 | 48.32025 | 17.26646 | 73° | 16km/h | 17692m | -19.8m/s | -56.1°C | 1.4% | 0hPa | 2.2V | 00:00:00 | 00:00:00 | 00:00:00 | |
| HA6NAB-11 | 2026-08-31 01:40:09 | 48.32023 | 17.26641 | 72° | 15km/h | 17712m | -19.1m/s | -55.7°C | 1.4% | 0hPa | 2.2V | 08:21:00 | 00:00:00 | 00:00:00 | |
| OE5MMP-10 | 2026-08-31 01:40:08 | 48.32020 | 17.26630 | 58° | 22km/h | 17750m | -20.4m/s | -55.9°C | 4.2% | 0hPa | 2.2V | 00:00:00 | 02:21:15 | 00:00:00 | |
| PG1ADW-2 | 2026-08-31 01:40:06 | 48.32015 | 17.26618 | 50° | 26km/h | 17790m | -20.4m/s | -56.0°C | 4.4% | 0hPa | 2.2V | 00:00:00 | 00:00:00 | 00:00:00 | |
| HA6NAB-11 | 2026-08-31 01:40:04 | 48.32011 | 17.26612 | 52° | 22km/h | 17809m | -19.8m/s | -56.0°C | 1.4% | 0hPa | 2.2V | 08:21:00 | 00:00:00 | 00:00:00 | |
| OM5KV | 2026-08-31 01:40:02 | 48.32004 | 17.26599 | 46° | 24km/h | 17850m | -20.3m/s | -56.0°C | 1.5% | 0hPa | 2.2V | 08:21:00 | 00:00:00 | 00:00:00 | |
| OM5KV | 2026-08-31 01:40:01 | 48.32000 | 17.26593 | 43° | 22km/h | 17869m | -21.0m/s | -55.6°C | 1.4% | 0hPa | 2.2V | 08:21:00 | 00:00:00 | 00:00:00 | |
| OE5MMP-10 | 2026-08-31 01:39:58 | 48.31984 | 17.26563 | 57° | 29km/h | 17951m | -19.9m/s | -56.3°C | 4.4% | 0hPa | 2.2V | 08:21:00 | 02:21:05 | 00:00:00 | |
| OE5DRO-10 | 2026-08-31 01:39:56 | 48.31977 | 17.26544 | 66° | 27km/h | 17991m | -20.2m/s | -56.5°C | 4.6% | 0hPa | 2.5V | 00:00:00 | 00:00:00 | 00:00:00 | |
| OM5KV | 2026-08-31 01:39:55 | 48.31977 | 17.26544 | 66° | 29km/h | 17991m | -20.3m/s | -56.6°C | 1.5% | 0hPa | 2.5V | 08:22:00 | 00:00:00 | 00:00:00 | |
| OE3JTB-15 | 2026-08-31 01:39:51 | 48.31961 | 17.26491 | 58° | 29km/h | 18089m | -19.4m/s | -55.1°C | 4.0% | 0hPa | 2.5V | 08:21:00 | 00:00:00 | 00:00:00 | |
| OE5MMP-10 | 2026-08-31 01:39:48 | 48.31949 | 17.26464 | 58° | 27km/h | 18150m | -20.0m/s | -55.0°C | 3.9% | 0hPa | 2.5V | 00:00:00 | 02:20:55 | 00:00:00 | |
| PG1ADW-2 | 2026-08-31 01:39:46 | 48.31943 | 17.26446 | 62° | 29km/h | 18190m | -21.1m/s | -55.0°C | 3.9% | 0hPa | 2.5V | 00:00:00 | 00:00:00 | 00:00:00 | |
| OM5KV | 2026-08-31 01:39:45 | 48.31943 | 17.26446 | 63° | 26km/h | 18190m | -21.2m/s | -55.1°C | 1.3% | 0hPa | 2.5V | 08:22:00 | 00:00:00 | 00:00:00 | |
| OM5KV | 2026-08-31 01:39:39 | 48.31925 | 17.26386 | 68° | 29km/h | 18313m | -19.1m/s | -55.0°C | 1.3% | 0hPa | 2.5V | 08:22:00 | 00:00:00 | 00:00:00 | |
| OE5MMP-10 | 2026-08-31 01:39:38 | 48.31918 | 17.26366 | 67° | 33km/h | 18350m | -19.8m/s | -55.2°C | 4.0% | 0hPa | 2.5V | 00:00:00 | 02:20:45 | 00:00:00 | |
| OE5DRO-10 | 2026-08-31 01:39:37 | 48.31916 | 17.26355 | 71° | 27km/h | 18370m | -21.5m/s | -55.3°C | 4.0% | 0hPa | 2.5V | 00:00:00 | 00:00:00 | 00:00:00 | |
| OE5DXL-15 | 2026-08-31 01:39:35 | 48.31910 | 17.26332 | 76° | 26km/h | 18411m | -21.7m/s | -55.6°C | 4.1% | 0hPa | 2.5V | 00:00:00 | 00:00:00 | 00:00:00 | |
| ATIDSZ-14 | 2026-08-31 01:39:30 | 48.31903 | 17.26284 | 81° | 31km/h | 18493m | -20.3m/s | -56.3°C | 1.5% | 0hPa | 2.5V | 08:22:00 | 00:00:00 | 00:00:00 | |
| OE5MMP-10 | 2026-08-31 01:39:28 | 48.31899 | 17.26249 | 81° | 22km/h | 18552m | -20.1m/s | -56.5°C | 4.5% | 0hPa | 2.5V | 00:00:00 | 02:20:35 | 00:00:00 | |
| OM5KV | 2026-08-31 01:39:27 | 48.31899 | 17.26249 | 81° | 29km/h | 18552m | -20.2m/s | -56.5°C | 1.5% | 0hPa | 2.2V | 08:22:00 | 00:00:00 | 00:00:00 | |
| PG1ADW-2 | 2026-08-31 01:39:26 | 48.31897 | 17.26229 | 83° | 15km/h | 18592m | -19.9m/s | -56.2°C | 4.5% | 0hPa | 2.2V | 08:21:00 | 02:20:33 | 00:00:00 | |
| OK1ALN | 2026-08-31 01:39:25 | 48.31897 | 17.26229 | 84° | 26km/h | 18592m | -20.0m/s | -56.3°C | 1.4% | 0hPa | 2.2V | 00:00:00 | 00:00:00 | 00:00:00 | |
| S52SK | 2026-08-31 01:39:24 | 48.31896 | 17.26220 | 81° | 24km/h | 18611m | -20.1m/s | -55.9°C | 1.4% | 0hPa | 2.2V | 00:00:00 | 00:00:00 | 00:00:00 | |
| OE3JTB-15 | 2026-08-31 01:39:22 | 48.31892 | 17.26195 | 66° | 18km/h | 18674m | -20.9m/s | -55.4°C | 4.1% | 0hPa | 2.2V | 00:00:00 | 00:00:00 | 00:00:00 | |
| OM5KV | 2026-08-31 01:39:21 | 48.31892 | 17.26195 | 66° | 22km/h | 18674m | -21.0m/s | -55.4°C | 1.4% | 0hPa | 2.2V | 08:22:00 | 00:00:00 | 00:00:00 | |
| OM5KV | 2026-08-31 01:39:20 | 48.31889 | 17.26188 | 57° | 18km/h | 18695m | -21.1m/s | -55.5°C | 1.3% | 0hPa | 2.2V | 08:22:00 | 00:00:00 | 00:00:00 | |
| S52SK | 2026-08-31 01:39:19 | 48.31886 | 17.26183 | 47° | 16km/h | 18716m | -21.4m/s | -55.6°C | 1.3% | 0hPa | 2.2V | 00:00:00 | 00:00:00 | 00:00:00 | |
| OE5MMP-10 | 2026-08-31 01:39:18 | 48.31880 | 17.26175 | 35° | 9km/h | 18760m | -20.4m/s | -55.5°C | 4.1% | 0hPa | 2.2V | 00:00:00 | 02:20:25 | 00:00:00 | |
| GYPAP8-17 | 2026-08-31 01:39:16 | 48.31878 | 17.26173 | 35° | 9km/h | 18780m | -20.7m/s | -55.5°C | 1.3% | 0hPa | 2.2V | 00:00:00 | 00:00:00 | 00:00:00 | |
| OE3OSB-13 | 2026-08-31 01:39:15 | 48.31875 | 17.26169 | 54° | 7km/h | 18820m | -21.3m/s | -55.6°C | 1.2% | -1.0hPa | 2.2V | 00:00:00 | 00:00:00 | 00:00:00 | |
| OM5KV | 2026-08-31 01:39:14 | 48.31875 | 17.26169 | 55° | 7km/h | 18821m | -21.3m/s | -55.6°C | 1.4% | 0hPa | 2.2V | 08:22:00 | 00:00:00 | 00:00:00 | |
| ATIDSZ-14 | 2026-08-31 01:39:10 | 48.31869 | 17.26162 | 31° | 11km/h | 18906m | -21.9m/s | -55.7°C | 1.4% | 0hPa | 2.2V | 08:22:00 | 00:00:00 | 00:00:00 | |
| OM5KV | 2026-08-31 01:39:09 | 48.31867 | 17.26160 | 23° | 13km/h | 18927m | -21.7m/s | -55.4°C | 1.3% | 0hPa | 2.2V | 08:22:00 | 00:00:00 | 00:00:00 | |
| OE5MMP-10 | 2026-08-31 01:39:08 | 48.31861 | 17.26156 | 19° | 22km/h | 18970m | -22.1m/s | -55.4°C | 4.1% | 0hPa | 2.2V | 00:00:00 | 02:20:15 | 00:00:00 | |
| PG1ADW-2 | 2026-08-31 01:39:06 | 48.31852 | 17.26151 | 22° | 26km/h | 19014m | -22.4m/s | -55.3°C | 4.1% | 0hPa | 2.2V | 00:00:00 | 00:00:00 | 00:00:00 | |
| OM5KV | 2026-08-31 01:39:03 | 48.31843 | 17.26146 | 33° | 20km/h | 19058m | -22.0m/s | -55.5°C | 1.3% | 0hPa | 2.2V | 08:22:00 | 00:00:00 | 00:00:00 | |
| OE5DRO-10 | 2026-08-31 01:38:59 | 48.31821 | 17.26117 | 50° | 24km/h | 19166m | -22.4m/s | -55.8°C | 4.2% | 0hPa | 2.2V | 00:00:00 | 00:00:00 | 00:00:00 | |
| OE5MMP-10 | 2026-08-31 01:38:58 | 48.31817 | 17.26109 | 54° | 27km/h | 19187m | -21.7m/s | -55.7°C | 4.2% | 0hPa | 2.2V | 00:00:00 | 02:20:05 | 00:00:00 | |
| OM5KV | 2026-08-31 01:38:57 | 48.31817 | 17.26109 | 54° | 29km/h | 19187m | -21.8m/s | -55.8°C | 1.4% | 0hPa | 2.5V | 08:22:00 | 00:00:00 | 00:00:00 | |
| HA6NAB-11 | 2026-08-31 01:38:55 | 48.31808 | 17.26092 | 58° | 29km/h | 19230m | -21.8m/s | -55.8°C | 1.4% | 0hPa | 2.5V | 00:00:00 | 00:00:00 | 00:00:00 | |
| OE3JTB-15 | 2026-08-31 01:38:53 | 48.31797 | 17.26065 | 61° | 16km/h | 19295m | -22.9m/s | -56.0°C | 4.3% | 0hPa | 2.5V | 00:00:00 | 02:20:00 | 00:00:00 | |
| ATIDSZ-14 | 2026-08-31 01:38:49 | 48.31787 | 17.26039 | 66° | 26km/h | 19362m | -22.2m/s | -56.0°C | 1.4% | 0hPa | 2.5V | 08:22:00 | 00:00:00 | 00:00:00 | |
| OE5MMP-10 | 2026-08-31 01:38:48 | 48.31783 | 17.26024 | 68° | 18km/h | 19404m | -20.4m/s | -55.9°C | 4.4% | 0hPa | 2.5V | 00:00:00 | 02:19:55 | 00:00:00 | |
| OE5DXL-15 | 2026-08-31 01:38:47 | 48.31781 | 17.26017 | 70° | 13km/h | 19424m | -20.7m/s | -56.0°C | 4.5% | 0hPa | 2.5V | 00:00:00 | 00:00:00 | 00:00:00 | |
| PG1ADW-2 | 2026-08-31 01:38:46 | 48.31780 | 17.26011 | 71° | 15km/h | 19445m | -20.8m/s | -56.1°C | 4.5% | 0hPa | 2.5V | 00:00:00 | 00:00:00 | 00:00:00 | |
| HA6NAB-11 | 2026-08-31 01:38:44 | 48.31778 | 17.26005 | 74° | 18km/h | 19467m | -21.5m/s | -56.1°C | 1.4% | 0hPa | 2.5V | 00:00:00 | 00:00:00 | 00:00:00 | |
| OK1ALN | 2026-08-31 01:38:43 | 48.31777 | 17.25998 | 71° | 18km/h | 19487m | -22.1m/s | -56.1°C | 1.4% | 0hPa | 2.5V | 08:22:00 | 00:00:00 | 00:00:00 | |
| OM5KV | 2026-08-31 01:38:42 | 48.31774 | 17.25986 | 61° | 18km/h | 19531m | -22.4m/s | -56.1°C | 1.5% | 0hPa | 2.5V | 08:22:00 | 00:00:00 | 00:00:00 | |
| OE5DRO-10 | 2026-08-31 01:38:40 | 48.31769 | 17.25975 | 43° | 13km/h | 19575m | -23.0m/s | -56.0°C | 4.5% | 0hPa | 2.5V | 00:00:00 | 00:00:00 | 00:00:00 | |
| OE5MMP-10 | 2026-08-31 01:38:38 | 48.31763 | 17.25967 | 29° | 13km/h | 19620m | -22.9m/s | -56.0°C | 4.5% | 0hPa | 2.5V | 00:00:00 | 02:19:45 | 00:00:00 | |
| OM5KV | 2026-08-31 01:38:36 | 48.31760 | 17.25964 | 29° | 15km/h | 19642m | -21.9m/s | -56.1°C | 1.5% | 0hPa | 2.5V | 08:22:00 | 00:00:00 | 00:00:00 | |
| OM5KV | 2026-08-31 01:38:35 | 48.31756 | 17.25962 | 36° | 13km/h | 19664m | -23.2m/s | -56.1°C | 1.5% | 0hPa | 2.5V | 08:22:00 | 00:00:00 | 00:00:00 | |
| HA6NAB-11 | 2026-08-31 01:38:32 | 48.31749 | 17.25953 | 53° | 13km/h | 19732m | -23.9m/s | -55.7°C | 1.4% | 0hPa | 2.5V | 00:00:00 | 00:00:00 | 00:00:00 | |
| GYPAP8-17 | 2026-08-31 01:38:31 | 48.31747 | 17.25949 | 54° | 13km/h | 19755m | -23.8m/s | -55.6°C | 1.4% | 0hPa | 2.5V | 00:00:00 | 00:00:00 | 00:00:00 | |
| OM5KV | 2026-08-31 01:38:30 | 48.31745 | 17.25945 | 46° | 13km/h | 19778m | -23.5m/s | -55.5°C | 1.4% | 0hPa | 2.5V | 08:22:00 | 00:00:00 | 00:00:00 | |
| ATIDSZ-14 | 2026-08-31 01:38:29 | 48.31742 | 17.25942 | 38° | 15km/h | 19802m | -24.1m/s | -55.3°C | 1.4% | 0hPa | 2.5V | 08:22:00 | 00:00:00 | 00:00:00 | |
| OE5MMP-10 | 2026-08-31 01:38:28 | 48.31737 | 17.25937 | 28° | 9km/h | 19848m | -23.1m/s | -55.2°C | 4.3% | 0hPa | 2.5V | 08:22:00 | 02:19:35 | 00:00:00 | |
| PG1ADW-2 | 2026-08-31 01:38:26 | 48.31731 | 17.25933 | 19° | 9km/h | 19895m | -23.3m/s | -54.9°C | 4.2% | 0hPa | 2.2V | 00:00:00 | 00:00:00 | 00:00:00 | |
| OE3JTB-15 | 2026-08-31 01:38:24 | 48.31726 | 17.25932 | 351° | 13km/h | 19941m | -23.6m/s | -54.9°C | 4.2% | 0hPa | 2.4V | 00:00:00 | 00:00:00 | 00:00:00 | |
| OK1ALN | 2026-08-31 01:38:23 | 48.31726 | 17.25932 | 351° | 9km/h | 19941m | -23.6m/s | -54.9°C | 1.4% | 0hPa | 2.4V | 08:22:00 | 00:00:00 | 00:00:00 | |
| OE5DRO-10 | 2026-08-31 01:38:21 | 48.31720 | 17.25935 | 334° | 11km/h | 20011m | -23.4m/s | -54.4°C | 4.0% | 0hPa | 2.4V | 00:00:00 | 00:00:00 | 00:00:00 | |
| OE5MMP-10 | 2026-08-31 01:38:18 | 48.31715 | 17.25937 | 344° | 9km/h | 20082m | -24.4m/s | -54.2°C | 3.9% | 0hPa | 2.5V | 00:00:00 | 02:19:25 | 00:00:00 | |
| OE5DXL-15 | 2026-08-31 01:38:17 | 48.31713 | 17.25938 | 338° | 16km/h | 20107m | -22.4m/s | -54.1°C | 3.9% | 0hPa | 2.5V | 00:00:00 | 00:00:00 | 00:00:00 | |
| S52SK | 2026-08-31 01:38:13 | 48.31708 | 17.25941 | 331° | 7km/h | 20174m | -23.1m/s | -54.0°C | 1.2% | 0hPa | 2.5V | 00:00:00 | 00:00:00 | 00:00:00 | |
| OM5KV | 2026-08-31 01:38:12 | 48.31706 | 17.25943 | 319° | 11km/h | 20196m | -22.8m/s | -54.0°C | 1.2% | 0hPa | 2.5V | 08:23:00 | 00:00:00 | 00:00:00 | |
| OE5MMP-10 | 2026-08-31 01:38:08 | 48.31695 | 17.25957 | 324° | 18km/h | 20311m | -23.1m/s | -54.3°C | 3.8% | 0hPa | 2.5V | 00:00:00 | 02:19:15 | 00:00:00 | |
| S52SK | 2026-08-31 01:38:07 | 48.31695 | 17.25957 | 324° | 13km/h | 20311m | -23.1m/s | -54.3°C | 1.2% | 0hPa | 2.5V | 00:00:00 | 00:00:00 | 00:00:00 | |
| PG1ADW-2 | 2026-08-31 01:38:06 | 48.31689 | 17.25961 | 349° | 20km/h | 20357m | -24.0m/s | -54.5°C | 4.0% | 0hPa | 2.5V | 00:00:00 | 02:19:13 | 00:00:00 | |
| OK1ALN | 2026-08-31 01:38:03 | 48.31681 | 17.25963 | 346° | 20km/h | 20405m | -24.3m/s | -54.8°C | 1.3% | 0hPa | 2.5V | 00:00:00 | 00:00:00 | 00:00:00 | |
| OE5DRO-10 | 2026-08-31 01:38:02 | 48.31672 | 17.25967 | 342° | 20km/h | 20452m | -24.4m/s | -54.9°C | 4.1% | 0hPa | 2.5V | 00:00:00 | 00:00:00 | 00:00:00 | |
| OM5KV | 2026-08-31 01:38:00 | 48.31667 | 17.25969 | 347° | 22km/h | 20476m | -23.9m/s | -54.9°C | 1.3% | 0hPa | 2.5V | 08:23:00 | 00:00:00 | 00:00:00 | |
| OE5MMP-10 | 2026-08-31 01:37:57 | 48.31647 | 17.25968 | 17° | 20km/h | 20568m | -22.2m/s | -55.0°C | 4.1% | 0hPa | 2.5V | 00:00:00 | 02:19:04 | 00:00:00 | |
| OM5KV | 2026-08-31 01:37:56 | 48.31647 | 17.25968 | 17° | 22km/h | 20568m | -22.2m/s | -55.1°C | 1.3% | 0hPa | 2.4V | 08:23:00 | 00:00:00 | 00:00:00 | |
| OE3JTB-15 | 2026-08-31 01:37:55 | 48.31637 | 17.25961 | 31° | 15km/h | 20613m | -23.9m/s | -55.1°C | 4.2% | 0hPa | 2.4V | 00:00:00 | 00:00:00 | 00:00:00 | |
| HA6NAB-11 | 2026-08-31 01:37:51 | 48.31627 | 17.25945 | 53° | 20km/h | 20682m | -22.9m/s | -55.3°C | 1.3% | 0hPa | 2.4V | 08:23:00 | 00:00:00 | 00:00:00 | |
| OM5KV | 2026-08-31 01:37:50 | 48.31624 | 17.25939 | 66° | 20km/h | 20705m | -23.0m/s | -55.4°C | 1.4% | 0hPa | 2.4V | 08:23:00 | 00:00:00 | 00:00:00 | |
| OM5KV | 2026-08-31 01:37:49 | 48.31622 | 17.25932 | 70° | 22km/h | 20728m | -22.5m/s | -55.4°C | 1.4% | 0hPa | 2.4V | 08:23:00 | 00:00:00 | 00:00:00 | |
| ATIDSZ-14 | 2026-08-31 01:37:48 | 48.31620 | 17.25925 | 75° | 24km/h | 20751m | -23.1m/s | -55.4°C | 1.4% | 0hPa | 2.4V | 08:23:00 | 00:00:00 | 00:00:00 | |
| OE5MMP-10 | 2026-08-31 01:37:47 | 48.31616 | 17.25909 | 71° | 13km/h | 20798m | -24.3m/s | -55.2°C | 4.2% | 0hPa | 2.4V | 00:00:00 | 02:18:54 | 00:00:00 | |
| PG1ADW-2 | 2026-08-31 01:37:46 | 48.31614 | 17.25902 | 73° | 11km/h | 20822m | -23.7m/s | -55.3°C | 4.3% | 0hPa | 2.4V | 00:00:00 | 00:00:00 | 00:00:00 | |
| HA6NAB-11 | 2026-08-31 01:37:45 | 48.31614 | 17.25902 | 73° | 20km/h | 20822m | -23.7m/s | -55.3°C | 1.4% | 0hPa | 2.4V | 08:23:00 | 00:00:00 | 00:00:00 | |
| OM5KV | 2026-08-31 01:37:44 | 48.31613 | 17.25895 | 74° | 18km/h | 20845m | -23.1m/s | -55.2°C | 1.3% | 0hPa | 2.4V | 08:23:00 | 00:00:00 | 00:00:00 | |
| OE5DRO-10 | 2026-08-31 01:37:43 | 48.31610 | 17.25885 | 58° | 9km/h | 20890m | -24.2m/s | -55.3°C | 4.3% | 0hPa | 2.4V | 00:00:00 | 00:00:00 | 00:00:00 | |
| OK1ALN | 2026-08-31 01:37:41 | 48.31608 | 17.25882 | 45° | 11km/h | 20913m | -24.2m/s | -55.4°C | 1.4% | 0hPa | 2.4V | 00:00:00 | 00:00:00 | 00:00:00 | |
| HA6NAB-11 | 2026-08-31 01:37:40 | 48.31607 | 17.25880 | 26° | 7km/h | 20938m | -24.7m/s | -55.4°C | 1.3% | 0hPa | 2.4V | 08:23:00 | 00:00:00 | 00:00:00 | |
| OM5KV | 2026-08-31 01:37:39 | 48.31606 | 17.25879 | 23° | 5km/h | 20962m | -24.8m/s | -55.5°C | 1.4% | 0hPa | 2.4V | 08:23:00 | 00:00:00 | 00:00:00 | |
| OE5MMP-10 | 2026-08-31 01:37:37 | 48.31603 | 17.25875 | 68° | 11km/h | 21036m | -26.1m/s | -55.5°C | 4.4% | 0hPa | 2.4V | 00:00:00 | 02:18:44 | 00:00:00 | |
| OM5KV | 2026-08-31 01:37:33 | 48.31601 | 17.25868 | 89° | 9km/h | 21110m | -23.9m/s | -55.2°C | 1.4% | 0hPa | 2.4V | 08:23:00 | 00:00:00 | 00:00:00 | |
| GYPAP8-17 | 2026-08-31 01:37:32 | 48.31601 | 17.25865 | 92° | 11km/h | 21133m | -23.7m/s | -55.2°C | 1.3% | 0hPa | 2.4V | 00:00:00 | 00:00:00 | 00:00:00 | |
| OM5KV | 2026-08-31 01:37:31 | 48.31601 | 17.25860 | 95° | 15km/h | 21158m | -24.0m/s | -55.2°C | 1.4% | 0hPa | 2.4V | 08:23:00 | 00:00:00 | 00:00:00 | |
| HA6NAB-11 | 2026-08-31 01:37:28 | 48.31602 | 17.25847 | 103° | 15km/h | 21227m | -20.4m/s | -55.3°C | 1.4% | 0hPa | 2.4V | 08:23:00 | 00:00:00 | 00:00:00 | |
| OE5MMP-10 | 2026-08-31 01:37:27 | 48.31604 | 17.25838 | 110° | 5km/h | 21271m | -22.9m/s | -55.3°C | 4.4% | 0hPa | 2.4V | 00:00:00 | 02:18:34 | 00:00:00 | |
| OE3JTB-15 | 2026-08-31 01:37:26 | 48.31605 | 17.25835 | 123° | 13km/h | 21295m | -22.8m/s | -55.3°C | 4.4% | 0hPa | 2.5V | 00:00:00 | 02:18:33 | 00:00:00 | |
| OM5KV | 2026-08-31 01:37:25 | 48.31605 | 17.25835 | 123° | 11km/h | 21295m | -22.8m/s | -55.4°C | 1.4% | 0hPa | 2.5V | 08:23:00 | 00:00:00 | 00:00:00 | |
| OE5DRO-10 | 2026-08-31 01:37:24 | 48.31608 | 17.25829 | 113° | 11km/h | 21341m | -24.2m/s | -55.2°C | 4.4% | 0hPa | 2.5V | 00:00:00 | 00:00:00 | 00:00:00 | |
| HA6NAB-11 | 2026-08-31 01:37:22 | 48.31608 | 17.25828 | 118° | 5km/h | 21365m | -23.8m/s | -55.2°C | 1.4% | 0hPa | 2.4V | 08:24:00 | 00:00:00 | 00:00:00 | |
| OK1ALN | 2026-08-31 01:37:21 | 48.31608 | 17.25827 | 115° | 2km/h | 21389m | -24.6m/s | -55.1°C | 1.4% | 0hPa | 2.4V | 08:24:00 | 00:00:00 | 00:00:00 | |
| OE5MMP-10 | 2026-08-31 01:37:17 | 48.31610 | 17.25833 | 253° | 15km/h | 21506m | -24.8m/s | -54.8°C | 4.3% | 0hPa | 2.4V | 00:00:00 | 02:18:24 | 00:00:00 | |
| OM5KV | 2026-08-31 01:37:15 | 48.31610 | 17.25836 | 265° | 9km/h | 21530m | -24.4m/s | -54.7°C | 1.3% | 0hPa | 2.4V | 08:24:00 | 00:00:00 | 00:00:00 | |
| OM5KV | 2026-08-31 01:37:13 | 48.31610 | 17.25842 | 268° | 11km/h | 21580m | -25.8m/s | -54.5°C | 1.3% | 0hPa | 2.4V | 08:24:00 | 00:00:00 | 00:00:00 | |
| OE3OSB-13 | 2026-08-31 01:37:11 | 48.31608 | 17.25864 | 293° | 18km/h | 21681m | -25.8m/s | -54.1°C | 1.2% | -1.0hPa | 2.4V | 00:00:00 | 00:00:00 | 00:00:00 | |
| OE5MMP-10 | 2026-08-31 01:37:07 | 48.31602 | 17.25884 | 292° | 16km/h | 21759m | -26.2m/s | -54.1°C | 4.0% | 0hPa | 2.4V | 00:00:00 | 02:18:14 | 00:00:00 | |
| PG1ADW-2 | 2026-08-31 01:37:06 | 48.31600 | 17.25891 | 296° | 13km/h | 21786m | -26.1m/s | -54.2°C | 4.1% | 0hPa | 2.4V | 00:00:00 | 00:00:00 | 00:00:00 | |
| OE5DRO-10 | 2026-08-31 01:37:05 | 48.31598 | 17.25897 | 302° | 13km/h | 21811m | -25.6m/s | -54.2°C | 4.1% | 0hPa | 2.4V | 00:00:00 | 00:00:00 | 00:00:00 | |
| EDDB2-12 | 2026-08-31 01:37:04 | 48.31592 | 17.25908 | 317° | 18km/h | 21862m | -26.0m/s | -54.1°C | 1.1% | -1.0hPa | 2.4V | 00:00:00 | 00:00:00 | 00:00:00 | |
| OM5KV | 2026-08-31 01:37:02 | 48.31592 | 17.25908 | 319° | 18km/h | 21862m | -26.0m/s | -54.1°C | 1.2% | 0hPa | 2.4V | 08:24:00 | 00:00:00 | 00:00:00 | |
| SONDE2-11 | 2026-08-31 01:36:54 | 48.31561 | 17.25930 | 2° | 9km/h | 22114m | -23.8m/s | -54.3°C | 1.2% | -1.0hPa | 2.4V | 00:00:00 | 00:00:00 | 00:00:00 | |
| OM5KV | 2026-08-31 01:36:50 | 48.31557 | 17.25927 | 38° | 7km/h | 22163m | -24.7m/s | -54.2°C | 1.3% | 0hPa | 2.4V | 08:24:00 | 00:00:00 | 00:00:00 | |
| OE5MMP-10 | 2026-08-31 01:36:47 | 48.31555 | 17.25918 | 117° | 11km/h | 22260m | -24.3m/s | -53.9°C | 4.0% | 0hPa | 2.4V | 00:00:00 | 02:17:54 | 00:00:00 | |
| PG1ADW-2 | 2026-08-31 01:36:46 | 48.31555 | 17.25917 | 129° | 15km/h | 22285m | -25.0m/s | -53.9°C | 4.1% | 0hPa | 2.4V | 00:00:00 | 02:17:53 | 00:00:00 | |
| HA6NAB-11 | 2026-08-31 01:36:45 | 48.31555 | 17.25916 | 0° | 0km/h | 22285m | -25.0m/s | -53.9°C | 1.3% | 0hPa | 2.4V | 08:24:00 | 00:00:00 | 00:00:00 | |
| OM5KV | 2026-08-31 01:36:41 | 48.31562 | 17.25916 | 196° | 13km/h | 22378m | -23.4m/s | -53.7°C | 1.2% | 0hPa | 2.4V | 08:24:00 | 00:00:00 | 00:00:00 | |
| HA6NAB-11 | 2026-08-31 01:36:40 | 48.31565 | 17.25917 | 220° | 15km/h | 22401m | -23.8m/s | -53.7°C | 1.2% | 0hPa | 2.4V | 08:24:00 | 00:00:00 | 00:00:00 | |
| GYPAP8-17 | 2026-08-31 01:36:39 | 48.31568 | 17.25920 | 218° | 15km/h | 22424m | -24.9m/s | -53.8°C | 1.2% | 0hPa | 2.4V | 00:00:00 | 00:00:00 | 00:00:00 | |
| OE5MMP-10 | 2026-08-31 01:36:37 | 48.31577 | 17.25932 | 233° | 18km/h | 22498m | -24.2m/s | -54.1°C | 4.0% | 0hPa | 2.4V | 00:00:00 | 02:17:44 | 00:00:00 | |
| HA6NAB-11 | 2026-08-31 01:36:35 | 48.31580 | 17.25937 | 235° | 18km/h | 22521m | -25.2m/s | -54.1°C | 1.2% | 0hPa | 2.4V | 08:24:00 | 00:00:00 | 00:00:00 | |
| EDDB2-12 | 2026-08-31 01:36:33 | 48.31586 | 17.25954 | 263° | 15km/h | 22596m | -26.5m/s | -54.3°C | 1.2% | -1.0hPa | 2.4V | 00:00:00 | 00:00:00 | 00:00:00 | |
| OM5KV | 2026-08-31 01:36:32 | 48.31586 | 17.25954 | 265° | 16km/h | 22596m | -26.5m/s | -54.3°C | 1.3% | 0hPa | 2.4V | 08:25:00 | 00:00:00 | 00:00:00 | |
| OM5KV | 2026-08-31 01:36:30 | 48.31587 | 17.25966 | 274° | 18km/h | 22648m | -26.5m/s | -54.4°C | 1.3% | 0hPa | 2.4V | 08:25:00 | 00:00:00 | 00:00:00 | |
| HA6NAB-11 | 2026-08-31 01:36:29 | 48.31587 | 17.25973 | 277° | 20km/h | 22673m | -26.3m/s | -54.4°C | 1.3% | 0hPa | 2.4V | 08:25:00 | 00:00:00 | 00:00:00 | |
| OE3JTB-15 | 2026-08-31 01:36:28 | 48.31586 | 17.25988 | 273° | 13km/h | 22726m | -27.2m/s | -54.3°C | 4.1% | 0hPa | 2.4V | 00:00:00 | 00:00:00 | 00:00:00 | |
| OE5MMP-10 | 2026-08-31 01:36:27 | 48.31586 | 17.25995 | 280° | 15km/h | 22753m | -27.5m/s | -54.3°C | 4.1% | 0hPa | 2.4V | 00:00:00 | 02:17:34 | 00:00:00 | |
| PG1ADW-2 | 2026-08-31 01:36:26 | 48.31585 | 17.26002 | 291° | 11km/h | 22780m | -28.1m/s | -54.4°C | 4.1% | 0hPa | 2.5V | 08:24:00 | 00:00:00 | 00:00:00 | |
| HA6NAB-11 | 2026-08-31 01:36:24 | 48.31583 | 17.26009 | 292° | 20km/h | 22808m | -28.3m/s | -54.5°C | 1.3% | 0hPa | 2.5V | 08:25:00 | 00:00:00 | 00:00:00 | |
| SONDE2-11 | 2026-08-31 01:36:23 | 48.31579 | 17.26027 | 293° | 11km/h | 22892m | -28.1m/s | -54.3°C | 1.1% | -1.0hPa | 2.5V | 00:00:00 | 00:00:00 | 00:00:00 | |
| OM5KV | 2026-08-31 01:36:21 | 48.31578 | 17.26027 | 295° | 13km/h | 22892m | -28.1m/s | -54.3°C | 1.2% | 0hPa | 2.5V | 08:25:00 | 00:00:00 | 00:00:00 | |
| OK1ALN | 2026-08-31 01:36:20 | 48.31578 | 17.26031 | 287° | 15km/h | 22920m | -26.9m/s | -54.3°C | 1.3% | 0hPa | 2.5V | 08:25:00 | 00:00:00 | 00:00:00 | |
| HA6NAB-11 | 2026-08-31 01:36:18 | 48.31576 | 17.26039 | 301° | 9km/h | 22973m | -26.1m/s | -54.3°C | 1.2% | 0hPa | 2.5V | 08:25:00 | 00:00:00 | 00:00:00 | |
| OE5MMP-10 | 2026-08-31 01:36:17 | 48.31574 | 17.26045 | 293° | 7km/h | 23025m | -26.3m/s | -54.4°C | 4.1% | 0hPa | 2.5V | 00:00:00 | 02:17:24 | 00:00:00 | |
| OM5KV | 2026-08-31 01:36:15 | 48.31573 | 17.26048 | 288° | 9km/h | 23051m | -27.9m/s | -54.5°C | 1.3% | 0hPa | 2.5V | 08:25:00 | 00:00:00 | 00:00:00 | |
| OM5KV | 2026-08-31 01:36:13 | 48.31572 | 17.26053 | 272° | 7km/h | 23107m | -27.2m/s | -54.6°C | 1.3% | 0hPa | 2.5V | 08:25:00 | 00:00:00 | 00:00:00 | |
| OM5KV | 2026-08-31 01:36:10 | 48.31572 | 17.26061 | 282° | 7km/h | 23187m | -27.6m/s | -54.3°C | 1.3% | 0hPa | 2.5V | 08:25:00 | 00:00:00 | 00:00:00 | |
| OE5DRO-10 | 2026-08-31 01:36:08 | 48.31570 | 17.26069 | 312° | 11km/h | 23268m | -27.9m/s | -54.0°C | 4.0% | 0hPa | 2.5V | 00:00:00 | 00:00:00 | 00:00:00 | |
| PG1ADW-2 | 2026-08-31 01:36:06 | 48.31567 | 17.26074 | 313° | 13km/h | 23322m | -28.3m/s | -54.1°C | 4.0% | 0hPa | 2.5V | 00:00:00 | 00:00:00 | 00:00:00 | |
| ATIDSZ-14 | 2026-08-31 01:36:05 | 48.31567 | 17.26074 | 313° | 13km/h | 23322m | -28.4m/s | -54.1°C | 1.2% | 0hPa | 2.5V | 08:25:00 | 00:00:00 | 00:00:00 | |
| OM5KV | 2026-08-31 01:36:04 | 48.31565 | 17.26077 | 304° | 15km/h | 23351m | -28.8m/s | -54.2°C | 1.3% | 0hPa | 2.5V | 08:25:00 | 00:00:00 | 00:00:00 | |
| EDDB2-12 | 2026-08-31 01:36:02 | 48.31560 | 17.26091 | 299° | 15km/h | 23434m | -28.5m/s | -54.4°C | 1.2% | -1.0hPa | 2.5V | 00:00:00 | 00:00:00 | 00:00:00 | |
| SONDE2-11 | 2026-08-31 01:35:52 | 48.31531 | 17.26123 | 17° | 9km/h | 23731m | -28.7m/s | -54.0°C | 1.1% | -1.0hPa | 2.5V | 00:00:00 | 00:00:00 | 00:00:00 | |
| S52SK | 2026-08-31 01:35:50 | 48.31531 | 17.26123 | 19° | 9km/h | 23731m | -28.7m/s | -54.0°C | 1.2% | 0hPa | 2.5V | 00:00:00 | 00:00:00 | 00:00:00 | |
| OE5MMP-10 | 2026-08-31 01:35:47 | 48.31523 | 17.26115 | 14° | 5km/h | 23845m | -28.5m/s | -54.1°C | 4.3% | 0hPa | 2.5V | 00:00:00 | 02:16:54 | 00:00:00 | |
| PG1ADW-2 | 2026-08-31 01:35:46 | 48.31521 | 17.26114 | 17° | 7km/h | 23873m | -28.8m/s | -54.2°C | 4.3% | 0hPa | 2.5V | 00:00:00 | 00:00:00 | 00:00:00 | |
| ATIDSZ-14 | 2026-08-31 01:35:45 | 48.31521 | 17.26114 | 17° | 7km/h | 23873m | -28.9m/s | -54.3°C | 1.3% | 0hPa | 2.5V | 08:25:00 | 00:00:00 | 00:00:00 | |
| OM5KV | 2026-08-31 01:35:44 | 48.31520 | 17.26114 | 351° | 5km/h | 23902m | -29.4m/s | -54.3°C | 1.3% | 0hPa | 2.5V | 08:25:00 | 00:00:00 | 00:00:00 | |
| HA6NAB-11 | 2026-08-31 01:35:43 | 48.31518 | 17.26114 | 350° | 5km/h | 23930m | -28.2m/s | -54.4°C | 1.4% | 0hPa | 2.5V | 08:25:00 | 00:00:00 | 00:00:00 | |
| OM5KV | 2026-08-31 01:35:38 | 48.31514 | 17.26121 | 2° | 4km/h | 24069m | -28.6m/s | -54.3°C | 1.4% | 0hPa | 2.5V | 08:26:00 | 00:00:00 | 00:00:00 | |
| OE5MMP-10 | 2026-08-31 01:35:37 | 48.31511 | 17.26121 | 356° | 7km/h | 24126m | -30.0m/s | -54.1°C | 4.5% | 0hPa | 2.5V | 00:00:00 | 02:16:44 | 00:00:00 | |
| HA6NAB-11 | 2026-08-31 01:35:32 | 48.31502 | 17.26120 | 21° | 9km/h | 24241m | -29.6m/s | -53.6°C | 1.3% | 0hPa | 2.5V | 00:00:00 | 00:00:00 | 00:00:00 | |
| EDDB2-12 | 2026-08-31 01:35:31 | 48.31499 | 17.26119 | 318° | 4km/h | 24300m | -30.8m/s | -53.5°C | 1.2% | -1.0hPa | 2.5V | 00:00:00 | 00:00:00 | 00:00:00 | |
| OE3JTB-15 | 2026-08-31 01:35:30 | 48.31498 | 17.26121 | 317° | 11km/h | 24330m | -31.1m/s | -53.3°C | 4.2% | 0hPa | 2.5V | 08:25:00 | 00:00:00 | 00:00:00 | |
| OE5MMP-10 | 2026-08-31 01:35:27 | 48.31496 | 17.26127 | 271° | 7km/h | 24422m | -30.0m/s | -52.9°C | 4.1% | 0hPa | 2.4V | 08:25:00 | 02:16:34 | 00:00:00 | |
| PG1ADW-2 | 2026-08-31 01:35:26 | 48.31497 | 17.26130 | 236° | 11km/h | 24452m | -29.4m/s | -52.7°C | 4.1% | 0hPa | 2.5V | 00:00:00 | 02:16:33 | 00:00:00 | |
| OM5KV | 2026-08-31 01:35:25 | 48.31497 | 17.26130 | 237° | 5km/h | 24452m | -29.4m/s | -52.7°C | 1.2% | 0hPa | 2.4V | 08:26:00 | 00:00:00 | 00:00:00 | |
| ATIDSZ-14 | 2026-08-31 01:35:24 | 48.31498 | 17.26132 | 228° | 7km/h | 24480m | -29.3m/s | -52.5°C | 1.2% | 0hPa | 2.4V | 08:26:00 | 00:00:00 | 00:00:00 | |
| SONDE2-11 | 2026-08-31 01:35:21 | 48.31503 | 17.26146 | 245° | 7km/h | 24620m | -30.4m/s | -52.0°C | 1.1% | -1.0hPa | 2.4V | 00:00:00 | 00:00:00 | 00:00:00 | |
| OK1ALN | 2026-08-31 01:35:18 | 48.31504 | 17.26149 | 253° | 9km/h | 24649m | -30.2m/s | -51.9°C | 1.2% | 0hPa | 2.4V | 08:26:00 | 00:00:00 | 00:00:00 | |
| OE5DXL-15 | 2026-08-31 01:35:17 | 48.31505 | 17.26156 | 282° | 11km/h | 24709m | -29.8m/s | -51.8°C | 3.8% | 0hPa | 2.4V | 08:25:00 | 00:00:00 | 00:00:00 | |
| HA6NAB-11 | 2026-08-31 01:35:15 | 48.31504 | 17.26160 | 297° | 15km/h | 24738m | -30.0m/s | -52.0°C | 1.2% | 0hPa | 2.4V | 00:00:00 | 00:00:00 | 00:00:00 | |
| OM5KV | 2026-08-31 01:35:14 | 48.31503 | 17.26165 | 303° | 15km/h | 24767m | -29.5m/s | -51.9°C | 1.1% | 0hPa | 2.4V | 08:26:00 | 00:00:00 | 00:00:00 | |
| OE5DRO-10 | 2026-08-31 01:35:12 | 48.31498 | 17.26178 | 313° | 11km/h | 24857m | -30.6m/s | -51.6°C | 3.7% | 0hPa | 2.4V | 00:00:00 | 00:00:00 | 00:00:00 | |
| OM5KV | 2026-08-31 01:35:09 | 48.31494 | 17.26187 | 308° | 15km/h | 24918m | -31.4m/s | -51.4°C | 1.1% | 0hPa | 2.4V | 08:26:00 | 00:00:00 | 00:00:00 | |
| OE5MMP-10 | 2026-08-31 01:35:07 | 48.31488 | 17.26201 | 299° | 11km/h | 25010m | -31.4m/s | -51.6°C | 3.6% | 0hPa | 2.4V | 00:00:00 | 02:16:14 | 00:00:00 | |
| PG1ADW-2 | 2026-08-31 01:35:06 | 48.31487 | 17.26206 | 297° | 11km/h | 25041m | -31.8m/s | -51.7°C | 3.7% | 0hPa | 2.4V | 00:00:00 | 00:00:00 | 00:00:00 | |
| ATIDSZ-14 | 2026-08-31 01:35:04 | 48.31485 | 17.26212 | 295° | 16km/h | 25073m | -32.5m/s | -51.9°C | 1.1% | 0hPa | 2.4V | 08:26:00 | 00:00:00 | 00:00:00 | |
| OM5KV | 2026-08-31 01:35:03 | 48.31484 | 17.26217 | 291° | 11km/h | 25105m | -31.4m/s | -51.9°C | 1.1% | 0hPa | 2.4V | 08:26:00 | 00:00:00 | 00:00:00 | |
| EDDB2-12 | 2026-08-31 01:35:00 | 48.31482 | 17.26235 | 277° | 11km/h | 25228m | -32.8m/s | -51.8°C | 1.1% | -1.0hPa | 2.4V | 00:00:00 | 00:00:00 | 00:00:00 | |
| OK1ALN | 2026-08-31 01:34:58 | 48.31482 | 17.26238 | 304° | 5km/h | 25261m | -33.2m/s | -51.5°C | 1.1% | 0hPa | 2.4V | 08:26:00 | 00:00:00 | 00:00:00 | |
| OE5MMP-10 | 2026-08-31 01:34:57 | 48.31482 | 17.26241 | 317° | 9km/h | 25322m | -31.1m/s | -51.5°C | 3.8% | 0hPa | 2.4V | 00:00:00 | 02:16:04 | 00:00:00 | |
| OM5KV | 2026-08-31 01:34:55 | 48.31481 | 17.26241 | 30° | 5km/h | 25353m | -29.5m/s | -51.4°C | 1.1% | 0hPa | 2.4V | 08:26:00 | 00:00:00 | 00:00:00 | |
| OE5DRO-10 | 2026-08-31 01:34:53 | 48.31476 | 17.26236 | 26° | 7km/h | 25442m | -30.9m/s | -51.4°C | 3.7% | 0hPa | 2.4V | 00:00:00 | 00:00:00 | 00:00:00 | |
| OM5KV | 2026-08-31 01:34:51 | 48.31474 | 17.26234 | 29° | 9km/h | 25473m | -31.8m/s | -51.7°C | 1.1% | 0hPa | 2.4V | 08:27:00 | 00:00:00 | 00:00:00 | |
| OM5KV | 2026-08-31 01:34:50 | 48.31472 | 17.26232 | 39° | 9km/h | 25505m | -31.5m/s | -51.9°C | 1.2% | 0hPa | 2.4V | 08:27:00 | 00:00:00 | 00:00:00 | |
| OE5MMP-10 | 2026-08-31 01:34:47 | 48.31467 | 17.26218 | 93° | 5km/h | 25625m | -30.0m/s | -51.9°C | 3.9% | 0hPa | 2.4V | 00:00:00 | 02:15:54 | 00:00:00 | |
| PG1ADW-2 | 2026-08-31 01:34:46 | 48.31467 | 17.26215 | 88° | 7km/h | 25654m | -29.7m/s | -51.7°C | 3.9% | 0hPa | 2.4V | 00:00:00 | 00:00:00 | 00:00:00 | |
| OM5KV | 2026-08-31 01:34:44 | 48.31468 | 17.26213 | 122° | 5km/h | 25683m | -31.8m/s | -51.6°C | 1.2% | 0hPa | 2.4V | 08:27:00 | 00:00:00 | 00:00:00 | |
| ATIDSZ-14 | 2026-08-31 01:34:43 | 48.31469 | 17.26212 | 154° | 4km/h | 25714m | -31.7m/s | -51.5°C | 1.1% | 0hPa | 2.4V | 08:27:00 | 00:00:00 | 00:00:00 | |
| HA6NAB-11 | 2026-08-31 01:34:40 | 48.31471 | 17.26210 | 218° | 4km/h | 25810m | -32.8m/s | -51.5°C | 1.1% | 0hPa | 2.4V | 00:00:00 | 00:00:00 | 00:00:00 | |
| OM5KV | 2026-08-31 01:34:39 | 48.31471 | 17.26211 | 271° | 5km/h | 25841m | -31.2m/s | -51.6°C | 1.1% | 0hPa | 2.4V | 08:27:00 | 00:00:00 | 00:00:00 | |
| OK1ALN | 2026-08-31 01:34:38 | 48.31471 | 17.26213 | 305° | 7km/h | 25871m | -31.1m/s | -51.6°C | 1.2% | 0hPa | 2.4V | 08:27:00 | 00:00:00 | 00:00:00 | |
| OE5MMP-10 | 2026-08-31 01:34:37 | 48.31469 | 17.26217 | 282° | 9km/h | 25932m | -31.4m/s | -51.3°C | 3.8% | 0hPa | 2.4V | 00:00:00 | 02:15:44 | 00:00:00 | |
| OE3OSB-13 | 2026-08-31 01:34:35 | 48.31468 | 17.26221 | 305° | 7km/h | 25995m | -32.6m/s | -51.3°C | 1.1% | -1.0hPa | 2.4V | 00:00:00 | 00:00:00 | 00:00:00 | |
| OE5DRO-10 | 2026-08-31 01:34:34 | 48.31467 | 17.26223 | 344° | 7km/h | 26027m | -32.4m/s | -51.1°C | 3.8% | 0hPa | 2.4V | 00:00:00 | 00:00:00 | 00:00:00 | |
| OE3JTB-15 | 2026-08-31 01:34:32 | 48.31464 | 17.26224 | 336° | 7km/h | 26092m | -34.4m/s | -50.8°C | 3.7% | 0hPa | 2.4V | 00:00:00 | 02:15:39 | 00:00:00 | |
| EDDB2-12 | 2026-08-31 01:34:29 | 48.31457 | 17.26223 | 8° | 11km/h | 26192m | -32.1m/s | -50.7°C | 1.0% | -1.0hPa | 2.4V | 00:00:00 | 00:00:00 | 00:00:00 | |
| OM5KV | 2026-08-31 01:34:28 | 48.31457 | 17.26223 | 10° | 11km/h | 26192m | -32.1m/s | -50.7°C | 1.1% | 0hPa | 2.4V | 08:27:00 | 00:00:00 | 00:00:00 | |
| OE5MMP-10 | 2026-08-31 01:34:27 | 48.31453 | 17.26218 | 35° | 7km/h | 26258m | -34.1m/s | -50.6°C | 3.6% | 0hPa | 2.4V | 00:00:00 | 02:15:34 | 00:00:00 | |
| PG1ADW-2 | 2026-08-31 01:34:26 | 48.31450 | 17.26216 | 18° | 5km/h | 26291m | -33.2m/s | -50.5°C | 3.6% | 0hPa | 2.5V | 00:00:00 | 00:00:00 | 00:00:00 | |
| ATIDSZ-14 | 2026-08-31 01:34:23 | 48.31445 | 17.26212 | 43° | 11km/h | 26358m | -35.5m/s | -50.6°C | 1.1% | 0hPa | 2.5V | 08:27:00 | 00:00:00 | 00:00:00 | |
| OM5KV | 2026-08-31 01:34:21 | 48.31442 | 17.26206 | 74° | 5km/h | 26427m | -35.4m/s | -50.7°C | 1.1% | 0hPa | 2.5V | 08:27:00 | 00:00:00 | 00:00:00 | |
| SONDE2-11 | 2026-08-31 01:34:19 | 48.31442 | 17.26200 | 22° | 2km/h | 26563m | -32.7m/s | -50.9°C | 1.0% | -1.0hPa | 2.5V | 00:00:00 | 00:00:00 | 00:00:00 | |
| OE5MMP-10 | 2026-08-31 01:34:17 | 48.31441 | 17.26199 | 294° | 4km/h | 26596m | -34.8m/s | -50.9°C | 3.8% | 0hPa | 2.5V | 00:00:00 | 02:15:24 | 00:00:00 | |
| OE5DRO-10 | 2026-08-31 01:34:15 | 48.31441 | 17.26200 | 184° | 7km/h | 26665m | -33.2m/s | -51.1°C | 3.9% | 0hPa | 2.5V | 00:00:00 | 00:00:00 | 00:00:00 | |
| OM5KV | 2026-08-31 01:34:11 | 48.31441 | 17.26203 | 312° | 7km/h | 26763m | -33.1m/s | -51.1°C | 1.2% | 0hPa | 2.5V | 08:27:00 | 00:00:00 | 00:00:00 | |
| OE5MMP-10 | 2026-08-31 01:34:07 | 48.31437 | 17.26209 | 346° | 7km/h | 26932m | -35.8m/s | -50.3°C | 3.7% | 0hPa | 2.5V | 00:00:00 | 02:15:14 | 00:00:00 | |
| PG1ADW-2 | 2026-08-31 01:34:06 | 48.31436 | 17.26210 | 328° | 11km/h | 26968m | -34.7m/s | -50.3°C | 3.7% | 0hPa | 2.5V | 00:00:00 | 02:15:13 | 00:00:00 | |
| OE3OSB-13 | 2026-08-31 01:34:05 | 48.31434 | 17.26211 | 349° | 7km/h | 27036m | -35.4m/s | -50.3°C | 1.1% | -1.0hPa | 2.5V | 00:00:00 | 00:00:00 | 00:00:00 | |
| OE3JTB-15 | 2026-08-31 01:34:03 | 48.31432 | 17.26211 | 9° | 9km/h | 27071m | -35.4m/s | -50.2°C | 3.7% | 0hPa | 2.5V | 00:00:00 | 00:00:00 | 00:00:00 | |
| EDDB2-12 | 2026-08-31 01:33:58 | 48.31421 | 17.26207 | 35° | 13km/h | 27243m | -37.5m/s | -49.8°C | 1.0% | -1.0hPa | 2.4V | 00:00:00 | 00:00:00 | 00:00:00 | |
| OE5MMP-10 | 2026-08-31 01:33:57 | 48.31419 | 17.26203 | 52° | 13km/h | 27280m | -35.8m/s | -49.7°C | 3.6% | 0hPa | 2.4V | 08:27:00 | 02:15:04 | 00:00:00 | |
| OE5DRO-10 | 2026-08-31 01:33:56 | 48.31417 | 17.26200 | 43° | 9km/h | 27315m | -34.6m/s | -49.7°C | 3.6% | 0hPa | 2.4V | 00:00:00 | 00:00:00 | 00:00:00 | |
| OM5KV | 2026-08-31 01:33:54 | 48.31416 | 17.26197 | 69° | 15km/h | 27349m | -34.4m/s | -49.6°C | 1.1% | 0hPa | 2.4V | 08:28:00 | 00:00:00 | 00:00:00 | |
| OM5KV | 2026-08-31 01:33:51 | 48.31415 | 17.26181 | 110° | 16km/h | 27452m | -32.8m/s | -49.4°C | 1.1% | 0hPa | 2.4V | 08:28:00 | 00:00:00 | 00:00:00 | |
| OM5KV | 2026-08-31 01:33:49 | 48.31419 | 17.26171 | 133° | 15km/h | 27516m | -33.7m/s | -49.1°C | 1.0% | 0hPa | 2.4V | 08:28:00 | 00:00:00 | 00:00:00 | |
| OE5MMP-10 | 2026-08-31 01:33:47 | 48.31427 | 17.26163 | 156° | 7km/h | 27616m | -32.1m/s | -49.2°C | 3.6% | 0hPa | 2.4V | 00:00:00 | 02:14:54 | 00:00:00 | |
| PG1ADW-2 | 2026-08-31 01:33:46 | 48.31430 | 17.26162 | 186° | 5km/h | 27648m | -31.8m/s | -49.2°C | 3.6% | 0hPa | 2.4V | 00:00:00 | 00:00:00 | 00:00:00 | |
| OM5KV | 2026-08-31 01:33:45 | 48.31430 | 17.26162 | 187° | 9km/h | 27648m | -31.9m/s | -49.2°C | 1.1% | 0hPa | 2.4V | 08:28:00 | 00:00:00 | 00:00:00 | |
| ATIDSZ-14 | 2026-08-31 01:33:43 | 48.31433 | 17.26163 | 184° | 7km/h | 27709m | -30.0m/s | -48.9°C | 1.0% | 0hPa | 2.4V | 08:28:00 | 00:00:00 | 00:00:00 | |
| OM5KV | 2026-08-31 01:33:40 | 48.31437 | 17.26169 | 267° | 2km/h | 27800m | -30.8m/s | -48.6°C | 1.0% | 0hPa | 2.4V | 08:28:00 | 00:00:00 | 00:00:00 | |
| OE5MMP-10 | 2026-08-31 01:33:37 | 48.31436 | 17.26173 | 328° | 5km/h | 27927m | -33.1m/s | -48.5°C | 3.5% | 0hPa | 2.4V | 00:00:00 | 02:14:44 | 00:00:00 | |
| OE3JTB-15 | 2026-08-31 01:33:34 | 48.31434 | 17.26177 | 286° | 5km/h | 28029m | -35.2m/s | -48.6°C | 3.6% | 0hPa | 2.4V | 00:00:00 | 00:00:00 | 00:00:00 | |
| OE3OSB-13 | 2026-08-31 01:33:33 | 48.31434 | 17.26179 | 298° | 0km/h | 28064m | -36.4m/s | -48.7°C | 1.0% | -1.0hPa | 2.4V | 00:00:00 | 00:00:00 | 00:00:00 | |
| OM5KV | 2026-08-31 01:33:32 | 48.31434 | 17.26179 | 0° | 0km/h | 28064m | -36.4m/s | -48.7°C | 1.1% | 0hPa | 2.4V | 08:28:00 | 00:00:00 | 00:00:00 | |
| OE5MMP-10 | 2026-08-31 01:33:27 | 48.31435 | 17.26190 | 303° | 5km/h | 28269m | -37.4m/s | -47.8°C | 3.5% | 0hPa | 2.4V | 00:00:00 | 02:14:34 | 00:00:00 | |
| PG1ADW-2 | 2026-08-31 01:33:26 | 48.31431 | 17.26200 | 320° | 5km/h | 28383m | -36.3m/s | -47.4°C | 3.4% | 0hPa | 2.5V | 08:27:00 | 00:00:00 | 00:00:00 | |
| ATIDSZ-14 | 2026-08-31 01:33:22 | 48.31430 | 17.26201 | 329° | 7km/h | 28420m | -35.8m/s | -47.5°C | 1.0% | 0hPa | 2.4V | 08:28:00 | 00:00:00 | 00:00:00 | |
| S52SK | 2026-08-31 01:33:21 | 48.31428 | 17.26202 | 351° | 5km/h | 28456m | -36.4m/s | -47.3°C | 1.0% | 0hPa | 2.4V | 00:00:00 | 00:00:00 | 00:00:00 | |
| OE5DRO-10 | 2026-08-31 01:33:18 | 48.31425 | 17.26203 | 350° | 5km/h | 28602m | -37.6m/s | -46.7°C | 3.3% | 0hPa | 2.4V | 00:00:00 | 00:00:00 | 00:00:00 | |
| OK1ALN | 2026-08-31 01:33:17 | 48.31425 | 17.26203 | 5° | 4km/h | 28639m | -38.2m/s | -46.7°C | 1.0% | 0hPa | 2.4V | 08:28:00 | 00:00:00 | 00:00:00 | |
| OE5DXL-15 | 2026-08-31 01:33:16 | 48.31424 | 17.26203 | 41° | 5km/h | 28676m | -36.7m/s | -46.5°C | 3.2% | 0hPa | 2.4V | 00:00:00 | 00:00:00 | 00:00:00 | |
| OM5KV | 2026-08-31 01:33:15 | 48.31424 | 17.26203 | 42° | 5km/h | 28676m | -36.8m/s | -46.6°C | 0.9% | 0hPa | 2.4V | 08:28:00 | 00:00:00 | 00:00:00 | |
| OM5KV | 2026-08-31 01:33:09 | 48.31416 | 17.26198 | 355° | 4km/h | 28897m | -36.8m/s | -46.1°C | 1.0% | 0hPa | 2.4V | 08:28:00 | 00:00:00 | 00:00:00 | |
| OE5MMP-10 | 2026-08-31 01:33:07 | 48.31412 | 17.26200 | 5° | 4km/h | 29001m | -35.0m/s | -45.8°C | 3.2% | 0hPa | 2.4V | 00:00:00 | 02:14:14 | 00:00:00 | |
| HA6NAB-11 | 2026-08-31 01:33:06 | 48.31412 | 17.26200 | 6° | 5km/h | 29001m | -35.0m/s | -45.9°C | 0.9% | 0hPa | 2.4V | 00:00:00 | 00:00:00 | 00:00:00 | |
| OM5KV | 2026-08-31 01:33:05 | 48.31411 | 17.26200 | 324° | 4km/h | 29037m | -37.6m/s | -45.7°C | 1.0% | 0hPa | 2.4V | 08:28:00 | 00:00:00 | 00:00:00 | |
| OM5KV | 2026-08-31 01:33:03 | 48.31410 | 17.26201 | 332° | 2km/h | 29109m | -37.4m/s | -45.5°C | 0.9% | 0hPa | 2.4V | 08:28:00 | 00:00:00 | 00:00:00 | |
| OE3OSB-13 | 2026-08-31 01:33:02 | 48.31408 | 17.26201 | 72° | 2km/h | 29184m | -35.9m/s | -45.1°C | 0.8% | -1.0hPa | 2.4V | 00:00:00 | 00:00:00 | 00:00:00 | |
| EDDB2-12 | 2026-08-31 01:32:56 | 48.31407 | 17.26198 | 14° | 0km/h | 29397m | -39.2m/s | -44.8°C | 0.9% | -1.0hPa | 2.4V | 00:00:00 | 00:00:00 | 00:00:00 | |
| SONDE2-11 | 2026-08-31 01:32:45 | 48.31393 | 17.26176 | 50° | 11km/h | 29798m | -35.8m/s | -44.1°C | 0.8% | -1.0hPa | 2.4V | 00:00:00 | 00:00:00 | 00:00:00 | |
| HA6NAB-11 | 2026-08-31 01:32:43 | 48.31392 | 17.26172 | 70° | 11km/h | 29834m | -34.8m/s | -43.9°C | 0.9% | 0hPa | 2.4V | 00:00:00 | 00:00:00 | 00:00:00 | |
| OM5KV | 2026-08-31 01:32:42 | 48.31391 | 17.26167 | 41° | 4km/h | 29904m | -37.9m/s | -43.9°C | 0.9% | 0hPa | 2.4V | 08:28:00 | 00:00:00 | 00:00:00 | |
| ATIDSZ-14 | 2026-08-31 01:32:41 | 48.31391 | 17.26167 | 41° | 4km/h | 29904m | -37.9m/s | -43.9°C | 0.9% | 0hPa | 2.4V | 08:28:00 | 00:00:00 | 00:00:00 | |
| OE5DRO-10 | 2026-08-31 01:32:40 | 48.31389 | 17.26166 | 353° | 11km/h | 29979m | -39.7m/s | -43.8°C | 2.9% | 0hPa | 2.4V | 00:00:00 | 00:00:00 | 00:00:00 | |
| OE5MMP-10 | 2026-08-31 01:32:37 | 48.31386 | 17.26164 | 36° | 11km/h | 30100m | -41.4m/s | -43.6°C | 2.9% | 0hPa | 2.4V | 00:00:00 | 02:13:44 | 00:00:00 | |
| OK1ALN | 2026-08-31 01:32:36 | 48.31386 | 17.26164 | 37° | 5km/h | 30100m | -41.4m/s | -43.7°C | 0.9% | 0hPa | 2.4V | 08:28:00 | 00:00:00 | 00:00:00 | |
| OM5KV | 2026-08-31 01:32:34 | 48.31383 | 17.26163 | 38° | 7km/h | 30181m | -39.8m/s | -43.8°C | 0.9% | 0hPa | 2.4V | 08:28:00 | 00:00:00 | 00:00:00 | |
| OE3OSB-13 | 2026-08-31 01:32:31 | 48.31374 | 17.26159 | 26° | 15km/h | 30339m | -40.2m/s | -43.3°C | 0.9% | -1.0hPa | 2.4V | 00:00:00 | 00:00:00 | 00:00:00 | |
| OM5KV | 2026-08-31 01:32:29 | 48.31370 | 17.26157 | 22° | 16km/h | 30379m | -40.1m/s | -43.2°C | 0.9% | 0hPa | 2.4V | 08:28:00 | 00:00:00 | 00:00:00 | |
| OE5MMP-10 | 2026-08-31 01:32:27 | 48.31359 | 17.26154 | 360° | 16km/h | 30503m | -41.6m/s | -42.6°C | 2.9% | 0hPa | 2.4V | 08:28:00 | 02:13:34 | 00:00:00 | |
| PG1ADW-2 | 2026-08-31 01:32:26 | 48.31355 | 17.26153 | 13° | 22km/h | 30544m | -40.7m/s | -42.4°C | 2.8% | 0hPa | 2.4V | 00:00:00 | 00:00:00 | 00:00:00 | |
| EDDB2-12 | 2026-08-31 01:32:25 | 48.31351 | 17.26152 | 20° | 15km/h | 30585m | -42.0m/s | -42.2°C | 0.8% | -1.0hPa | 2.5V | 00:00:00 | 00:00:00 | 00:00:00 | |
| GYPAP8-17 | 2026-08-31 01:32:24 | 48.31351 | 17.26152 | 22° | 16km/h | 30585m | -42.0m/s | -42.2°C | 0.8% | 0hPa | 2.5V | 00:00:00 | 00:00:00 | 00:00:00 | |
| OE5DRO-10 | 2026-08-31 01:32:21 | 48.31340 | 17.26140 | 53° | 26km/h | 30750m | -41.7m/s | -41.7°C | 2.6% | 0hPa | 2.5V | 00:00:00 | 00:00:00 | 00:00:00 | |
| OM5KV | 2026-08-31 01:32:20 | 48.31340 | 17.26140 | 54° | 16km/h | 30750m | -41.8m/s | -41.7°C | 0.8% | 0hPa | 2.5V | 08:28:00 | 00:00:00 | 00:00:00 | |
| OM5KV | 2026-08-31 01:32:18 | 48.31335 | 17.26130 | 62° | 20km/h | 30829m | -39.1m/s | -41.6°C | 0.8% | 0hPa | 2.5V | 08:29:00 | 00:00:00 | 00:00:00 | |
| OE5MMP-10 | 2026-08-31 01:32:17 | 48.31331 | 17.26116 | 53° | 27km/h | 30905m | -40.7m/s | -41.2°C | 2.6% | 0hPa | 2.5V | 00:00:00 | 02:13:24 | 00:00:00 | |
| OE5DXL-15 | 2026-08-31 01:32:16 | 48.31328 | 17.26110 | 49° | 24km/h | 30945m | -41.3m/s | -41.0°C | 2.5% | 0hPa | 2.5V | 00:00:00 | 00:00:00 | 00:00:00 | |
| OK1ALN | 2026-08-31 01:32:15 | 48.31328 | 17.26110 | 50° | 22km/h | 30945m | -41.4m/s | -41.1°C | 0.8% | 0hPa | 2.4V | 08:29:00 | 00:00:00 | 00:00:00 | |
| SONDE2-11 | 2026-08-31 01:32:14 | 48.31320 | 17.26097 | 45° | 24km/h | 31027m | -41.9m/s | -41.0°C | 0.7% | -1.0hPa | 2.4V | 00:00:00 | 00:00:00 | 00:00:00 | |
| OM5KV | 2026-08-31 01:32:08 | 48.31300 | 17.26052 | 71° | 31km/h | 31239m | -43.7m/s | -41.3°C | 0.8% | 0hPa | 2.4V | 08:29:00 | 00:00:00 | 00:00:00 | |
| OE5MMP-10 | 2026-08-31 01:32:07 | 48.31296 | 17.26030 | 78° | 26km/h | 31327m | -46.0m/s | -41.1°C | 2.6% | 0hPa | 2.4V | 00:00:00 | 02:13:14 | 00:00:00 | |
| PG1ADW-2 | 2026-08-31 01:32:06 | 48.31295 | 17.26018 | 85° | 22km/h | 31372m | -43.9m/s | -41.1°C | 2.6% | 0hPa | 2.4V | 00:00:00 | 00:00:00 | 00:00:00 | |
| S52SK | 2026-08-31 01:32:03 | 48.31293 | 17.25995 | 86° | 29km/h | 31459m | -43.6m/s | -41.4°C | 0.8% | 0hPa | 2.4V | 00:00:00 | 00:00:00 | 00:00:00 | |
| OM5KV | 2026-08-31 01:32:02 | 48.31293 | 17.25984 | 82° | 29km/h | 31502m | -42.3m/s | -41.4°C | 0.8% | 0hPa | 2.4V | 08:29:00 | 00:00:00 | 00:00:00 | |
| OE3OSB-13 | 2026-08-31 01:32:00 | 48.31290 | 17.25954 | 74° | 22km/h | 31625m | -40.1m/s | -41.3°C | 0.8% | -1.0hPa | 2.4V | 00:00:00 | 00:00:00 | 00:00:00 | |
| EDDB2-12 | 2026-08-31 01:31:54 | 48.31274 | 17.25917 | 39° | 15km/h | 31887m | -35.6m/s | -40.6°C | 0.8% | -1.0hPa | 2.4V | 00:00:00 | 00:00:00 | 00:00:00 | |
| OM5KV | 2026-08-31 01:31:51 | 48.31270 | 17.25914 | 25° | 16km/h | 31924m | -39.8m/s | -40.4°C | 0.8% | 0hPa | 2.4V | 08:29:00 | 00:00:00 | 00:00:00 | |
| OM5KV | 2026-08-31 01:31:50 | 48.31266 | 17.25911 | 29° | 20km/h | 31962m | -37.8m/s | -40.4°C | 0.8% | 0hPa | 2.4V | 08:29:00 | 00:00:00 | 00:00:00 | |
| OE5MMP-10 | 2026-08-31 01:31:47 | 48.31247 | 17.25892 | 35° | 31km/h | 32116m | -41.6m/s | -40.0°C | 2.5% | 0hPa | 2.4V | 00:00:00 | 02:12:54 | 00:00:00 | |
| PG1ADW-2 | 2026-08-31 01:31:46 | 48.31241 | 17.25885 | 43° | 33km/h | 32157m | -41.1m/s | -40.0°C | 2.6% | 0hPa | 2.4V | 00:00:00 | 00:00:00 | 00:00:00 | |
| OM5KV | 2026-08-31 01:31:44 | 48.31236 | 17.25877 | 48° | 33km/h | 32198m | -41.7m/s | -40.1°C | 0.8% | 0hPa | 2.4V | 08:29:00 | 00:00:00 | 00:00:00 | |
| OE5DRO-10 | 2026-08-31 01:31:43 | 48.31224 | 17.25858 | 45° | 33km/h | 32281m | -43.1m/s | -39.9°C | 2.6% | 0hPa | 2.4V | 00:00:00 | 00:00:00 | 00:00:00 | |
| ATIDSZ-14 | 2026-08-31 01:31:40 | 48.31211 | 17.25840 | 48° | 35km/h | 32366m | -41.5m/s | -39.9°C | 0.8% | 0hPa | 2.4V | 08:29:00 | 00:00:00 | 00:00:00 | |
| OE3JTB-15 | 2026-08-31 01:31:38 | 48.31195 | 17.25815 | 54° | 31km/h | 32494m | -42.3m/s | -39.4°C | 2.5% | 0hPa | 2.4V | 00:00:00 | 02:12:45 | 00:00:00 | |
| OE5MMP-10 | 2026-08-31 01:31:36 | 48.31187 | 17.25798 | 63° | 35km/h | 32577m | -42.2m/s | -39.5°C | 2.6% | 0hPa | 2.4V | 00:00:00 | 02:12:43 | 00:00:00 | |
| OM5KV | 2026-08-31 01:31:35 | 48.31187 | 17.25797 | 63° | 31km/h | 32577m | -42.2m/s | -39.6°C | 0.8% | 0hPa | 2.4V | 08:29:00 | 00:00:00 | 00:00:00 | |
| OK1ALN | 2026-08-31 01:31:33 | 48.31181 | 17.25777 | 71° | 31km/h | 32659m | -40.2m/s | -39.6°C | 0.8% | 0hPa | 2.4V | 08:29:00 | 00:00:00 | 00:00:00 | |
| OE3OSB-13 | 2026-08-31 01:31:29 | 48.31165 | 17.25703 | 59° | 37km/h | 32898m | -41.4m/s | -38.9°C | 0.8% | -1.0hPa | 2.4V | 00:00:00 | 00:00:00 | 00:00:00 | |
| OE5MMP-10 | 2026-08-31 01:31:26 | 48.31156 | 17.25680 | 57° | 26km/h | 32979m | -41.2m/s | -38.7°C | 2.5% | 0hPa | 2.4V | 00:00:00 | 02:12:33 | 00:00:00 | |
| OE5DRO-10 | 2026-08-31 01:31:24 | 48.31146 | 17.25662 | 49° | 35km/h | 33063m | -43.0m/s | -38.3°C | 2.4% | 0hPa | 2.4V | 00:00:00 | 00:00:00 | 00:00:00 | |
| EDDB2-12 | 2026-08-31 01:31:23 | 48.31141 | 17.25655 | 36° | 24km/h | 33105m | -42.4m/s | -38.1°C | 0.7% | -1.0hPa | 2.4V | 00:00:00 | 00:00:00 | 00:00:00 | |
| ATIDSZ-14 | 2026-08-31 01:31:19 | 48.31127 | 17.25638 | 39° | 22km/h | 33225m | -39.8m/s | -37.6°C | 0.7% | 0hPa | 2.4V | 00:00:00 | 00:00:00 | 00:00:00 | |
| OM5KV | 2026-08-31 01:31:18 | 48.31123 | 17.25634 | 25° | 24km/h | 33263m | -38.7m/s | -37.6°C | 0.7% | 0hPa | 2.4V | 00:00:00 | 00:00:00 | 00:00:00 | |
| OE5MMP-10 | 2026-08-31 01:31:16 | 48.31106 | 17.25622 | 15° | 40km/h | 33377m | -38.4m/s | -37.3°C | 2.2% | 0hPa | 2.4V | 00:00:00 | 02:12:23 | 00:00:00 | |
| OM5KV | 2026-08-31 01:31:15 | 48.31105 | 17.25622 | 16° | 27km/h | 33377m | -38.5m/s | -37.3°C | 0.7% | 0hPa | 2.4V | 00:00:00 | 00:00:00 | 00:00:00 | |
| SONDE2-11 | 2026-08-31 01:31:12 | 48.31077 | 17.25601 | 28° | 35km/h | 33534m | -41.4m/s | -37.6°C | 0.7% | -1.0hPa | 2.4V | 00:00:00 | 00:00:00 | 00:00:00 | |
| OM5KV | 2026-08-31 01:31:10 | 48.31069 | 17.25593 | 42° | 42km/h | 33575m | -41.5m/s | -37.8°C | 0.8% | 0hPa | 2.4V | 00:00:00 | 00:00:00 | 00:00:00 | |
| OE3JTB-15 | 2026-08-31 01:31:09 | 48.31053 | 17.25570 | 49° | 40km/h | 33656m | -40.6m/s | -37.9°C | 2.4% | 0hPa | 2.4V | 00:00:00 | 00:00:00 | 08:30:00 | |
| OE5MMP-10 | 2026-08-31 01:31:06 | 48.31030 | 17.25523 | 61° | 33km/h | 33777m | -41.6m/s | -37.5°C | 2.4% | 0hPa | 2.4V | 00:00:00 | 02:12:13 | 00:00:00 | |
| OE5DRO-10 | 2026-08-31 01:31:05 | 48.31024 | 17.25507 | 61° | 42km/h | 33818m | -40.9m/s | -37.6°C | 2.4% | 0hPa | 2.4V | 00:00:00 | 00:00:00 | 00:00:00 | |
| OM5KV | 2026-08-31 01:31:04 | 48.31024 | 17.25507 | 62° | 47km/h | 33818m | -41.0m/s | -37.6°C | 0.8% | 0hPa | 2.5V | 00:00:00 | 00:00:00 | 00:00:00 | |
| OE3OSB-13 | 2026-08-31 01:30:58 | 48.31015 | 17.25417 | 102° | 24km/h | 34143m | -41.1m/s | -37.1°C | 0.7% | -1.0hPa | 2.5V | 00:00:00 | 00:00:00 | 00:00:00 | |
| EDDB2-12 | 2026-08-31 01:30:52 | 48.30994 | 17.25328 | 55° | 77km/h | 34340m | -28.5m/s | -36.1°C | 0.7% | -1.0hPa | 2.5V | 00:00:00 | 00:00:00 | 00:00:00 | |
| OM5KV | 2026-08-31 01:30:50 | 48.30982 | 17.25303 | 57° | 84km/h | 34370m | -31.4m/s | -36.0°C | 0.7% | 0hPa | 2.5V | 00:00:00 | 00:00:00 | 00:00:00 | |
| S52SK | 2026-08-31 01:30:49 | 48.30982 | 17.25303 | 57° | 84km/h | 34370m | -31.4m/s | -36.0°C | 0.7% | 0hPa | 2.5V | 00:00:00 | 00:00:00 | 00:00:00 | |
| OE5WHR-10 | 2026-08-31 01:30:48 | 48.30964 | 17.25258 | 68° | 24km/h | 34441m | -43.6m/s | -36.0°C | 2.1% | 0hPa | 2.5V | 00:00:00 | 00:00:00 | 08:30:00 | |
| OE5MMP-10 | 2026-08-31 01:30:46 | 48.30960 | 17.25237 | 92° | 33km/h | 34519m | -34.6m/s | -36.3°C | 2.2% | 0hPa | 2.4V | 00:00:00 | 02:11:53 | 00:00:00 | |
| OM5KV | 2026-08-31 01:30:45 | 48.30960 | 17.25228 | 99° | 22km/h | 34549m | -25.1m/s | -36.5°C | 0.7% | 0hPa | 2.4V | 00:00:00 | 00:00:00 | 00:00:00 | |
| S52SK | 2026-08-31 01:30:44 | 48.30960 | 17.25228 | 99° | 22km/h | 34549m | -25.1m/s | -36.5°C | 0.7% | 0hPa | 2.4V | 00:00:00 | 00:00:00 | 00:00:00 | |
| SONDE2-11 | 2026-08-31 01:30:41 | 48.30970 | 17.25202 | 130° | 20km/h | 34560m | 13.0m/s | -36.6°C | 0.7% | -1.0hPa | 2.4V | 00:00:00 | 00:00:00 | 00:00:00 | |
| OE3JTB-15 | 2026-08-31 01:30:40 | 48.30970 | 17.25201 | 131° | 27km/h | 34560m | 13.0m/s | -36.5°C | 2.2% | 0hPa | 2.4V | 00:00:00 | 00:00:00 | 00:00:00 | |
| OM5KV | 2026-08-31 01:30:39 | 48.30970 | 17.25201 | 131° | 22km/h | 34560m | 13.0m/s | -36.6°C | 0.7% | 0hPa | 2.4V | 00:00:00 | 00:00:00 | 00:00:00 | |
| ATIDSZ-14 | 2026-08-31 01:30:37 | 48.30969 | 17.25198 | 12° | 11km/h | 34546m | 4.0m/s | -36.6°C | 0.7% | 0hPa | 2.4V | 00:00:00 | 00:00:00 | 00:00:00 | |
| OM5KV | 2026-08-31 01:30:34 | 48.30958 | 17.25182 | 62° | 33km/h | 34532m | 6.8m/s | -36.6°C | 0.7% | 0hPa | 2.4V | 00:00:00 | 00:00:00 | 00:00:00 | |
| OK1ALN | 2026-08-31 01:30:32 | 48.30952 | 17.25153 | 85° | 47km/h | 34519m | 5.1m/s | -36.6°C | 0.7% | 0hPa | 2.4V | 00:00:00 | 00:00:00 | 00:00:00 | |
| OE5MMP-10 | 2026-08-31 01:30:30 | 48.30956 | 17.25106 | 114° | 22km/h | 34506m | 5.7m/s | -36.5°C | 2.2% | 0hPa | 2.4V | 00:00:00 | 02:11:37 | 00:00:00 | |
| OM5KV | 2026-08-31 01:30:28 | 48.30959 | 17.25097 | 129° | 22km/h | 34500m | 6.6m/s | -36.6°C | 0.7% | 0hPa | 2.4V | 00:00:00 | 00:00:00 | 00:00:00 | |
| OE3OSB-13 | 2026-08-31 01:30:27 | 48.30966 | 17.25093 | 243° | 2km/h | 34484m | 3.6m/s | -36.6°C | 0.7% | -1.0hPa | 2.4V | 00:00:00 | 00:00:00 | 00:00:00 | |
| OE5WHR-10 | 2026-08-31 01:30:24 | 48.30964 | 17.25089 | 69° | 29km/h | 34475m | 5.6m/s | -36.6°C | 2.3% | 0hPa | 2.4V | 00:00:00 | 00:00:00 | 00:00:00 | |
| OM5KV | 2026-08-31 01:30:23 | 48.30964 | 17.25089 | 70° | 16km/h | 34475m | 5.6m/s | -36.7°C | 0.7% | 0hPa | 2.4V | 00:00:00 | 00:00:00 | 00:00:00 | |
| OM5KV | 2026-08-31 01:30:22 | 48.30962 | 17.25081 | 76° | 29km/h | 34469m | 6.3m/s | -36.7°C | 0.8% | 0hPa | 2.4V | 00:00:00 | 00:00:00 | 00:00:00 | |
| EDDB2-12 | 2026-08-31 01:30:21 | 48.30958 | 17.25035 | 86° | 46km/h | 34450m | 5.8m/s | -36.7°C | 0.7% | -1.0hPa | 2.4V | 00:00:00 | 00:00:00 | 00:00:00 | |
| OE5MMP-10 | 2026-08-31 01:30:20 | 48.30958 | 17.25035 | 87° | 27km/h | 34450m | 5.8m/s | -36.7°C | 2.2% | 0hPa | 2.4V | 00:00:00 | 02:11:27 | 00:00:00 | |
| ATIDSZ-14 | 2026-08-31 01:30:17 | 48.30958 | 17.25003 | 93° | 37km/h | 34438m | 5.4m/s | -36.7°C | 0.7% | 0hPa | 2.4V | 00:00:00 | 00:00:00 | 00:00:00 | |
| OM5KV | 2026-08-31 01:30:16 | 48.30958 | 17.24990 | 98° | 29km/h | 34433m | 5.5m/s | -36.7°C | 0.7% | 0hPa | 2.4V | 00:00:00 | 00:00:00 | 00:00:00 | |
| OM5KV | 2026-08-31 01:30:12 | 48.30966 | 17.24965 | 127° | 18km/h | 34411m | 5.5m/s | -36.6°C | 0.7% | 0hPa | 2.4V | 00:00:00 | 00:00:00 | 00:00:00 | |
| OE5DXL-15 | 2026-08-31 01:30:11 | 48.30971 | 17.24951 | 108° | 35km/h | 34400m | 5.2m/s | -36.6°C | 2.2% | 0hPa | 2.4V | 00:00:00 | 00:00:00 | 00:00:00 | |
| OE5MMP-10 | 2026-08-31 01:30:10 | 48.30972 | 17.24941 | 98° | 35km/h | 34395m | 5.0m/s | -36.6°C | 2.1% | 0hPa | 2.4V | 00:00:00 | 02:11:17 | 00:00:00 | |
| OM5KV | 2026-08-31 01:30:07 | 48.30972 | 17.24919 | 82° | 29km/h | 34384m | 5.8m/s | -36.7°C | 0.7% | 0hPa | 2.4V | 00:00:00 | 00:00:00 | 00:00:00 | |
| PG1ADW-2 | 2026-08-31 01:30:04 | 48.30961 | 17.24875 | 67° | 37km/h | 34362m | 4.9m/s | -36.9°C | 2.2% | 0hPa | 2.4V | 00:00:00 | 02:11:11 | 00:00:00 | |
| OE3OSB-13 | 2026-08-31 01:29:56 | 48.30958 | 17.24770 | 95° | 16km/h | 34313m | 3.7m/s | -37.3°C | 0.7% | -1.0hPa | 2.4V | 00:00:00 | 00:00:00 | 00:00:00 | |
| EDDB2-12 | 2026-08-31 01:29:50 | 48.30939 | 17.24686 | 66° | 49km/h | 34280m | 5.7m/s | -37.6°C | 0.7% | -1.0hPa | 2.4V | 00:00:00 | 00:00:00 | 00:00:00 | |
| HA6NAB-11 | 2026-08-31 01:29:49 | 48.30944 | 17.24704 | 68° | 53km/h | 34285m | 5.2m/s | -37.6°C | 0.7% | 0hPa | 2.4V | 00:00:00 | 00:00:00 | 00:00:00 | |
| OM5KV | 2026-08-31 01:29:46 | 48.30931 | 17.24655 | 72° | 38km/h | 34269m | 5.2m/s | -37.8°C | 0.7% | 0hPa | 2.4V | 00:00:00 | 00:00:00 | 00:00:00 | |
| GYPAP8-17 | 2026-08-31 01:29:45 | 48.30928 | 17.24642 | 77° | 33km/h | 34263m | 5.1m/s | -37.8°C | 0.8% | 0hPa | 2.4V | 00:00:00 | 00:00:00 | 00:00:00 | |
| PG1ADW-2 | 2026-08-31 01:29:44 | 48.30926 | 17.24618 | 88° | 38km/h | 34252m | 6.1m/s | -37.9°C | 2.3% | 0hPa | 2.4V | 00:00:00 | 00:00:00 | 00:00:00 | |
| OE5DRO-10 | 2026-08-31 01:29:43 | 48.30925 | 17.24606 | 91° | 38km/h | 34246m | 6.1m/s | -37.9°C | 2.3% | 0hPa | 2.4V | 00:00:00 | 00:00:00 | 00:00:00 | |
| OE5DXL-15 | 2026-08-31 01:29:41 | 48.30926 | 17.24581 | 90° | 44km/h | 34235m | 4.9m/s | -38.0°C | 2.4% | 0hPa | 2.4V | 00:00:00 | 00:00:00 | 00:00:00 | |
| OE5MMP-10 | 2026-08-31 01:29:40 | 48.30925 | 17.24569 | 86° | 44km/h | 34230m | 4.9m/s | -38.1°C | 2.4% | 0hPa | 2.4V | 00:00:00 | 02:10:47 | 00:00:00 | |
| SONDE2-11 | 2026-08-31 01:29:39 | 48.30924 | 17.24557 | 80° | 29km/h | 34224m | 5.9m/s | -38.1°C | 0.8% | -1.0hPa | 2.4V | 00:00:00 | 00:00:00 | 00:00:00 | |
| OM5KV | 2026-08-31 01:29:37 | 48.30923 | 17.24546 | 76° | 29km/h | 34218m | 6.2m/s | -38.1°C | 0.8% | 0hPa | 2.4V | 00:00:00 | 00:00:00 | 00:00:00 | |
| ATIDSZ-14 | 2026-08-31 01:29:35 | 48.30918 | 17.24522 | 71° | 37km/h | 34208m | 4.1m/s | -38.2°C | 0.8% | 0hPa | 2.4V | 00:00:00 | 00:00:00 | 00:00:00 | |
| OM5KV | 2026-08-31 01:29:32 | 48.30903 | 17.24449 | 77° | 58km/h | 34185m | 4.9m/s | -38.1°C | 0.8% | 0hPa | 2.4V | 00:00:00 | 00:00:00 | 00:00:00 | |
| OE5MMP-10 | 2026-08-31 01:29:30 | 48.30896 | 17.24410 | 76° | 40km/h | 34175m | 5.3m/s | -38.0°C | 2.4% | 0hPa | 2.4V | 00:00:00 | 02:10:37 | 00:00:00 | |
| S52SK | 2026-08-31 01:29:29 | 48.30896 | 17.24410 | 77° | 47km/h | 34175m | 5.3m/s | -38.1°C | 0.8% | 0hPa | 2.4V | 00:00:00 | 00:00:00 | 00:00:00 | |
| OE3OSB-13 | 2026-08-31 01:29:25 | 48.30875 | 17.24346 | 58° | 38km/h | 34143m | 6.1m/s | -38.0°C | 0.7% | -1.0hPa | 2.4V | 00:00:00 | 00:00:00 | 00:00:00 | |
| OE5DRO-10 | 2026-08-31 01:29:24 | 48.30875 | 17.24346 | 59° | 46km/h | 34143m | 6.0m/s | -38.0°C | 2.3% | 0hPa | 2.4V | 00:00:00 | 00:00:00 | 00:00:00 | |
| S52SK | 2026-08-31 01:29:23 | 48.30875 | 17.24346 | 60° | 38km/h | 34143m | 6.1m/s | -38.0°C | 0.8% | 0hPa | 2.4V | 00:00:00 | 00:00:00 | 00:00:00 | |
| OM5KV | 2026-08-31 01:29:21 | 48.30864 | 17.24313 | 68° | 57km/h | 34130m | 5.8m/s | -38.0°C | 0.8% | 0hPa | 2.4V | 00:00:00 | 00:00:00 | 00:00:00 | |
| EDDB2-12 | 2026-08-31 01:29:19 | 48.30843 | 17.24234 | 66° | 46km/h | 34109m | 5.7m/s | -38.1°C | 0.7% | -1.0hPa | 2.4V | 00:00:00 | 00:00:00 | 00:00:00 | |
| OE5WHR-10 | 2026-08-31 01:29:18 | 48.30843 | 17.24234 | 67° | 44km/h | 34109m | 5.6m/s | -38.0°C | 2.3% | 0hPa | 2.4V | 00:00:00 | 00:00:00 | 00:00:00 | |
| OM5KV | 2026-08-31 01:29:17 | 48.30843 | 17.24234 | 68° | 46km/h | 34109m | 5.7m/s | -38.1°C | 0.8% | 0hPa | 2.4V | 00:00:00 | 00:00:00 | 00:00:00 | |
| OM5KV | 2026-08-31 01:29:15 | 48.30834 | 17.24207 | 60° | 35km/h | 34098m | 5.4m/s | -38.2°C | 0.8% | 0hPa | 2.4V | 00:00:00 | 00:00:00 | 00:00:00 | |
| ATIDSZ-14 | 2026-08-31 01:29:14 | 48.30830 | 17.24196 | 58° | 33km/h | 34093m | 5.3m/s | -38.3°C | 0.8% | 0hPa | 2.4V | 00:00:00 | 00:00:00 | 00:00:00 | |
| OE3JTB-15 | 2026-08-31 01:29:12 | 48.30817 | 17.24160 | 69° | 47km/h | 34076m | 5.8m/s | -38.4°C | 2.3% | 0hPa | 2.4V | 00:00:00 | 00:00:00 | 00:00:00 | |
| OE5DXL-15 | 2026-08-31 01:29:11 | 48.30814 | 17.24145 | 73° | 49km/h | 34070m | 5.6m/s | -38.4°C | 2.4% | 0hPa | 2.4V | 00:00:00 | 00:00:00 | 00:00:00 | |
| OE5MMP-10 | 2026-08-31 01:29:10 | 48.30810 | 17.24128 | 75° | 47km/h | 34064m | 5.1m/s | -38.5°C | 2.4% | 0hPa | 2.4V | 00:00:00 | 02:10:17 | 00:00:00 | |
| SONDE2-11 | 2026-08-31 01:29:08 | 48.30804 | 17.24093 | 73° | 44km/h | 34053m | 6.1m/s | -38.6°C | 0.8% | -1.0hPa | 2.4V | 00:00:00 | 00:00:00 | 00:00:00 | |
| OM5KV | 2026-08-31 01:29:06 | 48.30800 | 17.24078 | 69° | 42km/h | 34047m | 6.2m/s | -38.7°C | 0.8% | 0hPa | 2.4V | 00:00:00 | 00:00:00 | 00:00:00 | |
| OE5DRO-10 | 2026-08-31 01:29:05 | 48.30790 | 17.24051 | 55° | 49km/h | 34036m | 5.1m/s | -38.8°C | 2.5% | 0hPa | 2.4V | 00:00:00 | 00:00:00 | 00:00:00 | |
| PG1ADW-2 | 2026-08-31 01:29:04 | 48.30783 | 17.24038 | 51° | 49km/h | 34031m | 5.7m/s | -38.8°C | 2.5% | 0hPa | 2.4V | 00:00:00 | 00:00:00 | 00:00:00 | |
| OE3OSB-13 | 2026-08-31 01:28:54 | 48.30719 | 17.23855 | 70° | 53km/h | 33967m | 5.3m/s | -38.8°C | 0.8% | -1.0hPa | 2.4V | 00:00:00 | 00:00:00 | 00:00:00 | |
| EDDB2-12 | 2026-08-31 01:28:48 | 48.30682 | 17.23759 | 49° | 44km/h | 33934m | 4.6m/s | -38.7°C | 0.8% | -1.0hPa | 2.4V | 00:00:00 | 00:00:00 | 00:00:00 | |
| OE5DRO-10 | 2026-08-31 01:28:46 | 48.30675 | 17.23746 | 51° | 44km/h | 33929m | 5.9m/s | -38.7°C | 2.4% | 0hPa | 2.4V | 00:00:00 | 00:00:00 | 00:00:00 | |
| PG1ADW-2 | 2026-08-31 01:28:44 | 48.30659 | 17.23715 | 55° | 42km/h | 33917m | 5.4m/s | -38.7°C | 2.4% | 0hPa | 2.4V | 00:00:00 | 02:09:51 | 00:00:00 | |
| OE3JTB-15 | 2026-08-31 01:28:43 | 48.30651 | 17.23698 | 58° | 42km/h | 33911m | 4.8m/s | -38.7°C | 2.5% | 0hPa | 2.4V | 00:00:00 | 02:09:50 | 00:00:00 | |
| OM5KV | 2026-08-31 01:28:42 | 48.30651 | 17.23698 | 59° | 55km/h | 33911m | 4.9m/s | -38.8°C | 0.8% | 0hPa | 2.4V | 00:00:00 | 00:00:00 | 00:00:00 | |
| OE5DXL-15 | 2026-08-31 01:28:41 | 48.30639 | 17.23666 | 64° | 42km/h | 33901m | 6.5m/s | -38.8°C | 2.5% | 0hPa | 2.4V | 00:00:00 | 00:00:00 | 00:00:00 | |
| OE5MMP-10 | 2026-08-31 01:28:40 | 48.30635 | 17.23651 | 65° | 44km/h | 33894m | 6.2m/s | -38.8°C | 2.5% | 0hPa | 2.4V | 00:00:00 | 02:09:47 | 00:00:00 | |
| OM5KV | 2026-08-31 01:28:36 | 48.30621 | 17.23617 | 53° | 38km/h | 33879m | 5.2m/s | -38.8°C | 0.9% | 0hPa | 2.4V | 00:00:00 | 00:00:00 | 00:00:00 | |
| ATIDSZ-14 | 2026-08-31 01:28:33 | 48.30598 | 17.23575 | 51° | 55km/h | 33861m | 5.3m/s | -38.8°C | 0.8% | 0hPa | 2.4V | 00:00:00 | 00:00:00 | 00:00:00 | |
| OE5MMP-10 | 2026-08-31 01:28:30 | 48.30567 | 17.23521 | 47° | 40km/h | 33840m | 6.5m/s | -38.8°C | 2.4% | 0hPa | 2.4V | 00:00:00 | 02:09:37 | 00:00:00 | |
| OM5KV | 2026-08-31 01:28:29 | 48.30567 | 17.23520 | 48° | 35km/h | 33840m | 6.6m/s | -38.9°C | 0.8% | 0hPa | 2.4V | 00:00:00 | 00:00:00 | 00:00:00 | |
| OK1ALN | 2026-08-31 01:28:28 | 48.30561 | 17.23512 | 43° | 27km/h | 33833m | 5.5m/s | -38.9°C | 0.8% | 0hPa | 2.4V | 00:00:00 | 00:00:00 | 00:00:00 | |
| OE5DRO-10 | 2026-08-31 01:28:27 | 48.30551 | 17.23499 | 41° | 42km/h | 33824m | 4.6m/s | -38.9°C | 2.4% | 0hPa | 2.4V | 00:00:00 | 00:00:00 | 00:00:00 | |
| PG1ADW-2 | 2026-08-31 01:28:24 | 48.30530 | 17.23469 | 45° | 44km/h | 33806m | 6.1m/s | -38.9°C | 2.5% | 0hPa | 2.4V | 00:00:00 | 00:00:00 | 00:00:00 | |
| OE3OSB-13 | 2026-08-31 01:28:23 | 48.30511 | 17.23440 | 43° | 55km/h | 33795m | 4.6m/s | -39.0°C | 0.8% | -1.0hPa | 2.4V | 00:00:00 | 00:00:00 | 00:00:00 | |
| OE5MMP-10 | 2026-08-31 01:28:20 | 48.30491 | 17.23414 | 41° | 40km/h | 33785m | 6.2m/s | -39.1°C | 2.5% | 0hPa | 2.4V | 00:00:00 | 02:09:27 | 00:00:00 | |
| OM5KV | 2026-08-31 01:28:18 | 48.30483 | 17.23404 | 37° | 38km/h | 33778m | 6.5m/s | -39.1°C | 0.9% | 0hPa | 2.4V | 00:00:00 | 00:00:00 | 00:00:00 | |
| OM5KV | 2026-08-31 01:28:16 | 48.30468 | 17.23390 | 29° | 31km/h | 33765m | 5.4m/s | -39.2°C | 0.9% | 0hPa | 2.4V | 00:00:00 | 00:00:00 | 00:00:00 | |
| OE5WHR-10 | 2026-08-31 01:28:15 | 48.30453 | 17.23378 | 32° | 38km/h | 33754m | 6.4m/s | -39.3°C | 2.6% | 0hPa | 2.4V | 00:00:00 | 00:00:00 | 00:00:00 | |
| OE3JTB-15 | 2026-08-31 01:28:14 | 48.30445 | 17.23370 | 32° | 37km/h | 33748m | 5.8m/s | -39.3°C | 2.6% | 0hPa | 2.4V | 00:00:00 | 00:00:00 | 00:00:00 | |
| OM5KV | 2026-08-31 01:28:12 | 48.30436 | 17.23361 | 32° | 47km/h | 33743m | 5.4m/s | -39.3°C | 0.9% | 0hPa | 2.5V | 00:00:00 | 00:00:00 | 00:00:00 | |
| OE5DXL-15 | 2026-08-31 01:28:11 | 48.30414 | 17.23345 | 24° | 37km/h | 33731m | 6.8m/s | -39.2°C | 2.6% | 0hPa | 2.5V | 00:00:00 | 00:00:00 | 00:00:00 | |
| OE5MMP-10 | 2026-08-31 01:28:10 | 48.30403 | 17.23338 | 19° | 37km/h | 33724m | 6.2m/s | -39.2°C | 2.6% | 0hPa | 2.5V | 00:00:00 | 02:09:17 | 00:00:00 | |
| OE5DRO-10 | 2026-08-31 01:28:08 | 48.30382 | 17.23328 | 20° | 37km/h | 33713m | 4.9m/s | -39.2°C | 2.6% | 0hPa | 2.5V | 00:00:00 | 00:00:00 | 00:00:00 | |
| OM5KV | 2026-08-31 01:28:07 | 48.30382 | 17.23328 | 21° | 42km/h | 33713m | 4.9m/s | -39.2°C | 0.9% | 0hPa | 2.4V | 00:00:00 | 00:00:00 | 00:00:00 | |
| HA6NAB-11 | 2026-08-31 01:28:05 | 48.30363 | 17.23315 | 34° | 40km/h | 33701m | 6.8m/s | -39.1°C | 0.9% | 0hPa | 2.4V | 00:00:00 | 00:00:00 | 00:00:00 | |
| PG1ADW-2 | 2026-08-31 01:28:04 | 48.30348 | 17.23297 | 40° | 33km/h | 33690m | 4.9m/s | -39.0°C | 2.6% | 0hPa | 2.4V | 00:00:00 | 00:00:00 | 00:00:00 | |
| S52SK | 2026-08-31 01:28:03 | 48.30341 | 17.23289 | 36° | 31km/h | 33684m | 5.2m/s | -39.0°C | 0.9% | 0hPa | 2.4V | 00:00:00 | 00:00:00 | 00:00:00 | |
| OM5KV | 2026-08-31 01:28:02 | 48.30341 | 17.23289 | 36° | 31km/h | 33684m | 5.2m/s | -39.0°C | 0.9% | 0hPa | 2.4V | 00:00:00 | 00:00:00 | 00:00:00 | |
| OE3OSB-13 | 2026-08-31 01:27:51 | 48.30246 | 17.23227 | 10° | 29km/h | 33614m | 5.9m/s | -38.5°C | 0.9% | -1.0hPa | 2.4V | 00:00:00 | 00:00:00 | 00:00:00 | |
| EDDB2-12 | 2026-08-31 01:27:46 | 48.30202 | 17.23206 | 36° | 38km/h | 33580m | 5.6m/s | -38.4°C | 0.9% | -1.0hPa | 2.4V | 00:00:00 | 00:00:00 | 00:00:00 | |
| OE3JTB-15 | 2026-08-31 01:27:45 | 48.30202 | 17.23206 | 37° | 24km/h | 33580m | 5.6m/s | -38.3°C | 2.5% | 0hPa | 2.4V | 00:00:00 | 00:00:00 | 00:00:00 | |
| PG1ADW-2 | 2026-08-31 01:27:44 | 48.30195 | 17.23197 | 40° | 24km/h | 33574m | 5.0m/s | -38.3°C | 2.5% | 0hPa | 2.4V | 00:00:00 | 00:00:00 | 00:00:00 | |
| HA6NAB-11 | 2026-08-31 01:27:43 | 48.30194 | 17.23197 | 40° | 38km/h | 33574m | 5.1m/s | -38.4°C | 0.9% | 0hPa | 2.4V | 00:00:00 | 00:00:00 | 00:00:00 | |
| OE5DXL-15 | 2026-08-31 01:27:41 | 48.30177 | 17.23177 | 25° | 22km/h | 33557m | 6.4m/s | -38.2°C | 2.5% | 0hPa | 2.4V | 00:00:00 | 00:00:00 | 00:00:00 | |
| OE5MMP-10 | 2026-08-31 01:27:40 | 48.30173 | 17.23176 | 5° | 24km/h | 33551m | 5.0m/s | -38.2°C | 2.5% | 0hPa | 2.5V | 00:00:00 | 02:08:47 | 00:00:00 | |
| OM5KV | 2026-08-31 01:27:37 | 48.30164 | 17.23176 | 359° | 22km/h | 33541m | 5.5m/s | -38.3°C | 0.9% | 0hPa | 2.5V | 00:00:00 | 00:00:00 | 00:00:00 | |
| OM5KV | 2026-08-31 01:27:34 | 48.30144 | 17.23171 | 22° | 31km/h | 33523m | 5.1m/s | -38.3°C | 0.9% | 0hPa | 2.5V | 00:00:00 | 00:00:00 | 00:00:00 | |
| OE5WHR-10 | 2026-08-31 01:27:33 | 48.30131 | 17.23161 | 33° | 22km/h | 33512m | 6.3m/s | -38.3°C | 2.5% | 0hPa | 2.5V | 00:00:00 | 00:00:00 | 08:30:00 | |
| OM5KV | 2026-08-31 01:27:32 | 48.30131 | 17.23161 | 33° | 27km/h | 33512m | 6.3m/s | -38.4°C | 0.9% | 0hPa | 2.4V | 00:00:00 | 00:00:00 | 00:00:00 | |
| ATIDSZ-14 | 2026-08-31 01:27:31 | 48.30126 | 17.23156 | 39° | 22km/h | 33506m | 6.4m/s | -38.4°C | 0.9% | 0hPa | 2.4V | 00:00:00 | 00:00:00 | 00:00:00 | |
| OE5MMP-10 | 2026-08-31 01:27:30 | 48.30119 | 17.23147 | 39° | 22km/h | 33495m | 4.9m/s | -38.5°C | 2.5% | 0hPa | 2.4V | 00:00:00 | 02:08:37 | 00:00:00 | |
| OM5KV | 2026-08-31 01:27:29 | 48.30119 | 17.23147 | 39° | 15km/h | 33495m | 4.9m/s | -38.5°C | 0.9% | 0hPa | 2.4V | 00:00:00 | 00:00:00 | 00:00:00 | |
| OK1ALN | 2026-08-31 01:27:27 | 48.30111 | 17.23140 | 25° | 20km/h | 33484m | 6.4m/s | -38.6°C | 0.9% | 0hPa | 2.4V | 00:00:00 | 00:00:00 | 00:00:00 | |
| OM5KV | 2026-08-31 01:27:25 | 48.30099 | 17.23134 | 15° | 29km/h | 33471m | 5.5m/s | -38.6°C | 0.9% | 0hPa | 2.4V | 00:00:00 | 00:00:00 | 00:00:00 | |
| PG1ADW-2 | 2026-08-31 01:27:24 | 48.30085 | 17.23131 | 4° | 26km/h | 33460m | 5.8m/s | -38.6°C | 2.5% | 0hPa | 2.4V | 00:00:00 | 02:08:31 | 08:30:00 | |
| OE5MMP-10 | 2026-08-31 01:27:20 | 48.30067 | 17.23133 | 9° | 24km/h | 33437m | 4.5m/s | -38.6°C | 2.5% | 0hPa | 2.4V | 00:00:00 | 02:08:27 | 00:00:00 | |
| OM5KV | 2026-08-31 01:27:19 | 48.30067 | 17.23133 | 10° | 13km/h | 33437m | 4.6m/s | -38.7°C | 0.9% | 0hPa | 2.4V | 00:00:00 | 00:00:00 | 00:00:00 | |
| OE3JTB-15 | 2026-08-31 01:27:16 | 48.30047 | 17.23117 | 33° | 29km/h | 33412m | 5.3m/s | -38.7°C | 2.5% | 0hPa | 2.4V | 00:00:00 | 02:08:23 | 00:00:00 | |
| OM5KV | 2026-08-31 01:27:14 | 48.30041 | 17.23111 | 31° | 29km/h | 33407m | 6.1m/s | -38.8°C | 0.9% | 0hPa | 2.4V | 00:00:00 | 00:00:00 | 00:00:00 | |
| OE5WHR-10 | 2026-08-31 01:27:12 | 48.30023 | 17.23100 | 11° | 31km/h | 33389m | 5.0m/s | -38.8°C | 2.5% | 0hPa | 2.4V | 00:00:00 | 00:00:00 | 00:00:00 | |
| OE5DXL-15 | 2026-08-31 01:27:11 | 48.30016 | 17.23099 | 8° | 29km/h | 33384m | 5.4m/s | -38.8°C | 2.5% | 0hPa | 2.4V | 00:00:00 | 00:00:00 | 00:00:00 | |
| OE5MMP-10 | 2026-08-31 01:27:10 | 48.30009 | 17.23097 | 10° | 27km/h | 33377m | 6.8m/s | -38.8°C | 2.5% | 0hPa | 2.4V | 00:00:00 | 02:08:17 | 00:00:00 | |
| OM5KV | 2026-08-31 01:27:08 | 48.30001 | 17.23095 | 13° | 35km/h | 33371m | 6.4m/s | -38.8°C | 0.9% | 0hPa | 2.4V | 00:00:00 | 00:00:00 | 00:00:00 | |
| OK1ALN | 2026-08-31 01:27:06 | 48.29985 | 17.23087 | 27° | 29km/h | 33359m | 5.0m/s | -38.8°C | 0.9% | 0hPa | 2.4V | 00:00:00 | 00:00:00 | 00:00:00 | |
| OM5KV | 2026-08-31 01:27:05 | 48.29979 | 17.23082 | 35° | 26km/h | 33353m | 6.9m/s | -38.8°C | 0.9% | 0hPa | 2.4V | 00:00:00 | 00:00:00 | 00:00:00 | |
| PG1ADW-2 | 2026-08-31 01:27:04 | 48.29971 | 17.23070 | 54° | 31km/h | 33340m | 5.4m/s | -38.7°C | 2.5% | 0hPa | 2.4V | 00:00:00 | 00:00:00 | 00:00:00 | |
| OM5KV | 2026-08-31 01:27:03 | 48.29972 | 17.23071 | 55° | 20km/h | 33340m | 5.4m/s | -38.8°C | 0.9% | 0hPa | 2.4V | 00:00:00 | 00:00:00 | 00:00:00 | |
| OE3OSB-13 | 2026-08-31 01:26:49 | 48.29877 | 17.22978 | 50° | 37km/h | 33252m | 5.0m/s | -39.1°C | 0.9% | -1.0hPa | 2.4V | 00:00:00 | 00:00:00 | 00:00:00 | |
| S52SK | 2026-08-31 01:26:48 | 48.29877 | 17.22978 | 52° | 38km/h | 33252m | 5.0m/s | -39.1°C | 0.9% | 0hPa | 2.4V | 00:00:00 | 00:00:00 | 00:00:00 | |
| OE3JTB-15 | 2026-08-31 01:26:47 | 48.29867 | 17.22957 | 57° | 35km/h | 33241m | 6.8m/s | -39.1°C | 2.6% | 0hPa | 2.4V | 00:00:00 | 00:00:00 | 08:30:00 | |
| OE5WHR-10 | 2026-08-31 01:26:46 | 48.29863 | 17.22948 | 60° | 33km/h | 33234m | 6.7m/s | -39.2°C | 2.6% | 0hPa | 2.5V | 00:00:00 | 02:07:53 | 00:00:00 | |
| OM5KV | 2026-08-31 01:26:45 | 48.29863 | 17.22948 | 61° | 26km/h | 33234m | 6.8m/s | -39.2°C | 0.9% | 0hPa | 2.5V | 00:00:00 | 00:00:00 | 00:00:00 | |
| PG1ADW-2 | 2026-08-31 01:26:44 | 48.29857 | 17.22934 | 48° | 33km/h | 33223m | 5.2m/s | -39.2°C | 2.5% | 0hPa | 2.5V | 00:00:00 | 00:00:00 | 00:00:00 | |
| EDDB2-12 | 2026-08-31 01:26:43 | 48.29853 | 17.22929 | 34° | 22km/h | 33217m | 5.9m/s | -39.3°C | 0.9% | -1.0hPa | 2.5V | 00:00:00 | 00:00:00 | 00:00:00 | |
| S52SK | 2026-08-31 01:26:42 | 48.29853 | 17.22929 | 36° | 22km/h | 33217m | 5.9m/s | -39.3°C | 0.9% | 0hPa | 2.5V | 00:00:00 | 00:00:00 | 00:00:00 | |
| OE5DXL-15 | 2026-08-31 01:26:41 | 48.29841 | 17.22919 | 27° | 37km/h | 33204m | 5.8m/s | -39.3°C | 2.6% | 0hPa | 2.5V | 00:00:00 | 00:00:00 | 00:00:00 | |
| OE5MMP-10 | 2026-08-31 01:26:40 | 48.29833 | 17.22913 | 30° | 33km/h | 33199m | 4.6m/s | -39.4°C | 2.6% | 0hPa | 2.5V | 00:00:00 | 02:07:47 | 00:00:00 | |
| OM5KV | 2026-08-31 01:26:39 | 48.29833 | 17.22913 | 31° | 35km/h | 33199m | 4.7m/s | -39.4°C | 0.9% | 0hPa | 2.5V | 00:00:00 | 00:00:00 | 00:00:00 | |
| OM5KV | 2026-08-31 01:26:34 | 48.29809 | 17.22869 | 74° | 29km/h | 33170m | 4.8m/s | -39.6°C | 0.9% | 0hPa | 2.5V | 00:00:00 | 00:00:00 | 00:00:00 | |
| SONDE2-11 | 2026-08-31 01:26:33 | 48.29797 | 17.22836 | 48° | 38km/h | 33152m | 6.8m/s | -39.7°C | 0.9% | -1.0hPa | 2.5V | 00:00:00 | 00:00:00 | 00:00:00 | |
| OE5MMP-10 | 2026-08-31 01:26:30 | 48.29781 | 17.22815 | 35° | 38km/h | 33140m | 5.1m/s | -39.8°C | 2.7% | 0hPa | 2.5V | 00:00:00 | 02:07:37 | 00:00:00 | |
| OM5KV | 2026-08-31 01:26:29 | 48.29781 | 17.22815 | 36° | 44km/h | 33140m | 5.1m/s | -39.9°C | 1.0% | 0hPa | 2.5V | 00:00:00 | 00:00:00 | 00:00:00 | |
| OE5WHR-10 | 2026-08-31 01:26:25 | 48.29750 | 17.22768 | 73° | 42km/h | 33112m | 4.9m/s | -39.9°C | 2.8% | 0hPa | 2.5V | 00:00:00 | 00:00:00 | 00:00:00 | |
| PG1ADW-2 | 2026-08-31 01:26:24 | 48.29748 | 17.22756 | 76° | 42km/h | 33107m | 5.1m/s | -39.9°C | 2.7% | 0hPa | 2.5V | 00:00:00 | 00:00:00 | 00:00:00 | |
| OM5KV | 2026-08-31 01:26:23 | 48.29748 | 17.22756 | 76° | 35km/h | 33107m | 5.1m/s | -40.0°C | 1.0% | 0hPa | 2.5V | 00:00:00 | 00:00:00 | 00:00:00 | |
| OE5MMP-10 | 2026-08-31 01:26:20 | 48.29730 | 17.22696 | 58° | 42km/h | 33082m | 5.7m/s | -39.8°C | 2.7% | 0hPa | 2.5V | 00:00:00 | 02:07:27 | 08:30:00 | |
| OE3OSB-13 | 2026-08-31 01:26:19 | 48.29717 | 17.22666 | 56° | 42km/h | 33071m | 6.4m/s | -39.8°C | 1.0% | -1.0hPa | 2.5V | 00:00:00 | 00:00:00 | 00:00:00 | |
| OE3JTB-15 | 2026-08-31 01:26:18 | 48.29717 | 17.22666 | 57° | 38km/h | 33071m | 6.3m/s | -39.8°C | 2.7% | 0hPa | 2.5V | 00:00:00 | 00:00:00 | 00:00:00 | |
| SP9KGR-15 | 2026-08-31 01:26:17 | 48.29717 | 17.22666 | 58° | 44km/h | 33071m | 6.4m/s | -39.8°C | 1.0% | 0hPa | 2.5V | 00:00:00 | 00:00:00 | 00:00:00 | |
| OE5DRO-10 | 2026-08-31 01:26:14 | 48.29701 | 17.22618 | 71° | 38km/h | 33046m | 6.4m/s | -39.7°C | 2.7% | 0hPa | 2.5V | 00:00:00 | 00:00:00 | 00:00:00 | |
| EDDB2-12 | 2026-08-31 01:26:12 | 48.29694 | 17.22589 | 70° | 44km/h | 33032m | 5.7m/s | -39.7°C | 1.0% | -1.0hPa | 2.4V | 00:00:00 | 00:00:00 | 00:00:00 | |
| OE5DXL-15 | 2026-08-31 01:26:11 | 48.29690 | 17.22573 | 70° | 37km/h | 33027m | 5.2m/s | -39.7°C | 2.7% | 0hPa | 2.4V | 00:00:00 | 00:00:00 | 08:30:00 | |
| OE5MMP-10 | 2026-08-31 01:26:10 | 48.29686 | 17.22557 | 71° | 44km/h | 33021m | 6.3m/s | -39.7°C | 2.7% | 0hPa | 2.4V | 00:00:00 | 02:07:17 | 00:00:00 | |
| OM5KV | 2026-08-31 01:26:09 | 48.29686 | 17.22557 | 72° | 44km/h | 33021m | 6.4m/s | -39.8°C | 1.0% | 0hPa | 2.4V | 00:00:00 | 00:00:00 | 00:00:00 | |
| HA6NAB-11 | 2026-08-31 01:26:07 | 48.29679 | 17.22527 | 71° | 40km/h | 33008m | 6.1m/s | -39.8°C | 1.0% | 0hPa | 2.4V | 00:00:00 | 00:00:00 | 00:00:00 | |
| OE5WHR-10 | 2026-08-31 01:26:04 | 48.29658 | 17.22469 | 57° | 37km/h | 32983m | 5.9m/s | -39.7°C | 2.7% | 0hPa | 2.4V | 00:00:00 | 00:00:00 | 00:00:00 | |
| OM5KV | 2026-08-31 01:26:03 | 48.29658 | 17.22469 | 57° | 49km/h | 32983m | 6.0m/s | -39.8°C | 1.0% | 0hPa | 2.4V | 00:00:00 | 00:00:00 | 00:00:00 | |
| SONDE2-11 | 2026-08-31 01:26:02 | 48.29642 | 17.22424 | 70° | 38km/h | 32967m | 6.9m/s | -39.8°C | 0.9% | -1.0hPa | 2.4V | 00:00:00 | 00:00:00 | 00:00:00 | |
| OE3OSB-13 | 2026-08-31 01:25:47 | 48.29616 | 17.22250 | 70° | 27km/h | 32882m | 5.5m/s | -39.8°C | 1.0% | -1.0hPa | 2.4V | 00:00:00 | 00:00:00 | 00:00:00 | |
| PG1ADW-2 | 2026-08-31 01:25:44 | 48.29602 | 17.22220 | 47° | 35km/h | 32863m | 5.8m/s | -39.7°C | 2.7% | 0hPa | 2.4V | 00:00:00 | 00:00:00 | 00:00:00 | |
| OE5WHR-10 | 2026-08-31 01:25:43 | 48.29596 | 17.22211 | 48° | 33km/h | 32857m | 4.9m/s | -39.6°C | 2.7% | 0hPa | 2.4V | 00:00:00 | 02:06:50 | 00:00:00 | |
| OE5DXL-15 | 2026-08-31 01:25:41 | 48.29587 | 17.22192 | 63° | 33km/h | 32845m | 6.6m/s | -39.6°C | 2.6% | 0hPa | 2.4V | 00:00:00 | 00:00:00 | 00:00:00 | |
| OE5MMP-10 | 2026-08-31 01:25:40 | 48.29584 | 17.22182 | 70° | 33km/h | 32838m | 5.8m/s | -39.6°C | 2.6% | 0hPa | 2.4V | 00:00:00 | 02:06:47 | 00:00:00 | |
| LZ4TU-5 | 2026-08-31 01:25:39 | 48.29584 | 17.22182 | 71° | 29km/h | 32838m | 5.9m/s | 0°C | 0% | 0hPa | 2.4V | 00:00:00 | 00:00:00 | 00:00:00 | |
| OM5KV | 2026-08-31 01:25:37 | 48.29579 | 17.22160 | 69° | 33km/h | 32826m | 7.1m/s | -39.6°C | 1.0% | 0hPa | 2.4V | 00:00:00 | 00:00:00 | 00:00:00 | |
| OM5KV | 2026-08-31 01:25:36 | 48.29575 | 17.22149 | 64° | 37km/h | 32819m | 6.6m/s | -39.6°C | 1.0% | 0hPa | 2.4V | 00:00:00 | 00:00:00 | 00:00:00 | |
| OE5DRO-10 | 2026-08-31 01:25:35 | 48.29567 | 17.22125 | 61° | 33km/h | 32807m | 5.2m/s | -39.7°C | 2.7% | 0hPa | 2.4V | 00:00:00 | 00:00:00 | 00:00:00 | |
| SONDE2-11 | 2026-08-31 01:25:31 | 48.29546 | 17.22073 | 45° | 35km/h | 32777m | 6.2m/s | -39.9°C | 1.0% | -1.0hPa | 2.4V | 00:00:00 | 00:00:00 | 00:00:00 | |
| OE5MMP-10 | 2026-08-31 01:25:30 | 48.29545 | 17.22073 | 46° | 33km/h | 32778m | 6.2m/s | -39.9°C | 2.7% | 0hPa | 2.4V | 00:00:00 | 02:06:37 | 00:00:00 | |
| ATIDSZ-14 | 2026-08-31 01:25:28 | 48.29539 | 17.22063 | 40° | 40km/h | 32771m | 7.5m/s | -40.0°C | 1.0% | 0hPa | 2.4V | 00:00:00 | 00:00:00 | 00:00:00 | |
| S52SK | 2026-08-31 01:25:26 | 48.29521 | 17.22045 | 35° | 42km/h | 32758m | 5.2m/s | -40.0°C | 1.0% | 0hPa | 2.4V | 00:00:00 | 00:00:00 | 00:00:00 | |
| OM5KV | 2026-08-31 01:25:25 | 48.29513 | 17.22036 | 37° | 37km/h | 32753m | 5.0m/s | -40.1°C | 1.0% | 0hPa | 2.4V | 00:00:00 | 00:00:00 | 00:00:00 | |
| PG1ADW-2 | 2026-08-31 01:25:24 | 48.29501 | 17.22021 | 54° | 31km/h | 32740m | 7.0m/s | -40.1°C | 2.8% | 0hPa | 2.4V | 00:00:00 | 00:00:00 | 00:00:00 | |
| OK1ALN | 2026-08-31 01:25:23 | 48.29501 | 17.22021 | 55° | 24km/h | 32740m | 7.0m/s | -40.2°C | 1.0% | 0hPa | 2.5V | 00:00:00 | 00:00:00 | 00:00:00 | |
| OE5WHR-10 | 2026-08-31 01:25:22 | 48.29497 | 17.22006 | 74° | 31km/h | 32728m | 5.2m/s | -40.3°C | 2.8% | 0hPa | 2.5V | 00:00:00 | 00:00:00 | 00:00:00 | |
| OE5MMP-10 | 2026-08-31 01:25:20 | 48.29492 | 17.21987 | 63° | 31km/h | 32715m | 6.8m/s | -40.4°C | 2.9% | 0hPa | 2.4V | 00:00:00 | 02:06:27 | 00:00:00 | |
| LZ4TU-5 | 2026-08-31 01:25:19 | 48.29492 | 17.21987 | 64° | 31km/h | 32715m | 6.9m/s | 0°C | 0% | 0hPa | 2.5V | 00:00:00 | 00:00:00 | 00:00:00 | |
| OE5DRO-10 | 2026-08-31 01:25:16 | 48.29469 | 17.21941 | 51° | 35km/h | 32692m | 6.3m/s | -40.4°C | 2.8% | 0hPa | 2.5V | 00:00:00 | 00:00:00 | 00:00:00 | |
| LZ4TU-5 | 2026-08-31 01:25:15 | 48.29464 | 17.21931 | 53° | 33km/h | 32685m | 6.6m/s | 0°C | 0% | 0hPa | 2.4V | 00:00:00 | 00:00:00 | 00:00:00 | |
| OM5KV | 2026-08-31 01:25:14 | 48.29464 | 17.21931 | 53° | 33km/h | 32685m | 6.6m/s | -40.4°C | 1.1% | 0hPa | 2.4V | 00:00:00 | 00:00:00 | 00:00:00 | |
| SP9KGR-15 | 2026-08-31 01:25:13 | 48.29460 | 17.21922 | 53° | 27km/h | 32679m | 6.2m/s | -40.4°C | 1.1% | 0hPa | 2.4V | 00:00:00 | 00:00:00 | 00:00:00 | |
| OE5DXL-15 | 2026-08-31 01:25:11 | 48.29447 | 17.21901 | 40° | 37km/h | 32662m | 6.7m/s | -40.3°C | 2.8% | 0hPa | 2.4V | 00:00:00 | 00:00:00 | 00:00:00 | |
| OE5MMP-10 | 2026-08-31 01:25:10 | 48.29441 | 17.21895 | 37° | 33km/h | 32655m | 7.0m/s | -40.3°C | 2.8% | 0hPa | 2.4V | 00:00:00 | 02:06:17 | 00:00:00 | |
| ATIDSZ-14 | 2026-08-31 01:25:08 | 48.29434 | 17.21887 | 37° | 35km/h | 32648m | 5.9m/s | -40.3°C | 1.1% | 0hPa | 2.4V | 00:00:00 | 00:00:00 | 00:00:00 | |
| OM5KV | 2026-08-31 01:25:07 | 48.29428 | 17.21879 | 40° | 35km/h | 32642m | 5.4m/s | -40.3°C | 1.1% | 0hPa | 2.4V | 00:00:00 | 00:00:00 | 00:00:00 | |
| PG1ADW-2 | 2026-08-31 01:25:04 | 48.29407 | 17.21845 | 55° | 38km/h | 32618m | 4.9m/s | -40.1°C | 2.8% | 0hPa | 2.4V | 00:00:00 | 00:00:00 | 00:00:00 | |
| OM5KV | 2026-08-31 01:25:03 | 48.29407 | 17.21845 | 55° | 29km/h | 32618m | 4.9m/s | -40.1°C | 1.0% | 0hPa | 2.4V | 00:00:00 | 00:00:00 | 00:00:00 | |
| OK1ALN | 2026-08-31 01:25:02 | 48.29402 | 17.21836 | 53° | 33km/h | 32613m | 5.8m/s | -40.1°C | 1.1% | 0hPa | 2.4V | 00:00:00 | 00:00:00 | 00:00:00 | |
| SONDE2-11 | 2026-08-31 01:25:00 | 48.29373 | 17.21790 | 48° | 46km/h | 32589m | 4.9m/s | -40.0°C | 1.0% | -1.0hPa | 2.4V | 00:00:00 | 00:00:00 | 00:00:00 | |
| OE3OSB-13 | 2026-08-31 01:24:45 | 48.29286 | 17.21645 | 41° | 38km/h | 32503m | 7.4m/s | -40.1°C | 1.0% | -1.0hPa | 2.4V | 00:00:00 | 00:00:00 | 00:00:00 | |
| PG1ADW-2 | 2026-08-31 01:24:44 | 48.29278 | 17.21635 | 38° | 35km/h | 32497m | 6.3m/s | -40.1°C | 2.8% | 0hPa | 2.4V | 00:00:00 | 02:05:51 | 00:00:00 | |
| OK1ALN | 2026-08-31 01:24:41 | 48.29261 | 17.21615 | 41° | 42km/h | 32485m | 5.3m/s | -40.2°C | 1.1% | 0hPa | 2.4V | 00:00:00 | 00:00:00 | 00:00:00 | |
| OE5MMP-10 | 2026-08-31 01:24:40 | 48.29248 | 17.21594 | 54° | 31km/h | 32472m | 6.6m/s | -40.3°C | 2.8% | 0hPa | 2.4V | 00:00:00 | 02:05:47 | 00:00:00 | |
| EDDB2-12 | 2026-08-31 01:24:39 | 48.29243 | 17.21583 | 57° | 31km/h | 32466m | 5.9m/s | -40.4°C | 1.0% | -1.0hPa | 2.4V | 00:00:00 | 00:00:00 | 00:00:00 | |
| OE5DRO-10 | 2026-08-31 01:24:38 | 48.29238 | 17.21573 | 58° | 33km/h | 32460m | 5.7m/s | -40.5°C | 2.8% | 0hPa | 2.4V | 00:00:00 | 00:00:00 | 00:00:00 | |
| GYPAP8-17 | 2026-08-31 01:24:37 | 48.29238 | 17.21573 | 59° | 31km/h | 32460m | 5.8m/s | -40.5°C | 1.1% | 0hPa | 2.4V | 00:00:00 | 00:00:00 | 00:00:00 | |
| HA6NAB-11 | 2026-08-31 01:24:32 | 48.29212 | 17.21532 | 47° | 31km/h | 32429m | 7.0m/s | -40.6°C | 1.1% | 0hPa | 2.4V | 00:00:00 | 00:00:00 | 00:00:00 | |
| OE5MMP-10 | 2026-08-31 01:24:30 | 48.29195 | 17.21506 | 39° | 35km/h | 32411m | 5.1m/s | -40.6°C | 2.9% | 0hPa | 2.4V | 00:00:00 | 02:05:37 | 00:00:00 | |
| OM5KV | 2026-08-31 01:24:28 | 48.29188 | 17.21499 | 32° | 37km/h | 32405m | 7.0m/s | 0°C | 0% | 0hPa | 2.4V | 00:00:00 | 00:00:00 | 00:00:00 | |
| ATIDSZ-14 | 2026-08-31 01:24:27 | 48.29180 | 17.21493 | 26° | 38km/h | 32397m | 7.0m/s | -40.6°C | 1.1% | 0hPa | 2.4V | 00:00:00 | 00:00:00 | 00:00:00 | |
| HA6NAB-11 | 2026-08-31 01:24:26 | 48.29171 | 17.21487 | 23° | 40km/h | 32391m | 5.7m/s | -40.7°C | 1.1% | 0hPa | 2.4V | 00:00:00 | 00:00:00 | 00:00:00 | |
| PG1ADW-2 | 2026-08-31 01:24:24 | 48.29147 | 17.21466 | 47° | 26km/h | 32373m | 6.8m/s | -40.6°C | 2.9% | 0hPa | 2.4V | 00:00:00 | 00:00:00 | 08:30:00 | |
| SP9KGR-15 | 2026-08-31 01:24:23 | 48.29147 | 17.21466 | 48° | 31km/h | 32373m | 6.8m/s | -40.6°C | 1.1% | 0hPa | 2.5V | 00:00:00 | 00:00:00 | 00:00:00 | |
| OE3JTB-15 | 2026-08-31 01:24:22 | 48.29139 | 17.21446 | 65° | 27km/h | 32362m | 4.8m/s | -40.5°C | 2.9% | 0hPa | 2.5V | 00:00:00 | 02:05:29 | 00:00:00 | |
| OM5KV | 2026-08-31 01:24:21 | 48.29139 | 17.21446 | 65° | 33km/h | 32362m | 4.9m/s | 0°C | 0% | 0hPa | 2.5V | 00:00:00 | 00:00:00 | 00:00:00 | |
| OE5MMP-10 | 2026-08-31 01:24:20 | 48.29131 | 17.21425 | 54° | 31km/h | 32349m | 6.6m/s | -40.5°C | 2.9% | 0hPa | 2.5V | 00:00:00 | 02:05:27 | 00:00:00 | |
| OE5WHR-10 | 2026-08-31 01:24:19 | 48.29125 | 17.21416 | 43° | 20km/h | 32343m | 6.0m/s | -40.5°C | 2.9% | 0hPa | 2.4V | 00:00:00 | 00:00:00 | 08:30:00 | |
| GYPAP8-17 | 2026-08-31 01:24:17 | 48.29118 | 17.21408 | 37° | 35km/h | 32337m | 5.8m/s | -40.6°C | 1.1% | 0hPa | 2.5V | 00:00:00 | 00:00:00 | 00:00:00 | |
| HA6NAB-11 | 2026-08-31 01:24:15 | 48.29104 | 17.21394 | 32° | 33km/h | 32325m | 6.1m/s | -40.6°C | 1.1% | 0hPa | 2.5V | 00:00:00 | 00:00:00 | 00:00:00 | |
| OE3OSB-13 | 2026-08-31 01:24:14 | 48.29091 | 17.21380 | 40° | 29km/h | 32312m | 6.1m/s | -40.7°C | 1.1% | -1.0hPa | 2.5V | 00:00:00 | 00:00:00 | 00:00:00 | |
| OE5DXL-15 | 2026-08-31 01:24:11 | 48.29073 | 17.21359 | 31° | 20km/h | 32296m | 6.1m/s | -40.7°C | 2.9% | 0hPa | 2.5V | 00:00:00 | 00:00:00 | 00:00:00 | |
| OE5MMP-10 | 2026-08-31 01:24:10 | 48.29066 | 17.21354 | 22° | 22km/h | 32289m | 7.1m/s | -40.7°C | 3.0% | 0hPa | 2.5V | 00:00:00 | 02:05:17 | 00:00:00 | |
| HA6NAB-11 | 2026-08-31 01:24:09 | 48.29066 | 17.21354 | 22° | 33km/h | 32289m | 7.1m/s | -40.8°C | 1.1% | 0hPa | 2.5V | 00:00:00 | 00:00:00 | 00:00:00 | |
| EDDB2-12 | 2026-08-31 01:24:08 | 48.29051 | 17.21347 | 15° | 29km/h | 32277m | 4.9m/s | -40.8°C | 1.1% | -1.0hPa | 2.5V | 00:00:00 | 00:00:00 | 00:00:00 | |
| ATIDSZ-14 | 2026-08-31 01:24:07 | 48.29051 | 17.21347 | 16° | 31km/h | 32277m | 4.9m/s | -40.8°C | 1.1% | 0hPa | 2.5V | 00:00:00 | 00:00:00 | 00:00:00 | |
| OM5KV | 2026-08-31 01:24:06 | 48.29044 | 17.21344 | 23° | 26km/h | 32272m | 5.3m/s | 0°C | 0% | 0hPa | 2.5V | 00:00:00 | 00:00:00 | 00:00:00 | |
| OM5KV | 2026-08-31 01:24:05 | 48.29039 | 17.21340 | 35° | 22km/h | 32266m | 7.1m/s | -40.8°C | 1.1% | 0hPa | 2.5V | 00:00:00 | 00:00:00 | 00:00:00 | |
| SONDE2-11 | 2026-08-31 01:23:57 | 48.28999 | 17.21306 | 22° | 29km/h | 32209m | 6.9m/s | -40.7°C | 1.1% | -1.0hPa | 2.5V | 00:00:00 | 00:00:00 | 00:00:00 | |
| PG1ADW-2 | 2026-08-31 01:23:56 | 48.28992 | 17.21301 | 27° | 20km/h | 32203m | 5.9m/s | -40.6°C | 3.0% | 0hPa | 2.5V | 00:00:00 | 00:00:00 | 00:00:00 | |
| S52SK | 2026-08-31 01:23:54 | 48.28987 | 17.21297 | 27° | 24km/h | 32198m | 5.0m/s | -40.6°C | 1.2% | 0hPa | 2.5V | 00:00:00 | 00:00:00 | 00:00:00 | |
| OE3JTB-15 | 2026-08-31 01:23:53 | 48.28977 | 17.21292 | 3° | 18km/h | 32186m | 7.3m/s | -40.6°C | 2.9% | 0hPa | 2.5V | 00:00:00 | 00:00:00 | 00:00:00 | |
| OE5MMP-10 | 2026-08-31 01:23:50 | 48.28969 | 17.21297 | 308° | 18km/h | 32167m | 5.9m/s | -40.5°C | 2.9% | 0hPa | 2.4V | 00:00:00 | 02:04:57 | 00:00:00 | |
| OE5WHR-10 | 2026-08-31 01:23:49 | 48.28969 | 17.21297 | 154° | 16km/h | 32161m | 6.8m/s | -40.5°C | 2.9% | 0hPa | 2.4V | 00:00:00 | 00:00:00 | 00:00:00 | |
| OM5KV | 2026-08-31 01:23:47 | 48.28969 | 17.21296 | 104° | 7km/h | 32155m | 5.6m/s | -40.5°C | 1.1% | 0hPa | 2.4V | 00:00:00 | 00:00:00 | 00:00:00 | |
| ATIDSZ-14 | 2026-08-31 01:23:46 | 48.28969 | 17.21292 | 78° | 11km/h | 32149m | 4.9m/s | -40.5°C | 1.1% | 0hPa | 2.4V | 00:00:00 | 00:00:00 | 00:00:00 | |
| OE3OSB-13 | 2026-08-31 01:23:43 | 48.28934 | 17.21272 | 15° | 29km/h | 32114m | 5.6m/s | -40.6°C | 1.1% | -1.0hPa | 2.4V | 00:00:00 | 00:00:00 | 00:00:00 | |
| OE5DXL-15 | 2026-08-31 01:23:41 | 48.28934 | 17.21272 | 16° | 18km/h | 32114m | 5.6m/s | -40.5°C | 2.9% | 0hPa | 2.4V | 00:00:00 | 00:00:00 | 00:00:00 | |
| OE5MMP-10 | 2026-08-31 01:23:40 | 48.28928 | 17.21268 | 26° | 15km/h | 32108m | 6.2m/s | -40.6°C | 2.9% | 0hPa | 2.4V | 00:00:00 | 02:04:47 | 00:00:00 | |
| EDDB2-12 | 2026-08-31 01:23:37 | 48.28917 | 17.21253 | 57° | 15km/h | 32090m | 5.6m/s | -40.7°C | 1.1% | -1.0hPa | 2.4V | 00:00:00 | 00:00:00 | 00:00:00 | |
| PG1ADW-2 | 2026-08-31 01:23:36 | 48.28915 | 17.21249 | 55° | 16km/h | 32084m | 6.9m/s | -40.6°C | 2.9% | 0hPa | 2.4V | 00:00:00 | 00:00:00 | 00:00:00 | |
| OM5KV | 2026-08-31 01:23:35 | 48.28914 | 17.21249 | 56° | 13km/h | 32084m | 7.0m/s | -40.7°C | 1.2% | 0hPa | 2.4V | 00:00:00 | 00:00:00 | 00:00:00 | |
| SP9KGR-15 | 2026-08-31 01:23:34 | 48.28913 | 17.21246 | 32° | 11km/h | 32077m | 6.3m/s | -40.7°C | 1.2% | 0hPa | 2.4V | 00:00:00 | 00:00:00 | 00:00:00 | |
| GYPAP8-17 | 2026-08-31 01:23:31 | 48.28905 | 17.21240 | 34° | 13km/h | 32059m | 5.9m/s | -40.6°C | 1.2% | 0hPa | 2.4V | 00:00:00 | 00:00:00 | 00:00:00 | |
| OE5MMP-10 | 2026-08-31 01:23:30 | 48.28900 | 17.21232 | 51° | 20km/h | 32046m | 5.9m/s | -40.6°C | 2.9% | 0hPa | 2.4V | 00:00:00 | 02:04:37 | 00:00:00 | |
| OM5KV | 2026-08-31 01:23:29 | 48.28900 | 17.21232 | 52° | 18km/h | 32046m | 6.0m/s | -40.6°C | 1.1% | 0hPa | 2.4V | 00:00:00 | 00:00:00 | 00:00:00 | |
| OE5WHR-10 | 2026-08-31 01:23:28 | 48.28892 | 17.21221 | 37° | 16km/h | 32034m | 6.0m/s | 0°C | 0% | 0hPa | 2.4V | 00:00:00 | 02:04:35 | 00:00:00 | |
| SONDE2-11 | 2026-08-31 01:23:26 | 48.28881 | 17.21213 | 14° | 26km/h | 32020m | 6.4m/s | -40.7°C | 1.1% | -1.0hPa | 2.4V | 00:00:00 | 00:00:00 | 00:00:00 | |
| ATIDSZ-14 | 2026-08-31 01:23:25 | 48.28881 | 17.21212 | 16° | 27km/h | 32020m | 6.4m/s | -40.7°C | 1.1% | 0hPa | 2.4V | 00:00:00 | 00:00:00 | 00:00:00 | |
| OE3JTB-15 | 2026-08-31 01:23:24 | 48.28869 | 17.21209 | 15° | 16km/h | 32009m | 5.1m/s | -40.7°C | 3.0% | 0hPa | 2.4V | 00:00:00 | 00:00:00 | 00:00:00 | |
| OE5DRO-10 | 2026-08-31 01:23:22 | 48.28863 | 17.21203 | 70° | 16km/h | 31997m | 7.3m/s | -40.8°C | 2.9% | 0hPa | 2.4V | 00:00:00 | 00:00:00 | 00:00:00 | |
| OE5MMP-10 | 2026-08-31 01:23:20 | 48.28863 | 17.21193 | 92° | 16km/h | 31984m | 4.8m/s | -40.8°C | 2.9% | 0hPa | 2.4V | 00:00:00 | 02:04:27 | 08:30:00 | |
| OK1ALN | 2026-08-31 01:23:19 | 48.28863 | 17.21193 | 93° | 15km/h | 31984m | 4.9m/s | -40.8°C | 1.1% | 0hPa | 2.4V | 00:00:00 | 00:00:00 | 00:00:00 | |
| PG1ADW-2 | 2026-08-31 01:23:16 | 48.28853 | 17.21178 | 19° | 16km/h | 31960m | 5.6m/s | -40.8°C | 2.9% | 0hPa | 2.4V | 00:00:00 | 02:04:23 | 00:00:00 | |
| OM5KV | 2026-08-31 01:23:13 | 48.28844 | 17.21173 | 29° | 20km/h | 31947m | 7.0m/s | -40.9°C | 1.1% | 0hPa | 2.5V | 00:00:00 | 00:00:00 | 00:00:00 | |
| OE3OSB-13 | 2026-08-31 01:23:12 | 48.28836 | 17.21165 | 45° | 15km/h | 31935m | 5.5m/s | -41.1°C | 1.1% | -1.0hPa | 2.5V | 00:00:00 | 00:00:00 | 00:00:00 | |
| OE5DXL-15 | 2026-08-31 01:23:11 | 48.28834 | 17.21161 | 49° | 18km/h | 31929m | 5.8m/s | -41.0°C | 2.9% | 0hPa | 2.5V | 00:00:00 | 00:00:00 | 00:00:00 | |
| OE5MMP-10 | 2026-08-31 01:23:10 | 48.28832 | 17.21158 | 42° | 18km/h | 31922m | 6.6m/s | -41.1°C | 3.0% | 0hPa | 2.4V | 00:00:00 | 02:04:17 | 00:00:00 | |
| OE5WHR-10 | 2026-08-31 01:23:07 | 48.28827 | 17.21147 | 80° | 20km/h | 31905m | 4.8m/s | 0°C | 0% | 0hPa | 2.4V | 00:00:00 | 00:00:00 | 00:00:00 | |
| EDDB2-12 | 2026-08-31 01:23:06 | 48.28827 | 17.21141 | 92° | 18km/h | 31899m | 7.4m/s | -41.2°C | 1.1% | -1.0hPa | 2.4V | 00:00:00 | 00:00:00 | 00:00:00 | |
| ATIDSZ-14 | 2026-08-31 01:23:04 | 48.28828 | 17.21132 | 103° | 26km/h | 31891m | 7.6m/s | -41.2°C | 1.2% | 0hPa | 2.4V | 00:00:00 | 00:00:00 | 00:00:00 | |
| OE5DRO-10 | 2026-08-31 01:23:03 | 48.28830 | 17.21114 | 94° | 18km/h | 31879m | 4.8m/s | -41.1°C | 3.0% | 0hPa | 2.4V | 00:00:00 | 00:00:00 | 00:00:00 | |
| OM5KV | 2026-08-31 01:23:02 | 48.28830 | 17.21114 | 94° | 24km/h | 31879m | 4.9m/s | -41.2°C | 1.2% | 0hPa | 2.4V | 00:00:00 | 00:00:00 | 00:00:00 | |
| OE5MMP-10 | 2026-08-31 01:23:00 | 48.28825 | 17.21096 | 32° | 18km/h | 31860m | 6.0m/s | -41.2°C | 3.0% | 0hPa | 2.4V | 00:00:00 | 02:04:07 | 00:00:00 | |
| OK1ALN | 2026-08-31 01:22:58 | 48.28822 | 17.21094 | 17° | 13km/h | 31854m | 5.2m/s | -41.4°C | 1.2% | 0hPa | 2.4V | 00:00:00 | 00:00:00 | 00:00:00 | |
| PG1ADW-2 | 2026-08-31 01:22:56 | 48.28818 | 17.21086 | 101° | 22km/h | 31835m | 6.4m/s | -41.5°C | 3.1% | 0hPa | 2.4V | 00:00:00 | 00:00:00 | 00:00:00 | |
| OE3JTB-15 | 2026-08-31 01:22:55 | 48.28819 | 17.21080 | 108° | 24km/h | 31829m | 5.8m/s | -41.5°C | 3.1% | 0hPa | 2.4V | 00:00:00 | 02:04:02 | 00:00:00 | |
| OM5KV | 2026-08-31 01:22:51 | 48.28823 | 17.21054 | 97° | 24km/h | 31810m | 6.5m/s | -41.6°C | 1.2% | 0hPa | 2.4V | 00:00:00 | 00:00:00 | 00:00:00 | |
| OE5MMP-10 | 2026-08-31 01:22:50 | 48.28824 | 17.21036 | 95° | 18km/h | 31797m | 5.4m/s | -41.6°C | 3.0% | 0hPa | 2.4V | 00:00:00 | 02:03:57 | 00:00:00 | |
| SP9KGR-15 | 2026-08-31 01:22:48 | 48.28825 | 17.21028 | 101° | 24km/h | 31791m | 6.9m/s | -41.6°C | 1.2% | 0hPa | 2.4V | 00:00:00 | 00:00:00 | 00:00:00 | |
| OE5WHR-10 | 2026-08-31 01:22:46 | 48.28831 | 17.21003 | 114° | 27km/h | 31772m | 5.5m/s | 0°C | 0% | 0hPa | 2.4V | 00:00:00 | 00:00:00 | 00:00:00 | |
| OM5KV | 2026-08-31 01:22:45 | 48.28831 | 17.21003 | 114° | 20km/h | 31772m | 5.5m/s | -41.7°C | 1.2% | 0hPa | 2.4V | 00:00:00 | 00:00:00 | 00:00:00 | |
| OE5DRO-10 | 2026-08-31 01:22:44 | 48.28833 | 17.20992 | 79° | 26km/h | 31759m | 7.4m/s | -41.7°C | 3.1% | 0hPa | 2.4V | 00:00:00 | 00:00:00 | 00:00:00 | |
| OE5DXL-15 | 2026-08-31 01:22:41 | 48.28829 | 17.20979 | 72° | 29km/h | 31741m | 5.4m/s | -41.7°C | 3.1% | 0hPa | 2.4V | 00:00:00 | 00:00:00 | 00:00:00 | |
| OK1ALN | 2026-08-31 01:22:37 | 48.28829 | 17.20949 | 102° | 37km/h | 31721m | 5.6m/s | -41.6°C | 1.2% | 0hPa | 2.4V | 00:00:00 | 00:00:00 | 00:00:00 | |
| PG1ADW-2 | 2026-08-31 01:22:36 | 48.28833 | 17.20920 | 97° | 29km/h | 31710m | 6.4m/s | -41.6°C | 3.1% | 0hPa | 2.4V | 00:00:00 | 00:00:00 | 00:00:00 | |
| EDDB2-12 | 2026-08-31 01:22:35 | 48.28833 | 17.20906 | 89° | 33km/h | 31703m | 6.7m/s | -41.6°C | 1.2% | -1.0hPa | 2.4V | 00:00:00 | 00:00:00 | 00:00:00 | |
| S52SK | 2026-08-31 01:22:33 | 48.28832 | 17.20894 | 82° | 31km/h | 31697m | 6.5m/s | -41.6°C | 1.2% | 0hPa | 2.4V | 00:00:00 | 00:00:00 | 00:00:00 | |
| SP9KGR-15 | 2026-08-31 01:22:31 | 48.28830 | 17.20873 | 80° | 26km/h | 31685m | 5.7m/s | -41.5°C | 1.2% | 0hPa | 2.4V | 00:00:00 | 00:00:00 | 00:00:00 | |
| OE5MMP-10 | 2026-08-31 01:22:30 | 48.28829 | 17.20853 | 95° | 29km/h | 31671m | 6.7m/s | -41.5°C | 3.0% | 0hPa | 2.4V | 00:00:00 | 02:03:37 | 00:00:00 | |
| OE3JTB-15 | 2026-08-31 01:22:26 | 48.28830 | 17.20820 | 82° | 31km/h | 31646m | 6.0m/s | -41.6°C | 3.1% | 0hPa | 2.4V | 00:00:00 | 00:00:00 | 08:30:00 | |
| OE5DRO-10 | 2026-08-31 01:22:25 | 48.28829 | 17.20812 | 77° | 31km/h | 31640m | 5.1m/s | -41.6°C | 3.1% | 0hPa | 2.5V | 00:00:00 | 00:00:00 | 00:00:00 | |
| OE5WHR-10 | 2026-08-31 01:22:24 | 48.28828 | 17.20802 | 81° | 33km/h | 31634m | 6.4m/s | 0°C | 0% | 0hPa | 2.4V | 00:00:00 | 02:03:31 | 00:00:00 | |
| ATIDSZ-14 | 2026-08-31 01:22:23 | 48.28828 | 17.20802 | 82° | 29km/h | 31634m | 6.4m/s | -41.7°C | 1.2% | 0hPa | 2.4V | 00:00:00 | 00:00:00 | 00:00:00 | |
| OE5MMP-10 | 2026-08-31 01:22:20 | 48.28825 | 17.20744 | 84° | 29km/h | 31609m | 5.5m/s | -41.8°C | 3.1% | 0hPa | 2.4V | 00:00:00 | 02:03:27 | 00:00:00 | |
| OK1ALN | 2026-08-31 01:22:17 | 48.28821 | 17.20719 | 71° | 29km/h | 31595m | 6.7m/s | -41.9°C | 1.3% | 0hPa | 2.4V | 00:00:00 | 00:00:00 | 00:00:00 | |
| PG1ADW-2 | 2026-08-31 01:22:16 | 48.28817 | 17.20701 | 77° | 29km/h | 31582m | 6.0m/s | -41.9°C | 3.2% | 0hPa | 2.4V | 00:00:00 | 00:00:00 | 00:00:00 | |
| OE5DXL-15 | 2026-08-31 01:22:11 | 48.28817 | 17.20650 | 86° | 29km/h | 31552m | 6.6m/s | -41.9°C | 3.2% | 0hPa | 2.4V | 00:00:00 | 00:00:00 | 00:00:00 | |
| OE5MMP-10 | 2026-08-31 01:22:10 | 48.28816 | 17.20638 | 79° | 33km/h | 31545m | 6.9m/s | -41.9°C | 3.2% | 0hPa | 2.4V | 00:00:00 | 02:03:17 | 00:00:00 | |
| OE5DRO-10 | 2026-08-31 01:22:06 | 48.28809 | 17.20593 | 87° | 29km/h | 31521m | 6.9m/s | -41.9°C | 3.2% | 0hPa | 2.4V | 00:00:00 | 00:00:00 | 00:00:00 | |
| OM5KV | 2026-08-31 01:22:05 | 48.28809 | 17.20593 | 88° | 33km/h | 31521m | 7.0m/s | -41.9°C | 1.3% | 0hPa | 2.4V | 00:00:00 | 00:00:00 | 00:00:00 | |
| EDDB2-12 | 2026-08-31 01:22:04 | 48.28810 | 17.20567 | 95° | 35km/h | 31507m | 5.8m/s | -42.0°C | 1.3% | -1.0hPa | 2.4V | 00:00:00 | 00:00:00 | 00:00:00 | |
| OE5WHR-10 | 2026-08-31 01:22:03 | 48.28811 | 17.20553 | 93° | 29km/h | 31502m | 5.5m/s | 0°C | 0% | 0hPa | 2.4V | 00:00:00 | 00:00:00 | 00:00:00 | |
| GYPAP8-17 | 2026-08-31 01:22:02 | 48.28811 | 17.20553 | 93° | 37km/h | 31502m | 5.6m/s | -42.0°C | 1.3% | 0hPa | 2.4V | 00:00:00 | 00:00:00 | 00:00:00 | |
| SONDE2-11 | 2026-08-31 01:21:53 | 48.28794 | 17.20464 | 83° | 27km/h | 31436m | 7.3m/s | -41.8°C | 1.3% | -1.0hPa | 2.4V | 00:00:00 | 00:00:00 | 00:00:00 | |
| OE5MMP-10 | 2026-08-31 01:21:50 | 48.28790 | 17.20427 | 79° | 29km/h | 31417m | 6.9m/s | -41.7°C | 3.2% | 0hPa | 2.4V | 00:00:00 | 02:02:57 | 08:30:00 | |
| HA6NAB-11 | 2026-08-31 01:21:49 | 48.28790 | 17.20427 | 80° | 35km/h | 31417m | 7.0m/s | -41.8°C | 1.3% | 0hPa | 2.5V | 00:00:00 | 00:00:00 | 00:00:00 | |
| OM5KV | 2026-08-31 01:21:48 | 48.28788 | 17.20415 | 84° | 35km/h | 31410m | 7.1m/s | -41.8°C | 1.3% | 0hPa | 2.5V | 00:00:00 | 00:00:00 | 00:00:00 | |
| OE5DRO-10 | 2026-08-31 01:21:47 | 48.28785 | 17.20392 | 72° | 31km/h | 31397m | 5.2m/s | -41.7°C | 3.2% | 0hPa | 2.5V | 00:00:00 | 00:00:00 | 00:00:00 | |
| SP9KGR-15 | 2026-08-31 01:21:45 | 48.28782 | 17.20382 | 62° | 27km/h | 31391m | 6.7m/s | -41.7°C | 1.3% | 0hPa | 2.5V | 00:00:00 | 00:00:00 | 00:00:00 | |
| HA6NAB-11 | 2026-08-31 01:21:44 | 48.28778 | 17.20374 | 49° | 27km/h | 31384m | 7.5m/s | -41.7°C | 1.3% | 0hPa | 2.5V | 00:00:00 | 00:00:00 | 00:00:00 | |
| OM5KV | 2026-08-31 01:21:43 | 48.28773 | 17.20366 | 41° | 29km/h | 31377m | 5.6m/s | -41.7°C | 1.3% | 0hPa | 2.5V | 00:00:00 | 00:00:00 | 00:00:00 | |
| OE5WHR-10 | 2026-08-31 01:21:42 | 48.28764 | 17.20352 | 55° | 33km/h | 31367m | 5.9m/s | 0°C | 0% | 0hPa | 2.5V | 00:00:00 | 00:00:00 | 00:00:00 | |
| OE5DXL-15 | 2026-08-31 01:21:41 | 48.28761 | 17.20344 | 71° | 29km/h | 31360m | 7.3m/s | -41.7°C | 3.2% | 0hPa | 2.5V | 00:00:00 | 02:02:48 | 08:30:00 | |
| OE5MMP-10 | 2026-08-31 01:21:40 | 48.28760 | 17.20335 | 88° | 33km/h | 31353m | 6.7m/s | -41.8°C | 3.2% | 0hPa | 2.4V | 00:00:00 | 02:02:47 | 00:00:00 | |
| HA6NAB-11 | 2026-08-31 01:21:38 | 48.28760 | 17.20324 | 96° | 31km/h | 31347m | 5.5m/s | -41.9°C | 1.3% | 0hPa | 2.4V | 00:00:00 | 00:00:00 | 00:00:00 | |
| PG1ADW-2 | 2026-08-31 01:21:36 | 48.28758 | 17.20285 | 69° | 33km/h | 31329m | 7.3m/s | -41.9°C | 3.2% | 0hPa | 2.4V | 00:00:00 | 00:00:00 | 00:00:00 | |
| OK1ALN | 2026-08-31 01:21:35 | 48.28758 | 17.20285 | 69° | 37km/h | 31329m | 7.4m/s | -41.9°C | 1.3% | 0hPa | 2.4V | 00:00:00 | 00:00:00 | 00:00:00 | |
| EDDB2-12 | 2026-08-31 01:21:33 | 48.28742 | 17.20252 | 46° | 35km/h | 31308m | 7.3m/s | -42.0°C | 1.3% | -1.0hPa | 2.4V | 00:00:00 | 00:00:00 | 00:00:00 | |
| HA6NAB-11 | 2026-08-31 01:21:32 | 48.28742 | 17.20251 | 47° | 35km/h | 31308m | 7.3m/s | -42.0°C | 1.4% | 0hPa | 2.4V | 00:00:00 | 00:00:00 | 00:00:00 | |
| OM5KV | 2026-08-31 01:21:31 | 48.28736 | 17.20243 | 45° | 31km/h | 31301m | 6.5m/s | -42.0°C | 1.4% | 0hPa | 2.4V | 00:00:00 | 00:00:00 | 00:00:00 | |
| OE5MMP-10 | 2026-08-31 01:21:30 | 48.28724 | 17.20230 | 32° | 29km/h | 31289m | 6.0m/s | -41.9°C | 3.2% | 0hPa | 2.4V | 00:00:00 | 02:02:37 | 00:00:00 | |
| SP9KGR-15 | 2026-08-31 01:21:29 | 48.28724 | 17.20230 | 33° | 27km/h | 31289m | 6.1m/s | -42.0°C | 1.3% | 0hPa | 2.4V | 00:00:00 | 00:00:00 | 00:00:00 | |
| OE3JTB-15 | 2026-08-31 01:21:28 | 48.28712 | 17.20219 | 32° | 26km/h | 31275m | 6.1m/s | -41.9°C | 3.2% | 0hPa | 2.4V | 00:00:00 | 02:02:35 | 00:00:00 | |
| OM5KV | 2026-08-31 01:21:26 | 48.28707 | 17.20213 | 43° | 27km/h | 31269m | 5.1m/s | -41.9°C | 1.4% | 0hPa | 2.4V | 00:00:00 | 00:00:00 | 00:00:00 | |
| SONDE2-11 | 2026-08-31 01:21:22 | 48.28695 | 17.20162 | 68° | 33km/h | 31237m | 5.9m/s | -42.0°C | 1.3% | -1.0hPa | 2.4V | 00:00:00 | 00:00:00 | 00:00:00 | |
| OE5WHR-10 | 2026-08-31 01:21:21 | 48.28690 | 17.20151 | 56° | 31km/h | 31231m | 7.1m/s | 0°C | 0% | 0hPa | 2.4V | 00:00:00 | 02:02:28 | 00:00:00 | |
| OE5MMP-10 | 2026-08-31 01:21:20 | 48.28684 | 17.20141 | 42° | 24km/h | 31224m | 6.3m/s | -42.0°C | 3.3% | 0hPa | 2.4V | 00:00:00 | 02:02:27 | 00:00:00 | |
| S52SK | 2026-08-31 01:21:18 | 48.28677 | 17.20132 | 33° | 37km/h | 31218m | 5.7m/s | -42.0°C | 1.4% | 0hPa | 2.4V | 00:00:00 | 00:00:00 | 00:00:00 | |
| PG1ADW-2 | 2026-08-31 01:21:16 | 48.28656 | 17.20116 | 33° | 20km/h | 31199m | 6.8m/s | -41.9°C | 3.4% | 0hPa | 2.4V | 00:00:00 | 00:00:00 | 08:30:00 | |
| OM5KV | 2026-08-31 01:21:15 | 48.28657 | 17.20116 | 33° | 22km/h | 31199m | 6.8m/s | -42.0°C | 1.4% | 0hPa | 2.4V | 00:00:00 | 00:00:00 | 00:00:00 | |
| SP9KGR-15 | 2026-08-31 01:21:14 | 48.28653 | 17.20111 | 44° | 16km/h | 31192m | 6.6m/s | -42.0°C | 1.4% | 0hPa | 2.4V | 00:00:00 | 00:00:00 | 00:00:00 | |
| S52SK | 2026-08-31 01:21:12 | 48.28648 | 17.20102 | 62° | 15km/h | 31179m | 6.3m/s | -41.9°C | 1.4% | 0hPa | 2.4V | 00:00:00 | 00:00:00 | 00:00:00 | |
| OE5DXL-15 | 2026-08-31 01:21:11 | 48.28643 | 17.20090 | 59° | 18km/h | 31166m | 5.8m/s | -41.8°C | 3.3% | 0hPa | 2.4V | 00:00:00 | 00:00:00 | 00:00:00 | |
| OE5MMP-10 | 2026-08-31 01:21:10 | 48.28641 | 17.20083 | 66° | 24km/h | 31160m | 5.4m/s | -41.8°C | 3.3% | 0hPa | 2.4V | 00:00:00 | 02:02:17 | 00:00:00 | |
| OE5DRO-10 | 2026-08-31 01:21:09 | 48.28639 | 17.20074 | 76° | 20km/h | 31154m | 7.2m/s | -41.7°C | 3.3% | 0hPa | 2.4V | 00:00:00 | 00:00:00 | 00:00:00 | |
| OE3OSB-13 | 2026-08-31 01:21:08 | 48.28636 | 17.20055 | 79° | 26km/h | 31140m | 5.3m/s | -41.7°C | 1.4% | -1.0hPa | 2.4V | 00:00:00 | 00:00:00 | 00:00:00 | |
| OM5KV | 2026-08-31 01:21:04 | 48.28632 | 17.20036 | 58° | 27km/h | 31128m | 7.3m/s | -41.7°C | 1.4% | 0hPa | 2.4V | 00:00:00 | 00:00:00 | 00:00:00 | |
| EDDB2-12 | 2026-08-31 01:21:02 | 48.28617 | 17.20019 | 27° | 20km/h | 31109m | 6.0m/s | -41.6°C | 1.3% | -1.0hPa | 2.4V | 00:00:00 | 00:00:00 | 00:00:00 | |
| SONDE2-11 | 2026-08-31 01:20:51 | 48.28595 | 17.19962 | 83° | 24km/h | 31038m | 5.7m/s | -41.6°C | 1.4% | -1.0hPa | 2.4V | 00:00:00 | 00:00:00 | 00:00:00 | |
| OE5MMP-10 | 2026-08-31 01:20:50 | 48.28594 | 17.19953 | 79° | 13km/h | 31032m | 5.2m/s | -41.5°C | 3.3% | 0hPa | 2.4V | 00:00:00 | 02:01:57 | 00:00:00 | |
| OM5KV | 2026-08-31 01:20:47 | 48.28590 | 17.19940 | 45° | 18km/h | 31019m | 7.0m/s | -41.6°C | 1.4% | 0hPa | 2.4V | 00:00:00 | 00:00:00 | 00:00:00 | |
| SP9KGR-15 | 2026-08-31 01:20:43 | 48.28579 | 17.19935 | 335° | 2km/h | 30993m | 6.5m/s | -41.6°C | 0% | 0hPa | 2.4V | 00:00:00 | 00:00:00 | 00:00:00 | |
| OE5DXL-15 | 2026-08-31 01:20:41 | 48.28577 | 17.19931 | 65° | 20km/h | 30976m | 6.4m/s | -41.6°C | 3.2% | 0hPa | 2.4V | 00:00:00 | 00:00:00 | 00:00:00 | |
| OE5MMP-10 | 2026-08-31 01:20:40 | 48.28576 | 17.19926 | 56° | 22km/h | 30969m | 7.2m/s | -41.7°C | 3.2% | 0hPa | 2.4V | 00:00:00 | 02:01:47 | 00:00:00 | |
| OE3OSB-13 | 2026-08-31 01:20:37 | 48.28562 | 17.19895 | 62° | 24km/h | 30942m | 6.3m/s | -41.9°C | 1.4% | -1.0hPa | 2.4V | 00:00:00 | 00:00:00 | 00:00:00 | |
| PG1ADW-2 | 2026-08-31 01:20:36 | 48.28562 | 17.19895 | 63° | 20km/h | 30942m | 6.2m/s | -41.9°C | 3.3% | 0hPa | 2.4V | 00:00:00 | 02:01:43 | 00:00:00 | |
| OK1ALN | 2026-08-31 01:20:34 | 48.28559 | 17.19887 | 63° | 20km/h | 30937m | 5.0m/s | -41.9°C | 1.4% | 0hPa | 2.4V | 00:00:00 | 00:00:00 | 00:00:00 | |
| OE5DRO-10 | 2026-08-31 01:20:31 | 48.28544 | 17.19872 | 8° | 20km/h | 30913m | 5.9m/s | -41.9°C | 3.3% | 0hPa | 2.4V | 00:00:00 | 00:00:00 | 00:00:00 | |
| OE3JTB-15 | 2026-08-31 01:20:30 | 48.28538 | 17.19871 | 7° | 20km/h | 30907m | 4.8m/s | -42.0°C | 3.3% | 0hPa | 2.4V | 00:00:00 | 00:00:00 | 00:00:00 | |
| OM5KV | 2026-08-31 01:20:29 | 48.28538 | 17.19871 | 7° | 22km/h | 30907m | 4.8m/s | -42.0°C | 1.4% | 0hPa | 2.4V | 00:00:00 | 00:00:00 | 00:00:00 | |
| SP9KGR-15 | 2026-08-31 01:20:25 | 48.28525 | 17.19860 | 61° | 16km/h | 30882m | 5.3m/s | -42.2°C | 0% | 0hPa | 2.4V | 00:00:00 | 00:00:00 | 00:00:00 | |
| OM5KV | 2026-08-31 01:20:23 | 48.28519 | 17.19847 | 48° | 26km/h | 30870m | 7.0m/s | -42.3°C | 1.5% | 0hPa | 2.4V | 00:00:00 | 00:00:00 | 00:00:00 | |
| OE5MMP-10 | 2026-08-31 01:20:20 | 48.28496 | 17.19825 | 27° | 16km/h | 30846m | 7.2m/s | -42.3°C | 3.4% | 0hPa | 2.4V | 00:00:00 | 02:01:27 | 08:30:00 | |
| OM5KV | 2026-08-31 01:20:17 | 48.28489 | 17.19822 | 354° | 11km/h | 30833m | 5.7m/s | -42.3°C | 1.4% | 0hPa | 2.4V | 00:00:00 | 00:00:00 | 00:00:00 | |
| PG1ADW-2 | 2026-08-31 01:20:16 | 48.28483 | 17.19825 | 339° | 20km/h | 30820m | 7.2m/s | -42.3°C | 3.4% | 0hPa | 2.4V | 00:00:00 | 00:00:00 | 00:00:00 | |
| OK1ALN | 2026-08-31 01:20:13 | 48.28473 | 17.19830 | 351° | 20km/h | 30807m | 5.4m/s | -42.3°C | 1.5% | 0hPa | 2.4V | 00:00:00 | 00:00:00 | 00:00:00 | |
| OE5DRO-10 | 2026-08-31 01:20:12 | 48.28464 | 17.19829 | 26° | 20km/h | 30796m | 6.4m/s | -42.3°C | 3.4% | 0hPa | 2.4V | 00:00:00 | 00:00:00 | 00:00:00 | |
| OE5DXL-15 | 2026-08-31 01:20:11 | 48.28461 | 17.19825 | 49° | 20km/h | 30789m | 7.6m/s | -42.3°C | 3.4% | 0hPa | 2.4V | 00:00:00 | 00:00:00 | 00:00:00 | |
| OE5MMP-10 | 2026-08-31 01:20:10 | 48.28459 | 17.19820 | 62° | 20km/h | 30782m | 5.8m/s | -42.3°C | 3.4% | 0hPa | 2.5V | 00:00:00 | 02:01:17 | 00:00:00 | |
| SP9KGR-15 | 2026-08-31 01:20:09 | 48.28459 | 17.19820 | 63° | 18km/h | 30782m | 5.8m/s | -42.3°C | 0% | 0hPa | 2.5V | 00:00:00 | 00:00:00 | 00:00:00 | |
| OM5KV | 2026-08-31 01:20:06 | 48.28449 | 17.19802 | 29° | 24km/h | 30764m | 6.6m/s | -42.3°C | 1.5% | 0hPa | 2.5V | 00:00:00 | 00:00:00 | 00:00:00 | |
| OE3OSB-13 | 2026-08-31 01:20:05 | 48.28437 | 17.19798 | 2° | 24km/h | 30752m | 6.1m/s | -42.4°C | 1.4% | -1.0hPa | 2.5V | 00:00:00 | 00:00:00 | 00:00:00 | |
| EDDB2-12 | 2026-08-31 01:20:00 | 48.28410 | 17.19814 | 336° | 22km/h | 30714m | 6.4m/s | -42.3°C | 1.4% | -1.0hPa | 2.5V | 00:00:00 | 00:00:00 | 00:00:00 | |
| SONDE2-11 | 2026-08-31 01:19:49 | 48.28368 | 17.19786 | 327° | 22km/h | 30654m | 5.9m/s | -42.6°C | 1.5% | -1.0hPa | 2.5V | 00:00:00 | 00:00:00 | 00:00:00 | |
| HA6NAB-11 | 2026-08-31 01:19:46 | 48.28360 | 17.19797 | 309° | 20km/h | 30641m | 7.2m/s | -42.6°C | 1.5% | 0hPa | 2.5V | 00:00:00 | 00:00:00 | 00:00:00 | |
| OM5KV | 2026-08-31 01:19:45 | 48.28357 | 17.19803 | 302° | 16km/h | 30635m | 6.0m/s | -42.7°C | 1.5% | 0hPa | 2.5V | 00:00:00 | 00:00:00 | 00:00:00 | |
| OE5DXL-15 | 2026-08-31 01:19:41 | 48.28346 | 17.19809 | 25° | 11km/h | 30605m | 5.7m/s | -42.7°C | 3.5% | 0hPa | 2.5V | 00:00:00 | 00:00:00 | 00:00:00 | |
| OE5MMP-10 | 2026-08-31 01:19:40 | 48.28343 | 17.19806 | 42° | 11km/h | 30600m | 4.9m/s | -42.7°C | 3.5% | 0hPa | 2.5V | 00:00:00 | 02:00:47 | 00:00:00 | |
| OM5KV | 2026-08-31 01:19:39 | 48.28343 | 17.19806 | 43° | 15km/h | 30600m | 4.9m/s | -42.8°C | 1.5% | 0hPa | 2.5V | 00:00:00 | 00:00:00 | 00:00:00 | |
| SP9KGR-15 | 2026-08-31 01:19:38 | 48.28341 | 17.19802 | 59° | 13km/h | 30593m | 7.4m/s | -42.8°C | 0% | 0hPa | 2.5V | 00:00:00 | 00:00:00 | 00:00:00 | |
| PG1ADW-2 | 2026-08-31 01:19:36 | 48.28338 | 17.19792 | 43° | 13km/h | 30575m | 5.6m/s | -42.8°C | 3.5% | 0hPa | 2.5V | 00:00:00 | 00:00:00 | 00:00:00 | |
| HA6NAB-11 | 2026-08-31 01:19:35 | 48.28338 | 17.19792 | 44° | 9km/h | 30575m | 5.6m/s | -42.9°C | 1.5% | 0hPa | 2.5V | 00:00:00 | 00:00:00 | 00:00:00 | |
| OE5DRO-10 | 2026-08-31 01:19:34 | 48.28333 | 17.19790 | 356° | 13km/h | 30561m | 5.7m/s | -42.9°C | 3.5% | 0hPa | 2.5V | 00:00:00 | 00:00:00 | 00:00:00 | |
| OM5KV | 2026-08-31 01:19:33 | 48.28333 | 17.19790 | 357° | 15km/h | 30561m | 5.8m/s | -43.0°C | 1.5% | 0hPa | 2.4V | 00:00:00 | 00:00:00 | 00:00:00 | |
| OE3JTB-15 | 2026-08-31 01:19:32 | 48.28326 | 17.19792 | 346° | 13km/h | 30551m | 5.8m/s | -43.0°C | 3.5% | 0hPa | 2.4V | 00:00:00 | 00:00:00 | 00:00:00 | |
| OE5MMP-10 | 2026-08-31 01:19:30 | 48.28323 | 17.19793 | 36° | 13km/h | 30538m | 6.1m/s | -43.0°C | 3.5% | 0hPa | 2.5V | 00:00:00 | 02:00:37 | 00:00:00 | |
| EDDB2-12 | 2026-08-31 01:19:29 | 48.28322 | 17.19789 | 77° | 7km/h | 30526m | 5.0m/s | -43.1°C | 1.5% | -1.0hPa | 2.5V | 00:00:00 | 00:00:00 | 00:00:00 | |
| OM5KV | 2026-08-31 01:19:27 | 48.28322 | 17.19789 | 78° | 9km/h | 30527m | 5.0m/s | -43.1°C | 1.5% | 0hPa | 2.5V | 00:00:00 | 00:00:00 | 00:00:00 | |
| HA6NAB-11 | 2026-08-31 01:19:23 | 48.28312 | 17.19769 | 48° | 20km/h | 30502m | 5.4m/s | -43.1°C | 1.5% | 0hPa | 2.5V | 00:00:00 | 00:00:00 | 00:00:00 | |
| SP9KGR-15 | 2026-08-31 01:19:22 | 48.28309 | 17.19764 | 54° | 16km/h | 30495m | 7.3m/s | 0°C | 0% | 0hPa | 2.5V | 00:00:00 | 00:00:00 | 00:00:00 | |
| OM5KV | 2026-08-31 01:19:21 | 48.28307 | 17.19760 | 60° | 13km/h | 30488m | 6.5m/s | -43.1°C | 1.5% | 0hPa | 2.5V | 00:00:00 | 00:00:00 | 00:00:00 | |
| ATIDSZ-14 | 2026-08-31 01:19:20 | 48.28304 | 17.19754 | 36° | 11km/h | 30476m | 6.4m/s | -43.1°C | 1.5% | 0hPa | 2.5V | 00:00:00 | 00:00:00 | 00:00:00 | |
| SONDE2-11 | 2026-08-31 01:19:18 | 48.28299 | 17.19750 | 24° | 11km/h | 30463m | 5.1m/s | -43.1°C | 1.5% | -1.0hPa | 2.5V | 00:00:00 | 00:00:00 | 00:00:00 | |
| HA6NAB-11 | 2026-08-31 01:19:17 | 48.28299 | 17.19750 | 26° | 13km/h | 30463m | 5.1m/s | -43.1°C | 1.5% | 0hPa | 2.5V | 00:00:00 | 00:00:00 | 00:00:00 | |
| OM5KV | 2026-08-31 01:19:16 | 48.28294 | 17.19746 | 49° | 9km/h | 30452m | 7.4m/s | -43.1°C | 1.5% | 0hPa | 2.5V | 00:00:00 | 00:00:00 | 00:00:00 | |
| OE5DRO-10 | 2026-08-31 01:19:15 | 48.28293 | 17.19743 | 76° | 16km/h | 30445m | 6.6m/s | -43.1°C | 3.5% | 0hPa | 2.5V | 00:00:00 | 00:00:00 | 00:00:00 | |
| OK1ALN | 2026-08-31 01:19:12 | 48.28292 | 17.19736 | 64° | 11km/h | 30434m | 5.1m/s | 0°C | 0% | 0hPa | 2.5V | 00:00:00 | 00:00:00 | 00:00:00 | |
| OE5DXL-15 | 2026-08-31 01:19:11 | 48.28286 | 17.19729 | 27° | 16km/h | 30421m | 6.9m/s | -43.1°C | 3.5% | 0hPa | 2.5V | 00:00:00 | 00:00:00 | 00:00:00 | |
| OE5MMP-10 | 2026-08-31 01:19:10 | 48.28281 | 17.19726 | 14° | 16km/h | 30414m | 5.6m/s | -43.2°C | 3.5% | 0hPa | 2.5V | 00:00:00 | 02:00:17 | 00:00:00 | |
| OM5KV | 2026-08-31 01:19:09 | 48.28281 | 17.19726 | 14° | 24km/h | 30414m | 5.6m/s | -43.2°C | 1.5% | 0hPa | 2.5V | 00:00:00 | 00:00:00 | 00:00:00 | |
| SP9KGR-15 | 2026-08-31 01:19:07 | 48.28269 | 17.19725 | 354° | 22km/h | 30403m | 6.0m/s | 0°C | 0% | 0hPa | 2.5V | 00:00:00 | 00:00:00 | 00:00:00 | |
| OE3JTB-15 | 2026-08-31 01:19:03 | 48.28256 | 17.19741 | 320° | 15km/h | 30372m | 6.7m/s | -43.5°C | 3.7% | 0hPa | 2.5V | 00:00:00 | 00:00:00 | 00:00:00 | |
| EDDB2-12 | 2026-08-31 01:18:58 | 48.28231 | 17.19741 | 21° | 13km/h | 30335m | 6.4m/s | -43.4°C | 1.6% | -1.0hPa | 2.5V | 00:00:00 | 00:00:00 | 00:00:00 | |
| SONDE2-11 | 2026-08-31 01:18:47 | 48.28196 | 17.19752 | 260° | 7km/h | 30275m | 5.0m/s | -43.7°C | 1.6% | -1.0hPa | 2.5V | 00:00:00 | 00:00:00 | 00:00:00 | |
| OM5KV | 2026-08-31 01:18:45 | 48.28196 | 17.19753 | 317° | 4km/h | 30269m | 6.7m/s | -43.7°C | 1.6% | 0hPa | 2.5V | 00:00:00 | 00:00:00 | 00:00:00 | |
| OE5DXL-15 | 2026-08-31 01:18:41 | 48.28182 | 17.19737 | 58° | 11km/h | 30239m | 6.5m/s | -43.8°C | 3.7% | 0hPa | 2.5V | 00:00:00 | 00:00:00 | 00:00:00 | |
| OE5MMP-10 | 2026-08-31 01:18:40 | 48.28180 | 17.19732 | 60° | 11km/h | 30233m | 5.4m/s | -43.9°C | 3.7% | 0hPa | 2.5V | 00:00:00 | 01:59:47 | 00:00:00 | |
| ATIDSZ-14 | 2026-08-31 01:18:38 | 48.28178 | 17.19727 | 52° | 11km/h | 30228m | 4.8m/s | -43.9°C | 1.6% | 0hPa | 2.5V | 00:00:00 | 00:00:00 | 00:00:00 | |
| OE5DRO-10 | 2026-08-31 01:18:37 | 48.28173 | 17.19725 | 348° | 11km/h | 30215m | 7.0m/s | -43.9°C | 3.7% | 0hPa | 2.5V | 00:00:00 | 00:00:00 | 08:30:00 | |
| PG1ADW-2 | 2026-08-31 01:18:35 | 48.28170 | 17.19730 | 283° | 9km/h | 30203m | 5.1m/s | -43.9°C | 3.7% | 0hPa | 2.5V | 00:00:00 | 00:00:00 | 00:00:00 | |
| OE3JTB-15 | 2026-08-31 01:18:34 | 48.28170 | 17.19735 | 253° | 13km/h | 30197m | 6.9m/s | -43.9°C | 3.7% | 0hPa | 2.5V | 00:00:00 | 01:59:41 | 00:00:00 | |
| OE3OSB-13 | 2026-08-31 01:18:32 | 48.28175 | 17.19741 | 196° | 11km/h | 30184m | 5.2m/s | -43.9°C | 1.6% | -1.0hPa | 2.5V | 00:00:00 | 00:00:00 | 00:00:00 | |
| OE5MMP-10 | 2026-08-31 01:18:30 | 48.28179 | 17.19740 | 119° | 11km/h | 30173m | 6.6m/s | -43.9°C | 3.8% | 0hPa | 2.5V | 00:00:00 | 01:59:37 | 00:00:00 | |
| OM5KV | 2026-08-31 01:18:29 | 48.28179 | 17.19740 | 120° | 7km/h | 30173m | 6.6m/s | -43.9°C | 1.7% | 0hPa | 2.5V | 00:00:00 | 00:00:00 | 00:00:00 | |
| EDDB2-12 | 2026-08-31 01:18:27 | 48.28171 | 17.19724 | 48° | 15km/h | 30149m | 5.6m/s | -44.0°C | 1.7% | -1.0hPa | 2.5V | 00:00:00 | 00:00:00 | 00:00:00 | |
| OM5KV | 2026-08-31 01:18:23 | 48.28169 | 17.19715 | 104° | 11km/h | 30136m | 6.4m/s | -43.9°C | 1.7% | 0hPa | 2.5V | 00:00:00 | 00:00:00 | 00:00:00 | |
| OE5MMP-10 | 2026-08-31 01:18:19 | 48.28177 | 17.19707 | 210° | 13km/h | 30105m | 5.8m/s | -43.8°C | 3.8% | 0hPa | 2.5V | 00:00:00 | 01:59:26 | 00:00:00 | |
| OE5DRO-10 | 2026-08-31 01:18:18 | 48.28177 | 17.19708 | 259° | 15km/h | 30098m | 6.1m/s | -43.8°C | 3.8% | 0hPa | 2.5V | 00:00:00 | 00:00:00 | 00:00:00 | |
| SONDE2-11 | 2026-08-31 01:18:17 | 48.28176 | 17.19708 | 24° | 7km/h | 30080m | 4.6m/s | -43.9°C | 1.6% | -1.0hPa | 2.5V | 00:00:00 | 00:00:00 | 00:00:00 | |
| PG1ADW-2 | 2026-08-31 01:18:15 | 48.28176 | 17.19708 | 25° | 16km/h | 30080m | 4.5m/s | -43.8°C | 3.8% | 0hPa | 2.5V | 00:00:00 | 00:00:00 | 08:30:00 | |
| POL1PZ | 2026-08-31 01:18:11 | 48.28160 | 17.19693 | 50° | 24km/h | 30056m | 4.0m/s | -43.9°C | 1.7% | 0hPa | 2.4V | 00:00:00 | 00:00:00 | 00:00:00 | |
| S52SK | 2026-08-31 01:18:10 | 48.28160 | 17.19693 | 50° | 24km/h | 30056m | 4.0m/s | -43.9°C | 1.7% | 0hPa | 2.4V | 00:00:00 | 00:00:00 | 00:00:00 | |
| OE5MMP-10 | 2026-08-31 01:18:09 | 48.28156 | 17.19679 | 97° | 15km/h | 30044m | 6.9m/s | -43.8°C | 3.8% | 0hPa | 2.4V | 00:00:00 | 01:59:16 | 00:00:00 | |
| OE3JTB-15 | 2026-08-31 01:18:05 | 48.28170 | 17.19656 | 143° | 18km/h | 30020m | 6.3m/s | -43.8°C | 3.8% | 0hPa | 2.4V | 00:00:00 | 00:00:00 | 08:30:00 | |
| SP9KGR-15 | 2026-08-31 01:18:02 | 48.28174 | 17.19650 | 109° | 7km/h | 30008m | 5.7m/s | 0°C | 0% | 0hPa | 2.4V | 00:00:00 | 00:00:00 | 00:00:00 | |
| OE3OSB-13 | 2026-08-31 01:18:01 | 48.28174 | 17.19644 | 88° | 9km/h | 29996m | 7.0m/s | -43.9°C | 1.6% | -1.0hPa | 2.4V | 00:00:00 | 00:00:00 | 00:00:00 | |
| EDDB2-12 | 2026-08-31 01:17:56 | 48.28164 | 17.19608 | 62° | 16km/h | 29959m | 4.3m/s | -44.0°C | 1.7% | -1.0hPa | 2.4V | 00:00:00 | 00:00:00 | 00:00:00 | |
| PG1ADW-2 | 2026-08-31 01:17:55 | 48.28164 | 17.19608 | 63° | 20km/h | 29959m | 4.3m/s | -43.9°C | 3.8% | 0hPa | 2.4V | 00:00:00 | 01:59:02 | 00:00:00 | |
| HA6NAB-11 | 2026-08-31 01:17:50 | 48.28168 | 17.19584 | 132° | 18km/h | 29934m | 5.7m/s | -44.1°C | 1.7% | 0hPa | 2.4V | 00:00:00 | 00:00:00 | 00:00:00 | |
| OE5MMP-10 | 2026-08-31 01:17:49 | 48.28173 | 17.19576 | 107° | 22km/h | 29923m | 6.5m/s | -44.1°C | 3.9% | 0hPa | 2.4V | 00:00:00 | 01:58:56 | 00:00:00 | |
| SP9KGR-15 | 2026-08-31 01:17:47 | 48.28173 | 17.19572 | 61° | 9km/h | 29916m | 5.7m/s | 0°C | 0% | 0hPa | 2.4V | 00:00:00 | 00:00:00 | 00:00:00 | |
| POL1PZ | 2026-08-31 01:17:45 | 48.28164 | 17.19558 | 52° | 24km/h | 29898m | 6.8m/s | -44.0°C | 1.7% | 0hPa | 2.4V | 00:00:00 | 00:00:00 | 00:00:00 | |
| OE5DXL-15 | 2026-08-31 01:17:41 | 48.28150 | 17.19523 | 57° | 16km/h | 29873m | 7.0m/s | -43.9°C | 3.8% | 0hPa | 2.4V | 00:00:00 | 00:00:00 | 00:00:00 | |
| HA6NAB-11 | 2026-08-31 01:17:40 | 48.28147 | 17.19515 | 60° | 24km/h | 29867m | 5.8m/s | -43.9°C | 1.7% | 0hPa | 2.4V | 00:00:00 | 00:00:00 | 00:00:00 | |
| OE5MMP-10 | 2026-08-31 01:17:39 | 48.28145 | 17.19507 | 73° | 18km/h | 29861m | 5.2m/s | -43.8°C | 3.8% | 0hPa | 2.4V | 00:00:00 | 01:58:46 | 00:00:00 | |
| OM5KV | 2026-08-31 01:17:38 | 48.28145 | 17.19507 | 74° | 20km/h | 29861m | 5.2m/s | -43.9°C | 1.7% | 0hPa | 2.4V | 00:00:00 | 00:00:00 | 00:00:00 | |
| OE3JTB-15 | 2026-08-31 01:17:36 | 48.28147 | 17.19485 | 119° | 15km/h | 29842m | 4.8m/s | -43.8°C | 3.8% | 0hPa | 2.4V | 00:00:00 | 00:00:00 | 00:00:00 | |
| PG1ADW-2 | 2026-08-31 01:17:35 | 48.28149 | 17.19479 | 114° | 16km/h | 29837m | 4.4m/s | -43.9°C | 3.7% | 0hPa | 2.4V | 00:00:00 | 00:00:00 | 00:00:00 | |
| OM5KV | 2026-08-31 01:17:33 | 48.28151 | 17.19473 | 96° | 13km/h | 29831m | 6.8m/s | -43.9°C | 1.7% | 0hPa | 2.4V | 00:00:00 | 00:00:00 | 00:00:00 | |
| SP9KGR-15 | 2026-08-31 01:17:31 | 48.28142 | 17.19461 | 31° | 22km/h | 29812m | 5.8m/s | 0°C | 0% | 0hPa | 2.4V | 00:00:00 | 00:00:00 | 00:00:00 | |
| OE3OSB-13 | 2026-08-31 01:17:30 | 48.28138 | 17.19457 | 33° | 22km/h | 29805m | 7.4m/s | -44.2°C | 1.7% | -1.0hPa | 2.4V | 00:00:00 | 00:00:00 | 00:00:00 | |
| OE5MMP-10 | 2026-08-31 01:17:29 | 48.28133 | 17.19451 | 41° | 16km/h | 29798m | 6.3m/s | -44.2°C | 3.8% | 0hPa | 2.4V | 00:00:00 | 01:58:36 | 00:00:00 | |
| HA6NAB-11 | 2026-08-31 01:17:28 | 48.28130 | 17.19445 | 49° | 22km/h | 29792m | 6.1m/s | -44.2°C | 1.8% | 0hPa | 2.4V | 00:00:00 | 00:00:00 | 00:00:00 | |
| OM5KV | 2026-08-31 01:17:27 | 48.28130 | 17.19445 | 49° | 22km/h | 29792m | 6.1m/s | -44.2°C | 1.7% | 0hPa | 2.4V | 00:00:00 | 00:00:00 | 00:00:00 | |
| EDDB2-12 | 2026-08-31 01:17:25 | 48.28117 | 17.19425 | 43° | 15km/h | 29766m | 5.3m/s | -44.4°C | 1.7% | -1.0hPa | 2.4V | 00:00:00 | 00:00:00 | 00:00:00 | |
| OE5DRO-10 | 2026-08-31 01:17:21 | 48.28113 | 17.19413 | 99° | 11km/h | 29748m | 7.4m/s | -44.3°C | 3.9% | 0hPa | 2.4V | 00:00:00 | 00:00:00 | 00:00:00 | |
| OE5MMP-10 | 2026-08-31 01:17:19 | 48.28114 | 17.19403 | 97° | 11km/h | 29736m | 4.9m/s | -44.3°C | 3.9% | 0hPa | 2.4V | 00:00:00 | 01:58:26 | 08:30:00 | |
| PG1ADW-2 | 2026-08-31 01:17:15 | 48.28105 | 17.19399 | 356° | 11km/h | 29711m | 4.8m/s | -44.4°C | 3.9% | 0hPa | 2.5V | 00:00:00 | 00:00:00 | 00:00:00 | |
| SONDE2-11 | 2026-08-31 01:17:14 | 48.28099 | 17.19398 | 26° | 7km/h | 29698m | 6.7m/s | -44.5°C | 1.7% | -1.0hPa | 2.4V | 00:00:00 | 00:00:00 | 00:00:00 | |
| OE5DXL-15 | 2026-08-31 01:17:11 | 48.28099 | 17.19394 | 126° | 11km/h | 29686m | 5.1m/s | -44.5°C | 4.0% | 0hPa | 2.4V | 00:00:00 | 00:00:00 | 08:30:00 | |
| OM5KV | 2026-08-31 01:17:09 | 48.28100 | 17.19391 | 131° | 11km/h | 29681m | 5.9m/s | -44.6°C | 1.8% | 0hPa | 2.4V | 00:00:00 | 00:00:00 | 00:00:00 | |
| OE3JTB-15 | 2026-08-31 01:17:07 | 48.28103 | 17.19381 | 101° | 11km/h | 29662m | 5.5m/s | -44.6°C | 4.0% | 0hPa | 2.4V | 00:00:00 | 01:58:14 | 00:00:00 | |
| GYPAP8-17 | 2026-08-31 01:17:06 | 48.28103 | 17.19381 | 101° | 11km/h | 29662m | 5.6m/s | -44.7°C | 1.8% | 0hPa | 2.4V | 00:00:00 | 00:00:00 | 00:00:00 | |
| POL1PZ | 2026-08-31 01:17:05 | 48.28103 | 17.19376 | 102° | 13km/h | 29657m | 5.2m/s | -44.7°C | 1.8% | 0hPa | 2.4V | 00:00:00 | 00:00:00 | 00:00:00 | |
| OM5KV | 2026-08-31 01:17:03 | 48.28106 | 17.19366 | 104° | 15km/h | 29644m | 6.0m/s | -44.7°C | 1.8% | 0hPa | 2.4V | 00:00:00 | 00:00:00 | 00:00:00 | |
| OE3OSB-13 | 2026-08-31 01:16:59 | 48.28098 | 17.19365 | 314° | 13km/h | 29613m | 4.6m/s | -44.7°C | 1.8% | -1.0hPa | 2.4V | 00:00:00 | 00:00:00 | 00:00:00 | |
| EDDB2-12 | 2026-08-31 01:16:54 | 48.28100 | 17.19353 | 93° | 18km/h | 29577m | 6.2m/s | -44.8°C | 1.7% | -1.0hPa | 2.4V | 00:00:00 | 00:00:00 | 00:00:00 | |
| OM5KV | 2026-08-31 01:16:53 | 48.28099 | 17.19359 | 108° | 18km/h | 29583m | 6.2m/s | -44.8°C | 1.8% | 0hPa | 2.4V | 00:00:00 | 00:00:00 | 00:00:00 | |
| OE5MMP-10 | 2026-08-31 01:16:49 | 48.28099 | 17.19333 | 99° | 7km/h | 29553m | 6.6m/s | -44.9°C | 4.0% | 0hPa | 2.4V | 00:00:00 | 01:57:56 | 00:00:00 | |
| OM5KV | 2026-08-31 01:16:47 | 48.28099 | 17.19332 | 0° | 0km/h | 29547m | 5.8m/s | -44.9°C | 1.8% | 0hPa | 2.4V | 00:00:00 | 00:00:00 | 00:00:00 | |
| SONDE2-11 | 2026-08-31 01:16:43 | 48.28089 | 17.19336 | 25° | 2km/h | 29511m | 6.9m/s | -45.0°C | 1.8% | -1.0hPa | 2.4V | 00:00:00 | 00:00:00 | 00:00:00 | |
| OE5DXL-15 | 2026-08-31 01:16:41 | 48.28089 | 17.19334 | 132° | 11km/h | 29505m | 6.9m/s | -45.0°C | 4.1% | 0hPa | 2.4V | 00:00:00 | 00:00:00 | 00:00:00 | |
| OE5MMP-10 | 2026-08-31 01:16:39 | 48.28093 | 17.19327 | 125° | 9km/h | 29492m | 5.2m/s | -45.0°C | 4.1% | 0hPa | 2.4V | 00:00:00 | 01:57:46 | 00:00:00 | |
| PG1ADW-2 | 2026-08-31 01:16:35 | 48.28097 | 17.19308 | 68° | 9km/h | 29469m | 5.8m/s | -45.0°C | 4.1% | 0hPa | 2.4V | 00:00:00 | 01:57:42 | 00:00:00 | |
| OM5KV | 2026-08-31 01:16:34 | 48.28097 | 17.19308 | 69° | 4km/h | 29469m | 5.8m/s | -45.1°C | 1.9% | 0hPa | 2.4V | 00:00:00 | 00:00:00 | 00:00:00 | |
| OM5KV | 2026-08-31 01:16:30 | 48.28101 | 17.19319 | 242° | 4km/h | 29440m | 5.4m/s | -45.0°C | 1.8% | 0hPa | 2.4V | 00:00:00 | 00:00:00 | 00:00:00 | |
| OE5MMP-10 | 2026-08-31 01:16:29 | 48.28101 | 17.19319 | 34° | 13km/h | 29434m | 6.8m/s | -44.9°C | 4.0% | 0hPa | 2.4V | 00:00:00 | 01:57:36 | 00:00:00 | |
| OE3OSB-13 | 2026-08-31 01:16:28 | 48.28100 | 17.19317 | 57° | 9km/h | 29427m | 6.2m/s | -45.0°C | 1.8% | -1.0hPa | 2.4V | 00:00:00 | 00:00:00 | 00:00:00 | |
| OE5DRO-10 | 2026-08-31 01:16:24 | 48.28098 | 17.19294 | 110° | 11km/h | 29401m | 5.3m/s | -45.0°C | 4.0% | 0hPa | 2.4V | 00:00:00 | 00:00:00 | 00:00:00 | |
| EDDB2-12 | 2026-08-31 01:16:23 | 48.28101 | 17.19284 | 107° | 9km/h | 29391m | 4.8m/s | -45.1°C | 1.8% | -1.0hPa | 2.4V | 00:00:00 | 00:00:00 | 00:00:00 | |
| POL1PZ | 2026-08-31 01:16:20 | 48.28101 | 17.19281 | 69° | 7km/h | 29385m | 6.7m/s | -45.1°C | 1.8% | 0hPa | 2.4V | 00:00:00 | 00:00:00 | 00:00:00 | |
| OE5MMP-10 | 2026-08-31 01:16:19 | 48.28097 | 17.19279 | 354° | 9km/h | 29372m | 6.2m/s | -45.1°C | 4.1% | 0hPa | 2.4V | 00:00:00 | 01:57:26 | 00:00:00 | |
| GYPAP8-17 | 2026-08-31 01:16:17 | 48.28094 | 17.19280 | 332° | 11km/h | 29366m | 6.1m/s | -45.2°C | 1.9% | 0hPa | 2.5V | 00:00:00 | 00:00:00 | 00:00:00 | |
| PG1ADW-2 | 2026-08-31 01:16:15 | 48.28090 | 17.19287 | 316° | 11km/h | 29347m | 4.6m/s | -45.2°C | 4.1% | 0hPa | 2.5V | 00:00:00 | 00:00:00 | 00:00:00 | |
| SONDE2-11 | 2026-08-31 01:16:12 | 48.28085 | 17.19278 | 71° | 15km/h | 29322m | 5.4m/s | -45.3°C | 1.8% | -1.0hPa | 2.4V | 00:00:00 | 00:00:00 | 00:00:00 | |
| OE5DXL-15 | 2026-08-31 01:16:11 | 48.28084 | 17.19278 | 72° | 11km/h | 29323m | 5.4m/s | -45.2°C | 4.1% | 0hPa | 2.4V | 00:00:00 | 00:00:00 | 00:00:00 | |
| OE5MMP-10 | 2026-08-31 01:16:09 | 48.28084 | 17.19267 | 90° | 13km/h | 29310m | 5.9m/s | -45.2°C | 4.1% | 0hPa | 2.4V | 00:00:00 | 01:57:16 | 00:00:00 | |
| OM5KV | 2026-08-31 01:16:07 | 48.28083 | 17.19263 | 77° | 11km/h | 29304m | 4.1m/s | -45.3°C | 1.9% | 0hPa | 2.4V | 00:00:00 | 00:00:00 | 00:00:00 | |
| OM5KV | 2026-08-31 01:16:02 | 48.28068 | 17.19255 | 341° | 15km/h | 29276m | 5.4m/s | -45.3°C | 1.9% | 0hPa | 2.4V | 00:00:00 | 00:00:00 | 00:00:00 | |
| OE3OSB-13 | 2026-08-31 01:15:57 | 48.28063 | 17.19267 | 40° | 4km/h | 29239m | 5.7m/s | -45.5°C | 1.8% | -1.0hPa | 2.4V | 00:00:00 | 00:00:00 | 00:00:00 | |
| EDDB2-12 | 2026-08-31 01:15:52 | 48.28060 | 17.19246 | 38° | 9km/h | 29202m | 7.0m/s | -45.7°C | 1.8% | -1.0hPa | 2.4V | 00:00:00 | 00:00:00 | 00:00:00 | |
| OM5KV | 2026-08-31 01:15:51 | 48.28061 | 17.19249 | 74° | 9km/h | 29208m | 5.0m/s | -45.7°C | 1.9% | 0hPa | 2.4V | 00:00:00 | 00:00:00 | 00:00:00 | |
| OE5MMP-10 | 2026-08-31 01:15:49 | 48.28053 | 17.19243 | 358° | 9km/h | 29189m | 4.7m/s | -45.8°C | 4.1% | 0hPa | 2.4V | 00:00:00 | 01:56:56 | 08:30:00 | |
| OE5DRO-10 | 2026-08-31 01:15:46 | 48.28045 | 17.19248 | 285° | 7km/h | 29172m | 7.0m/s | -46.0°C | 4.2% | 0hPa | 2.4V | 00:00:00 | 00:00:00 | 08:30:00 | |
| OM5KV | 2026-08-31 01:15:45 | 48.28045 | 17.19248 | 285° | 7km/h | 29172m | 7.0m/s | -46.1°C | 1.9% | 0hPa | 2.5V | 00:00:00 | 00:00:00 | 00:00:00 | |
| SONDE2-11 | 2026-08-31 01:15:41 | 48.28042 | 17.19254 | 1° | 13km/h | 29138m | 4.9m/s | -46.2°C | 1.9% | -1.0hPa | 2.5V | 00:00:00 | 00:00:00 | 00:00:00 | |
| OE3JTB-15 | 2026-08-31 01:15:40 | 48.28042 | 17.19254 | 2° | 7km/h | 29138m | 4.8m/s | -46.2°C | 4.3% | 0hPa | 2.5V | 00:00:00 | 01:56:47 | 00:00:00 | |
| OE5MMP-10 | 2026-08-31 01:15:39 | 48.28038 | 17.19254 | 1° | 9km/h | 29133m | 5.6m/s | -46.2°C | 4.3% | 0hPa | 2.5V | 00:00:00 | 01:56:46 | 00:00:00 | |
| HA6NAB-11 | 2026-08-31 01:15:37 | 48.28036 | 17.19254 | 359° | 9km/h | 29127m | 6.2m/s | -46.3°C | 2.0% | 0hPa | 2.5V | 00:00:00 | 00:00:00 | 00:00:00 | |
| PG1ADW-2 | 2026-08-31 01:15:35 | 48.28030 | 17.19253 | 32° | 9km/h | 29110m | 5.3m/s | -46.3°C | 4.3% | 0hPa | 2.5V | 00:00:00 | 00:00:00 | 00:00:00 | |
| ATIDSZ-14 | 2026-08-31 01:15:34 | 48.28030 | 17.19253 | 32° | 9km/h | 29110m | 5.3m/s | -46.3°C | 2.0% | 0hPa | 2.5V | 00:00:00 | 00:00:00 | 00:00:00 | |
| OM5KV | 2026-08-31 01:15:33 | 48.28028 | 17.19251 | 32° | 13km/h | 29103m | 7.5m/s | -46.3°C | 2.0% | 0hPa | 2.5V | 00:00:00 | 00:00:00 | 00:00:00 | |
| HA6NAB-11 | 2026-08-31 01:15:31 | 48.28023 | 17.19246 | 32° | 11km/h | 29090m | 5.2m/s | -46.4°C | 2.0% | 0hPa | 2.5V | 00:00:00 | 00:00:00 | 00:00:00 | |
| OE5MMP-10 | 2026-08-31 01:15:29 | 48.28020 | 17.19245 | 279° | 7km/h | 29072m | 5.5m/s | -46.4°C | 4.3% | 0hPa | 2.5V | 00:00:00 | 01:56:36 | 00:00:00 | |
| OM5KV | 2026-08-31 01:15:28 | 48.28020 | 17.19245 | 279° | 4km/h | 29072m | 5.5m/s | -46.4°C | 2.0% | 0hPa | 2.5V | 00:00:00 | 00:00:00 | 00:00:00 | |
| OE5DRO-10 | 2026-08-31 01:15:27 | 48.28018 | 17.19247 | 349° | 7km/h | 29059m | 6.8m/s | -46.4°C | 4.3% | 0hPa | 2.5V | 00:00:00 | 00:00:00 | 00:00:00 | |
| OE3OSB-13 | 2026-08-31 01:15:26 | 48.28016 | 17.19247 | 10° | 9km/h | 29053m | 5.5m/s | -46.4°C | 1.9% | -1.0hPa | 2.5V | 00:00:00 | 00:00:00 | 00:00:00 | |
| EDDB2-12 | 2026-08-31 01:15:22 | 48.28006 | 17.19236 | 36° | 7km/h | 29017m | 6.9m/s | -46.5°C | 1.9% | -1.0hPa | 2.5V | 00:00:00 | 00:00:00 | 00:00:00 | |
| OE5MMP-10 | 2026-08-31 01:15:21 | 48.28004 | 17.19234 | 28° | 7km/h | 29010m | 6.8m/s | -46.4°C | 4.3% | 0hPa | 2.5V | 00:00:00 | 01:56:26 | 00:00:00 | |
| OM5KV | 2026-08-31 01:15:20 | 48.28001 | 17.19232 | 25° | 13km/h | 29004m | 4.5m/s | -46.5°C | 2.0% | 0hPa | 2.5V | 00:00:00 | 00:00:00 | 00:00:00 | |
| PG1ADW-2 | 2026-08-31 01:15:18 | 48.27997 | 17.19229 | 249° | 9km/h | 28987m | 6.7m/s | -46.5°C | 4.3% | 0hPa | 2.5V | 00:00:00 | 01:56:22 | 08:30:00 | |
| HA6NAB-11 | 2026-08-31 01:15:17 | 48.27997 | 17.19229 | 249° | 2km/h | 28987m | 6.7m/s | -46.6°C | 2.0% | 0hPa | 2.4V | 00:00:00 | 00:00:00 | 00:00:00 | |
| POL1PZ | 2026-08-31 01:15:16 | 48.27997 | 17.19229 | 249° | 2km/h | 28987m | 6.7m/s | -46.6°C | 2.0% | 0hPa | 2.4V | 00:00:00 | 00:00:00 | 00:00:00 | |
| ATIDSZ-14 | 2026-08-31 01:15:13 | 48.27997 | 17.19230 | 239° | 4km/h | 28981m | 5.4m/s | -46.6°C | 2.0% | 0hPa | 2.4V | 00:00:00 | 00:00:00 | 00:00:00 | |
| OM5KV | 2026-08-31 01:15:12 | 48.27997 | 17.19232 | 342° | 4km/h | 28969m | 7.2m/s | -46.7°C | 2.0% | 0hPa | 2.4V | 00:00:00 | 00:00:00 | 00:00:00 | |
| OE3JTB-15 | 2026-08-31 01:15:11 | 48.27996 | 17.19232 | 8° | 13km/h | 28963m | 6.0m/s | -46.6°C | 4.3% | 0hPa | 2.4V | 00:00:00 | 00:00:00 | 00:00:00 | |
| SONDE2-11 | 2026-08-31 01:15:10 | 48.27991 | 17.19229 | 41° | 9km/h | 28951m | 6.5m/s | -46.7°C | 1.9% | -1.0hPa | 2.4V | 00:00:00 | 00:00:00 | 00:00:00 | |
| OE5MMP-10 | 2026-08-31 01:15:09 | 48.27991 | 17.19229 | 42° | 13km/h | 28951m | 6.4m/s | -46.7°C | 4.3% | 0hPa | 2.4V | 00:00:00 | 01:56:16 | 00:00:00 | |
| OE5DRO-10 | 2026-08-31 01:15:08 | 48.27990 | 17.19227 | 57° | 13km/h | 28944m | 6.6m/s | -46.7°C | 4.4% | 0hPa | 2.4V | 00:00:00 | 00:00:00 | 00:00:00 | |
| OM5KV | 2026-08-31 01:15:06 | 48.27988 | 17.19223 | 62° | 13km/h | 28938m | 5.6m/s | -46.8°C | 2.0% | 0hPa | 2.4V | 00:00:00 | 00:00:00 | 00:00:00 | |
| OE5MMP-10 | 2026-08-31 01:14:59 | 48.27971 | 17.19196 | 336° | 13km/h | 28889m | 5.2m/s | -46.9°C | 4.4% | 0hPa | 2.4V | 00:00:00 | 01:56:06 | 00:00:00 | |
| PG1ADW-2 | 2026-08-31 01:14:55 | 48.27962 | 17.19197 | 16° | 15km/h | 28864m | 6.8m/s | -47.0°C | 4.4% | 0hPa | 2.4V | 00:00:00 | 00:00:00 | 00:00:00 | |
| OM5KV | 2026-08-31 01:14:54 | 48.27962 | 17.19197 | 16° | 11km/h | 28864m | 6.9m/s | -47.0°C | 2.0% | 0hPa | 2.4V | 00:00:00 | 00:00:00 | 00:00:00 | |
| POL1PZ | 2026-08-31 01:14:53 | 48.27960 | 17.19195 | 34° | 7km/h | 28857m | 6.5m/s | -47.1°C | 2.1% | 0hPa | 2.4V | 00:00:00 | 00:00:00 | 00:00:00 | |
| ATIDSZ-14 | 2026-08-31 01:14:52 | 48.27958 | 17.19193 | 48° | 11km/h | 28851m | 5.2m/s | -47.1°C | 2.1% | 0hPa | 2.4V | 00:00:00 | 00:00:00 | 00:00:00 | |
| OM5KV | 2026-08-31 01:14:50 | 48.27948 | 17.19180 | 36° | 24km/h | 28833m | 6.5m/s | -47.1°C | 2.1% | 0hPa | 2.4V | 00:00:00 | 00:00:00 | 00:00:00 | |
| OE5MMP-10 | 2026-08-31 01:14:49 | 48.27943 | 17.19174 | 34° | 16km/h | 28826m | 5.2m/s | -47.1°C | 4.5% | 0hPa | 2.4V | 00:00:00 | 01:55:56 | 00:00:00 | |
| OM5KV | 2026-08-31 01:14:44 | 48.27929 | 17.19159 | 32° | 13km/h | 28802m | 4.9m/s | -47.2°C | 2.1% | 0hPa | 2.5V | 00:00:00 | 00:00:00 | 00:00:00 | |
| OE3JTB-15 | 2026-08-31 01:14:42 | 48.27918 | 17.19152 | 22° | 9km/h | 28785m | 4.8m/s | -47.0°C | 4.4% | 0hPa | 2.5V | 00:00:00 | 00:00:00 | 00:00:00 | |
| OE5DXL-15 | 2026-08-31 01:14:41 | 48.27915 | 17.19150 | 28° | 9km/h | 28779m | 5.8m/s | -47.0°C | 4.4% | 0hPa | 2.5V | 00:00:00 | 00:00:00 | 00:00:00 | |
| OE5MMP-10 | 2026-08-31 01:14:39 | 48.27911 | 17.19145 | 62° | 13km/h | 28766m | 5.9m/s | -47.0°C | 4.4% | 0hPa | 2.5V | 00:00:00 | 01:55:46 | 00:00:00 | |
| OM5KV | 2026-08-31 01:14:38 | 48.27911 | 17.19145 | 62° | 9km/h | 28766m | 5.9m/s | -47.0°C | 2.1% | 0hPa | 2.5V | 00:00:00 | 00:00:00 | 00:00:00 | |
| GYPAP8-17 | 2026-08-31 01:14:37 | 48.27910 | 17.19142 | 67° | 9km/h | 28761m | 5.0m/s | -47.0°C | 2.0% | 0hPa | 2.5V | 00:00:00 | 00:00:00 | 00:00:00 | |
| PG1ADW-2 | 2026-08-31 01:14:35 | 48.27902 | 17.19131 | 25° | 9km/h | 28743m | 5.7m/s | -46.9°C | 4.4% | 0hPa | 2.5V | 00:00:00 | 00:00:00 | 00:00:00 | |
| OM5KV | 2026-08-31 01:14:34 | 48.27897 | 17.19128 | 19° | 20km/h | 28737m | 4.8m/s | -47.0°C | 2.0% | 0hPa | 2.5V | 00:00:00 | 00:00:00 | 00:00:00 | |
| ATIDSZ-14 | 2026-08-31 01:14:32 | 48.27893 | 17.19126 | 15° | 15km/h | 28732m | 5.4m/s | -47.1°C | 2.0% | 0hPa | 2.5V | 00:00:00 | 00:00:00 | 00:00:00 | |
| OE5MMP-10 | 2026-08-31 01:14:29 | 48.27888 | 17.19128 | 283° | 7km/h | 28707m | 6.6m/s | -47.3°C | 4.4% | 0hPa | 2.5V | 00:00:00 | 01:55:36 | 00:00:00 | |
| OE3OSB-13 | 2026-08-31 01:14:24 | 48.27883 | 17.19130 | 81° | 5km/h | 28671m | 5.3m/s | -47.4°C | 2.0% | -1.0hPa | 2.5V | 00:00:00 | 00:00:00 | 00:00:00 | |
| OM5KV | 2026-08-31 01:14:20 | 48.27881 | 17.19127 | 13° | 7km/h | 28660m | 7.4m/s | -47.4°C | 2.1% | 0hPa | 2.5V | 00:00:00 | 00:00:00 | 00:00:00 | |
| OE5MMP-10 | 2026-08-31 01:14:19 | 48.27876 | 17.19128 | 338° | 7km/h | 28647m | 5.0m/s | -47.4°C | 4.5% | 0hPa | 2.5V | 00:00:00 | 01:55:26 | 08:30:00 | |
| EDDB2-12 | 2026-08-31 01:14:18 | 48.27873 | 17.19130 | 328° | 9km/h | 28641m | 6.8m/s | -47.4°C | 2.1% | -1.0hPa | 2.4V | 00:00:00 | 00:00:00 | 00:00:00 | |
| HA6NAB-11 | 2026-08-31 01:14:16 | 48.27872 | 17.19132 | 319° | 5km/h | 28634m | 7.0m/s | -47.5°C | 2.1% | 0hPa | 2.4V | 00:00:00 | 00:00:00 | 00:00:00 | |
| PG1ADW-2 | 2026-08-31 01:14:15 | 48.27870 | 17.19133 | 348° | 13km/h | 28622m | 6.1m/s | -47.5°C | 4.5% | 0hPa | 2.4V | 00:00:00 | 00:00:00 | 00:00:00 | |
| OE3JTB-15 | 2026-08-31 01:14:13 | 48.27867 | 17.19134 | 13° | 15km/h | 28609m | 5.3m/s | -47.5°C | 4.5% | 0hPa | 2.4V | 00:00:00 | 01:55:20 | 00:00:00 | |
| ATIDSZ-14 | 2026-08-31 01:14:12 | 48.27867 | 17.19134 | 14° | 7km/h | 28609m | 5.4m/s | -47.6°C | 2.1% | 0hPa | 2.4V | 00:00:00 | 00:00:00 | 00:00:00 | |
| OE5DXL-15 | 2026-08-31 01:14:11 | 48.27865 | 17.19130 | 66° | 15km/h | 28597m | 7.0m/s | -47.5°C | 4.5% | 0hPa | 2.4V | 00:00:00 | 00:00:00 | 00:00:00 | |
| HA6NAB-11 | 2026-08-31 01:14:10 | 48.27865 | 17.19130 | 67° | 5km/h | 28597m | 7.0m/s | -47.6°C | 2.1% | 0hPa | 2.4V | 00:00:00 | 00:00:00 | 00:00:00 | |
| OE5MMP-10 | 2026-08-31 01:14:09 | 48.27863 | 17.19129 | 345° | 16km/h | 28586m | 4.4m/s | -47.6°C | 4.5% | 0hPa | 2.4V | 00:00:00 | 01:55:16 | 00:00:00 | |
| SONDE2-11 | 2026-08-31 01:14:08 | 48.27859 | 17.19133 | 320° | 18km/h | 28573m | 7.0m/s | -47.7°C | 2.0% | -1.0hPa | 2.4V | 00:00:00 | 00:00:00 | 00:00:00 | |
| HA6NAB-11 | 2026-08-31 01:14:05 | 48.27855 | 17.19139 | 318° | 24km/h | 28567m | 6.0m/s | -47.7°C | 2.1% | 0hPa | 2.4V | 00:00:00 | 00:00:00 | 00:00:00 | |
| OM5KV | 2026-08-31 01:14:02 | 48.27842 | 17.19158 | 315° | 18km/h | 28548m | 5.9m/s | -47.7°C | 2.1% | 0hPa | 2.4V | 00:00:00 | 00:00:00 | 00:00:00 | |
| OE3OSB-13 | 2026-08-31 01:13:53 | 48.27814 | 17.19179 | 328° | 20km/h | 28484m | 6.6m/s | -48.2°C | 2.1% | -1.0hPa | 2.4V | 00:00:00 | 00:00:00 | 00:00:00 | |
| EDDB2-12 | 2026-08-31 01:13:47 | 48.27790 | 17.19199 | 311° | 9km/h | 28456m | 6.4m/s | -48.1°C | 2.1% | -1.0hPa | 2.4V | 00:00:00 | 00:00:00 | 00:00:00 | |
| OM5KV | 2026-08-31 01:13:46 | 48.27790 | 17.19199 | 312° | 11km/h | 28456m | 6.4m/s | -48.1°C | 2.1% | 0hPa | 2.4V | 00:00:00 | 00:00:00 | 00:00:00 | |
| S52SK | 2026-08-31 01:13:45 | 48.27789 | 17.19202 | 273° | 9km/h | 28450m | 5.6m/s | -48.1°C | 2.1% | 0hPa | 2.4V | 00:00:00 | 00:00:00 | 00:00:00 | |
| OE3JTB-15 | 2026-08-31 01:13:44 | 48.27790 | 17.19209 | 267° | 11km/h | 28440m | 5.3m/s | -48.0°C | 4.6% | 0hPa | 2.4V | 00:00:00 | 00:00:00 | 08:30:00 | |
| OE5DXL-15 | 2026-08-31 01:13:41 | 48.27786 | 17.19216 | 352° | 11km/h | 28422m | 5.1m/s | -48.0°C | 4.5% | 0hPa | 2.5V | 00:00:00 | 00:00:00 | 00:00:00 | |
| OE5MMP-10 | 2026-08-31 01:13:39 | 48.27781 | 17.19217 | 350° | 9km/h | 28411m | 5.9m/s | -48.1°C | 4.5% | 0hPa | 2.5V | 00:00:00 | 01:54:46 | 00:00:00 | |
| SONDE2-11 | 2026-08-31 01:13:36 | 48.27781 | 17.19223 | 248° | 11km/h | 28392m | 5.4m/s | -48.4°C | 2.1% | -1.0hPa | 2.5V | 00:00:00 | 00:00:00 | 00:00:00 | |
| PG1ADW-2 | 2026-08-31 01:13:35 | 48.27782 | 17.19227 | 258° | 11km/h | 28387m | 5.1m/s | -48.4°C | 4.7% | 0hPa | 2.5V | 00:00:00 | 00:00:00 | 00:00:00 | |
| ATIDSZ-14 | 2026-08-31 01:13:31 | 48.27780 | 17.19240 | 325° | 7km/h | 28370m | 4.6m/s | -48.6°C | 2.2% | 0hPa | 2.5V | 00:00:00 | 00:00:00 | 00:00:00 | |
| OM5KV | 2026-08-31 01:13:29 | 48.27781 | 17.19237 | 150° | 13km/h | 28353m | 6.4m/s | -48.6°C | 2.2% | 0hPa | 2.5V | 00:00:00 | 00:00:00 | 00:00:00 | |
| OM5KV | 2026-08-31 01:13:21 | 48.27804 | 17.19253 | 248° | 15km/h | 28313m | 4.8m/s | -48.6°C | 0% | 0hPa | 2.5V | 00:00:00 | 00:00:00 | 00:00:00 | |
| OE5MMP-10 | 2026-08-31 01:13:19 | 48.27810 | 17.19263 | 201° | 7km/h | 28296m | 5.3m/s | -48.5°C | 4.7% | 0hPa | 2.5V | 00:00:00 | 01:54:26 | 00:00:00 | |
| EDDB2-12 | 2026-08-31 01:13:16 | 48.27813 | 17.19262 | 45° | 4km/h | 28278m | 5.6m/s | -48.6°C | 2.1% | -1.0hPa | 2.4V | 00:00:00 | 00:00:00 | 00:00:00 | |
| PG1ADW-2 | 2026-08-31 01:13:15 | 48.27812 | 17.19260 | 49° | 9km/h | 28273m | 3.8m/s | -48.6°C | 4.7% | 0hPa | 2.4V | 00:00:00 | 00:00:00 | 00:00:00 | |
| HA6NAB-11 | 2026-08-31 01:13:12 | 48.27811 | 17.19256 | 123° | 7km/h | 28262m | 6.7m/s | -48.8°C | 2.2% | 0hPa | 2.4V | 00:00:00 | 00:00:00 | 00:00:00 | |
| OE5DXL-15 | 2026-08-31 01:13:11 | 48.27815 | 17.19254 | 195° | 9km/h | 28250m | 4.7m/s | -48.8°C | 4.8% | 0hPa | 2.4V | 00:00:00 | 00:00:00 | 00:00:00 | |
| ATIDSZ-14 | 2026-08-31 01:13:10 | 48.27815 | 17.19254 | 195° | 11km/h | 28250m | 4.8m/s | -48.9°C | 2.2% | 0hPa | 2.4V | 00:00:00 | 00:00:00 | 00:00:00 | |
| OE5MMP-10 | 2026-08-31 01:13:09 | 48.27818 | 17.19260 | 262° | 11km/h | 28240m | 5.9m/s | -48.9°C | 4.8% | 0hPa | 2.4V | 00:00:00 | 01:54:16 | 00:00:00 | |
| HA6NAB-11 | 2026-08-31 01:13:07 | 48.27818 | 17.19265 | 293° | 16km/h | 28234m | 6.2m/s | -48.9°C | 2.3% | 0hPa | 2.4V | 00:00:00 | 00:00:00 | 00:00:00 | |
| SONDE2-11 | 2026-08-31 01:13:05 | 48.27806 | 17.19277 | 348° | 18km/h | 28217m | 5.0m/s | -49.0°C | 2.2% | -1.0hPa | 2.4V | 00:00:00 | 00:00:00 | 00:00:00 | |
| OM5KV | 2026-08-31 01:13:04 | 48.27806 | 17.19277 | 350° | 18km/h | 28217m | 5.0m/s | -49.0°C | 0% | 0hPa | 2.4V | 00:00:00 | 00:00:00 | 00:00:00 | |
| HA6NAB-11 | 2026-08-31 01:13:03 | 48.27800 | 17.19276 | 28° | 7km/h | 28206m | 5.6m/s | -48.9°C | 2.2% | 0hPa | 2.4V | 00:00:00 | 00:00:00 | 00:00:00 | |
| OE3OSB-13 | 2026-08-31 01:12:51 | 48.27790 | 17.19280 | 318° | 11km/h | 28131m | 5.1m/s | -49.0°C | 2.3% | -1.0hPa | 2.4V | 00:00:00 | 00:00:00 | 00:00:00 | |
| EDDB2-12 | 2026-08-31 01:12:46 | 48.27779 | 17.19285 | 355° | 7km/h | 28102m | 6.0m/s | 0°C | -1.0% | -1.0hPa | 2.4V | 00:00:00 | 00:00:00 | 00:00:00 | |
| OE5DRO-10 | 2026-08-31 01:12:45 | 48.27779 | 17.19285 | 356° | 13km/h | 28103m | 5.9m/s | -49.1°C | 5.1% | 0hPa | 2.4V | 00:00:00 | 00:00:00 | 00:00:00 | |
| OE5DXL-15 | 2026-08-31 01:12:41 | 48.27768 | 17.19290 | 358° | 13km/h | 28079m | 6.0m/s | -49.1°C | 5.0% | 0hPa | 2.4V | 00:00:00 | 00:00:00 | 08:30:00 | |
| OE5MMP-10 | 2026-08-31 01:12:39 | 48.27760 | 17.19287 | 25° | 13km/h | 28067m | 4.9m/s | -49.0°C | 5.1% | 0hPa | 2.4V | 00:00:00 | 01:53:46 | 00:00:00 | |
| POL1PZ | 2026-08-31 01:12:37 | 48.27756 | 17.19285 | 19° | 18km/h | 28062m | 4.4m/s | -49.0°C | 2.4% | 0hPa | 2.4V | 00:00:00 | 00:00:00 | 00:00:00 | |
| PG1ADW-2 | 2026-08-31 01:12:35 | 48.27746 | 17.19286 | 312° | 13km/h | 28043m | 5.6m/s | -48.9°C | 5.1% | 0hPa | 2.4V | 00:00:00 | 01:53:42 | 00:00:00 | |
| SONDE2-11 | 2026-08-31 01:12:34 | 48.27744 | 17.19290 | 300° | 13km/h | 28038m | 4.7m/s | -48.9°C | 2.3% | -1.0hPa | 2.4V | 00:00:00 | 00:00:00 | 00:00:00 | |
| GYPAP8-17 | 2026-08-31 01:12:31 | 48.27741 | 17.19297 | 330° | 9km/h | 28026m | 6.4m/s | -48.9°C | 2.4% | 0hPa | 2.4V | 00:00:00 | 00:00:00 | 00:00:00 | |
| OE5MMP-10 | 2026-08-31 01:12:29 | 48.27732 | 17.19299 | 349° | 13km/h | 28009m | 5.6m/s | -48.8°C | 5.0% | 0hPa | 2.4V | 00:00:00 | 01:53:36 | 00:00:00 | |
| OE5DRO-10 | 2026-08-31 01:12:25 | 48.27717 | 17.19310 | 334° | 9km/h | 27986m | 6.5m/s | -48.8°C | 5.1% | 0hPa | 2.4V | 00:00:00 | 00:00:00 | 00:00:00 | |
| OE3OSB-13 | 2026-08-31 01:12:20 | 48.27715 | 17.19328 | 251° | 15km/h | 27949m | 4.7m/s | -48.6°C | 2.3% | -1.0hPa | 2.4V | 00:00:00 | 00:00:00 | 00:00:00 | |
| OE5MMP-10 | 2026-08-31 01:12:19 | 48.27715 | 17.19328 | 252° | 9km/h | 27949m | 4.6m/s | -48.6°C | 5.0% | 0hPa | 2.4V | 00:00:00 | 01:53:26 | 00:00:00 | |
| OE3JTB-15 | 2026-08-31 01:12:17 | 48.27717 | 17.19336 | 239° | 9km/h | 27937m | 6.3m/s | -48.5°C | 5.0% | 0hPa | 2.5V | 00:00:00 | 00:00:00 | 00:00:00 | |
| POL1PZ | 2026-08-31 01:12:16 | 48.27717 | 17.19336 | 239° | 9km/h | 27937m | 6.3m/s | -48.6°C | 2.4% | 0hPa | 2.4V | 00:00:00 | 00:00:00 | 00:00:00 | |
| PG1ADW-2 | 2026-08-31 01:12:15 | 48.27719 | 17.19341 | 265° | 7km/h | 27925m | 5.8m/s | -48.5°C | 5.0% | 0hPa | 2.4V | 00:00:00 | 00:00:00 | 08:30:00 | |
| OE5DXL-15 | 2026-08-31 01:12:11 | 48.27714 | 17.19353 | 337° | 9km/h | 27901m | 6.8m/s | -48.4°C | 4.9% | 0hPa | 2.4V | 00:00:00 | 00:00:00 | 00:00:00 | |
| OE5MMP-10 | 2026-08-31 01:12:09 | 48.27712 | 17.19354 | 4° | 11km/h | 27890m | 4.1m/s | -48.3°C | 4.9% | 0hPa | 2.4V | 00:00:00 | 01:53:16 | 00:00:00 | |
| HA6NAB-11 | 2026-08-31 01:12:08 | 48.27712 | 17.19354 | 4° | 4km/h | 27890m | 4.2m/s | -48.4°C | 2.4% | 0hPa | 2.4V | 00:00:00 | 00:00:00 | 00:00:00 | |
| OE5DRO-10 | 2026-08-31 01:12:04 | 48.27714 | 17.19367 | 214° | 13km/h | 27861m | 7.1m/s | -48.3°C | 4.9% | 0hPa | 2.4V | 00:00:00 | 00:00:00 | 00:00:00 | |
| SONDE2-11 | 2026-08-31 01:12:03 | 48.27717 | 17.19369 | 199° | 13km/h | 27854m | 6.6m/s | -48.3°C | 2.3% | -1.0hPa | 2.5V | 00:00:00 | 00:00:00 | 00:00:00 | |
| OE5MMP-10 | 2026-08-31 01:11:59 | 48.27728 | 17.19375 | 222° | 7km/h | 27830m | 5.1m/s | -48.4°C | 4.9% | 0hPa | 2.5V | 00:00:00 | 01:53:06 | 00:00:00 | |
| HA6NAB-11 | 2026-08-31 01:11:57 | 48.27729 | 17.19376 | 204° | 4km/h | 27824m | 6.2m/s | -48.5°C | 2.3% | 0hPa | 2.5V | 00:00:00 | 00:00:00 | 00:00:00 | |
| PG1ADW-2 | 2026-08-31 01:11:55 | 48.27731 | 17.19374 | 88° | 11km/h | 27806m | 5.0m/s | -48.6°C | 5.0% | 0hPa | 2.5V | 00:00:00 | 00:00:00 | 00:00:00 | |
| POL1PZ | 2026-08-31 01:11:53 | 48.27730 | 17.19374 | 296° | 2km/h | 27800m | 6.8m/s | -48.6°C | 2.4% | 0hPa | 2.5V | 00:00:00 | 00:00:00 | 00:00:00 | |
| HA6NAB-11 | 2026-08-31 01:11:52 | 48.27730 | 17.19376 | 257° | 5km/h | 27794m | 5.3m/s | -48.6°C | 2.4% | 0hPa | 2.5V | 00:00:00 | 00:00:00 | 00:00:00 | |
| OE5MMP-10 | 2026-08-31 01:11:49 | 48.27743 | 17.19381 | 175° | 13km/h | 27769m | 5.8m/s | -48.5°C | 5.0% | 0hPa | 2.5V | 00:00:00 | 01:52:56 | 00:00:00 | |
| OE3JTB-15 | 2026-08-31 01:11:48 | 48.27749 | 17.19380 | 173° | 13km/h | 27764m | 5.1m/s | -48.5°C | 4.9% | 0hPa | 2.4V | 00:00:00 | 00:00:00 | 00:00:00 | |
| HA6NAB-11 | 2026-08-31 01:11:47 | 48.27749 | 17.19380 | 174° | 24km/h | 27764m | 5.2m/s | -48.6°C | 2.4% | 0hPa | 2.4V | 00:00:00 | 00:00:00 | 00:00:00 | |
| OE5DXL-15 | 2026-08-31 01:11:41 | 48.27771 | 17.19374 | 172° | 13km/h | 27723m | 4.9m/s | -48.6°C | 4.9% | 0hPa | 2.4V | 00:00:00 | 00:00:00 | 00:00:00 | |
| OE5MMP-10 | 2026-08-31 01:11:39 | 48.27772 | 17.19377 | 281° | 11km/h | 27710m | 6.0m/s | -48.7°C | 4.9% | 0hPa | 2.4V | 00:00:00 | 01:52:46 | 00:00:00 | |
| PG1ADW-2 | 2026-08-31 01:11:35 | 48.27776 | 17.19382 | 169° | 15km/h | 27686m | 5.0m/s | -48.9°C | 5.0% | 0hPa | 2.4V | 00:00:00 | 00:00:00 | 00:00:00 | |
| SONDE2-11 | 2026-08-31 01:11:32 | 48.27787 | 17.19380 | 183° | 13km/h | 27669m | 5.6m/s | -49.1°C | 2.4% | -1.0hPa | 2.4V | 00:00:00 | 00:00:00 | 00:00:00 | |
| POL1PZ | 2026-08-31 01:11:31 | 48.27786 | 17.19380 | 184° | 13km/h | 27669m | 5.6m/s | -49.1°C | 2.4% | 0hPa | 2.4V | 00:00:00 | 00:00:00 | 00:00:00 | |
| OE5MMP-10 | 2026-08-31 01:11:29 | 48.27796 | 17.19378 | 147° | 15km/h | 27652m | 6.8m/s | -49.1°C | 5.1% | 0hPa | 2.4V | 00:00:00 | 01:52:36 | 00:00:00 | |
| ATIDSZ-14 | 2026-08-31 01:11:27 | 48.27798 | 17.19374 | 129° | 16km/h | 27646m | 6.3m/s | -49.1°C | 2.4% | 0hPa | 2.4V | 00:00:00 | 00:00:00 | 00:00:00 | |
| GYPAP8-17 | 2026-08-31 01:11:23 | 48.27799 | 17.19353 | 49° | 13km/h | 27622m | 5.7m/s | -49.2°C | 2.5% | 0hPa | 2.4V | 00:00:00 | 00:00:00 | 00:00:00 | |
| OE5MMP-10 | 2026-08-31 01:11:19 | 48.27798 | 17.19330 | 130° | 15km/h | 27593m | 5.5m/s | -49.1°C | 5.1% | 0hPa | 2.4V | 00:00:00 | 01:52:26 | 08:30:00 | |
| OE3OSB-13 | 2026-08-31 01:11:17 | 48.27803 | 17.19323 | 148° | 11km/h | 27580m | 5.7m/s | -49.2°C | 2.4% | -1.0hPa | 2.5V | 00:00:00 | 00:00:00 | 00:00:00 | |
| PG1ADW-2 | 2026-08-31 01:11:15 | 48.27808 | 17.19317 | 130° | 13km/h | 27569m | 5.9m/s | -49.1°C | 5.1% | 0hPa | 2.5V | 00:00:00 | 01:52:22 | 00:00:00 | |
| OE5DXL-15 | 2026-08-31 01:11:11 | 48.27812 | 17.19295 | 76° | 13km/h | 27546m | 7.2m/s | -49.0°C | 5.1% | 0hPa | 2.4V | 00:00:00 | 00:00:00 | 00:00:00 | |
| POL1PZ | 2026-08-31 01:11:10 | 48.27812 | 17.19295 | 76° | 13km/h | 27546m | 7.2m/s | -49.1°C | 0% | 0hPa | 2.4V | 00:00:00 | 00:00:00 | 00:00:00 | |
| OE5MMP-10 | 2026-08-31 01:11:09 | 48.27809 | 17.19288 | 47° | 13km/h | 27533m | 5.2m/s | -49.0°C | 5.0% | 0hPa | 2.4V | 00:00:00 | 01:52:16 | 00:00:00 | |
| ATIDSZ-14 | 2026-08-31 01:11:07 | 48.27807 | 17.19284 | 61° | 15km/h | 27527m | 6.7m/s | -49.0°C | 2.5% | 0hPa | 2.4V | 00:00:00 | 00:00:00 | 00:00:00 | |
| HA6NAB-11 | 2026-08-31 01:11:05 | 48.27805 | 17.19273 | 84° | 15km/h | 27515m | 4.9m/s | -49.0°C | 2.4% | 0hPa | 2.4V | 00:00:00 | 00:00:00 | 00:00:00 | |
| S52SK | 2026-08-31 01:11:02 | 48.27805 | 17.19262 | 88° | 9km/h | 27497m | 5.6m/s | -49.0°C | 2.4% | 0hPa | 2.4V | 00:00:00 | 00:00:00 | 00:00:00 | |
| SONDE2-11 | 2026-08-31 01:11:01 | 48.27805 | 17.19253 | 99° | 15km/h | 27484m | 7.2m/s | -49.1°C | 2.4% | -1.0hPa | 2.4V | 00:00:00 | 00:00:00 | 00:00:00 | |
| OE3OSB-13 | 2026-08-31 01:10:46 | 48.27782 | 17.19195 | 48° | 13km/h | 27396m | 6.4m/s | -49.5°C | 2.4% | -1.0hPa | 2.4V | 00:00:00 | 00:00:00 | 00:00:00 | |
| HA6NAB-11 | 2026-08-31 01:10:43 | 48.27776 | 17.19186 | 42° | 16km/h | 27385m | 4.7m/s | -49.5°C | 2.5% | 0hPa | 2.4V | 00:00:00 | 00:00:00 | 00:00:00 | |
| DO3MHA-11 | 2026-08-31 01:10:40 | 48.27761 | 17.19180 | 4° | 15km/h | 27361m | 5.4m/s | -49.5°C | 5.1% | 0hPa | 2.4V | 00:00:00 | 01:51:47 | 00:00:00 | |
| OE5MMP-10 | 2026-08-31 01:10:39 | 48.27758 | 17.19179 | 19° | 15km/h | 27354m | 7.1m/s | -49.5°C | 5.1% | 0hPa | 2.4V | 00:00:00 | 01:51:46 | 00:00:00 | |
| HA6NAB-11 | 2026-08-31 01:10:37 | 48.27755 | 17.19177 | 23° | 13km/h | 27348m | 5.4m/s | -49.6°C | 2.5% | 0hPa | 2.4V | 00:00:00 | 00:00:00 | 00:00:00 | |
| PG1ADW-2 | 2026-08-31 01:10:35 | 48.27745 | 17.19174 | 355° | 16km/h | 27330m | 6.9m/s | -49.6°C | 5.1% | 0hPa | 2.4V | 00:00:00 | 00:00:00 | 00:00:00 | |
| OE5DRO-10 | 2026-08-31 01:10:34 | 48.27742 | 17.19175 | 350° | 13km/h | 27323m | 5.8m/s | -49.6°C | 5.2% | 0hPa | 2.4V | 00:00:00 | 00:00:00 | 00:00:00 | |
| DO3MHA-11 | 2026-08-31 01:10:30 | 48.27725 | 17.19175 | 358° | 15km/h | 27300m | 5.5m/s | -49.6°C | 5.1% | 0hPa | 2.4V | 00:00:00 | 01:51:37 | 00:00:00 | |
| OE5MMP-10 | 2026-08-31 01:10:29 | 48.27720 | 17.19176 | 349° | 16km/h | 27294m | 7.2m/s | -49.6°C | 5.1% | 0hPa | 2.4V | 00:00:00 | 01:51:36 | 00:00:00 | |
| ATIDSZ-14 | 2026-08-31 01:10:27 | 48.27715 | 17.19178 | 345° | 22km/h | 27287m | 5.8m/s | -49.7°C | 2.5% | 0hPa | 2.4V | 00:00:00 | 00:00:00 | 00:00:00 | |
| OE3JTB-15 | 2026-08-31 01:10:21 | 48.27689 | 17.19178 | 340° | 9km/h | 27246m | 5.8m/s | -50.0°C | 5.2% | 0hPa | 2.4V | 00:00:00 | 00:00:00 | 00:00:00 | |
| DO3MHA-11 | 2026-08-31 01:10:20 | 48.27686 | 17.19180 | 338° | 13km/h | 27240m | 5.2m/s | -50.1°C | 5.2% | 0hPa | 2.4V | 00:00:00 | 01:51:27 | 00:00:00 | |
| OE5MMP-10 | 2026-08-31 01:10:19 | 48.27682 | 17.19182 | 346° | 11km/h | 27234m | 6.0m/s | -50.1°C | 5.2% | 0hPa | 2.5V | 00:00:00 | 01:51:26 | 00:00:00 | |
| GYPAP8-17 | 2026-08-31 01:10:17 | 48.27678 | 17.19183 | 361° | 16km/h | 27228m | 6.7m/s | -50.2°C | 2.5% | 0hPa | 2.4V | 00:00:00 | 00:00:00 | 00:00:00 | |
| PG1ADW-2 | 2026-08-31 01:10:15 | 48.27666 | 17.19182 | 351° | 9km/h | 27210m | 6.8m/s | -50.3°C | 5.3% | 0hPa | 2.4V | 00:00:00 | 00:00:00 | 00:00:00 | |
| DO3MHA-12 | 2026-08-31 01:10:11 | 48.27657 | 17.19190 | 2° | 15km/h | 27186m | 7.4m/s | -50.3°C | 5.3% | 0hPa | 2.4V | 00:00:00 | 01:51:18 | 00:00:00 | |
| DO3MHA-11 | 2026-08-31 01:10:10 | 48.27657 | 17.19189 | 93° | 7km/h | 27179m | 5.7m/s | -50.3°C | 5.3% | 0hPa | 2.4V | 00:00:00 | 01:51:17 | 00:00:00 | |
| OE5MMP-10 | 2026-08-31 01:10:09 | 48.27657 | 17.19188 | 63° | 9km/h | 27174m | 4.9m/s | -50.3°C | 5.3% | 0hPa | 2.4V | 00:00:00 | 01:51:16 | 00:00:00 | |
| POL1PZ | 2026-08-31 01:10:08 | 48.27657 | 17.19188 | 0° | 0km/h | 27174m | 5.0m/s | -50.3°C | 0% | 0hPa | 2.4V | 00:00:00 | 00:00:00 | 00:00:00 | |
| ATIDSZ-14 | 2026-08-31 01:10:06 | 48.27655 | 17.19190 | 313° | 9km/h | 27161m | 6.4m/s | -50.3°C | 2.6% | 0hPa | 2.4V | 00:00:00 | 00:00:00 | 00:00:00 | |
| DO3MHA-11 | 2026-08-31 01:10:00 | 48.27640 | 17.19201 | 346° | 13km/h | 27120m | 7.2m/s | -50.4°C | 5.4% | 0hPa | 2.4V | 00:00:00 | 01:51:07 | 00:00:00 | |
| OE5MMP-10 | 2026-08-31 01:09:59 | 48.27637 | 17.19202 | 338° | 5km/h | 27114m | 5.6m/s | -50.5°C | 5.4% | 0hPa | 2.4V | 00:00:00 | 01:51:06 | 00:00:00 | |
| PG1ADW-2 | 2026-08-31 01:09:55 | 48.27633 | 17.19203 | 115° | 5km/h | 27091m | 5.0m/s | -50.5°C | 5.5% | 0hPa | 2.4V | 00:00:00 | 01:51:02 | 00:00:00 | |
| OE3JTB-15 | 2026-08-31 01:09:52 | 48.27633 | 17.19203 | 282° | 9km/h | 27072m | 5.9m/s | -50.5°C | 5.5% | 0hPa | 2.4V | 00:00:00 | 01:50:59 | 00:00:00 | |
| OE5DRO-10 | 2026-08-31 01:09:51 | 48.27633 | 17.19206 | 283° | 7km/h | 27067m | 5.5m/s | -50.5°C | 5.4% | 0hPa | 2.4V | 00:00:00 | 00:00:00 | 08:30:00 | |
| OE5MMP-10 | 2026-08-31 01:09:49 | 48.27633 | 17.19208 | 196° | 5km/h | 27054m | 6.4m/s | -50.5°C | 5.5% | 0hPa | 2.5V | 00:00:00 | 01:50:56 | 08:30:00 | |
| POL1PZ | 2026-08-31 01:09:47 | 48.27634 | 17.19208 | 184° | 5km/h | 27048m | 5.6m/s | -50.6°C | 0% | 0hPa | 2.4V | 00:00:00 | 00:00:00 | 00:00:00 | |
| ATIDSZ-14 | 2026-08-31 01:09:46 | 48.27636 | 17.19209 | 214° | 5km/h | 27042m | 5.0m/s | -50.6°C | 2.6% | 0hPa | 2.4V | 00:00:00 | 00:00:00 | 00:00:00 | |
| OE3OSB-13 | 2026-08-31 01:09:45 | 48.27636 | 17.19215 | 317° | 5km/h | 27024m | 5.2m/s | -50.6°C | 2.6% | -1.0hPa | 2.4V | 00:00:00 | 00:00:00 | 00:00:00 | |
| OE5MMP-10 | 2026-08-31 01:09:39 | 48.27629 | 17.19213 | 341° | 11km/h | 26994m | 6.8m/s | -50.6°C | 5.4% | 0hPa | 2.4V | 00:00:00 | 01:50:46 | 00:00:00 | |
| S52SK | 2026-08-31 01:09:37 | 48.27627 | 17.19215 | 313° | 11km/h | 26988m | 6.0m/s | -50.7°C | 2.6% | 0hPa | 2.4V | 00:00:00 | 00:00:00 | 00:00:00 | |
| PG1ADW-2 | 2026-08-31 01:09:35 | 48.27626 | 17.19227 | 253° | 13km/h | 26971m | 6.4m/s | -50.6°C | 5.4% | 0hPa | 2.4V | 00:00:00 | 00:00:00 | 00:00:00 | |
| OE5DRO-10 | 2026-08-31 01:09:32 | 48.27627 | 17.19235 | 306° | 13km/h | 26955m | 6.6m/s | -50.7°C | 5.4% | 0hPa | 2.4V | 00:00:00 | 00:00:00 | 00:00:00 | |
| S52SK | 2026-08-31 01:09:31 | 48.27627 | 17.19235 | 307° | 9km/h | 26955m | 6.6m/s | -50.7°C | 2.6% | 0hPa | 2.4V | 00:00:00 | 00:00:00 | 00:00:00 | |
| OE5MMP-10 | 2026-08-31 01:09:29 | 48.27616 | 17.19242 | 347° | 16km/h | 26937m | 4.4m/s | -50.7°C | 5.4% | 0hPa | 2.4V | 00:00:00 | 01:50:36 | 00:00:00 | |
| SONDE2-11 | 2026-08-31 01:09:28 | 48.27611 | 17.19244 | 348° | 20km/h | 26932m | 5.9m/s | -50.7°C | 2.6% | -1.0hPa | 2.4V | 00:00:00 | 00:00:00 | 00:00:00 | |
| POL1PZ | 2026-08-31 01:09:27 | 48.27611 | 17.19244 | 349° | 20km/h | 26932m | 5.9m/s | 0°C | 0% | 0hPa | 2.4V | 00:00:00 | 00:00:00 | 00:00:00 | |
| ATIDSZ-14 | 2026-08-31 01:09:25 | 48.27604 | 17.19247 | 334° | 9km/h | 26920m | 5.4m/s | -50.7°C | 2.7% | 0hPa | 2.4V | 00:00:00 | 00:00:00 | 00:00:00 | |
| OE3JTB-15 | 2026-08-31 01:09:23 | 48.27599 | 17.19258 | 292° | 9km/h | 26903m | 6.9m/s | -50.7°C | 5.4% | 0hPa | 2.4V | 00:00:00 | 00:00:00 | 08:30:00 | |
| HA6NAB-11 | 2026-08-31 01:09:20 | 48.27596 | 17.19272 | 294° | 20km/h | 26892m | 5.3m/s | -50.8°C | 2.7% | 0hPa | 2.4V | 00:00:00 | 00:00:00 | 00:00:00 | |
| OE5MMP-10 | 2026-08-31 01:09:19 | 48.27593 | 17.19283 | 284° | 7km/h | 26879m | 6.5m/s | -50.8°C | 5.5% | 0hPa | 2.4V | 00:00:00 | 01:50:26 | 00:00:00 | |
| PG1ADW-2 | 2026-08-31 01:09:15 | 48.27589 | 17.19291 | 328° | 9km/h | 26856m | 6.5m/s | -50.9°C | 5.4% | 0hPa | 2.5V | 00:00:00 | 00:00:00 | 08:30:00 | |
| OE5DRO-10 | 2026-08-31 01:09:13 | 48.27584 | 17.19296 | 320° | 9km/h | 26845m | 5.1m/s | -50.9°C | 5.3% | 0hPa | 2.4V | 00:00:00 | 00:00:00 | 00:00:00 | |
| OE5MMP-10 | 2026-08-31 01:09:09 | 48.27583 | 17.19304 | 234° | 11km/h | 26821m | 5.9m/s | -51.1°C | 5.4% | 0hPa | 2.4V | 00:00:00 | 01:50:16 | 00:00:00 | |
| POL1PZ | 2026-08-31 01:09:06 | 48.27585 | 17.19310 | 247° | 13km/h | 26809m | 4.9m/s | 0°C | 0% | 0hPa | 2.4V | 00:00:00 | 00:00:00 | 00:00:00 | |
| HA6NAB-11 | 2026-08-31 01:09:05 | 48.27589 | 17.19317 | 207° | 13km/h | 26799m | 6.1m/s | -51.5°C | 2.7% | 0hPa | 2.4V | 00:00:00 | 00:00:00 | 00:00:00 | |
| SONDE2-11 | 2026-08-31 01:08:57 | 48.27602 | 17.19310 | 123° | 5km/h | 26752m | 6.6m/s | -51.6°C | 2.7% | -1.0hPa | 2.4V | 00:00:00 | 00:00:00 | 00:00:00 | |
| PG1ADW-2 | 2026-08-31 01:08:55 | 48.27604 | 17.19306 | 130° | 5km/h | 26740m | 5.0m/s | -51.5°C | 5.8% | 0hPa | 2.4V | 00:00:00 | 00:00:00 | 00:00:00 | |
| OE3JTB-15 | 2026-08-31 01:08:54 | 48.27606 | 17.19303 | 122° | 5km/h | 26735m | 6.1m/s | -51.5°C | 5.8% | 0hPa | 2.4V | 00:00:00 | 00:00:00 | 00:00:00 | |
| OE5MMP-10 | 2026-08-31 01:08:49 | 48.27607 | 17.19296 | 127° | 5km/h | 26705m | 5.1m/s | -51.4°C | 5.8% | 0hPa | 2.4V | 00:00:00 | 01:49:56 | 00:00:00 | |
| HA6NAB-11 | 2026-08-31 01:08:48 | 48.27606 | 17.19296 | 127° | 7km/h | 26705m | 5.2m/s | -51.5°C | 2.9% | 0hPa | 2.5V | 00:00:00 | 00:00:00 | 00:00:00 | |
| POL1PZ | 2026-08-31 01:08:46 | 48.27608 | 17.19290 | 36° | 4km/h | 26688m | 6.6m/s | 0°C | 0% | 0hPa | 2.5V | 00:00:00 | 00:00:00 | 00:00:00 | |
| ATIDSZ-14 | 2026-08-31 01:08:45 | 48.27608 | 17.19290 | 36° | 4km/h | 26688m | 6.6m/s | -51.4°C | 2.8% | 0hPa | 2.5V | 00:00:00 | 00:00:00 | 00:00:00 | |
| OE3OSB-13 | 2026-08-31 01:08:42 | 48.27604 | 17.19291 | 215° | 0km/h | 26664m | 6.0m/s | -51.4°C | 2.8% | -1.0hPa | 2.5V | 00:00:00 | 00:00:00 | 00:00:00 | |
| OE5MMP-10 | 2026-08-31 01:08:39 | 48.27606 | 17.19291 | 30° | 5km/h | 26648m | 6.1m/s | -51.3°C | 5.8% | 0hPa | 2.5V | 00:00:00 | 01:49:46 | 00:00:00 | |
| PG1ADW-2 | 2026-08-31 01:08:35 | 48.27603 | 17.19292 | 220° | 7km/h | 26625m | 6.5m/s | -51.1°C | 5.7% | 0hPa | 2.5V | 00:00:00 | 01:49:42 | 00:00:00 | |
| OE5DXL-15 | 2026-08-31 01:08:32 | 48.27603 | 17.19291 | 52° | 11km/h | 26608m | 7.0m/s | -51.1°C | 5.7% | 0hPa | 2.5V | 00:00:00 | 00:00:00 | 00:00:00 | |
| OE5MMP-10 | 2026-08-31 01:08:29 | 48.27598 | 17.19280 | 70° | 9km/h | 26590m | 6.3m/s | -51.1°C | 5.7% | 0hPa | 2.5V | 00:00:00 | 01:49:36 | 00:00:00 | |
| SONDE2-11 | 2026-08-31 01:08:26 | 48.27597 | 17.19266 | 74° | 9km/h | 26572m | 5.6m/s | -51.2°C | 2.8% | -1.0hPa | 2.5V | 00:00:00 | 00:00:00 | 00:00:00 | |
| OE3JTB-15 | 2026-08-31 01:08:25 | 48.27596 | 17.19262 | 57° | 7km/h | 26566m | 6.4m/s | -51.1°C | 5.8% | 0hPa | 2.5V | 00:00:00 | 01:49:32 | 00:00:00 | |
| ATIDSZ-14 | 2026-08-31 01:08:24 | 48.27596 | 17.19263 | 58° | 9km/h | 26566m | 6.5m/s | -51.2°C | 2.9% | 0hPa | 2.5V | 00:00:00 | 00:00:00 | 00:00:00 | |
| OE5MMP-10 | 2026-08-31 01:08:19 | 48.27593 | 17.19264 | 302° | 7km/h | 26532m | 6.8m/s | -51.1°C | 5.8% | 0hPa | 2.5V | 00:00:00 | 01:49:26 | 08:30:00 | |
| POL1PZ | 2026-08-31 01:08:18 | 48.27593 | 17.19264 | 302° | 4km/h | 26532m | 6.9m/s | 0°C | 0% | 0hPa | 2.4V | 00:00:00 | 00:00:00 | 00:00:00 | |
| OE5DRO-10 | 2026-08-31 01:08:16 | 48.27588 | 17.19263 | 31° | 9km/h | 26514m | 4.9m/s | -51.1°C | 5.8% | 0hPa | 2.4V | 00:00:00 | 00:00:00 | 00:00:00 | |
| PG1ADW-2 | 2026-08-31 01:08:15 | 48.27587 | 17.19261 | 52° | 9km/h | 26508m | 6.8m/s | -51.0°C | 5.8% | 0hPa | 2.4V | 00:00:00 | 00:00:00 | 00:00:00 | |
| HA6NAB-11 | 2026-08-31 01:08:13 | 48.27586 | 17.19259 | 67° | 5km/h | 26502m | 5.6m/s | -51.1°C | 2.9% | 0hPa | 2.5V | 00:00:00 | 00:00:00 | 00:00:00 | |
| GYPAP8-17 | 2026-08-31 01:08:12 | 48.27585 | 17.19257 | 68° | 5km/h | 26497m | 4.1m/s | -51.1°C | 2.9% | 0hPa | 2.5V | 00:00:00 | 00:00:00 | 00:00:00 | |
| OE3OSB-13 | 2026-08-31 01:08:11 | 48.27583 | 17.19255 | 15° | 9km/h | 26486m | 6.7m/s | -51.0°C | 2.8% | -1.0hPa | 2.5V | 00:00:00 | 00:00:00 | 00:00:00 | |
| OE5MMP-10 | 2026-08-31 01:08:09 | 48.27577 | 17.19254 | 353° | 9km/h | 26475m | 4.9m/s | -51.0°C | 5.8% | 0hPa | 2.5V | 00:00:00 | 01:49:16 | 00:00:00 | |
| HA6NAB-11 | 2026-08-31 01:08:07 | 48.27575 | 17.19255 | 345° | 5km/h | 26469m | 6.7m/s | -51.0°C | 2.9% | 0hPa | 2.5V | 00:00:00 | 00:00:00 | 00:00:00 | |
| ATIDSZ-14 | 2026-08-31 01:08:03 | 48.27569 | 17.19255 | 13° | 13km/h | 26445m | 5.9m/s | -51.0°C | 2.9% | 0hPa | 2.5V | 00:00:00 | 00:00:00 | 00:00:00 | |
| HA6NAB-11 | 2026-08-31 01:08:02 | 48.27566 | 17.19254 | 23° | 15km/h | 26439m | 4.9m/s | -51.0°C | 2.9% | 0hPa | 2.5V | 00:00:00 | 00:00:00 | 00:00:00 | |
| OE5MMP-10 | 2026-08-31 01:07:59 | 48.27558 | 17.19245 | 37° | 11km/h | 26416m | 5.3m/s | -50.9°C | 5.9% | 0hPa | 2.5V | 00:00:00 | 01:49:06 | 00:00:00 | |
| OE5DRO-10 | 2026-08-31 01:07:57 | 48.27553 | 17.19242 | 10° | 16km/h | 26404m | 5.0m/s | -50.8°C | 5.8% | 0hPa | 2.5V | 00:00:00 | 00:00:00 | 00:00:00 | |
| OE3JTB-15 | 2026-08-31 01:07:56 | 48.27551 | 17.19241 | 1° | 16km/h | 26399m | 4.1m/s | -50.8°C | 5.8% | 0hPa | 2.5V | 00:00:00 | 00:00:00 | 00:00:00 | |
| PG1ADW-2 | 2026-08-31 01:07:55 | 48.27548 | 17.19241 | 347° | 16km/h | 26394m | 5.7m/s | -50.8°C | 5.8% | 0hPa | 2.4V | 00:00:00 | 00:00:00 | 00:00:00 | |
| GYPAP8-17 | 2026-08-31 01:07:53 | 48.27546 | 17.19244 | 301° | 7km/h | 26383m | 4.7m/s | -50.8°C | 2.9% | 0hPa | 2.4V | 00:00:00 | 00:00:00 | 00:00:00 | |
| HA6NAB-11 | 2026-08-31 01:07:51 | 48.27544 | 17.19247 | 318° | 11km/h | 26378m | 4.5m/s | -50.8°C | 2.9% | 0hPa | 2.4V | 00:00:00 | 00:00:00 | 00:00:00 | |
| HA6NAB-11 | 2026-08-31 01:07:45 | 48.27515 | 17.19251 | 27° | 20km/h | 26344m | 5.3m/s | -50.6°C | 2.9% | 0hPa | 2.4V | 00:00:00 | 00:00:00 | 00:00:00 | |
| ATIDSZ-14 | 2026-08-31 01:07:43 | 48.27506 | 17.19243 | 34° | 20km/h | 26334m | 5.6m/s | -50.6°C | 2.9% | 0hPa | 2.4V | 00:00:00 | 00:00:00 | 00:00:00 | |
| OE3OSB-13 | 2026-08-31 01:07:40 | 48.27488 | 17.19236 | 351° | 15km/h | 26312m | 4.8m/s | -50.6°C | 2.8% | -1.0hPa | 2.4V | 00:00:00 | 00:00:00 | 00:00:00 | |
| OE5MMP-10 | 2026-08-31 01:07:39 | 48.27485 | 17.19237 | 344° | 16km/h | 26307m | 6.7m/s | -50.5°C | 5.7% | 0hPa | 2.4V | 00:00:00 | 01:48:46 | 00:00:00 | |
| OE5DRO-10 | 2026-08-31 01:07:38 | 48.27483 | 17.19238 | 338° | 16km/h | 26301m | 5.2m/s | -50.5°C | 5.7% | 0hPa | 2.4V | 00:00:00 | 00:00:00 | 00:00:00 | |
| PG1ADW-2 | 2026-08-31 01:07:35 | 48.27472 | 17.19242 | 355° | 16km/h | 26284m | 6.0m/s | -50.5°C | 5.6% | 0hPa | 2.4V | 00:00:00 | 00:00:00 | 00:00:00 | |
| OE3JTB-15 | 2026-08-31 01:07:27 | 48.27436 | 17.19241 | 337° | 13km/h | 26238m | 5.0m/s | -50.6°C | 5.7% | 0hPa | 2.4V | 00:00:00 | 00:00:00 | 00:00:00 | |
| SONDE2-11 | 2026-08-31 01:07:24 | 48.27423 | 17.19256 | 322° | 15km/h | 26216m | 4.8m/s | -50.7°C | 2.8% | -1.0hPa | 2.4V | 00:00:00 | 00:00:00 | 00:00:00 | |
| ATIDSZ-14 | 2026-08-31 01:07:22 | 48.27423 | 17.19256 | 324° | 15km/h | 26216m | 4.8m/s | -50.7°C | 2.9% | 0hPa | 2.4V | 00:00:00 | 00:00:00 | 00:00:00 | |
| OE5MMP-10 | 2026-08-31 01:07:19 | 48.27410 | 17.19269 | 322° | 11km/h | 26194m | 7.2m/s | -50.7°C | 5.8% | 0hPa | 2.4V | 00:00:00 | 01:48:26 | 00:00:00 | |
| PG1ADW-2 | 2026-08-31 01:07:15 | 48.27398 | 17.19277 | 347° | 11km/h | 26170m | 5.8m/s | -50.6°C | 5.7% | 0hPa | 2.4V | 00:00:00 | 01:48:22 | 00:00:00 | |
| OE5MMP-10 | 2026-08-31 01:07:09 | 48.27385 | 17.19278 | 350° | 15km/h | 26138m | 5.1m/s | -50.6°C | 5.6% | 0hPa | 2.4V | 00:00:00 | 01:48:16 | 00:00:00 | |
| SONDE2-11 | 2026-08-31 01:06:53 | 48.27345 | 17.19306 | 305° | 7km/h | 26043m | 4.9m/s | -51.5°C | 2.9% | -1.0hPa | 2.4V | 00:00:00 | 00:00:00 | 00:00:00 | |
| OE5MMP-10 | 2026-08-31 01:06:49 | 48.27345 | 17.19319 | 264° | 13km/h | 26025m | 4.9m/s | -51.5°C | 5.9% | 0hPa | 2.4V | 00:00:00 | 01:47:56 | 08:30:00 | |
| ATIDSZ-14 | 2026-08-31 01:06:40 | 48.27357 | 17.19341 | 161° | 7km/h | 25981m | 5.5m/s | -51.5°C | 3.0% | 0hPa | 2.5V | 00:00:00 | 00:00:00 | 00:00:00 | |
| OE5MMP-10 | 2026-08-31 01:06:39 | 48.27359 | 17.19343 | 246° | 11km/h | 25971m | 4.3m/s | -51.4°C | 5.9% | 0hPa | 2.5V | 00:00:00 | 01:47:46 | 00:00:00 | |
| OE3OSB-13 | 2026-08-31 01:06:38 | 48.27360 | 17.19347 | 244° | 13km/h | 25966m | 5.8m/s | -51.5°C | 2.9% | -1.0hPa | 2.5V | 00:00:00 | 00:00:00 | 00:00:00 | |
| PG1ADW-2 | 2026-08-31 01:06:35 | 48.27365 | 17.19362 | 253° | 5km/h | 25949m | 4.7m/s | -51.5°C | 5.9% | 0hPa | 2.5V | 00:00:00 | 00:00:00 | 00:00:00 | |
| OE5MMP-10 | 2026-08-31 01:06:29 | 48.27369 | 17.19379 | 212° | 5km/h | 25917m | 4.6m/s | -51.6°C | 6.0% | 0hPa | 2.5V | 00:00:00 | 01:47:36 | 00:00:00 | |
| HA6NAB-11 | 2026-08-31 01:06:26 | 48.27371 | 17.19382 | 263° | 5km/h | 25906m | 6.6m/s | -51.6°C | 3.1% | 0hPa | 2.5V | 00:00:00 | 00:00:00 | 00:00:00 | |
| S52SK | 2026-08-31 01:06:24 | 48.27370 | 17.19386 | 302° | 5km/h | 25895m | 4.8m/s | -51.6°C | 3.0% | 0hPa | 2.5V | 00:00:00 | 00:00:00 | 00:00:00 | |
| SONDE2-11 | 2026-08-31 01:06:22 | 48.27372 | 17.19389 | 180° | 4km/h | 25872m | 4.5m/s | -51.6°C | 2.9% | -1.0hPa | 2.5V | 00:00:00 | 00:00:00 | 00:00:00 | |
| ATIDSZ-14 | 2026-08-31 01:06:20 | 48.27372 | 17.19390 | 182° | 5km/h | 25872m | 4.5m/s | -51.5°C | 3.0% | 0hPa | 2.5V | 00:00:00 | 00:00:00 | 00:00:00 | |
| OE5MMP-10 | 2026-08-31 01:06:19 | 48.27373 | 17.19389 | 80° | 4km/h | 25861m | 5.6m/s | -51.5°C | 6.0% | 0hPa | 2.5V | 00:00:00 | 01:47:26 | 00:00:00 | |
| S52SK | 2026-08-31 01:06:18 | 48.27373 | 17.19389 | 0° | 0km/h | 25861m | 5.7m/s | -51.5°C | 3.0% | 0hPa | 2.4V | 00:00:00 | 00:00:00 | 00:00:00 | |
| PG1ADW-2 | 2026-08-31 01:06:15 | 48.27376 | 17.19387 | 169° | 9km/h | 25839m | 4.2m/s | -51.5°C | 6.0% | 0hPa | 2.4V | 00:00:00 | 00:00:00 | 08:30:00 | |
| OE5MMP-10 | 2026-08-31 01:06:09 | 48.27382 | 17.19389 | 191° | 9km/h | 25808m | 6.2m/s | -51.5°C | 5.9% | 0hPa | 2.4V | 00:00:00 | 01:47:16 | 00:00:00 | |
| OE3OSB-13 | 2026-08-31 01:06:07 | 48.27389 | 17.19387 | 148° | 7km/h | 25792m | 5.7m/s | -51.5°C | 2.9% | -1.0hPa | 2.4V | 00:00:00 | 00:00:00 | 00:00:00 | |
| HA6NAB-11 | 2026-08-31 01:06:03 | 48.27391 | 17.19383 | 109° | 7km/h | 25781m | 5.1m/s | -51.5°C | 3.0% | 0hPa | 2.4V | 00:00:00 | 00:00:00 | 00:00:00 | |
| SONDE2-11 | 2026-08-31 01:05:51 | 48.27390 | 17.19349 | 52° | 5km/h | 25705m | 5.5m/s | -52.0°C | 2.9% | -1.0hPa | 2.4V | 00:00:00 | 00:00:00 | 00:00:00 | |
| OE5MMP-10 | 2026-08-31 01:05:49 | 48.27389 | 17.19346 | 54° | 15km/h | 25700m | 4.3m/s | -52.0°C | 6.0% | 0hPa | 2.4V | 00:00:00 | 01:46:56 | 00:00:00 | |
| OE5MMP-10 | 2026-08-31 01:05:39 | 48.27361 | 17.19314 | 73° | 15km/h | 25646m | 4.8m/s | -52.4°C | 6.2% | 0hPa | 2.4V | 00:00:00 | 01:46:46 | 00:00:00 | |
| ATIDSZ-14 | 2026-08-31 01:05:38 | 48.27361 | 17.19314 | 73° | 7km/h | 25646m | 4.9m/s | -52.5°C | 3.2% | 0hPa | 2.4V | 00:00:00 | 00:00:00 | 00:00:00 | |
| OE3OSB-13 | 2026-08-31 01:05:36 | 48.27351 | 17.19306 | 10° | 18km/h | 25625m | 4.6m/s | -52.6°C | 3.1% | -1.0hPa | 2.4V | 00:00:00 | 00:00:00 | 00:00:00 | |
| PG1ADW-2 | 2026-08-31 01:05:35 | 48.27351 | 17.19306 | 11° | 13km/h | 25625m | 4.5m/s | -52.5°C | 6.3% | 0hPa | 2.4V | 00:00:00 | 00:00:00 | 00:00:00 | |
| OE3JTB-15 | 2026-08-31 01:05:31 | 48.27332 | 17.19299 | 11° | 11km/h | 25604m | 4.6m/s | -52.6°C | 6.4% | 0hPa | 2.4V | 00:00:00 | 01:46:38 | 00:00:00 | |
| OE5MMP-10 | 2026-08-31 01:05:29 | 48.27323 | 17.19299 | 348° | 11km/h | 25593m | 5.2m/s | -52.6°C | 6.5% | 0hPa | 2.4V | 00:00:00 | 01:46:36 | 00:00:00 | |
| HA6NAB-11 | 2026-08-31 01:05:22 | 48.27312 | 17.19309 | 270° | 5km/h | 25563m | 4.5m/s | -52.5°C | 3.3% | 0hPa | 2.4V | 00:00:00 | 00:00:00 | 00:00:00 | |
| SONDE2-11 | 2026-08-31 01:05:20 | 48.27305 | 17.19322 | 334° | 13km/h | 25542m | 4.6m/s | -52.4°C | 3.2% | -1.0hPa | 2.4V | 00:00:00 | 00:00:00 | 00:00:00 | |
| OE5MMP-10 | 2026-08-31 01:05:19 | 48.27305 | 17.19321 | 335° | 7km/h | 25542m | 4.5m/s | -52.3°C | 6.5% | 0hPa | 2.4V | 00:00:00 | 01:46:26 | 08:30:00 | |
| ATIDSZ-14 | 2026-08-31 01:05:17 | 48.27301 | 17.19323 | 351° | 11km/h | 25537m | 6.3m/s | -52.3°C | 3.3% | 0hPa | 2.5V | 00:00:00 | 00:00:00 | 00:00:00 | |
| HA6NAB-11 | 2026-08-31 01:05:16 | 48.27299 | 17.19323 | 11° | 9km/h | 25531m | 5.5m/s | -52.3°C | 3.3% | 0hPa | 2.5V | 00:00:00 | 00:00:00 | 00:00:00 | |
| PG1ADW-2 | 2026-08-31 01:05:15 | 48.27296 | 17.19321 | 6° | 11km/h | 25520m | 4.9m/s | -52.2°C | 6.5% | 0hPa | 2.5V | 00:00:00 | 00:00:00 | 00:00:00 | |
| HA6NAB-11 | 2026-08-31 01:05:10 | 48.27293 | 17.19328 | 254° | 7km/h | 25500m | 6.3m/s | -52.1°C | 3.3% | 0hPa | 2.4V | 00:00:00 | 00:00:00 | 00:00:00 | |
| OE5MMP-10 | 2026-08-31 01:05:09 | 48.27296 | 17.19332 | 234° | 9km/h | 25488m | 4.7m/s | -52.0°C | 6.3% | 0hPa | 2.4V | 00:00:00 | 01:46:16 | 00:00:00 | |
| OE3OSB-13 | 2026-08-31 01:05:05 | 48.27288 | 17.19346 | 352° | 11km/h | 25461m | 6.5m/s | -51.9°C | 3.2% | -1.0hPa | 2.4V | 00:00:00 | 00:00:00 | 00:00:00 | |
| OE5DXL-15 | 2026-08-31 01:05:03 | 48.27285 | 17.19345 | 18° | 9km/h | 25455m | 5.0m/s | -51.8°C | 6.2% | 0hPa | 2.4V | 00:00:00 | 00:00:00 | 00:00:00 | |
| SONDE2-11 | 2026-08-31 01:04:49 | 48.27287 | 17.19390 | 261° | 5km/h | 25377m | 4.7m/s | -51.9°C | 3.2% | -1.0hPa | 2.5V | 00:00:00 | 00:00:00 | 00:00:00 | |
| OE5MMP-10 | 2026-08-31 01:04:39 | 48.27291 | 17.19418 | 277° | 9km/h | 25329m | 6.0m/s | -51.8°C | 6.2% | 0hPa | 2.5V | 00:00:00 | 01:45:46 | 00:00:00 | |
| ATIDSZ-14 | 2026-08-31 01:04:36 | 48.27289 | 17.19427 | 290° | 11km/h | 25319m | 4.7m/s | -51.8°C | 3.2% | 0hPa | 2.5V | 00:00:00 | 00:00:00 | 00:00:00 | |
| OE3OSB-13 | 2026-08-31 01:04:34 | 48.27291 | 17.19439 | 246° | 5km/h | 25298m | 4.5m/s | -51.8°C | 3.1% | -1.0hPa | 2.5V | 00:00:00 | 00:00:00 | 00:00:00 | |
| OE3JTB-15 | 2026-08-31 01:04:33 | 48.27291 | 17.19438 | 247° | 20km/h | 25298m | 4.5m/s | -51.8°C | 6.1% | 0hPa | 2.5V | 00:00:00 | 00:00:00 | 00:00:00 | |
| OE5DXL-15 | 2026-08-31 01:04:31 | 48.27291 | 17.19444 | 286° | 20km/h | 25287m | 4.9m/s | -51.9°C | 6.2% | 0hPa | 2.5V | 00:00:00 | 00:00:00 | 00:00:00 | |
| OE5MMP-10 | 2026-08-31 01:04:29 | 48.27290 | 17.19453 | 265° | 22km/h | 25277m | 6.2m/s | -52.0°C | 6.3% | 0hPa | 2.5V | 00:00:00 | 01:45:36 | 00:00:00 | |
| OE5MMP-10 | 2026-08-31 01:04:19 | 48.27298 | 17.19534 | 268° | 24km/h | 25221m | 5.9m/s | -52.1°C | 6.3% | 0hPa | 2.5V | 00:00:00 | 01:45:26 | 00:00:00 | |
| SONDE2-11 | 2026-08-31 01:04:17 | 48.27299 | 17.19553 | 264° | 24km/h | 25211m | 3.8m/s | -52.3°C | 3.2% | -1.0hPa | 2.4V | 00:00:00 | 00:00:00 | 00:00:00 | |
| ATIDSZ-14 | 2026-08-31 01:04:16 | 48.27299 | 17.19553 | 266° | 26km/h | 25211m | 3.8m/s | -52.3°C | 3.3% | 0hPa | 2.4V | 00:00:00 | 00:00:00 | 00:00:00 | |
| PG1ADW-2 | 2026-08-31 01:04:11 | 48.27307 | 17.19608 | 275° | 20km/h | 25178m | 3.9m/s | -52.4°C | 6.5% | 0hPa | 2.4V | 00:00:00 | 00:00:00 | 00:00:00 | |
| OE5MMP-10 | 2026-08-31 01:04:09 | 48.27306 | 17.19623 | 268° | 15km/h | 25169m | 5.8m/s | -52.5°C | 6.6% | 0hPa | 2.4V | 00:00:00 | 01:45:16 | 00:00:00 | |
| OE3JTB-15 | 2026-08-31 01:04:04 | 48.27307 | 17.19659 | 275° | 16km/h | 25142m | 4.2m/s | -52.4°C | 6.6% | 0hPa | 2.4V | 00:00:00 | 01:45:11 | 00:00:00 | |
| OE3OSB-13 | 2026-08-31 01:04:02 | 48.27307 | 17.19670 | 272° | 7km/h | 25131m | 5.7m/s | -52.5°C | 3.4% | -1.0hPa | 2.4V | 00:00:00 | 00:00:00 | 00:00:00 | |
| SONDE2-11 | 2026-08-31 01:03:46 | 48.27292 | 17.19754 | 343° | 7km/h | 25048m | 5.3m/s | -52.0°C | 3.3% | -1.0hPa | 2.4V | 00:00:00 | 00:00:00 | 00:00:00 | |
| GYPAP8-17 | 2026-08-31 01:03:42 | 48.27282 | 17.19760 | 326° | 18km/h | 25031m | 5.0m/s | -51.9°C | 3.4% | 0hPa | 2.4V | 00:00:00 | 00:00:00 | 00:00:00 | |
| OE5MMP-10 | 2026-08-31 01:03:39 | 48.27275 | 17.19779 | 269° | 15km/h | 25009m | 5.2m/s | -51.9°C | 6.4% | 0hPa | 2.4V | 00:00:00 | 01:44:46 | 00:00:00 | |
| HA6NAB-11 | 2026-08-31 01:03:36 | 48.27274 | 17.19790 | 285° | 16km/h | 24998m | 6.2m/s | -51.9°C | 3.4% | 0hPa | 2.4V | 00:00:00 | 00:00:00 | 00:00:00 | |
| OE3JTB-15 | 2026-08-31 01:03:35 | 48.27271 | 17.19802 | 296° | 15km/h | 24988m | 4.1m/s | -51.9°C | 6.4% | 0hPa | 2.4V | 00:00:00 | 00:00:00 | 00:00:00 | |
| PG1ADW-2 | 2026-08-31 01:03:31 | 48.27266 | 17.19819 | 298° | 13km/h | 24966m | 6.6m/s | -51.9°C | 6.4% | 0hPa | 2.5V | 00:00:00 | 00:00:00 | 00:00:00 | |
| OE5MMP-10 | 2026-08-31 01:03:29 | 48.27261 | 17.19829 | 310° | 13km/h | 24956m | 4.4m/s | -52.0°C | 6.5% | 0hPa | 2.5V | 00:00:00 | 01:44:36 | 00:00:00 | |
| HA6NAB-11 | 2026-08-31 01:03:26 | 48.27257 | 17.19836 | 335° | 9km/h | 24944m | 5.9m/s | -52.2°C | 3.4% | 0hPa | 2.5V | 00:00:00 | 00:00:00 | 00:00:00 | |
| S52SK | 2026-08-31 01:03:25 | 48.27254 | 17.19837 | 350° | 9km/h | 24938m | 5.2m/s | -52.2°C | 3.4% | 0hPa | 2.5V | 00:00:00 | 00:00:00 | 00:00:00 | |
| HA6NAB-11 | 2026-08-31 01:03:21 | 48.27242 | 17.19844 | 337° | 16km/h | 24917m | 4.8m/s | -52.1°C | 3.4% | 0hPa | 2.5V | 00:00:00 | 00:00:00 | 00:00:00 | |
| OE5MMP-10 | 2026-08-31 01:03:19 | 48.27233 | 17.19848 | 342° | 13km/h | 24900m | 4.8m/s | -52.1°C | 6.4% | 0hPa | 2.5V | 00:00:00 | 01:44:26 | 00:00:00 | |
| SONDE2-11 | 2026-08-31 01:03:15 | 48.27223 | 17.19865 | 291° | 18km/h | 24878m | 3.9m/s | -52.3°C | 3.4% | -1.0hPa | 2.5V | 00:00:00 | 00:00:00 | 00:00:00 | |
| DO3MHA-11 | 2026-08-31 01:03:14 | 48.27221 | 17.19871 | 288° | 40km/h | 24873m | 5.3m/s | -52.3°C | 6.5% | 0hPa | 2.5V | 00:00:00 | 01:44:21 | 08:30:00 | |
| PG1ADW-2 | 2026-08-31 01:03:11 | 48.27220 | 17.19883 | 289° | 13km/h | 24857m | 4.0m/s | -52.4°C | 6.6% | 0hPa | 2.4V | 00:00:00 | 00:00:00 | 00:00:00 | |
| OE5MMP-10 | 2026-08-31 01:03:09 | 48.27217 | 17.19891 | 301° | 16km/h | 24846m | 6.2m/s | -52.4°C | 6.6% | 0hPa | 2.4V | 00:00:00 | 01:44:16 | 00:00:00 | |
| OE3JTB-15 | 2026-08-31 01:03:06 | 48.27207 | 17.19912 | 300° | 13km/h | 24824m | 5.6m/s | -52.5°C | 6.6% | 0hPa | 2.4V | 00:00:00 | 00:00:00 | 00:00:00 | |
| OE3OSB-13 | 2026-08-31 01:03:00 | 48.27213 | 17.19935 | 223° | 18km/h | 24798m | 4.5m/s | -52.5°C | 3.4% | -1.0hPa | 2.4V | 00:00:00 | 00:00:00 | 00:00:00 | |
| OE5MMP-10 | 2026-08-31 01:02:59 | 48.27217 | 17.19939 | 208° | 13km/h | 24792m | 6.6m/s | -52.4°C | 6.6% | 0hPa | 2.4V | 00:00:00 | 01:44:06 | 00:00:00 | |
| ATIDSZ-14 | 2026-08-31 01:02:54 | 48.27232 | 17.19949 | 230° | 13km/h | 24769m | 5.9m/s | -52.4°C | 3.5% | 0hPa | 2.4V | 00:00:00 | 00:00:00 | 00:00:00 | |
| OE5MMP-10 | 2026-08-31 01:02:49 | 48.27233 | 17.19966 | 253° | 13km/h | 24737m | 6.2m/s | -52.4°C | 6.6% | 0hPa | 2.4V | 00:00:00 | 01:43:56 | 00:00:00 | |
| SONDE2-11 | 2026-08-31 01:02:44 | 48.27244 | 17.19981 | 178° | 13km/h | 24708m | 5.6m/s | -52.4°C | 3.4% | -1.0hPa | 2.4V | 00:00:00 | 00:00:00 | 00:00:00 | |
| OE5MMP-10 | 2026-08-31 01:02:39 | 48.27258 | 17.19985 | 195° | 11km/h | 24680m | 6.6m/s | -52.3°C | 6.5% | 0hPa | 2.4V | 00:00:00 | 01:43:46 | 00:00:00 | |
| OE3JTB-15 | 2026-08-31 01:02:37 | 48.27267 | 17.19999 | 252° | 9km/h | 24653m | 3.8m/s | -52.5°C | 6.5% | 0hPa | 2.4V | 00:00:00 | 01:43:41 | 00:00:00 | |
| ATIDSZ-14 | 2026-08-31 01:02:33 | 48.27267 | 17.19999 | 252° | 11km/h | 24653m | 3.9m/s | -52.6°C | 3.5% | 0hPa | 2.4V | 00:00:00 | 00:00:00 | 00:00:00 | |
| OE5MMP-10 | 2026-08-31 01:02:29 | 48.27278 | 17.20006 | 200° | 7km/h | 24625m | 5.7m/s | -52.6°C | 6.6% | 0hPa | 2.4V | 00:00:00 | 01:43:36 | 00:00:00 | |
| PG1ADW-2 | 2026-08-31 01:02:25 | 48.27286 | 17.20009 | 173° | 4km/h | 24603m | 5.1m/s | -52.8°C | 6.6% | 0hPa | 2.4V | 00:00:00 | 01:43:32 | 08:30:00 | |
| OE5MMP-10 | 2026-08-31 01:02:19 | 48.27283 | 17.20026 | 289° | 5km/h | 24569m | 5.4m/s | -52.9°C | 6.6% | 0hPa | 2.4V | 00:00:00 | 01:43:26 | 08:30:00 | |
| SONDE2-11 | 2026-08-31 01:02:13 | 48.27277 | 17.20045 | 333° | 2km/h | 24538m | 6.3m/s | -53.2°C | 3.4% | -1.0hPa | 2.5V | 00:00:00 | 00:00:00 | 00:00:00 | |
| OE5MMP-10 | 2026-08-31 01:02:09 | 48.27275 | 17.20044 | 300° | 9km/h | 24516m | 5.7m/s | -53.4°C | 6.8% | 0hPa | 2.5V | 00:00:00 | 01:43:16 | 00:00:00 | |
| PG1ADW-2 | 2026-08-31 01:02:02 | 48.27277 | 17.20070 | 253° | 7km/h | 24478m | 4.2m/s | -53.5°C | 6.9% | 0hPa | 2.5V | 00:00:00 | 00:00:00 | 00:00:00 | |
| OE5DXL-15 | 2026-08-31 01:01:59 | 48.27283 | 17.20077 | 179° | 7km/h | 24462m | 5.2m/s | -53.6°C | 6.9% | 0hPa | 2.5V | 00:00:00 | 00:00:00 | 00:00:00 | |
| OE5MMP-10 | 2026-08-31 01:01:58 | 48.27286 | 17.20076 | 175° | 9km/h | 24457m | 4.6m/s | -53.5°C | 6.9% | 0hPa | 2.4V | 00:00:00 | 01:43:05 | 00:00:00 | |
| HA6NAB-11 | 2026-08-31 01:01:57 | 48.27286 | 17.20076 | 176° | 15km/h | 24457m | 4.6m/s | -53.6°C | 3.6% | 0hPa | 2.4V | 00:00:00 | 00:00:00 | 00:00:00 | |
| ATIDSZ-14 | 2026-08-31 01:01:53 | 48.27299 | 17.20078 | 187° | 7km/h | 24435m | 5.8m/s | -53.6°C | 3.7% | 0hPa | 2.4V | 00:00:00 | 00:00:00 | 00:00:00 | |
| HA6NAB-11 | 2026-08-31 01:01:51 | 48.27301 | 17.20078 | 47° | 2km/h | 24423m | 5.1m/s | -53.6°C | 3.7% | 0hPa | 2.4V | 00:00:00 | 00:00:00 | 00:00:00 | |
| OE5MMP-10 | 2026-08-31 01:01:48 | 48.27295 | 17.20081 | 318° | 4km/h | 24401m | 3.9m/s | -53.6°C | 6.8% | 0hPa | 2.4V | 00:00:00 | 01:42:55 | 00:00:00 | |
| S52SK | 2026-08-31 01:01:46 | 48.27295 | 17.20082 | 337° | 4km/h | 24396m | 6.4m/s | -53.6°C | 3.6% | 0hPa | 2.5V | 00:00:00 | 00:00:00 | 00:00:00 | |
| HA6NAB-11 | 2026-08-31 01:01:45 | 48.27294 | 17.20083 | 0° | 0km/h | 24390m | 5.3m/s | -53.6°C | 3.6% | 0hPa | 2.5V | 00:00:00 | 00:00:00 | 00:00:00 | |
| SONDE2-11 | 2026-08-31 01:01:42 | 48.27295 | 17.20086 | 278° | 5km/h | 24370m | 5.1m/s | 0°C | -1.0% | -1.0hPa | 2.5V | 00:00:00 | 00:00:00 | 00:00:00 | |
| HA6NAB-11 | 2026-08-31 01:01:39 | 48.27294 | 17.20089 | 3° | 5km/h | 24360m | 5.4m/s | -53.9°C | 3.7% | 0hPa | 2.5V | 00:00:00 | 00:00:00 | 00:00:00 | |
| OE5MMP-10 | 2026-08-31 01:01:38 | 48.27291 | 17.20086 | 42° | 11km/h | 24349m | 4.3m/s | -53.9°C | 7.0% | 0hPa | 2.5V | 00:00:00 | 01:42:45 | 00:00:00 | |
| HA6NAB-11 | 2026-08-31 01:01:33 | 48.27284 | 17.20080 | 36° | 11km/h | 24327m | 6.6m/s | -53.9°C | 3.7% | 0hPa | 2.5V | 00:00:00 | 00:00:00 | 00:00:00 | |
| ATIDSZ-14 | 2026-08-31 01:01:32 | 48.27282 | 17.20077 | 30° | 13km/h | 24321m | 5.6m/s | -53.9°C | 3.7% | 0hPa | 2.5V | 00:00:00 | 00:00:00 | 00:00:00 | |
| OE5DXL-15 | 2026-08-31 01:01:29 | 48.27269 | 17.20077 | 338° | 13km/h | 24297m | 5.1m/s | -53.8°C | 6.9% | 0hPa | 2.5V | 00:00:00 | 00:00:00 | 00:00:00 | |
| OE5MMP-10 | 2026-08-31 01:01:28 | 48.27266 | 17.20078 | 353° | 9km/h | 24292m | 6.0m/s | -53.8°C | 6.9% | 0hPa | 2.5V | 00:00:00 | 01:42:35 | 00:00:00 | |
| OE3OSB-13 | 2026-08-31 01:01:27 | 48.27263 | 17.20078 | 3° | 13km/h | 24286m | 6.0m/s | -53.9°C | 3.5% | -1.0hPa | 2.5V | 00:00:00 | 00:00:00 | 00:00:00 | |
| OE5MMP-10 | 2026-08-31 01:01:18 | 48.27245 | 17.20075 | 326° | 13km/h | 24236m | 6.3m/s | -54.0°C | 7.0% | 0hPa | 2.5V | 00:00:00 | 01:42:25 | 00:00:00 | |
| ATIDSZ-14 | 2026-08-31 01:01:11 | 48.27227 | 17.20090 | 359° | 15km/h | 24204m | 4.8m/s | -54.1°C | 3.7% | 0hPa | 2.5V | 00:00:00 | 00:00:00 | 00:00:00 | |
| OE5MMP-10 | 2026-08-31 01:01:08 | 48.27216 | 17.20091 | 355° | 15km/h | 24182m | 6.1m/s | -54.1°C | 7.1% | 0hPa | 2.5V | 00:00:00 | 01:42:15 | 00:00:00 | |
| OE3JTB-15 | 2026-08-31 01:01:04 | 48.27200 | 17.20102 | 298° | 11km/h | 24154m | 5.2m/s | -54.3°C | 7.1% | 0hPa | 2.5V | 00:00:00 | 01:42:10 | 00:00:00 | |
| OE3OSB-13 | 2026-08-31 01:00:57 | 48.27185 | 17.20134 | 291° | 13km/h | 24115m | 4.7m/s | -54.5°C | 3.8% | -1.0hPa | 2.5V | 00:00:00 | 00:00:00 | 00:00:00 | |
| ATIDSZ-14 | 2026-08-31 01:00:50 | 48.27181 | 17.20146 | 214° | 7km/h | 24089m | 6.1m/s | -54.5°C | 3.9% | 0hPa | 2.5V | 00:00:00 | 00:00:00 | 00:00:00 | |
| OE5MMP-10 | 2026-08-31 01:00:48 | 48.27190 | 17.20153 | 210° | 7km/h | 24073m | 4.5m/s | -54.4°C | 7.1% | 0hPa | 2.5V | 00:00:00 | 01:41:55 | 08:30:00 | |
| PG1ADW-2 | 2026-08-31 01:00:42 | 48.27188 | 17.20159 | 341° | 7km/h | 24040m | 4.8m/s | -54.4°C | 7.2% | 0hPa | 2.5V | 00:00:00 | 00:00:00 | 00:00:00 | |
| OE5MMP-10 | 2026-08-31 01:00:38 | 48.27183 | 17.20156 | 89° | 9km/h | 24018m | 4.9m/s | -54.5°C | 7.2% | 0hPa | 2.4V | 00:00:00 | 01:41:45 | 00:00:00 | |
| OE3JTB-15 | 2026-08-31 01:00:35 | 48.27188 | 17.20150 | 174° | 13km/h | 24002m | 5.3m/s | -54.5°C | 7.3% | 0hPa | 2.4V | 00:00:00 | 00:00:00 | 08:30:00 | |
| OE5DXL-15 | 2026-08-31 01:00:29 | 48.27191 | 17.20145 | 14° | 13km/h | 23971m | 5.9m/s | -54.4°C | 7.4% | 0hPa | 2.4V | 00:00:00 | 00:00:00 | 00:00:00 | |
| OE5MMP-10 | 2026-08-31 01:00:28 | 48.27189 | 17.20145 | 15° | 11km/h | 23965m | 5.4m/s | -54.4°C | 7.4% | 0hPa | 2.5V | 00:00:00 | 01:41:35 | 00:00:00 | |
| GYPAP8-17 | 2026-08-31 01:00:27 | 48.27189 | 17.20145 | 15° | 11km/h | 23965m | 5.4m/s | -54.5°C | 4.0% | 0hPa | 2.5V | 00:00:00 | 00:00:00 | 00:00:00 | |
| PG1ADW-2 | 2026-08-31 01:00:22 | 48.27181 | 17.20126 | 109° | 9km/h | 23933m | 5.6m/s | -54.4°C | 7.4% | 0hPa | 2.5V | 00:00:00 | 01:41:29 | 00:00:00 | |
| OE5MMP-10 | 2026-08-31 01:00:18 | 48.27182 | 17.20112 | 66° | 16km/h | 23912m | 4.6m/s | -54.4°C | 7.5% | 0hPa | 2.5V | 00:00:00 | 01:41:25 | 00:00:00 | |
| S52SK | 2026-08-31 01:00:16 | 48.27177 | 17.20103 | 33° | 16km/h | 23902m | 6.3m/s | -54.4°C | 4.0% | 0hPa | 2.4V | 00:00:00 | 00:00:00 | 00:00:00 | |
| ATIDSZ-14 | 2026-08-31 01:00:09 | 48.27153 | 17.20081 | 51° | 15km/h | 23870m | 4.2m/s | -54.3°C | 4.0% | 0hPa | 2.4V | 00:00:00 | 00:00:00 | 00:00:00 | |
| OE5MMP-10 | 2026-08-31 01:00:08 | 48.27148 | 17.20075 | 25° | 13km/h | 23859m | 5.8m/s | -54.2°C | 7.4% | 0hPa | 2.4V | 00:00:00 | 01:41:15 | 00:00:00 | |
| OE5DRO-10 | 2026-08-31 01:00:06 | 48.27145 | 17.20074 | 25° | 11km/h | 23848m | 5.6m/s | -54.2°C | 7.3% | 0hPa | 2.4V | 00:00:00 | 00:00:00 | 08:30:00 | |
| OE3OSB-13 | 2026-08-31 00:59:54 | 48.27105 | 17.20057 | 0° | 5km/h | 23777m | 6.3m/s | -54.2°C | 3.8% | -1.0hPa | 2.4V | 00:00:00 | 00:00:00 | 00:00:00 | |
| HA6NAB-11 | 2026-08-31 00:59:50 | 48.27102 | 17.20058 | 343° | 7km/h | 23767m | 4.0m/s | -54.2°C | 3.9% | 0hPa | 2.4V | 00:00:00 | 00:00:00 | 00:00:00 | |
| ATIDSZ-14 | 2026-08-31 00:59:49 | 48.27097 | 17.20062 | 324° | 16km/h | 23755m | 6.3m/s | -54.2°C | 3.9% | 0hPa | 2.4V | 00:00:00 | 00:00:00 | 00:00:00 | |
| OE5MMP-10 | 2026-08-31 00:59:48 | 48.27093 | 17.20066 | 327° | 15km/h | 23750m | 4.2m/s | -54.1°C | 7.2% | 0hPa | 2.4V | 00:00:00 | 01:40:55 | 00:00:00 | |
| OE5DRO-10 | 2026-08-31 00:59:47 | 48.27090 | 17.20069 | 338° | 15km/h | 23745m | 6.2m/s | -54.1°C | 7.1% | 0hPa | 2.4V | 00:00:00 | 00:00:00 | 00:00:00 | |
| HA6NAB-11 | 2026-08-31 00:59:40 | 48.27068 | 17.20080 | 320° | 11km/h | 23714m | 4.1m/s | -54.3°C | 3.9% | 0hPa | 2.4V | 00:00:00 | 00:00:00 | 00:00:00 | |
| OE5MMP-10 | 2026-08-31 00:59:38 | 48.27065 | 17.20087 | 277° | 16km/h | 23699m | 4.6m/s | -54.4°C | 7.4% | 0hPa | 2.4V | 00:00:00 | 01:40:45 | 00:00:00 | |
| OE3JTB-15 | 2026-08-31 00:59:37 | 48.27064 | 17.20090 | 281° | 16km/h | 23694m | 4.4m/s | -54.4°C | 7.3% | 0hPa | 2.4V | 00:00:00 | 01:40:44 | 00:00:00 | |
| HA6NAB-11 | 2026-08-31 00:59:34 | 48.27062 | 17.20102 | 298° | 20km/h | 23682m | 5.4m/s | -54.5°C | 4.0% | 0hPa | 2.4V | 00:00:00 | 00:00:00 | 00:00:00 | |
| OE5DXL-15 | 2026-08-31 00:59:29 | 48.27043 | 17.20135 | 310° | 16km/h | 23651m | 5.3m/s | -54.6°C | 7.5% | 0hPa | 2.4V | 00:00:00 | 00:00:00 | 00:00:00 | |
| OE5MMP-10 | 2026-08-31 00:59:28 | 48.27041 | 17.20141 | 301° | 13km/h | 23645m | 4.4m/s | -54.6°C | 7.5% | 0hPa | 2.4V | 00:00:00 | 01:40:35 | 00:00:00 | |
| ATIDSZ-14 | 2026-08-31 00:59:27 | 48.27041 | 17.20141 | 302° | 18km/h | 23645m | 4.4m/s | -54.7°C | 4.1% | 0hPa | 2.4V | 00:00:00 | 00:00:00 | 00:00:00 | |
| OE5DRO-10 | 2026-08-31 00:59:26 | 48.27038 | 17.20151 | 273° | 16km/h | 23634m | 6.1m/s | -54.7°C | 7.6% | 0hPa | 2.4V | 00:00:00 | 00:00:00 | 00:00:00 | |
| OE3OSB-13 | 2026-08-31 00:59:23 | 48.27040 | 17.20165 | 267° | 13km/h | 23619m | 5.8m/s | -54.7°C | 4.0% | -1.0hPa | 2.4V | 00:00:00 | 00:00:00 | 00:00:00 | |
| PG1ADW-2 | 2026-08-31 00:59:22 | 48.27039 | 17.20171 | 279° | 16km/h | 23613m | 4.6m/s | -54.7°C | 7.6% | 0hPa | 2.4V | 00:00:00 | 00:00:00 | 00:00:00 | |
| OE5MMP-10 | 2026-08-31 00:59:18 | 48.27034 | 17.20187 | 311° | 18km/h | 23593m | 4.5m/s | -54.7°C | 7.7% | 0hPa | 2.4V | 00:00:00 | 01:40:25 | 08:30:00 | |
| OE3JTB-15 | 2026-08-31 00:59:08 | 48.27003 | 17.20243 | 297° | 13km/h | 23539m | 5.5m/s | -54.4°C | 7.5% | 0hPa | 2.4V | 00:00:00 | 00:00:00 | 00:00:00 | |
| ATIDSZ-14 | 2026-08-31 00:59:07 | 48.27003 | 17.20243 | 298° | 18km/h | 23539m | 5.5m/s | -54.4°C | 4.1% | 0hPa | 2.5V | 00:00:00 | 00:00:00 | 00:00:00 | |
| OE5MMP-10 | 2026-08-31 00:59:06 | 48.27000 | 17.20253 | 302° | 16km/h | 23528m | 4.9m/s | -54.3°C | 7.5% | 0hPa | 2.5V | 00:00:00 | 01:40:13 | 00:00:00 | |
| OE3OSB-13 | 2026-08-31 00:58:52 | 48.26975 | 17.20320 | 261° | 5km/h | 23449m | 5.9m/s | -54.5°C | 4.0% | -1.0hPa | 2.5V | 00:00:00 | 00:00:00 | 00:00:00 | |
| OE5MMP-10 | 2026-08-31 00:58:47 | 48.26971 | 17.20329 | 337° | 11km/h | 23423m | 3.9m/s | -54.5°C | 7.5% | 0hPa | 2.5V | 00:00:00 | 01:39:53 | 00:00:00 | |
| S52SK | 2026-08-31 00:58:46 | 48.26971 | 17.20329 | 337° | 9km/h | 23423m | 4.0m/s | -54.5°C | 4.1% | 0hPa | 2.4V | 00:00:00 | 00:00:00 | 00:00:00 | |
| PG1ADW-2 | 2026-08-31 00:58:41 | 48.26960 | 17.20345 | 322° | 9km/h | 23396m | 5.0m/s | -54.4°C | 7.5% | 0hPa | 2.4V | 00:00:00 | 01:39:48 | 00:00:00 | |
| OE3JTB-15 | 2026-08-31 00:58:39 | 48.26956 | 17.20350 | 314° | 9km/h | 23386m | 5.9m/s | -54.4°C | 7.5% | 0hPa | 2.4V | 00:00:00 | 00:00:00 | 00:00:00 | |
| OE5MMP-10 | 2026-08-31 00:58:35 | 48.26949 | 17.20360 | 345° | 9km/h | 23364m | 5.6m/s | -54.4°C | 7.5% | 0hPa | 2.4V | 00:00:00 | 01:39:42 | 00:00:00 | |
| OE5DXL-15 | 2026-08-31 00:58:29 | 48.26936 | 17.20368 | 342° | 7km/h | 23332m | 5.5m/s | -54.4°C | 7.4% | 0hPa | 2.4V | 00:00:00 | 00:00:00 | 00:00:00 | |
| OE5DRO-10 | 2026-08-31 00:58:28 | 48.26935 | 17.20369 | 339° | 9km/h | 23327m | 4.4m/s | -54.4°C | 7.5% | 0hPa | 2.4V | 00:00:00 | 00:00:00 | 00:00:00 | |
| ATIDSZ-14 | 2026-08-31 00:58:26 | 48.26934 | 17.20370 | 307° | 9km/h | 23322m | 5.5m/s | -54.5°C | 4.1% | 0hPa | 2.4V | 00:00:00 | 00:00:00 | 00:00:00 | |
| OE5MMP-10 | 2026-08-31 00:58:25 | 48.26932 | 17.20378 | 285° | 9km/h | 23311m | 4.2m/s | -54.5°C | 7.5% | 0hPa | 2.4V | 00:00:00 | 01:39:32 | 00:00:00 | |
| OE3OSB-13 | 2026-08-31 00:58:21 | 48.26932 | 17.20397 | 263° | 9km/h | 23285m | 5.5m/s | -54.6°C | 4.0% | -1.0hPa | 2.4V | 00:00:00 | 00:00:00 | 00:00:00 | |
| OE5MMP-10 | 2026-08-31 00:58:15 | 48.26935 | 17.20407 | 206° | 7km/h | 23261m | 3.9m/s | -54.7°C | 7.5% | 0hPa | 2.4V | 00:00:00 | 01:39:22 | 00:00:00 | |
| OE5DRO-10 | 2026-08-31 00:58:09 | 48.26939 | 17.20423 | 263° | 4km/h | 23231m | 4.3m/s | -54.9°C | 7.6% | 0hPa | 2.4V | 00:00:00 | 00:00:00 | 00:00:00 | |
| OE5MMP-10 | 2026-08-31 00:58:05 | 48.26939 | 17.20433 | 212° | 4km/h | 23210m | 6.1m/s | -54.9°C | 7.7% | 0hPa | 2.4V | 00:00:00 | 01:39:12 | 00:00:00 | |
| OE3OSB-13 | 2026-08-31 00:57:50 | 48.26942 | 17.20439 | 219° | 7km/h | 23129m | 5.5m/s | -55.1°C | 4.2% | -1.0hPa | 2.4V | 00:00:00 | 00:00:00 | 00:00:00 | |
| OE5MMP-10 | 2026-08-31 00:57:45 | 48.26946 | 17.20453 | 270° | 9km/h | 23108m | 5.5m/s | -55.0°C | 7.8% | 0hPa | 2.4V | 00:00:00 | 01:38:52 | 08:30:00 | |
| PG1ADW-2 | 2026-08-31 00:57:41 | 48.26941 | 17.20465 | 308° | 13km/h | 23086m | 4.3m/s | -54.9°C | 7.8% | 0hPa | 2.4V | 00:00:00 | 00:00:00 | 00:00:00 | |
| OE5MMP-10 | 2026-08-31 00:57:35 | 48.26933 | 17.20479 | 259° | 15km/h | 23056m | 4.6m/s | -55.0°C | 7.8% | 0hPa | 2.4V | 00:00:00 | 01:38:42 | 00:00:00 | |
| OE5DRO-10 | 2026-08-31 00:57:29 | 48.26932 | 17.20503 | 317° | 18km/h | 23027m | 5.0m/s | -54.9°C | 7.8% | 0hPa | 2.4V | 00:00:00 | 00:00:00 | 00:00:00 | |
| OE5MMP-10 | 2026-08-31 00:57:25 | 48.26919 | 17.20521 | 315° | 16km/h | 23006m | 5.2m/s | -54.9°C | 7.8% | 0hPa | 2.4V | 00:00:00 | 01:38:32 | 00:00:00 | |
| PG1ADW-2 | 2026-08-31 00:57:21 | 48.26914 | 17.20542 | 280° | 18km/h | 22987m | 5.0m/s | -55.0°C | 7.8% | 0hPa | 2.4V | 00:00:00 | 01:38:28 | 00:00:00 | |
| OE3OSB-13 | 2026-08-31 00:57:17 | 48.26908 | 17.20567 | 295° | 18km/h | 22966m | 5.3m/s | -55.0°C | 4.2% | -1.0hPa | 2.4V | 00:00:00 | 00:00:00 | 00:00:00 | |
| OE5MMP-10 | 2026-08-31 00:57:15 | 48.26904 | 17.20581 | 298° | 18km/h | 22956m | 4.7m/s | -54.9°C | 7.8% | 0hPa | 2.4V | 00:00:00 | 01:38:22 | 00:00:00 | |
| OE3JTB-15 | 2026-08-31 00:57:12 | 48.26893 | 17.20606 | 293° | 18km/h | 22931m | 5.5m/s | -55.0°C | 7.8% | 0hPa | 2.4V | 00:00:00 | 00:00:00 | 00:00:00 | |
| OE5DRO-10 | 2026-08-31 00:57:06 | 48.26889 | 17.20637 | 275° | 16km/h | 22910m | 4.9m/s | -55.1°C | 7.9% | 0hPa | 2.4V | 00:00:00 | 00:00:00 | 08:30:00 | |
| OE5MMP-10 | 2026-08-31 00:57:05 | 48.26889 | 17.20645 | 273° | 20km/h | 22905m | 4.3m/s | -55.0°C | 7.9% | 0hPa | 2.5V | 00:00:00 | 01:38:12 | 00:00:00 | |
| ATIDSZ-14 | 2026-08-31 00:57:04 | 48.26889 | 17.20645 | 274° | 20km/h | 22905m | 4.3m/s | -55.1°C | 4.4% | 0hPa | 2.5V | 00:00:00 | 00:00:00 | 00:00:00 | |
| OE3OSB-13 | 2026-08-31 00:56:47 | 48.26888 | 17.20777 | 241° | 20km/h | 22811m | 4.9m/s | -54.9°C | 4.4% | -1.0hPa | 2.5V | 00:00:00 | 00:00:00 | 00:00:00 | |
| OE5MMP-10 | 2026-08-31 00:56:45 | 48.26890 | 17.20784 | 240° | 18km/h | 22807m | 3.4m/s | -54.9°C | 8.1% | 0hPa | 2.5V | 00:00:00 | 01:37:52 | 00:00:00 | |
| S52SK | 2026-08-31 00:56:44 | 48.26890 | 17.20784 | 240° | 24km/h | 22807m | 3.5m/s | -54.9°C | 4.6% | 0hPa | 2.5V | 00:00:00 | 00:00:00 | 00:00:00 | |
| ATIDSZ-14 | 2026-08-31 00:56:43 | 48.26893 | 17.20792 | 245° | 24km/h | 22802m | 5.6m/s | -54.9°C | 4.6% | 0hPa | 2.5V | 00:00:00 | 00:00:00 | 00:00:00 | |
| PG1ADW-2 | 2026-08-31 00:56:41 | 48.26901 | 17.20814 | 237° | 15km/h | 22788m | 5.3m/s | -54.8°C | 8.2% | 0hPa | 2.5V | 00:00:00 | 00:00:00 | 00:00:00 | |
| OE5MMP-10 | 2026-08-31 00:56:35 | 48.26909 | 17.20845 | 256° | 15km/h | 22758m | 4.5m/s | -54.6°C | 8.1% | 0hPa | 2.5V | 00:00:00 | 01:37:42 | 00:00:00 | |
| OE5DXL-15 | 2026-08-31 00:56:31 | 48.26928 | 17.20874 | 233° | 18km/h | 22723m | 5.2m/s | -54.5°C | 8.1% | 0hPa | 2.5V | 00:00:00 | 00:00:00 | 00:00:00 | |
| HA6NAB-11 | 2026-08-31 00:56:25 | 48.26934 | 17.20884 | 225° | 15km/h | 22712m | 4.9m/s | -54.5°C | 4.6% | 0hPa | 2.5V | 00:00:00 | 00:00:00 | 00:00:00 | |
| OE5MMP-10 | 2026-08-31 00:56:24 | 48.26938 | 17.20892 | 251° | 16km/h | 22702m | 6.2m/s | -54.4°C | 7.9% | 0hPa | 2.5V | 00:00:00 | 01:37:31 | 00:00:00 | |
| ATIDSZ-14 | 2026-08-31 00:56:22 | 48.26939 | 17.20897 | 261° | 15km/h | 22696m | 5.2m/s | -54.5°C | 4.5% | 0hPa | 2.5V | 00:00:00 | 00:00:00 | 00:00:00 | |
| PG1ADW-2 | 2026-08-31 00:56:21 | 48.26941 | 17.20908 | 250° | 18km/h | 22686m | 5.6m/s | -54.4°C | 8.0% | 0hPa | 2.5V | 00:00:00 | 00:00:00 | 00:00:00 | |
| HA6NAB-11 | 2026-08-31 00:56:19 | 48.26943 | 17.20913 | 233° | 15km/h | 22680m | 5.5m/s | -54.4°C | 4.5% | 0hPa | 2.4V | 00:00:00 | 00:00:00 | 00:00:00 | |
| OE5DRO-10 | 2026-08-31 00:56:15 | 48.26959 | 17.20940 | 226° | 18km/h | 22655m | 4.2m/s | -54.2°C | 8.1% | 0hPa | 2.4V | 00:00:00 | 00:00:00 | 00:00:00 | |
| HA6NAB-11 | 2026-08-31 00:56:14 | 48.26962 | 17.20944 | 213° | 18km/h | 22650m | 5.7m/s | -54.3°C | 4.6% | 0hPa | 2.4V | 00:00:00 | 00:00:00 | 00:00:00 | |
| GYPAP8-17 | 2026-08-31 00:56:11 | 48.26971 | 17.20950 | 198° | 18km/h | 22640m | 3.9m/s | -54.3°C | 4.6% | 0hPa | 2.4V | 00:00:00 | 00:00:00 | 00:00:00 | |
| HA6NAB-11 | 2026-08-31 00:56:07 | 48.26985 | 17.20964 | 223° | 16km/h | 22620m | 4.7m/s | -54.2°C | 4.6% | 0hPa | 2.4V | 00:00:00 | 00:00:00 | 00:00:00 | |
| OE5MMP-10 | 2026-08-31 00:56:04 | 48.26998 | 17.20981 | 230° | 20km/h | 22598m | 6.1m/s | -54.2°C | 8.1% | 0hPa | 2.4V | 00:00:00 | 01:37:11 | 00:00:00 | |
| PG1ADW-2 | 2026-08-31 00:56:01 | 48.27009 | 17.20998 | 212° | 18km/h | 22584m | 6.3m/s | -54.2°C | 8.2% | 0hPa | 2.4V | 00:00:00 | 01:37:08 | 00:00:00 | |
| OE5DRO-10 | 2026-08-31 00:55:56 | 48.27030 | 17.21012 | 212° | 13km/h | 22558m | 3.8m/s | -54.1°C | 8.2% | 0hPa | 2.4V | 00:00:00 | 00:00:00 | 00:00:00 | |
| OE5MMP-10 | 2026-08-31 00:55:54 | 48.27038 | 17.21018 | 198° | 20km/h | 22548m | 6.2m/s | -54.0°C | 8.1% | 0hPa | 2.4V | 00:00:00 | 01:37:01 | 00:00:00 | |
| OE3OSB-13 | 2026-08-31 00:55:45 | 48.27084 | 17.21049 | 200° | 7km/h | 22497m | 6.1m/s | -53.9°C | 4.5% | -1.0hPa | 2.4V | 00:00:00 | 00:00:00 | 00:00:00 | |
| OE5MMP-10 | 2026-08-31 00:55:44 | 48.27084 | 17.21049 | 201° | 11km/h | 22497m | 6.0m/s | -53.8°C | 8.1% | 0hPa | 2.4V | 00:00:00 | 01:36:51 | 00:00:00 | |
| PG1ADW-2 | 2026-08-31 00:55:41 | 48.27091 | 17.21053 | 197° | 13km/h | 22481m | 5.9m/s | -53.8°C | 8.1% | 0hPa | 2.4V | 00:00:00 | 00:00:00 | 00:00:00 | |
| OE3JTB-15 | 2026-08-31 00:55:40 | 48.27104 | 17.21059 | 202° | 11km/h | 22467m | 5.4m/s | -53.7°C | 8.0% | 0hPa | 2.4V | 00:00:00 | 00:00:00 | 00:00:00 | |
| S52SK | 2026-08-31 00:55:27 | 48.27143 | 17.21077 | 158° | 11km/h | 22409m | 5.6m/s | -53.6°C | 4.7% | 0hPa | 2.4V | 00:00:00 | 00:00:00 | 00:00:00 | |
| PG1ADW-2 | 2026-08-31 00:55:21 | 48.27154 | 17.21074 | 161° | 9km/h | 22378m | 6.1m/s | -53.5°C | 8.1% | 0hPa | 2.4V | 00:00:00 | 00:00:00 | 08:30:00 | |
| S52SK | 2026-08-31 00:55:20 | 48.27155 | 17.21074 | 161° | 11km/h | 22378m | 6.1m/s | -53.6°C | 4.7% | 0hPa | 2.5V | 00:00:00 | 00:00:00 | 00:00:00 | |
| OE5MMP-10 | 2026-08-31 00:55:17 | 48.27166 | 17.21069 | 179° | 9km/h | 22356m | 4.2m/s | -53.4°C | 8.0% | 0hPa | 2.5V | 00:00:00 | 01:36:24 | 00:00:00 | |
| OE3OSB-13 | 2026-08-31 00:55:13 | 48.27177 | 17.21061 | 126° | 7km/h | 22337m | 4.2m/s | -53.5°C | 4.6% | -1.0hPa | 2.5V | 00:00:00 | 00:00:00 | 00:00:00 | |
| OE3JTB-15 | 2026-08-31 00:55:10 | 48.27175 | 17.21051 | 52° | 11km/h | 22310m | 5.0m/s | -53.4°C | 8.0% | 0hPa | 2.5V | 00:00:00 | 01:36:15 | 00:00:00 | |
| OE5MMP-10 | 2026-08-31 00:55:07 | 48.27173 | 17.21049 | 48° | 7km/h | 22306m | 4.4m/s | -53.4°C | 8.0% | 0hPa | 2.5V | 00:00:00 | 01:36:14 | 00:00:00 | |
| GYPAP8-17 | 2026-08-31 00:55:05 | 48.27172 | 17.21048 | 35° | 2km/h | 22300m | 6.2m/s | -53.5°C | 4.7% | 0hPa | 2.5V | 00:00:00 | 00:00:00 | 00:00:00 | |
| PG1ADW-2 | 2026-08-31 00:55:01 | 48.27175 | 17.21039 | 98° | 11km/h | 22274m | 5.2m/s | -53.5°C | 8.0% | 0hPa | 2.5V | 00:00:00 | 00:00:00 | 00:00:00 | |
| ATIDSZ-14 | 2026-08-31 00:55:00 | 48.27174 | 17.21039 | 99° | 15km/h | 22274m | 5.2m/s | -53.5°C | 4.7% | 0hPa | 2.5V | 00:00:00 | 00:00:00 | 00:00:00 | |
| OE5MMP-10 | 2026-08-31 00:54:57 | 48.27175 | 17.21020 | 80° | 9km/h | 22254m | 4.9m/s | -53.5°C | 8.0% | 0hPa | 2.5V | 00:00:00 | 01:36:04 | 00:00:00 | |
| HA6NAB-11 | 2026-08-31 00:54:54 | 48.27173 | 17.21015 | 51° | 9km/h | 22244m | 5.9m/s | -53.5°C | 4.7% | 0hPa | 2.5V | 00:00:00 | 00:00:00 | 00:00:00 | |
| HA6NAB-11 | 2026-08-31 00:54:49 | 48.27164 | 17.21004 | 49° | 7km/h | 22218m | 4.3m/s | -53.6°C | 4.7% | 0hPa | 2.5V | 00:00:00 | 00:00:00 | 00:00:00 | |
| OE5MMP-10 | 2026-08-31 00:54:47 | 48.27160 | 17.20991 | 72° | 15km/h | 22202m | 3.8m/s | -53.6°C | 8.2% | 0hPa | 2.5V | 00:00:00 | 01:35:54 | 00:00:00 | |
| HA6NAB-11 | 2026-08-31 00:54:43 | 48.27154 | 17.20979 | 14° | 11km/h | 22188m | 4.9m/s | -53.6°C | 4.9% | 0hPa | 2.5V | 00:00:00 | 00:00:00 | 00:00:00 | |
| OE3OSB-13 | 2026-08-31 00:54:42 | 48.27147 | 17.20979 | 1° | 15km/h | 22178m | 5.2m/s | -53.6°C | 4.7% | -1.0hPa | 2.5V | 00:00:00 | 00:00:00 | 00:00:00 | |
| PG1ADW-2 | 2026-08-31 00:54:41 | 48.27143 | 17.20979 | 10° | 11km/h | 22173m | 5.4m/s | -53.6°C | 8.3% | 0hPa | 2.5V | 00:00:00 | 01:35:48 | 00:00:00 | |
| ATIDSZ-14 | 2026-08-31 00:54:39 | 48.27139 | 17.20977 | 21° | 15km/h | 22168m | 4.4m/s | -53.6°C | 4.9% | 0hPa | 2.5V | 00:00:00 | 00:00:00 | 00:00:00 | |
| HA6NAB-11 | 2026-08-31 00:54:37 | 48.27134 | 17.20973 | 48° | 7km/h | 22159m | 5.5m/s | -53.6°C | 4.9% | 0hPa | 2.5V | 00:00:00 | 00:00:00 | 00:00:00 | |
| HA6NAB-11 | 2026-08-31 00:54:32 | 48.27126 | 17.20964 | 43° | 15km/h | 22134m | 5.2m/s | -53.6°C | 4.9% | 0hPa | 2.5V | 00:00:00 | 00:00:00 | 00:00:00 | |
| HA6NAB-11 | 2026-08-31 00:54:26 | 48.27112 | 17.20947 | 22° | 13km/h | 22103m | 5.9m/s | -53.6°C | 4.9% | 0hPa | 2.5V | 00:00:00 | 00:00:00 | 00:00:00 | |
| PG1ADW-2 | 2026-08-31 00:54:21 | 48.27095 | 17.20952 | 325° | 16km/h | 22074m | 3.7m/s | -53.4°C | 8.2% | 0hPa | 2.5V | 00:00:00 | 00:00:00 | 00:00:00 | |
| ATIDSZ-14 | 2026-08-31 00:54:18 | 48.27088 | 17.20956 | 359° | 18km/h | 22063m | 5.5m/s | -53.5°C | 4.9% | 0hPa | 2.4V | 00:00:00 | 00:00:00 | 00:00:00 | |
| OE5MMP-10 | 2026-08-31 00:54:12 | 48.27060 | 17.20956 | 341° | 18km/h | 22029m | 5.5m/s | -53.5°C | 8.3% | 0hPa | 2.4V | 00:00:00 | 01:35:19 | 08:30:00 | |
| OE3OSB-13 | 2026-08-31 00:54:11 | 48.27050 | 17.20962 | 339° | 22km/h | 22018m | 4.6m/s | -53.6°C | 4.8% | -1.0hPa | 2.5V | 00:00:00 | 00:00:00 | 00:00:00 | |
| OE5MMP-10 | 2026-08-31 00:54:02 | 48.27016 | 17.20978 | 342° | 20km/h | 21975m | 5.2m/s | -53.4°C | 8.3% | 0hPa | 2.5V | 00:00:00 | 01:35:09 | 00:00:00 | |
| PG1ADW-2 | 2026-08-31 00:54:01 | 48.27012 | 17.20980 | 335° | 18km/h | 21971m | 4.2m/s | -53.5°C | 8.3% | 0hPa | 2.5V | 00:00:00 | 00:00:00 | 00:00:00 | |
| ATIDSZ-14 | 2026-08-31 00:53:57 | 48.26999 | 17.20992 | 322° | 22km/h | 21956m | 4.0m/s | -53.6°C | 4.9% | 0hPa | 2.5V | 00:00:00 | 00:00:00 | 00:00:00 | |
| GYPAP8-17 | 2026-08-31 00:53:55 | 48.26991 | 17.21003 | 306° | 18km/h | 21945m | 5.2m/s | -53.6°C | 5.0% | 0hPa | 2.5V | 00:00:00 | 00:00:00 | 00:00:00 | |
| OE5MMP-10 | 2026-08-31 00:53:51 | 48.26972 | 17.21028 | 334° | 16km/h | 21920m | 5.8m/s | -53.7°C | 8.5% | 0hPa | 2.5V | 00:00:00 | 01:34:58 | 00:00:00 | |
| OE3JTB-15 | 2026-08-31 00:53:43 | 48.26947 | 17.21053 | 310° | 16km/h | 21881m | 4.6m/s | -53.5°C | 8.5% | 0hPa | 2.5V | 00:00:00 | 01:34:50 | 00:00:00 | |
| PG1ADW-2 | 2026-08-31 00:53:41 | 48.26942 | 17.21060 | 316° | 15km/h | 21870m | 5.1m/s | -53.5°C | 8.5% | 0hPa | 2.5V | 00:00:00 | 00:00:00 | 00:00:00 | |
| OE5MMP-10 | 2026-08-31 00:53:40 | 48.26940 | 17.21064 | 317° | 15km/h | 21865m | 3.7m/s | -53.4°C | 8.4% | 0hPa | 2.5V | 00:00:00 | 01:34:47 | 00:00:00 | |
| ATIDSZ-14 | 2026-08-31 00:53:37 | 48.26936 | 17.21071 | 299° | 7km/h | 21855m | 5.3m/s | -53.4°C | 5.0% | 0hPa | 2.4V | 00:00:00 | 00:00:00 | 00:00:00 | |
| OE5MMP-10 | 2026-08-31 00:53:30 | 48.26921 | 17.21114 | 291° | 16km/h | 21815m | 3.9m/s | -53.3°C | 8.2% | 0hPa | 2.4V | 00:00:00 | 01:34:37 | 00:00:00 | |
| S52SK | 2026-08-31 00:53:27 | 48.26917 | 17.21127 | 298° | 20km/h | 21806m | 5.9m/s | -53.4°C | 4.9% | 0hPa | 2.4V | 00:00:00 | 00:00:00 | 00:00:00 | |
| S52SK | 2026-08-31 00:53:22 | 48.26913 | 17.21153 | 268° | 13km/h | 21780m | 4.2m/s | -53.7°C | 4.9% | 0hPa | 2.4V | 00:00:00 | 00:00:00 | 00:00:00 | |
| PG1ADW-2 | 2026-08-31 00:53:21 | 48.26912 | 17.21164 | 284° | 16km/h | 21769m | 4.4m/s | -53.8°C | 8.4% | 0hPa | 2.4V | 00:00:00 | 01:34:28 | 00:00:00 | |
| OE5MMP-10 | 2026-08-31 00:53:20 | 48.26911 | 17.21171 | 285° | 18km/h | 21765m | 4.3m/s | -53.8°C | 8.4% | 0hPa | 2.5V | 00:00:00 | 01:34:27 | 00:00:00 | |
| ATIDSZ-14 | 2026-08-31 00:53:16 | 48.26908 | 17.21196 | 275° | 20km/h | 21751m | 4.8m/s | -53.9°C | 5.1% | 0hPa | 2.5V | 00:00:00 | 00:00:00 | 00:00:00 | |
| HA6NAB-11 | 2026-08-31 00:53:14 | 48.26906 | 17.21209 | 291° | 16km/h | 21742m | 5.5m/s | -53.9°C | 5.0% | 0hPa | 2.5V | 00:00:00 | 00:00:00 | 00:00:00 | |
| OE5MMP-10 | 2026-08-31 00:53:10 | 48.26900 | 17.21239 | 270° | 13km/h | 21715m | 3.9m/s | -53.8°C | 8.4% | 0hPa | 2.5V | 00:00:00 | 01:34:17 | 00:00:00 | |
| OE3OSB-13 | 2026-08-31 00:53:09 | 48.26900 | 17.21250 | 281° | 13km/h | 21705m | 4.7m/s | -53.9°C | 4.9% | -1.0hPa | 2.4V | 00:00:00 | 00:00:00 | 00:00:00 | |
| HA6NAB-11 | 2026-08-31 00:53:03 | 48.26900 | 17.21269 | 264° | 11km/h | 21686m | 4.2m/s | -53.9°C | 4.9% | 0hPa | 2.4V | 00:00:00 | 00:00:00 | 00:00:00 | |
| PG1ADW-2 | 2026-08-31 00:53:01 | 48.26898 | 17.21282 | 298° | 9km/h | 21670m | 4.1m/s | -54.0°C | 8.3% | 0hPa | 2.4V | 00:00:00 | 00:00:00 | 00:00:00 | |
| OE5MMP-10 | 2026-08-31 00:53:00 | 48.26897 | 17.21286 | 292° | 9km/h | 21665m | 5.5m/s | -54.0°C | 8.4% | 0hPa | 2.4V | 00:00:00 | 01:34:07 | 00:00:00 | |
| HA6NAB-11 | 2026-08-31 00:52:59 | 48.26896 | 17.21290 | 282° | 13km/h | 21660m | 5.1m/s | -54.1°C | 5.0% | 0hPa | 2.4V | 00:00:00 | 00:00:00 | 00:00:00 | |
| ATIDSZ-14 | 2026-08-31 00:52:56 | 48.26894 | 17.21299 | 284° | 11km/h | 21650m | 6.0m/s | -54.2°C | 5.1% | 0hPa | 2.4V | 00:00:00 | 00:00:00 | 00:00:00 | |
| HA6NAB-11 | 2026-08-31 00:52:53 | 48.26896 | 17.21308 | 209° | 9km/h | 21630m | 4.9m/s | -54.2°C | 5.0% | 0hPa | 2.4V | 00:00:00 | 00:00:00 | 00:00:00 | |
| OE5MMP-10 | 2026-08-31 00:52:50 | 48.26901 | 17.21312 | 248° | 9km/h | 21615m | 5.3m/s | -54.2°C | 8.3% | 0hPa | 2.4V | 00:00:00 | 01:33:57 | 00:00:00 | |
| HA6NAB-11 | 2026-08-31 00:52:46 | 48.26900 | 17.21322 | 275° | 13km/h | 21601m | 5.3m/s | -54.5°C | 5.0% | 0hPa | 2.4V | 00:00:00 | 00:00:00 | 00:00:00 | |
| OE3JTB-15 | 2026-08-31 00:52:45 | 48.26899 | 17.21340 | 281° | 9km/h | 21581m | 4.9m/s | -54.6°C | 8.6% | 0hPa | 2.4V | 00:00:00 | 00:00:00 | 00:00:00 | |
| PG1ADW-2 | 2026-08-31 00:52:41 | 48.26899 | 17.21345 | 248° | 7km/h | 21572m | 4.8m/s | -54.7°C | 8.6% | 0hPa | 2.4V | 00:00:00 | 00:00:00 | 00:00:00 | |
| OE5MMP-10 | 2026-08-31 00:52:40 | 48.26900 | 17.21349 | 237° | 9km/h | 21567m | 5.7m/s | -54.7°C | 8.6% | 0hPa | 2.4V | 00:00:00 | 01:33:47 | 08:30:00 | |
| OE3OSB-13 | 2026-08-31 00:52:38 | 48.26906 | 17.21358 | 218° | 7km/h | 21554m | 5.5m/s | -54.8°C | 5.1% | -1.0hPa | 2.4V | 00:00:00 | 00:00:00 | 00:00:00 | |
| ATIDSZ-14 | 2026-08-31 00:52:35 | 48.26908 | 17.21360 | 231° | 5km/h | 21548m | 5.1m/s | -54.8°C | 5.2% | 0hPa | 2.4V | 00:00:00 | 00:00:00 | 00:00:00 | |
| OE5MMP-10 | 2026-08-31 00:52:30 | 48.26916 | 17.21373 | 212° | 7km/h | 21521m | 4.8m/s | -55.0°C | 8.8% | 0hPa | 2.4V | 00:00:00 | 01:33:37 | 00:00:00 | |
| PG1ADW-2 | 2026-08-31 00:52:21 | 48.26924 | 17.21384 | 196° | 7km/h | 21477m | 5.5m/s | -55.1°C | 9.0% | 0hPa | 2.4V | 00:00:00 | 00:00:00 | 08:30:00 | |
| OE5MMP-10 | 2026-08-31 00:52:18 | 48.26933 | 17.21387 | 187° | 5km/h | 21463m | 5.6m/s | -55.1°C | 9.0% | 0hPa | 2.4V | 00:00:00 | 01:33:25 | 00:00:00 | |
| OE3JTB-15 | 2026-08-31 00:52:15 | 48.26944 | 17.21387 | 170° | 18km/h | 21434m | 3.7m/s | -55.1°C | 9.1% | 0hPa | 2.4V | 00:00:00 | 01:33:19 | 00:00:00 | |
| OE5MMP-10 | 2026-08-31 00:52:08 | 48.26946 | 17.21384 | 185° | 13km/h | 21414m | 5.3m/s | -55.1°C | 9.0% | 0hPa | 2.4V | 00:00:00 | 01:33:15 | 00:00:00 | |
| OE3OSB-13 | 2026-08-31 00:52:07 | 48.26949 | 17.21383 | 164° | 7km/h | 21405m | 4.7m/s | -55.1°C | 5.3% | -1.0hPa | 2.4V | 00:00:00 | 00:00:00 | 00:00:00 | |
| PG1ADW-2 | 2026-08-31 00:52:01 | 48.26962 | 17.21372 | 153° | 16km/h | 21381m | 3.6m/s | -55.0°C | 9.0% | 0hPa | 2.4V | 00:00:00 | 01:33:08 | 00:00:00 | |
| OE5MMP-10 | 2026-08-31 00:51:58 | 48.26972 | 17.21358 | 125° | 15km/h | 21367m | 4.5m/s | -54.9°C | 9.0% | 0hPa | 2.4V | 00:00:00 | 01:33:05 | 00:00:00 | |
| ATIDSZ-14 | 2026-08-31 00:51:54 | 48.26978 | 17.21344 | 117° | 11km/h | 21352m | 3.9m/s | -55.0°C | 5.5% | 0hPa | 2.4V | 00:00:00 | 00:00:00 | 00:00:00 | |
| OE5MMP-10 | 2026-08-31 00:51:48 | 48.26985 | 17.21307 | 122° | 20km/h | 21320m | 3.8m/s | -54.8°C | 9.1% | 0hPa | 2.4V | 00:00:00 | 01:32:55 | 00:00:00 | |
| OE3JTB-15 | 2026-08-31 00:51:43 | 48.26998 | 17.21265 | 104° | 16km/h | 21290m | 4.2m/s | -54.7°C | 9.0% | 0hPa | 2.4V | 00:00:00 | 00:00:00 | 08:30:00 | |
| PG1ADW-2 | 2026-08-31 00:51:41 | 48.26998 | 17.21260 | 91° | 20km/h | 21286m | 4.4m/s | -54.7°C | 9.0% | 0hPa | 2.5V | 00:00:00 | 00:00:00 | 00:00:00 | |
| OE5MMP-10 | 2026-08-31 00:51:38 | 48.26999 | 17.21240 | 108° | 22km/h | 21272m | 3.5m/s | -54.8°C | 9.0% | 0hPa | 2.5V | 00:00:00 | 01:32:45 | 00:00:00 | |
| OE3OSB-13 | 2026-08-31 00:51:35 | 48.27008 | 17.21220 | 130° | 20km/h | 21257m | 4.8m/s | -54.9°C | 5.3% | -1.0hPa | 2.5V | 00:00:00 | 00:00:00 | 00:00:00 | |
| ATIDSZ-14 | 2026-08-31 00:51:33 | 48.27011 | 17.21214 | 128° | 24km/h | 21252m | 5.3m/s | -55.0°C | 5.5% | 0hPa | 2.5V | 00:00:00 | 00:00:00 | 00:00:00 | |
| OE5MMP-10 | 2026-08-31 00:51:28 | 48.27017 | 17.21164 | 80° | 18km/h | 21224m | 5.2m/s | -55.0°C | 9.1% | 0hPa | 2.5V | 00:00:00 | 01:32:35 | 00:00:00 | |
| HA6NAB-11 | 2026-08-31 00:51:26 | 48.27016 | 17.21155 | 81° | 22km/h | 21219m | 5.1m/s | -55.0°C | 5.6% | 0hPa | 2.5V | 00:00:00 | 00:00:00 | 00:00:00 | |
| PG1ADW-2 | 2026-08-31 00:51:21 | 48.27020 | 17.21116 | 116° | 11km/h | 21188m | 4.8m/s | -54.8°C | 9.1% | 0hPa | 2.5V | 00:00:00 | 00:00:00 | 00:00:00 | |
| HA6NAB-11 | 2026-08-31 00:51:20 | 48.27020 | 17.21116 | 116° | 20km/h | 21188m | 4.8m/s | -54.9°C | 5.5% | 0hPa | 2.5V | 00:00:00 | 00:00:00 | 00:00:00 | |
| OE5MMP-10 | 2026-08-31 00:51:18 | 48.27025 | 17.21099 | 121° | 11km/h | 21175m | 5.2m/s | -54.9°C | 9.1% | 0hPa | 2.5V | 00:00:00 | 01:32:25 | 00:00:00 | |
| HA6NAB-11 | 2026-08-31 00:51:14 | 48.27028 | 17.21085 | 87° | 15km/h | 21160m | 5.9m/s | -54.9°C | 5.6% | 0hPa | 2.5V | 00:00:00 | 00:00:00 | 00:00:00 | |
| ATIDSZ-14 | 2026-08-31 00:51:12 | 48.27026 | 17.21073 | 76° | 15km/h | 21151m | 3.6m/s | -54.9°C | 5.6% | 0hPa | 2.5V | 00:00:00 | 00:00:00 | 00:00:00 | |
| OE5MMP-10 | 2026-08-31 00:51:08 | 48.27023 | 17.21060 | 93° | 9km/h | 21127m | 5.2m/s | -54.9°C | 9.2% | 0hPa | 2.5V | 00:00:00 | 01:32:15 | 08:30:00 | |
| OE3OSB-13 | 2026-08-31 00:51:04 | 48.27028 | 17.21047 | 140° | 5km/h | 21107m | 5.3m/s | -54.9°C | 5.4% | -1.0hPa | 2.4V | 00:00:00 | 00:00:00 | 00:00:00 | |
| HA6NAB-11 | 2026-08-31 00:51:02 | 48.27029 | 17.21045 | 132° | 5km/h | 21103m | 4.3m/s | -54.9°C | 5.6% | 0hPa | 2.4V | 00:00:00 | 00:00:00 | 00:00:00 | |
| PG1ADW-2 | 2026-08-31 00:51:01 | 48.27029 | 17.21042 | 74° | 4km/h | 21094m | 5.6m/s | -54.9°C | 9.1% | 0hPa | 2.4V | 00:00:00 | 00:00:00 | 00:00:00 | |
| OE5MMP-10 | 2026-08-31 00:50:58 | 48.27026 | 17.21032 | 58° | 4km/h | 21078m | 5.8m/s | -54.9°C | 9.1% | 0hPa | 2.4V | 00:00:00 | 01:32:05 | 00:00:00 | |
| HA6NAB-11 | 2026-08-31 00:50:56 | 48.27025 | 17.21030 | 45° | 5km/h | 21073m | 4.9m/s | -55.0°C | 5.5% | 0hPa | 2.4V | 00:00:00 | 00:00:00 | 00:00:00 | |
| ATIDSZ-14 | 2026-08-31 00:50:53 | 48.27023 | 17.21023 | 105° | 2km/h | 21054m | 4.0m/s | -55.1°C | 5.7% | 0hPa | 2.4V | 00:00:00 | 00:00:00 | 00:00:00 | |
| OE5MMP-10 | 2026-08-31 00:50:48 | 48.27025 | 17.21025 | 99° | 4km/h | 21030m | 4.4m/s | -55.2°C | 9.3% | 0hPa | 2.4V | 00:00:00 | 01:31:55 | 00:00:00 | |
| OE3JTB-15 | 2026-08-31 00:50:45 | 48.27023 | 17.21030 | 10° | 7km/h | 21001m | 4.8m/s | -55.3°C | 9.5% | 0hPa | 2.4V | 00:00:00 | 01:31:49 | 00:00:00 | |
| PG1ADW-2 | 2026-08-31 00:50:41 | 48.27022 | 17.21030 | 353° | 5km/h | 20997m | 3.4m/s | -55.3°C | 9.4% | 0hPa | 2.4V | 00:00:00 | 01:31:48 | 00:00:00 | |
| S52SK | 2026-08-31 00:50:40 | 48.27023 | 17.21030 | 353° | 2km/h | 20997m | 3.4m/s | -55.3°C | 5.7% | 0hPa | 2.4V | 00:00:00 | 00:00:00 | 00:00:00 | |
| OE5MMP-10 | 2026-08-31 00:50:38 | 48.27022 | 17.21034 | 258° | 5km/h | 20983m | 3.6m/s | -55.3°C | 9.5% | 0hPa | 2.4V | 00:00:00 | 01:31:45 | 00:00:00 | |
| S52SK | 2026-08-31 00:50:34 | 48.27022 | 17.21034 | 78° | 4km/h | 20968m | 4.2m/s | -55.3°C | 5.8% | 0hPa | 2.4V | 00:00:00 | 00:00:00 | 00:00:00 | |
| OE3OSB-13 | 2026-08-31 00:50:33 | 48.27022 | 17.21032 | 103° | 4km/h | 20958m | 5.3m/s | -55.3°C | 5.6% | -1.0hPa | 2.4V | 00:00:00 | 00:00:00 | 00:00:00 | |
| ATIDSZ-14 | 2026-08-31 00:50:31 | 48.27023 | 17.21031 | 100° | 4km/h | 20954m | 4.4m/s | -55.3°C | 5.8% | 0hPa | 2.4V | 00:00:00 | 00:00:00 | 00:00:00 | |
| OE5MMP-10 | 2026-08-31 00:50:28 | 48.27019 | 17.21021 | 35° | 11km/h | 20934m | 4.6m/s | -55.2°C | 9.3% | 0hPa | 2.4V | 00:00:00 | 01:31:35 | 00:00:00 | |
| PG1ADW-2 | 2026-08-31 00:50:21 | 48.27005 | 17.21011 | 70° | 18km/h | 20901m | 3.8m/s | -55.1°C | 9.4% | 0hPa | 2.4V | 00:00:00 | 00:00:00 | 00:00:00 | |
| OE5MMP-10 | 2026-08-31 00:50:18 | 48.27003 | 17.20994 | 90° | 15km/h | 20886m | 4.4m/s | -55.1°C | 9.4% | 0hPa | 2.4V | 00:00:00 | 01:31:25 | 00:00:00 | |
| OE3JTB-15 | 2026-08-31 00:50:15 | 48.26996 | 17.20966 | 66° | 24km/h | 20861m | 4.2m/s | -55.0°C | 9.2% | 0hPa | 2.4V | 00:00:00 | 00:00:00 | 00:00:00 | |
| ATIDSZ-14 | 2026-08-31 00:50:11 | 48.26995 | 17.20961 | 73° | 13km/h | 20856m | 6.0m/s | -55.1°C | 5.7% | 0hPa | 2.4V | 00:00:00 | 00:00:00 | 00:00:00 | |
| OE5MMP-10 | 2026-08-31 00:50:08 | 48.26992 | 17.20940 | 74° | 26km/h | 20836m | 5.1m/s | -55.0°C | 9.3% | 0hPa | 2.4V | 00:00:00 | 01:31:15 | 00:00:00 | |
| OE3OSB-13 | 2026-08-31 00:50:02 | 48.26980 | 17.20890 | 66° | 27km/h | 20806m | 5.5m/s | -55.3°C | 5.6% | -1.0hPa | 2.4V | 00:00:00 | 00:00:00 | 00:00:00 | |
| PG1ADW-2 | 2026-08-31 00:50:01 | 48.26977 | 17.20880 | 63° | 26km/h | 20800m | 4.5m/s | -55.3°C | 9.5% | 0hPa | 2.4V | 00:00:00 | 00:00:00 | 00:00:00 | |
| OE5MMP-10 | 2026-08-31 00:49:58 | 48.26966 | 17.20854 | 56° | 27km/h | 20786m | 3.7m/s | -55.4°C | 9.7% | 0hPa | 2.4V | 00:00:00 | 01:31:05 | 00:00:00 | |
| OE5MMP-10 | 2026-08-31 00:49:48 | 48.26923 | 17.20775 | 51° | 24km/h | 20738m | 4.0m/s | -55.3°C | 9.8% | 0hPa | 2.4V | 00:00:00 | 01:30:55 | 00:00:00 | |
| HA6NAB-11 | 2026-08-31 00:49:44 | 48.26912 | 17.20753 | 49° | 20km/h | 20723m | 4.4m/s | -55.3°C | 6.1% | 0hPa | 2.4V | 00:00:00 | 00:00:00 | 00:00:00 | |
| PG1ADW-2 | 2026-08-31 00:49:41 | 48.26898 | 17.20725 | 56° | 22km/h | 20703m | 4.7m/s | -55.2°C | 9.7% | 0hPa | 2.4V | 00:00:00 | 00:00:00 | 00:00:00 | |
| OE5MMP-10 | 2026-08-31 00:49:38 | 48.26889 | 17.20705 | 58° | 22km/h | 20688m | 4.0m/s | -55.2°C | 9.7% | 0hPa | 2.4V | 00:00:00 | 01:30:45 | 08:30:00 | |
| HA6NAB-11 | 2026-08-31 00:49:32 | 48.26869 | 17.20674 | 34° | 22km/h | 20664m | 5.7m/s | -55.2°C | 6.0% | 0hPa | 2.4V | 00:00:00 | 00:00:00 | 00:00:00 | |
| OE3OSB-13 | 2026-08-31 00:49:31 | 48.26860 | 17.20666 | 24° | 20km/h | 20653m | 4.6m/s | -55.3°C | 5.9% | -1.0hPa | 2.4V | 00:00:00 | 00:00:00 | 00:00:00 | |
| ATIDSZ-14 | 2026-08-31 00:49:29 | 48.26855 | 17.20663 | 20° | 24km/h | 20648m | 5.8m/s | -55.2°C | 5.9% | 0hPa | 2.4V | 00:00:00 | 00:00:00 | 00:00:00 | |
| OE5MMP-10 | 2026-08-31 00:49:28 | 48.26844 | 17.20656 | 25° | 13km/h | 20637m | 4.2m/s | -55.1°C | 9.6% | 0hPa | 2.4V | 00:00:00 | 01:30:35 | 00:00:00 | |
| HA6NAB-11 | 2026-08-31 00:49:27 | 48.26839 | 17.20653 | 26° | 20km/h | 20632m | 6.2m/s | -55.2°C | 5.9% | 0hPa | 2.4V | 00:00:00 | 00:00:00 | 00:00:00 | |
| PG1ADW-2 | 2026-08-31 00:49:21 | 48.26815 | 17.20626 | 38° | 20km/h | 20602m | 5.5m/s | -55.1°C | 9.7% | 0hPa | 2.4V | 00:00:00 | 01:30:28 | 08:30:00 | |
| HA6NAB-11 | 2026-08-31 00:49:20 | 48.26815 | 17.20626 | 39° | 16km/h | 20602m | 5.6m/s | -55.2°C | 6.0% | 0hPa | 2.5V | 00:00:00 | 00:00:00 | 00:00:00 | |
| HA6NAB-11 | 2026-08-31 00:49:14 | 48.26788 | 17.20618 | 3° | 22km/h | 20574m | 4.4m/s | -55.2°C | 6.0% | 0hPa | 2.5V | 00:00:00 | 00:00:00 | 00:00:00 | |
| ATIDSZ-14 | 2026-08-31 00:49:08 | 48.26758 | 17.20625 | 357° | 24km/h | 20543m | 4.2m/s | -55.3°C | 6.1% | 0hPa | 2.5V | 00:00:00 | 00:00:00 | 00:00:00 | |
| OE3OSB-13 | 2026-08-31 00:49:00 | 48.26715 | 17.20641 | 330° | 16km/h | 20498m | 5.4m/s | -55.3°C | 6.1% | -1.0hPa | 2.5V | 00:00:00 | 00:00:00 | 00:00:00 | |
| ATIDSZ-14 | 2026-08-31 00:48:48 | 48.26674 | 17.20675 | 4° | 13km/h | 20444m | 3.3m/s | -55.3°C | 6.4% | 0hPa | 2.5V | 00:00:00 | 00:00:00 | 00:00:00 | |
| PG1ADW-2 | 2026-08-31 00:48:41 | 48.26648 | 17.20682 | 338° | 13km/h | 20405m | 5.8m/s | -54.9°C | 10.3% | 0hPa | 2.5V | 00:00:00 | 00:00:00 | 00:00:00 | |
| GYPAP8-17 | 2026-08-31 00:48:32 | 48.26629 | 17.20700 | 323° | 13km/h | 20364m | 6.0m/s | -54.8°C | 6.5% | 0hPa | 2.5V | 00:00:00 | 00:00:00 | 00:00:00 | |
| OE3OSB-13 | 2026-08-31 00:48:29 | 48.26617 | 17.20714 | 309° | 13km/h | 20342m | 5.3m/s | -54.7°C | 6.2% | -1.0hPa | 2.5V | 00:00:00 | 00:00:00 | 00:00:00 | |
| ATIDSZ-14 | 2026-08-31 00:48:27 | 48.26615 | 17.20718 | 308° | 15km/h | 20337m | 4.1m/s | -54.6°C | 6.4% | 0hPa | 2.5V | 00:00:00 | 00:00:00 | 00:00:00 | |
| PG1ADW-2 | 2026-08-31 00:48:21 | 48.26604 | 17.20741 | 321° | 11km/h | 20302m | 5.4m/s | -54.3°C | 10.0% | 0hPa | 2.5V | 00:00:00 | 00:00:00 | 00:00:00 | |
| S52SK | 2026-08-31 00:48:14 | 48.26592 | 17.20763 | 315° | 13km/h | 20273m | 5.0m/s | -54.1°C | 6.2% | 0hPa | 2.4V | 00:00:00 | 00:00:00 | 00:00:00 | |
| S52SK | 2026-08-31 00:48:09 | 48.26580 | 17.20787 | 300° | 13km/h | 20245m | 4.6m/s | -54.1°C | 6.1% | 0hPa | 2.4V | 00:00:00 | 00:00:00 | 00:00:00 | |
| ATIDSZ-14 | 2026-08-31 00:48:07 | 48.26578 | 17.20791 | 304° | 13km/h | 20240m | 5.2m/s | -54.1°C | 6.1% | 0hPa | 2.4V | 00:00:00 | 00:00:00 | 00:00:00 | |
| PG1ADW-2 | 2026-08-31 00:48:01 | 48.26568 | 17.20808 | 305° | 11km/h | 20207m | 5.8m/s | -54.3°C | 9.6% | 0hPa | 2.4V | 00:00:00 | 01:29:08 | 00:00:00 | |
| OE5MMP-10 | 2026-08-31 00:47:58 | 48.26561 | 17.20816 | 328° | 11km/h | 20192m | 5.6m/s | -54.4°C | 9.6% | 0hPa | 2.4V | 00:00:00 | 01:29:05 | 00:00:00 | |
| OE5DRO-10 | 2026-08-31 00:47:49 | 48.26534 | 17.20807 | 42° | 16km/h | 20145m | 5.7m/s | -54.8°C | 10.1% | 0hPa | 2.4V | 00:00:00 | 00:00:00 | 00:00:00 | |
| OE5MMP-10 | 2026-08-31 00:47:48 | 48.26532 | 17.20805 | 29° | 9km/h | 20139m | 5.0m/s | -54.8°C | 10.0% | 0hPa | 2.4V | 00:00:00 | 01:28:55 | 00:00:00 | |
| ATIDSZ-14 | 2026-08-31 00:47:47 | 48.26532 | 17.20805 | 30° | 9km/h | 20139m | 5.0m/s | -54.9°C | 6.4% | 0hPa | 2.6V | 00:00:00 | 00:00:00 | 00:00:00 | |
| PG1ADW-2 | 2026-08-31 00:47:41 | 48.26521 | 17.20803 | 4° | 13km/h | 20106m | 4.2m/s | -54.9°C | 10.1% | 0hPa | 2.6V | 00:00:00 | 00:00:00 | 00:00:00 | |
| OE5MMP-10 | 2026-08-31 00:47:38 | 48.26510 | 17.20798 | 37° | 11km/h | 20092m | 4.1m/s | -54.9°C | 10.2% | 0hPa | 2.6V | 00:00:00 | 01:28:45 | 00:00:00 | |
| OE5MMP-10 | 2026-08-31 00:47:28 | 48.26488 | 17.20777 | 17° | 13km/h | 20047m | 4.8m/s | -55.3°C | 10.1% | 0hPa | 2.6V | 00:00:00 | 01:28:35 | 00:00:00 | |
| OE3OSB-13 | 2026-08-31 00:47:27 | 48.26484 | 17.20775 | 17° | 16km/h | 20043m | 3.4m/s | -55.4°C | 6.3% | -1.0hPa | 2.6V | 00:00:00 | 00:00:00 | 00:00:00 | |
| OE3JTB-15 | 2026-08-31 00:47:26 | 48.26473 | 17.20766 | 50° | 11km/h | 20029m | 4.4m/s | -55.4°C | 10.3% | 0hPa | 2.6V | 00:00:00 | 00:00:00 | 00:00:00 | |
| PG1ADW-2 | 2026-08-31 00:47:21 | 48.26471 | 17.20756 | 111° | 9km/h | 20015m | 3.9m/s | -55.4°C | 10.3% | 0hPa | 2.4V | 00:00:00 | 00:00:00 | 00:00:00 | |
| OE5MMP-10 | 2026-08-31 00:47:18 | 48.26471 | 17.20747 | 80° | 7km/h | 20001m | 4.0m/s | -55.4°C | 10.3% | 0hPa | 2.6V | 00:00:00 | 01:28:25 | 00:00:00 | |
| HA6NAB-11 | 2026-08-31 00:47:15 | 48.26469 | 17.20743 | 42° | 7km/h | 19991m | 4.3m/s | -55.4°C | 6.6% | 0hPa | 2.4V | 00:00:00 | 00:00:00 | 00:00:00 | |
| GYPAP8-17 | 2026-08-31 00:47:10 | 48.26464 | 17.20732 | 42° | 7km/h | 19968m | 5.4m/s | -55.4°C | 6.7% | 0hPa | 2.4V | 00:00:00 | 00:00:00 | 00:00:00 | |
| OE5MMP-10 | 2026-08-31 00:47:08 | 48.26460 | 17.20727 | 44° | 11km/h | 19953m | 5.6m/s | -55.3°C | 10.3% | 0hPa | 2.4V | 00:00:00 | 01:28:15 | 00:00:00 | |
| ATIDSZ-14 | 2026-08-31 00:47:06 | 48.26458 | 17.20724 | 66° | 9km/h | 19948m | 4.7m/s | -55.4°C | 6.6% | 0hPa | 2.4V | 00:00:00 | 00:00:00 | 00:00:00 | |
| HA6NAB-11 | 2026-08-31 00:47:04 | 48.26456 | 17.20717 | 57° | 11km/h | 19938m | 5.8m/s | -55.4°C | 6.6% | 0hPa | 2.4V | 00:00:00 | 00:00:00 | 00:00:00 | |
| OE3OSB-13 | 2026-08-31 00:46:56 | 48.26431 | 17.20704 | 349° | 7km/h | 19889m | 4.8m/s | -55.7°C | 6.5% | -1.0hPa | 2.4V | 00:00:00 | 00:00:00 | 00:00:00 | |
| HA6NAB-11 | 2026-08-31 00:46:53 | 48.26429 | 17.20704 | 353° | 5km/h | 19885m | 4.4m/s | -55.7°C | 6.7% | 0hPa | 2.4V | 00:00:00 | 00:00:00 | 00:00:00 | |
| OE5MMP-10 | 2026-08-31 00:46:48 | 48.26416 | 17.20708 | 15° | 15km/h | 19856m | 3.9m/s | -55.6°C | 10.4% | 0hPa | 2.4V | 00:00:00 | 01:27:55 | 08:30:00 | |
| HA6NAB-11 | 2026-08-31 00:46:47 | 48.26416 | 17.20708 | 16° | 13km/h | 19856m | 3.9m/s | -55.7°C | 6.7% | 0hPa | 2.6V | 00:00:00 | 00:00:00 | 00:00:00 | |
| ATIDSZ-14 | 2026-08-31 00:46:46 | 48.26412 | 17.20707 | 15° | 16km/h | 19851m | 5.6m/s | -55.7°C | 6.6% | 0hPa | 2.6V | 00:00:00 | 00:00:00 | 00:00:00 | |
| OE3JTB-15 | 2026-08-31 00:46:45 | 48.26393 | 17.20699 | 28° | 15km/h | 19831m | 4.3m/s | -55.8°C | 10.5% | 0hPa | 2.6V | 00:00:00 | 00:00:00 | 00:00:00 | |
| PG1ADW-2 | 2026-08-31 00:46:41 | 48.26387 | 17.20694 | 26° | 15km/h | 19824m | 5.3m/s | -55.9°C | 10.6% | 0hPa | 2.6V | 00:00:00 | 01:27:48 | 00:00:00 | |
| OE5MMP-10 | 2026-08-31 00:46:38 | 48.26382 | 17.20690 | 61° | 15km/h | 19810m | 4.3m/s | -55.8°C | 10.6% | 0hPa | 2.6V | 00:00:00 | 01:27:45 | 00:00:00 | |
| OE5MMP-10 | 2026-08-31 00:46:28 | 48.26362 | 17.20640 | 67° | 16km/h | 19764m | 3.9m/s | -55.8°C | 10.5% | 0hPa | 2.6V | 00:00:00 | 01:27:35 | 00:00:00 | |
| OE3OSB-13 | 2026-08-31 00:46:25 | 48.26353 | 17.20622 | 56° | 15km/h | 19744m | 5.8m/s | -55.8°C | 6.6% | -1.0hPa | 2.6V | 00:00:00 | 00:00:00 | 00:00:00 | |
| PG1ADW-2 | 2026-08-31 00:46:21 | 48.26344 | 17.20608 | 35° | 16km/h | 19731m | 5.1m/s | -55.8°C | 10.6% | 0hPa | 2.6V | 00:00:00 | 00:00:00 | 08:30:00 | |
| OE5MMP-10 | 2026-08-31 00:46:18 | 48.26331 | 17.20597 | 31° | 15km/h | 19717m | 5.0m/s | -56.0°C | 11.0% | 0hPa | 2.4V | 00:00:00 | 01:27:25 | 00:00:00 | |
| OE3JTB-15 | 2026-08-31 00:46:16 | 48.26324 | 17.20588 | 36° | 16km/h | 19703m | 3.7m/s | -56.1°C | 11.0% | 0hPa | 2.4V | 00:00:00 | 01:27:22 | 00:00:00 | |
| OE5MMP-10 | 2026-08-31 00:46:08 | 48.26301 | 17.20566 | 26° | 18km/h | 19669m | 3.5m/s | -56.0°C | 11.2% | 0hPa | 2.4V | 00:00:00 | 01:27:15 | 00:00:00 | |
| ATIDSZ-14 | 2026-08-31 00:46:04 | 48.26287 | 17.20562 | 4° | 22km/h | 19654m | 3.2m/s | -56.0°C | 7.1% | 0hPa | 2.4V | 00:00:00 | 00:00:00 | 00:00:00 | |
| OE3OSB-13 | 2026-08-31 00:45:53 | 48.26236 | 17.20548 | 22° | 13km/h | 19586m | 5.2m/s | -55.7°C | 6.9% | -1.0hPa | 2.4V | 00:00:00 | 00:00:00 | 00:00:00 | |
| OE5MMP-10 | 2026-08-31 00:45:47 | 48.26224 | 17.20533 | 27° | 15km/h | 19561m | -17.4m/s | -55.6°C | 10.8% | 0hPa | 2.4V | 00:00:00 | 01:26:54 | 00:00:00 | |
| S52SK | 2026-08-31 00:45:46 | 48.26224 | 17.20533 | 28° | 44km/h | 19561m | -17.4m/s | -55.7°C | 7.0% | 0hPa | 2.4V | 00:00:00 | 00:00:00 | 00:00:00 | |
| ATIDSZ-14 | 2026-08-31 00:45:44 | 48.26218 | 17.20525 | 57° | 9km/h | 19561m | 4.3m/s | -55.7°C | 7.0% | 0hPa | 2.4V | 00:00:00 | 00:00:00 | 00:00:00 | |
| PG1ADW-2 | 2026-08-31 00:45:41 | 48.26208 | 17.20514 | 41° | 15km/h | 19544m | 4.6m/s | -55.7°C | 10.9% | 0hPa | 2.4V | 00:00:00 | 00:00:00 | 00:00:00 | |
| S52SK | 2026-08-31 00:45:40 | 48.26208 | 17.20514 | 42° | 11km/h | 19544m | 4.7m/s | -55.8°C | 7.1% | 0hPa | 2.4V | 00:00:00 | 00:00:00 | 00:00:00 | |
| OE5MMP-10 | 2026-08-31 00:45:37 | 48.26202 | 17.20504 | 50° | 15km/h | 19526m | 4.9m/s | -55.9°C | 11.1% | 0hPa | 2.4V | 00:00:00 | 01:26:44 | 00:00:00 | |
| OE5MMP-10 | 2026-08-31 00:45:27 | 48.26187 | 17.20451 | 82° | 18km/h | 19480m | 3.8m/s | -55.8°C | 11.1% | 0hPa | 2.4V | 00:00:00 | 01:26:34 | 00:00:00 | |
| OE5DRO-10 | 2026-08-31 00:45:25 | 48.26185 | 17.20436 | 74° | 18km/h | 19471m | 5.4m/s | -55.8°C | 11.1% | 0hPa | 2.4V | 00:00:00 | 00:00:00 | 00:00:00 | |
| ATIDSZ-14 | 2026-08-31 00:45:24 | 48.26185 | 17.20436 | 74° | 22km/h | 19471m | 5.5m/s | -55.8°C | 7.2% | 0hPa | 2.4V | 00:00:00 | 00:00:00 | 00:00:00 | |
| OE3OSB-13 | 2026-08-31 00:45:22 | 48.26181 | 17.20414 | 85° | 16km/h | 19457m | 5.4m/s | -55.9°C | 7.1% | -1.0hPa | 2.4V | 00:00:00 | 00:00:00 | 00:00:00 | |
| PG1ADW-2 | 2026-08-31 00:45:21 | 48.26180 | 17.20407 | 86° | 18km/h | 19452m | 4.1m/s | -55.8°C | 11.3% | 0hPa | 2.4V | 00:00:00 | 01:26:28 | 00:00:00 | |
| OE5MMP-10 | 2026-08-31 00:45:17 | 48.26174 | 17.20384 | 58° | 16km/h | 19435m | 4.3m/s | -55.7°C | 11.2% | 0hPa | 2.6V | 00:00:00 | 01:26:24 | 08:30:00 | |
| OE5MMP-10 | 2026-08-31 00:45:07 | 48.26149 | 17.20330 | 57° | 22km/h | 19389m | 5.0m/s | -55.7°C | 11.4% | 0hPa | 2.4V | 00:00:00 | 01:26:14 | 00:00:00 | |
| ATIDSZ-14 | 2026-08-31 00:45:03 | 48.26140 | 17.20312 | 43° | 18km/h | 19374m | 5.0m/s | -55.6°C | 7.5% | 0hPa | 2.4V | 00:00:00 | 00:00:00 | 00:00:00 | |
| OE3OSB-13 | 2026-08-31 00:44:51 | 48.26091 | 17.20234 | 28° | 16km/h | 19315m | 4.3m/s | -55.4°C | 7.1% | -1.0hPa | 2.4V | 00:00:00 | 00:00:00 | 00:00:00 | |
| OE5MMP-10 | 2026-08-31 00:44:47 | 48.26071 | 17.20220 | 24° | 26km/h | 19296m | 3.8m/s | -55.5°C | 11.3% | 0hPa | 2.4V | 00:00:00 | 01:25:54 | 00:00:00 | |
| ATIDSZ-14 | 2026-08-31 00:44:43 | 48.26057 | 17.20209 | 36° | 24km/h | 19283m | 4.0m/s | -55.5°C | 7.5% | 0hPa | 2.4V | 00:00:00 | 00:00:00 | 00:00:00 | |
| PG1ADW-2 | 2026-08-31 00:44:41 | 48.26041 | 17.20191 | 45° | 26km/h | 19268m | 5.3m/s | -55.3°C | 11.3% | 0hPa | 2.4V | 00:00:00 | 00:00:00 | 00:00:00 | |
| HA6NAB-11 | 2026-08-31 00:44:37 | 48.26028 | 17.20170 | 51° | 26km/h | 19254m | 5.2m/s | -55.3°C | 7.4% | 0hPa | 2.4V | 00:00:00 | 00:00:00 | 00:00:00 | |
| OE5MMP-10 | 2026-08-31 00:44:36 | 48.26018 | 17.20155 | 48° | 24km/h | 19245m | 3.9m/s | -55.2°C | 11.2% | 0hPa | 2.4V | 00:00:00 | 01:25:43 | 00:00:00 | |
| HA6NAB-11 | 2026-08-31 00:44:33 | 48.26006 | 17.20137 | 46° | 22km/h | 19230m | 3.7m/s | -55.4°C | 7.5% | 0hPa | 2.4V | 00:00:00 | 00:00:00 | 00:00:00 | |
| OE5MMP-10 | 2026-08-31 00:44:26 | 48.25975 | 17.20091 | 50° | 24km/h | 19198m | 3.6m/s | -55.4°C | 11.2% | 0hPa | 2.4V | 00:00:00 | 01:25:33 | 00:00:00 | |
| ATIDSZ-14 | 2026-08-31 00:44:22 | 48.25963 | 17.20068 | 52° | 27km/h | 19184m | 4.2m/s | -55.4°C | 7.5% | 0hPa | 2.4V | 00:00:00 | 00:00:00 | 00:00:00 | |
| PG1ADW-2 | 2026-08-31 00:44:21 | 48.25955 | 17.20052 | 53° | 22km/h | 19174m | 4.8m/s | -55.4°C | 11.4% | 0hPa | 2.4V | 00:00:00 | 00:00:00 | 00:00:00 | |
| OE3OSB-13 | 2026-08-31 00:44:20 | 48.25952 | 17.20045 | 48° | 24km/h | 19169m | 4.0m/s | -55.4°C | 7.3% | -1.0hPa | 2.6V | 00:00:00 | 00:00:00 | 00:00:00 | |
| HA6NAB-11 | 2026-08-31 00:44:15 | 48.25933 | 17.20020 | 40° | 22km/h | 19152m | 5.4m/s | -55.4°C | 7.6% | 0hPa | 2.6V | 00:00:00 | 00:00:00 | 00:00:00 | |
| OE5MMP-10 | 2026-08-31 00:44:14 | 48.25925 | 17.20011 | 40° | 22km/h | 19142m | 4.3m/s | -55.5°C | 11.5% | 0hPa | 2.6V | 00:00:00 | 01:25:21 | 00:00:00 | |
| HA6NAB-11 | 2026-08-31 00:44:09 | 48.25910 | 17.19988 | 58° | 20km/h | 19124m | 5.3m/s | -55.8°C | 7.9% | 0hPa | 2.4V | 00:00:00 | 00:00:00 | 00:00:00 | |
| OE5MMP-10 | 2026-08-31 00:44:03 | 48.25882 | 17.19949 | 29° | 15km/h | 19092m | 4.6m/s | -55.6°C | 12.0% | 0hPa | 2.4V | 00:00:00 | 01:25:10 | 00:00:00 | |
| ATIDSZ-14 | 2026-08-31 00:44:02 | 48.25882 | 17.19949 | 29° | 16km/h | 19092m | 4.6m/s | -55.6°C | 8.0% | 0hPa | 2.4V | 00:00:00 | 00:00:00 | 00:00:00 | |
| OE3OSB-13 | 2026-08-31 00:43:49 | 48.25842 | 17.19915 | 35° | 11km/h | 19025m | 5.7m/s | -55.1°C | 7.7% | -1.0hPa | 2.4V | 00:00:00 | 00:00:00 | 00:00:00 | |
| OE5DRO-10 | 2026-08-31 00:43:46 | 48.25836 | 17.19907 | 40° | 5km/h | 19010m | 4.8m/s | -55.0°C | 11.8% | 0hPa | 2.4V | 00:00:00 | 00:00:00 | 00:00:00 | |
| OE3JTB-15 | 2026-08-31 00:43:45 | 48.25834 | 17.19905 | 26° | 5km/h | 19006m | 4.2m/s | -55.0°C | 11.8% | 0hPa | 2.4V | 00:00:00 | 00:00:00 | 00:00:00 | |
| OE5MMP-10 | 2026-08-31 00:43:42 | 48.25827 | 17.19899 | 30° | 5km/h | 18992m | 3.6m/s | -54.9°C | 11.6% | 0hPa | 2.4V | 00:00:00 | 01:24:49 | 08:30:00 | |
| PG1ADW-2 | 2026-08-31 00:43:41 | 48.25825 | 17.19898 | 5° | 5km/h | 18987m | 6.3m/s | -54.9°C | 11.6% | 0hPa | 2.4V | 00:00:00 | 00:00:00 | 00:00:00 | |
| HA6NAB-11 | 2026-08-31 00:43:36 | 48.25817 | 17.19899 | 347° | 4km/h | 18963m | 4.7m/s | -54.9°C | 7.5% | 0hPa | 2.4V | 00:00:00 | 00:00:00 | 00:00:00 | |
| OE5MMP-10 | 2026-08-31 00:43:32 | 48.25814 | 17.19899 | 25° | 5km/h | 18943m | 4.2m/s | -55.0°C | 11.3% | 0hPa | 2.4V | 00:00:00 | 01:24:39 | 00:00:00 | |
| HA6NAB-11 | 2026-08-31 00:43:29 | 48.25811 | 17.19897 | 5° | 5km/h | 18934m | 5.8m/s | -55.0°C | 7.6% | 0hPa | 2.4V | 00:00:00 | 00:00:00 | 00:00:00 | |
| HA6NAB-11 | 2026-08-31 00:43:23 | 48.25806 | 17.19892 | 96° | 4km/h | 18906m | 4.3m/s | -55.1°C | 7.6% | 0hPa | 2.4V | 00:00:00 | 00:00:00 | 00:00:00 | |
| OE5MMP-10 | 2026-08-31 00:43:22 | 48.25806 | 17.19891 | 138° | 7km/h | 18897m | 4.0m/s | -55.2°C | 11.6% | 0hPa | 2.4V | 00:00:00 | 01:24:29 | 00:00:00 | |
| PG1ADW-2 | 2026-08-31 00:43:21 | 48.25806 | 17.19890 | 91° | 7km/h | 18893m | 4.4m/s | -55.3°C | 11.7% | 0hPa | 2.4V | 00:00:00 | 00:00:00 | 08:30:00 | |
| OE3OSB-13 | 2026-08-31 00:43:18 | 48.25803 | 17.19885 | 32° | 7km/h | 18879m | 4.2m/s | -55.6°C | 7.8% | -1.0hPa | 2.5V | 00:00:00 | 00:00:00 | 00:00:00 | |
| HA6NAB-11 | 2026-08-31 00:43:17 | 48.25803 | 17.19885 | 34° | 9km/h | 18879m | 4.2m/s | -55.5°C | 8.0% | 0hPa | 2.5V | 00:00:00 | 00:00:00 | 00:00:00 | |
| OE3JTB-15 | 2026-08-31 00:43:16 | 48.25801 | 17.19882 | 54° | 9km/h | 18870m | 4.1m/s | -55.5°C | 12.0% | 0hPa | 2.5V | 00:00:00 | 01:24:23 | 00:00:00 | |
| OE5MMP-10 | 2026-08-31 00:43:12 | 48.25803 | 17.19870 | 125° | 7km/h | 18853m | 3.9m/s | -55.6°C | 11.9% | 0hPa | 2.5V | 00:00:00 | 01:24:19 | 00:00:00 | |
| GYPAP8-17 | 2026-08-31 00:43:06 | 48.25806 | 17.19860 | 74° | 7km/h | 18830m | 4.3m/s | -55.7°C | 8.1% | 0hPa | 2.4V | 00:00:00 | 00:00:00 | 00:00:00 | |
| OE5MMP-10 | 2026-08-31 00:43:02 | 48.25806 | 17.19848 | 88° | 13km/h | 18807m | 5.5m/s | -55.5°C | 12.0% | 0hPa | 2.4V | 00:00:00 | 01:24:09 | 00:00:00 | |
| PG1ADW-2 | 2026-08-31 00:43:01 | 48.25806 | 17.19843 | 81° | 15km/h | 18802m | 4.6m/s | -55.6°C | 12.1% | 0hPa | 2.4V | 00:00:00 | 00:00:00 | 00:00:00 | |
| ATIDSZ-14 | 2026-08-31 00:43:00 | 48.25806 | 17.19844 | 81° | 15km/h | 18802m | 4.7m/s | -55.7°C | 8.2% | 0hPa | 2.4V | 00:00:00 | 00:00:00 | 00:00:00 | |
| OE5MMP-10 | 2026-08-31 00:42:48 | 48.25784 | 17.19792 | 46° | 16km/h | 18740m | 5.2m/s | -55.7°C | 12.0% | 0hPa | 2.4V | 00:00:00 | 01:23:55 | 00:00:00 | |
| OE3JTB-15 | 2026-08-31 00:42:47 | 48.25779 | 17.19784 | 51° | 20km/h | 18731m | 3.9m/s | -55.6°C | 12.0% | 0hPa | 2.4V | 00:00:00 | 00:00:00 | 00:00:00 | |
| OE5DRO-10 | 2026-08-31 00:42:42 | 48.25771 | 17.19760 | 73° | 18km/h | 18712m | 5.1m/s | -55.6°C | 11.9% | 0hPa | 2.4V | 00:00:00 | 00:00:00 | 00:00:00 | |
| PG1ADW-2 | 2026-08-31 00:42:41 | 48.25770 | 17.19754 | 81° | 20km/h | 18707m | 5.0m/s | -55.6°C | 11.9% | 0hPa | 2.4V | 00:00:00 | 01:23:48 | 00:00:00 | |
| ATIDSZ-14 | 2026-08-31 00:42:40 | 48.25770 | 17.19754 | 82° | 15km/h | 18707m | 5.0m/s | -55.6°C | 8.1% | 0hPa | 2.4V | 00:00:00 | 00:00:00 | 00:00:00 | |
| OE5MMP-10 | 2026-08-31 00:42:35 | 48.25764 | 17.19719 | 75° | 20km/h | 18678m | 4.1m/s | -55.5°C | 11.8% | 0hPa | 2.4V | 00:00:00 | 01:23:42 | 00:00:00 | |
| OE5MMP-10 | 2026-08-31 00:42:23 | 48.25751 | 17.19624 | 94° | 29km/h | 18622m | 3.8m/s | -56.0°C | 12.1% | 0hPa | 2.5V | 00:00:00 | 01:23:30 | 00:00:00 | |
| PG1ADW-2 | 2026-08-31 00:42:21 | 48.25750 | 17.19605 | 79° | 35km/h | 18613m | 5.0m/s | -56.2°C | 12.4% | 0hPa | 2.5V | 00:00:00 | 00:00:00 | 00:00:00 | |
| ATIDSZ-14 | 2026-08-31 00:42:19 | 48.25748 | 17.19595 | 81° | 29km/h | 18609m | 3.7m/s | -56.4°C | 8.5% | 0hPa | 2.6V | 00:00:00 | 00:00:00 | 00:00:00 | |
| OE3JTB-15 | 2026-08-31 00:42:18 | 48.25741 | 17.19549 | 70° | 31km/h | 18590m | 5.7m/s | -56.6°C | 12.9% | 0hPa | 2.6V | 00:00:00 | 00:00:00 | 00:00:00 | |
| OE3OSB-13 | 2026-08-31 00:42:16 | 48.25741 | 17.19549 | 69° | 35km/h | 18590m | 5.8m/s | -56.7°C | 8.5% | -1.0hPa | 2.6V | 00:00:00 | 00:00:00 | 00:00:00 | |
| OE5MMP-10 | 2026-08-31 00:42:13 | 48.25734 | 17.19508 | 83° | 38km/h | 18576m | 5.2m/s | -56.7°C | 13.0% | 0hPa | 2.6V | 00:00:00 | 01:23:20 | 00:00:00 | |
| OE5DRO-10 | 2026-08-31 00:42:03 | 48.25712 | 17.19380 | 63° | 27km/h | 18532m | 4.2m/s | -56.3°C | 13.0% | 0hPa | 2.6V | 00:00:00 | 00:00:00 | 00:00:00 | |
| OE3OSB-13 | 2026-08-31 00:41:45 | 48.25663 | 17.19193 | 62° | 29km/h | 18451m | 3.8m/s | -55.7°C | 8.6% | -1.0hPa | 2.6V | 00:00:00 | 00:00:00 | 00:00:00 | |
| PG1ADW-2 | 2026-08-31 00:41:41 | 48.25649 | 17.19156 | 65° | 29km/h | 18433m | 4.8m/s | -55.5°C | 12.8% | 0hPa | 2.6V | 00:00:00 | 00:00:00 | 00:00:00 | |
| OE5MMP-10 | 2026-08-31 00:41:40 | 48.25646 | 17.19146 | 69° | 29km/h | 18429m | 4.8m/s | -55.4°C | 12.8% | 0hPa | 2.6V | 00:00:00 | 01:22:47 | 08:30:00 | |
| ATIDSZ-14 | 2026-08-31 00:41:38 | 48.25643 | 17.19135 | 70° | 31km/h | 18424m | 4.0m/s | -55.5°C | 8.8% | 0hPa | 2.5V | 00:00:00 | 00:00:00 | 00:00:00 | |
| S52SK | 2026-08-31 00:41:30 | 48.25612 | 17.19048 | 52° | 27km/h | 18385m | 4.4m/s | -55.2°C | 8.5% | 0hPa | 2.5V | 00:00:00 | 00:00:00 | 00:00:00 | |
| S52SK | 2026-08-31 00:41:23 | 48.25586 | 17.18994 | 62° | 27km/h | 18359m | 4.1m/s | -55.4°C | 8.7% | 0hPa | 2.5V | 00:00:00 | 00:00:00 | 00:00:00 | |
| OE5MMP-10 | 2026-08-31 00:41:21 | 48.25575 | 17.18966 | 60° | 26km/h | 18345m | 3.8m/s | -55.2°C | 12.4% | 0hPa | 2.5V | 00:00:00 | 01:22:28 | 00:00:00 | |
| ATIDSZ-14 | 2026-08-31 00:41:19 | 48.25568 | 17.18950 | 59° | 24km/h | 18336m | 4.1m/s | -55.3°C | 8.5% | 0hPa | 2.5V | 00:00:00 | 00:00:00 | 00:00:00 | |
| OE3OSB-13 | 2026-08-31 00:41:14 | 48.25548 | 17.18901 | 60° | 22km/h | 18308m | 3.7m/s | -55.6°C | 8.5% | -1.0hPa | 2.5V | 00:00:00 | 00:00:00 | 00:00:00 | |
| OE5MMP-10 | 2026-08-31 00:41:11 | 48.25542 | 17.18884 | 66° | 24km/h | 18299m | 4.6m/s | -55.6°C | 12.8% | 0hPa | 2.5V | 00:00:00 | 01:22:18 | 00:00:00 | |
| OE5MMP-10 | 2026-08-31 00:41:01 | 48.25515 | 17.18805 | 77° | 20km/h | 18257m | 4.4m/s | -55.5°C | 12.7% | 0hPa | 2.5V | 00:00:00 | 01:22:08 | 00:00:00 | |
| ATIDSZ-14 | 2026-08-31 00:40:57 | 48.25513 | 17.18779 | 95° | 22km/h | 18244m | 3.6m/s | -55.5°C | 8.7% | 0hPa | 2.5V | 00:00:00 | 00:00:00 | 00:00:00 | |
| OE5MMP-10 | 2026-08-31 00:40:49 | 48.25504 | 17.18716 | 77° | 22km/h | 18206m | 4.6m/s | -55.8°C | 12.7% | 0hPa | 2.5V | 00:00:00 | 01:21:56 | 00:00:00 | |
| GYPAP8-17 | 2026-08-31 00:40:46 | 48.25499 | 17.18691 | 71° | 22km/h | 18192m | 4.5m/s | -55.8°C | 8.7% | 0hPa | 2.5V | 00:00:00 | 00:00:00 | 00:00:00 | |
| OE3OSB-13 | 2026-08-31 00:40:43 | 48.25490 | 17.18662 | 59° | 24km/h | 18173m | 4.5m/s | -55.9°C | 8.6% | -1.0hPa | 2.5V | 00:00:00 | 00:00:00 | 00:00:00 | |
| PG1ADW-2 | 2026-08-31 00:40:41 | 48.25487 | 17.18654 | 63° | 26km/h | 18169m | 3.2m/s | -55.8°C | 12.7% | 0hPa | 2.5V | 00:00:00 | 00:00:00 | 00:00:00 | |
| OE5MMP-10 | 2026-08-31 00:40:39 | 48.25482 | 17.18640 | 67° | 26km/h | 18161m | 4.4m/s | -56.0°C | 12.7% | 0hPa | 2.5V | 00:00:00 | 01:21:46 | 00:00:00 | |
| ATIDSZ-14 | 2026-08-31 00:40:37 | 48.25480 | 17.18633 | 68° | 22km/h | 18156m | 4.5m/s | -56.1°C | 8.7% | 0hPa | 2.5V | 00:00:00 | 00:00:00 | 00:00:00 | |
| OE5MMP-10 | 2026-08-31 00:40:28 | 48.25444 | 17.18556 | 51° | 24km/h | 18112m | 4.6m/s | -56.8°C | 13.5% | 0hPa | 2.5V | 00:00:00 | 01:21:35 | 00:00:00 | |
| GYPAP8-17 | 2026-08-31 00:40:25 | 48.25434 | 17.18538 | 55° | 31km/h | 18103m | 5.5m/s | -56.9°C | 9.3% | 0hPa | 2.6V | 00:00:00 | 00:00:00 | 00:00:00 | |
| PG1ADW-2 | 2026-08-31 00:40:21 | 48.25413 | 17.18496 | 50° | 22km/h | 18080m | 5.1m/s | -56.7°C | 13.5% | 0hPa | 2.6V | 00:00:00 | 00:00:00 | 08:30:00 | |
| ATIDSZ-14 | 2026-08-31 00:40:16 | 48.25393 | 17.18469 | 35° | 24km/h | 18062m | 5.5m/s | -56.6°C | 9.3% | 0hPa | 2.6V | 00:00:00 | 00:00:00 | 00:00:00 | |
| OE3OSB-13 | 2026-08-31 00:40:12 | 48.25366 | 17.18437 | 55° | 18km/h | 18033m | 5.8m/s | -56.7°C | 9.0% | -1.0hPa | 2.6V | 00:00:00 | 00:00:00 | 00:00:00 | |
| GYPAP8-17 | 2026-08-31 00:40:06 | 48.25354 | 17.18406 | 52° | 18km/h | 18011m | 4.6m/s | -56.8°C | 9.4% | 0hPa | 2.6V | 00:00:00 | 00:00:00 | 00:00:00 | |
| PG1ADW-2 | 2026-08-31 00:40:01 | 48.25335 | 17.18382 | 34° | 16km/h | 17989m | 3.6m/s | -56.8°C | 13.7% | 0hPa | 2.6V | 00:00:00 | 01:21:08 | 00:00:00 | |
| OE5DRO-10 | 2026-08-31 00:39:59 | 48.25326 | 17.18375 | 20° | 15km/h | 17979m | 4.3m/s | -56.7°C | 13.7% | 0hPa | 2.6V | 00:00:00 | 00:00:00 | 00:00:00 | |
| HA6NAB-11 | 2026-08-31 00:39:56 | 48.25319 | 17.18370 | 36° | 15km/h | 17971m | 5.7m/s | -56.8°C | 9.5% | 0hPa | 2.6V | 00:00:00 | 00:00:00 | 00:00:00 | |
| ATIDSZ-14 | 2026-08-31 00:39:55 | 48.25316 | 17.18367 | 48° | 15km/h | 17966m | 3.9m/s | -56.7°C | 9.5% | 0hPa | 2.6V | 00:00:00 | 00:00:00 | 00:00:00 | |
| HA6NAB-11 | 2026-08-31 00:39:50 | 48.25305 | 17.18350 | 45° | 13km/h | 17946m | 3.8m/s | -56.8°C | 9.6% | 0hPa | 2.6V | 00:00:00 | 00:00:00 | 00:00:00 | |
| HA6NAB-11 | 2026-08-31 00:39:45 | 48.25288 | 17.18341 | 3° | 18km/h | 17925m | 3.7m/s | -56.7°C | 9.7% | 0hPa | 2.6V | 00:00:00 | 00:00:00 | 00:00:00 | |
| GYPAP8-17 | 2026-08-31 00:39:44 | 48.25283 | 17.18341 | 8° | 20km/h | 17920m | 5.4m/s | -56.6°C | 9.7% | 0hPa | 2.6V | 00:00:00 | 00:00:00 | 00:00:00 | |
| OE3OSB-13 | 2026-08-31 00:39:41 | 48.25260 | 17.18341 | 5° | 15km/h | 17898m | 4.8m/s | -56.5°C | 9.4% | -1.0hPa | 2.6V | 00:00:00 | 00:00:00 | 00:00:00 | |
| OE5DRO-10 | 2026-08-31 00:39:40 | 48.25260 | 17.18340 | 6° | 13km/h | 17898m | 4.7m/s | -56.4°C | 13.8% | 0hPa | 2.6V | 00:00:00 | 00:00:00 | 00:00:00 | |
| HA6NAB-11 | 2026-08-31 00:39:35 | 48.25245 | 17.18332 | 15° | 13km/h | 17875m | 3.6m/s | -56.3°C | 9.6% | 0hPa | 2.5V | 00:00:00 | 00:00:00 | 00:00:00 | |
| HA6NAB-11 | 2026-08-31 00:39:28 | 48.25223 | 17.18327 | 353° | 13km/h | 17848m | 3.9m/s | -56.5°C | 9.8% | 0hPa | 2.5V | 00:00:00 | 00:00:00 | 00:00:00 | |
| PG1ADW-2 | 2026-08-31 00:39:21 | 48.25197 | 17.18327 | 15° | 13km/h | 17811m | 4.1m/s | -56.4°C | 13.5% | 0hPa | 2.5V | 00:00:00 | 00:00:00 | 00:00:00 | |
| S52SK | 2026-08-31 00:39:17 | 48.25182 | 17.18319 | 41° | 15km/h | 17793m | 5.4m/s | -56.4°C | 9.3% | 0hPa | 2.5V | 00:00:00 | 00:00:00 | 00:00:00 | |
| ATIDSZ-14 | 2026-08-31 00:39:14 | 48.25178 | 17.18311 | 53° | 13km/h | 17784m | 3.2m/s | -56.5°C | 9.5% | 0hPa | 2.5V | 00:00:00 | 00:00:00 | 00:00:00 | |
| OE3OSB-13 | 2026-08-31 00:39:10 | 48.25162 | 17.18301 | 21° | 11km/h | 17756m | 3.5m/s | -56.2°C | 8.8% | -1.0hPa | 2.5V | 00:00:00 | 00:00:00 | 00:00:00 | |
| PG1ADW-2 | 2026-08-31 00:39:01 | 48.25139 | 17.18286 | 53° | 16km/h | 17718m | 5.2m/s | -57.5°C | 14.0% | 0hPa | 2.5V | 00:00:00 | 00:00:00 | 00:00:00 | |
| OE3JTB-15 | 2026-08-31 00:39:00 | 48.25134 | 17.18267 | 74° | 16km/h | 17695m | 3.6m/s | -57.8°C | 14.7% | 0hPa | 2.5V | 00:00:00 | 00:00:00 | 00:00:00 | |
| ATIDSZ-14 | 2026-08-31 00:38:54 | 48.25132 | 17.18256 | 73° | 13km/h | 17685m | 4.6m/s | -58.0°C | 10.4% | 0hPa | 2.5V | 00:00:00 | 00:00:00 | 00:00:00 | |
| GYPAP8-17 | 2026-08-31 00:38:43 | 48.25114 | 17.18185 | 82° | 16km/h | 17625m | 5.9m/s | -57.6°C | 10.4% | 0hPa | 2.5V | 00:00:00 | 00:00:00 | 00:00:00 | |
| PG1ADW-2 | 2026-08-31 00:38:41 | 48.25114 | 17.18174 | 87° | 18km/h | 17615m | 4.7m/s | -57.4°C | 14.9% | 0hPa | 2.5V | 00:00:00 | 01:19:48 | 00:00:00 | |
| OE3OSB-13 | 2026-08-31 00:38:38 | 48.25111 | 17.18154 | 77° | 18km/h | 17600m | 3.8m/s | -57.4°C | 10.3% | -1.0hPa | 2.5V | 00:00:00 | 00:00:00 | 00:00:00 | |
| ATIDSZ-14 | 2026-08-31 00:38:33 | 48.25105 | 17.18131 | 59° | 18km/h | 17580m | 5.8m/s | -57.4°C | 10.6% | 0hPa | 2.5V | 00:00:00 | 00:00:00 | 00:00:00 | |
| OE3JTB-15 | 2026-08-31 00:38:21 | 48.25091 | 17.18031 | 76° | 18km/h | 17502m | 4.0m/s | -56.8°C | 14.9% | 0hPa | 2.5V | 00:00:00 | 00:00:00 | 00:00:00 | |
| ATIDSZ-14 | 2026-08-31 00:38:12 | 48.25092 | 17.18003 | 110° | 15km/h | 17477m | 4.2m/s | -56.6°C | 10.4% | 0hPa | 2.5V | 00:00:00 | 00:00:00 | 00:00:00 | |
| OE3OSB-13 | 2026-08-31 00:38:08 | 48.25089 | 17.17966 | 78° | 16km/h | 17448m | 4.4m/s | -56.4°C | 10.1% | -1.0hPa | 2.5V | 00:00:00 | 00:00:00 | 00:00:00 | |
| PG1ADW-2 | 2026-08-31 00:38:01 | 48.25091 | 17.17920 | 115° | 20km/h | 17418m | 4.5m/s | -56.1°C | 14.5% | 0hPa | 2.5V | 00:00:00 | 00:00:00 | 00:00:00 | |
| ATIDSZ-14 | 2026-08-31 00:37:52 | 48.25095 | 17.17869 | 88° | 20km/h | 17379m | 5.3m/s | -56.5°C | 10.4% | 0hPa | 2.5V | 00:00:00 | 00:00:00 | 00:00:00 | |
| HA6NAB-11 | 2026-08-31 00:37:48 | 48.25093 | 17.17834 | 94° | 22km/h | 17361m | 6.0m/s | -56.7°C | 10.7% | 0hPa | 2.5V | 00:00:00 | 00:00:00 | 00:00:00 | |
| HA6NAB-11 | 2026-08-31 00:37:42 | 48.25097 | 17.17786 | 98° | 18km/h | 17331m | 5.3m/s | -56.7°C | 11.0% | 0hPa | 2.5V | 00:00:00 | 00:00:00 | 00:00:00 | |
| PG1ADW-2 | 2026-08-31 00:37:41 | 48.25098 | 17.17772 | 97° | 24km/h | 17322m | 4.5m/s | -56.6°C | 15.5% | 0hPa | 2.5V | 00:00:00 | 00:00:00 | 00:00:00 | |
| OE3OSB-13 | 2026-08-31 00:37:37 | 48.25102 | 17.17722 | 100° | 26km/h | 17298m | 4.7m/s | -56.4°C | 11.0% | -1.0hPa | 2.5V | 00:00:00 | 00:00:00 | 00:00:00 | |
| HA6NAB-11 | 2026-08-31 00:37:32 | 48.25105 | 17.17684 | 102° | 24km/h | 17279m | 5.0m/s | -56.3°C | 11.3% | 0hPa | 2.5V | 00:00:00 | 00:00:00 | 00:00:00 | |
| ATIDSZ-14 | 2026-08-31 00:37:31 | 48.25105 | 17.17684 | 102° | 24km/h | 17279m | 5.0m/s | -56.3°C | 11.3% | 0hPa | 2.5V | 00:00:00 | 00:00:00 | 00:00:00 | |
| HA6NAB-11 | 2026-08-31 00:37:25 | 48.25110 | 17.17634 | 92° | 20km/h | 17248m | 5.6m/s | -56.1°C | 11.3% | 0hPa | 2.5V | 00:00:00 | 00:00:00 | 00:00:00 | |
| PG1ADW-2 | 2026-08-31 00:37:21 | 48.25110 | 17.17590 | 92° | 18km/h | 17222m | 5.6m/s | -55.9°C | 15.8% | 0hPa | 2.5V | 00:00:00 | 01:18:28 | 08:30:00 | |
| HA6NAB-11 | 2026-08-31 00:37:19 | 48.25110 | 17.17580 | 92° | 24km/h | 17217m | 4.5m/s | -55.9°C | 11.5% | 0hPa | 2.5V | 00:00:00 | 00:00:00 | 00:00:00 | |
| S52SK | 2026-08-31 00:37:13 | 48.25110 | 17.17523 | 97° | 15km/h | 17177m | 5.0m/s | -55.5°C | 11.3% | 0hPa | 2.5V | 00:00:00 | 00:00:00 | 00:00:00 | |
| OE5MMP-10 | 2026-08-31 00:37:10 | 48.25112 | 17.17510 | 96° | 18km/h | 17167m | 4.6m/s | 0°C | 0% | 0hPa | 2.5V | 00:00:00 | 01:18:17 | 00:00:00 | |
| GYPAP8-17 | 2026-08-31 00:37:07 | 48.25111 | 17.17496 | 90° | 20km/h | 17157m | 4.1m/s | 0°C | 0% | 0hPa | 2.5V | 00:00:00 | 00:00:00 | 00:00:00 | |
| S52SK | 2026-08-31 00:37:06 | 48.25111 | 17.17488 | 91° | 18km/h | 17153m | 5.5m/s | -55.3°C | 11.3% | 0hPa | 2.5V | 00:00:00 | 00:00:00 | 00:00:00 | |
| OE3OSB-13 | 2026-08-31 00:37:05 | 48.25112 | 17.17474 | 92° | 18km/h | 17143m | 3.9m/s | -55.2°C | 11.2% | -1.0hPa | 2.5V | 00:00:00 | 00:00:00 | 00:00:00 | |
| PG1ADW-2 | 2026-08-31 00:37:01 | 48.25111 | 17.17447 | 87° | 15km/h | 17125m | 5.7m/s | -55.0°C | 15.7% | 0hPa | 2.5V | 00:00:00 | 00:00:00 | 00:00:00 | |
| OE5MMP-10 | 2026-08-31 00:37:00 | 48.25110 | 17.17440 | 90° | 16km/h | 17119m | 3.9m/s | 0°C | 0% | 0hPa | 2.5V | 00:00:00 | 01:18:07 | 00:00:00 | |
| OE5MMP-10 | 2026-08-31 00:36:50 | 48.25111 | 17.17383 | 98° | 16km/h | 17074m | 5.3m/s | 0°C | 0% | 0hPa | 2.5V | 00:00:00 | 01:17:57 | 08:30:00 | |
| ATIDSZ-14 | 2026-08-31 00:36:49 | 48.25110 | 17.17383 | 98° | 15km/h | 17074m | 5.4m/s | -54.6°C | 11.5% | 0hPa | 2.5V | 00:00:00 | 00:00:00 | 00:00:00 | |
| PG1ADW-2 | 2026-08-31 00:36:41 | 48.25105 | 17.17332 | 86° | 13km/h | 17032m | 4.8m/s | -54.2°C | 14.5% | 0hPa | 2.5V | 00:00:00 | 00:00:00 | 00:00:00 | |
| OE5MMP-10 | 2026-08-31 00:36:40 | 48.25105 | 17.17327 | 94° | 15km/h | 17027m | 3.9m/s | 0°C | 0% | 0hPa | 2.5V | 00:00:00 | 01:17:47 | 00:00:00 | |
| OE3OSB-13 | 2026-08-31 00:36:34 | 48.25104 | 17.17296 | 91° | 16km/h | 17001m | 3.7m/s | -54.1°C | 10.3% | -1.0hPa | 2.5V | 00:00:00 | 00:00:00 | 00:00:00 | |
| ATIDSZ-14 | 2026-08-31 00:36:28 | 48.25102 | 17.17270 | 94° | 13km/h | 16979m | 4.5m/s | -54.6°C | 10.9% | 0hPa | 2.5V | 00:00:00 | 00:00:00 | 00:00:00 | |
| OE5MMP-10 | 2026-08-31 00:36:27 | 48.25102 | 17.17262 | 77° | 15km/h | 16971m | 4.3m/s | 0°C | 0% | 0hPa | 2.5V | 00:00:00 | 01:17:34 | 00:00:00 | |
| PG1ADW-2 | 2026-08-31 00:36:21 | 48.25093 | 17.17231 | 70° | 22km/h | 16943m | 4.9m/s | -55.5°C | 15.5% | 0hPa | 2.5V | 00:00:00 | 00:00:00 | 00:00:00 | |
| OE5MMP-10 | 2026-08-31 00:36:17 | 48.25089 | 17.17207 | 86° | 20km/h | 16926m | 3.5m/s | 0°C | 0% | 0hPa | 2.6V | 00:00:00 | 01:17:24 | 00:00:00 | |
| OE5MMP-10 | 2026-08-31 00:36:07 | 48.25087 | 17.17124 | 93° | 27km/h | 16885m | 4.9m/s | 0°C | 0% | 0hPa | 2.6V | 00:00:00 | 01:17:14 | 00:00:00 | |
| OE3OSB-13 | 2026-08-31 00:36:04 | 48.25089 | 17.17081 | 89° | 31km/h | 16867m | 4.2m/s | -55.8°C | 11.0% | -1.0hPa | 2.6V | 00:00:00 | 00:00:00 | 00:00:00 | |
| PG1ADW-2 | 2026-08-31 00:36:01 | 48.25088 | 17.17058 | 92° | 35km/h | 16858m | 4.2m/s | -55.9°C | 15.5% | 0hPa | 2.6V | 00:00:00 | 01:17:08 | 00:00:00 | |
| OE5MMP-10 | 2026-08-31 00:35:57 | 48.25086 | 17.17015 | 81° | 37km/h | 16842m | 3.1m/s | 0°C | 0% | 0hPa | 2.6V | 00:00:00 | 01:17:04 | 00:00:00 | |
| GYPAP8-17 | 2026-08-31 00:35:50 | 48.25084 | 17.16934 | 94° | 46km/h | 16817m | 4.0m/s | 0°C | 0% | 0hPa | 2.6V | 00:00:00 | 00:00:00 | 00:00:00 | |
| OE5MMP-10 | 2026-08-31 00:35:47 | 48.25088 | 17.16873 | 94° | 37km/h | 16801m | 4.1m/s | 0°C | 0% | 0hPa | 2.6V | 00:00:00 | 01:16:54 | 00:00:00 | |
| PG1ADW-2 | 2026-08-31 00:35:41 | 48.25085 | 17.16793 | 89° | 42km/h | 16777m | 4.6m/s | -56.4°C | 16.5% | 0hPa | 2.6V | 00:00:00 | 00:00:00 | 00:00:00 | |
| OE5MMP-10 | 2026-08-31 00:35:36 | 48.25090 | 17.16719 | 96° | 42km/h | 16758m | 4.3m/s | 0°C | 0% | 0hPa | 2.6V | 00:00:00 | 01:16:43 | 00:00:00 | |
| OE3JTB-15 | 2026-08-31 00:35:34 | 48.25090 | 17.16656 | 89° | 38km/h | 16742m | 4.2m/s | -56.5°C | 16.9% | 0hPa | 2.6V | 00:00:00 | 00:00:00 | 00:00:00 | |
| OE3OSB-13 | 2026-08-31 00:35:32 | 48.25090 | 17.16656 | 88° | 37km/h | 16741m | 4.2m/s | -56.5°C | 12.2% | -1.0hPa | 2.5V | 00:00:00 | 00:00:00 | 00:00:00 | |
| ATIDSZ-14 | 2026-08-31 00:35:26 | 48.25087 | 17.16579 | 86° | 44km/h | 16723m | 3.3m/s | -56.5°C | 12.3% | 0hPa | 2.5V | 00:00:00 | 00:00:00 | 00:00:00 | |
| OE5MMP-10 | 2026-08-31 00:35:25 | 48.25084 | 17.16547 | 82° | 38km/h | 16715m | 4.1m/s | 0°C | 0% | 0hPa | 2.5V | 00:00:00 | 01:16:32 | 00:00:00 | |
| PG1ADW-2 | 2026-08-31 00:35:21 | 48.25077 | 17.16467 | 86° | 40km/h | 16694m | 3.9m/s | -56.4°C | 16.6% | 0hPa | 2.5V | 00:00:00 | 00:00:00 | 00:00:00 | |
| ATIDSZ-14 | 2026-08-31 00:35:06 | 48.25055 | 17.16260 | 83° | 38km/h | 16643m | 4.7m/s | -56.3°C | 12.2% | 0hPa | 2.5V | 00:00:00 | 00:00:00 | 00:00:00 | |
| PG1ADW-2 | 2026-08-31 00:35:01 | 48.25052 | 17.16175 | 87° | 35km/h | 16619m | 4.0m/s | -56.3°C | 16.3% | 0hPa | 2.5V | 00:00:00 | 00:00:00 | 00:00:00 | |
| OE5MMP-10 | 2026-08-31 00:34:58 | 48.25049 | 17.16134 | 81° | 33km/h | 16606m | 4.5m/s | 0°C | 0% | 0hPa | 2.5V | 00:00:00 | 01:16:05 | 00:00:00 | |
| S52SK | 2026-08-31 00:34:50 | 48.25040 | 17.16048 | 79° | 33km/h | 16578m | 3.7m/s | -56.8°C | 12.3% | 0hPa | 2.5V | 00:00:00 | 00:00:00 | 00:00:00 | |
| OE5MMP-10 | 2026-08-31 00:34:47 | 48.25031 | 17.15997 | 73° | 38km/h | 16561m | 4.9m/s | 0°C | 0% | 0hPa | 2.5V | 00:00:00 | 01:15:54 | 00:00:00 | |
| ATIDSZ-14 | 2026-08-31 00:34:45 | 48.25028 | 17.15984 | 71° | 37km/h | 16557m | 4.3m/s | -57.2°C | 12.4% | 0hPa | 2.5V | 00:00:00 | 00:00:00 | 00:00:00 | |
| HA6NAB-11 | 2026-08-31 00:34:42 | 48.25019 | 17.15944 | 70° | 38km/h | 16544m | 3.4m/s | -57.3°C | 12.5% | 0hPa | 2.5V | 00:00:00 | 00:00:00 | 00:00:00 | |
| PG1ADW-2 | 2026-08-31 00:34:41 | 48.25012 | 17.15916 | 71° | 37km/h | 16535m | 4.2m/s | -57.3°C | 17.0% | 0hPa | 2.5V | 00:00:00 | 01:15:48 | 00:00:00 | |
| GYPAP8-17 | 2026-08-31 00:34:37 | 48.25003 | 17.15873 | 78° | 38km/h | 16522m | 3.9m/s | 0°C | 0% | 0hPa | 2.5V | 00:00:00 | 00:00:00 | 00:00:00 | |
| HA6NAB-11 | 2026-08-31 00:34:36 | 48.25001 | 17.15859 | 75° | 40km/h | 16518m | 4.9m/s | -57.5°C | 12.6% | 0hPa | 2.5V | 00:00:00 | 00:00:00 | 00:00:00 | |
| OE5MMP-10 | 2026-08-31 00:34:32 | 48.24985 | 17.15788 | 72° | 35km/h | 16497m | 3.4m/s | 0°C | 0% | 0hPa | 2.5V | 00:00:00 | 01:15:39 | 00:00:00 | |
| HA6NAB-11 | 2026-08-31 00:34:31 | 48.24985 | 17.15788 | 72° | 38km/h | 16497m | 3.5m/s | -57.5°C | 12.7% | 0hPa | 2.5V | 00:00:00 | 00:00:00 | 00:00:00 | |
| OE3OSB-13 | 2026-08-31 00:34:30 | 48.24977 | 17.15762 | 65° | 38km/h | 16488m | 3.5m/s | -57.5°C | 12.4% | -1.0hPa | 2.5V | 00:00:00 | 00:00:00 | 00:00:00 | |
| ATIDSZ-14 | 2026-08-31 00:34:25 | 48.24966 | 17.15710 | 73° | 35km/h | 16472m | 5.2m/s | -57.6°C | 12.6% | 0hPa | 2.5V | 00:00:00 | 00:00:00 | 00:00:00 | |
| OE5MMP-10 | 2026-08-31 00:34:22 | 48.24956 | 17.15661 | 73° | 40km/h | 16453m | 3.6m/s | 0°C | 0% | 0hPa | 2.5V | 00:00:00 | 01:15:29 | 00:00:00 | |
| PG1ADW-2 | 2026-08-31 00:34:21 | 48.24953 | 17.15650 | 68° | 31km/h | 16449m | 3.8m/s | -57.9°C | 17.7% | 0hPa | 2.5V | 00:00:00 | 00:00:00 | 08:30:00 | |
| HA6NAB-11 | 2026-08-31 00:34:19 | 48.24950 | 17.15640 | 62° | 29km/h | 16445m | 5.3m/s | -58.1°C | 13.1% | 0hPa | 2.6V | 00:00:00 | 00:00:00 | 00:00:00 | |
| HA6NAB-11 | 2026-08-31 00:34:13 | 48.24936 | 17.15580 | 83° | 35km/h | 16419m | 4.2m/s | -58.2°C | 13.8% | 0hPa | 2.6V | 00:00:00 | 00:00:00 | 00:00:00 | |
| ATIDSZ-14 | 2026-08-31 00:34:04 | 48.24931 | 17.15465 | 83° | 33km/h | 16380m | 3.7m/s | -58.0°C | 13.4% | 0hPa | 2.6V | 00:00:00 | 00:00:00 | 00:00:00 | |
| OE3OSB-13 | 2026-08-31 00:33:59 | 48.24924 | 17.15376 | 83° | 37km/h | 16350m | 4.2m/s | -57.8°C | 13.1% | -1.0hPa | 2.6V | 00:00:00 | 00:00:00 | 00:00:00 | |
| OE5DRO-10 | 2026-08-31 00:33:55 | 48.24919 | 17.15322 | 81° | 37km/h | 16333m | 3.6m/s | -57.7°C | 18.0% | 0hPa | 2.6V | 00:00:00 | 00:00:00 | 00:00:00 | |
| ATIDSZ-14 | 2026-08-31 00:33:44 | 48.24902 | 17.15204 | 73° | 38km/h | 16293m | 5.4m/s | -58.0°C | 13.7% | 0hPa | 2.6V | 00:00:00 | 00:00:00 | 00:00:00 | |
| PG1ADW-2 | 2026-08-31 00:33:41 | 48.24891 | 17.15149 | 81° | 38km/h | 16276m | 4.7m/s | -58.0°C | 18.8% | 0hPa | 2.6V | 00:00:00 | 00:00:00 | 00:00:00 | |
| OE5DRO-10 | 2026-08-31 00:33:36 | 48.24886 | 17.15075 | 86° | 38km/h | 16253m | 4.2m/s | -58.1°C | 19.1% | 0hPa | 2.6V | 00:00:00 | 00:00:00 | 00:00:00 | |
| OE3OSB-13 | 2026-08-31 00:33:28 | 48.24873 | 17.14945 | 85° | 37km/h | 16213m | 4.5m/s | -57.9°C | 14.0% | -1.0hPa | 2.5V | 00:00:00 | 00:00:00 | 00:00:00 | |
| ATIDSZ-14 | 2026-08-31 00:33:23 | 48.24872 | 17.14902 | 88° | 38km/h | 16200m | 4.9m/s | -57.7°C | 14.1% | 0hPa | 2.5V | 00:00:00 | 00:00:00 | 00:00:00 | |
| PG1ADW-2 | 2026-08-31 00:33:21 | 48.24870 | 17.14856 | 86° | 38km/h | 16186m | 4.8m/s | -57.6°C | 18.9% | 0hPa | 2.5V | 00:00:00 | 01:14:28 | 00:00:00 | |
| OE5DRO-10 | 2026-08-31 00:33:17 | 48.24863 | 17.14785 | 85° | 38km/h | 16164m | 5.0m/s | -57.5°C | 18.8% | 0hPa | 2.5V | 00:00:00 | 00:00:00 | 00:00:00 | |
| ATIDSZ-14 | 2026-08-31 00:33:02 | 48.24858 | 17.14595 | 89° | 37km/h | 16107m | 4.1m/s | -57.5°C | 14.4% | 0hPa | 2.5V | 00:00:00 | 00:00:00 | 00:00:00 | |
| OE3OSB-13 | 2026-08-31 00:32:57 | 48.24864 | 17.14486 | 92° | 49km/h | 16075m | 3.7m/s | -57.3°C | 14.3% | -1.0hPa | 2.5V | 00:00:00 | 00:00:00 | 00:00:00 | |
| ATIDSZ-14 | 2026-08-31 00:32:43 | 48.24863 | 17.14272 | 83° | 49km/h | 16018m | 4.1m/s | -57.1°C | 14.6% | 0hPa | 2.5V | 00:00:00 | 00:00:00 | 00:00:00 | |
| PG1ADW-2 | 2026-08-31 00:32:41 | 48.24860 | 17.14235 | 86° | 44km/h | 16011m | 4.6m/s | -57.1°C | 19.3% | 0hPa | 2.5V | 00:00:00 | 00:00:00 | 00:00:00 | |
| OE5DRO-10 | 2026-08-31 00:32:39 | 48.24860 | 17.14184 | 91° | 42km/h | 15998m | 4.4m/s | -57.0°C | 19.4% | 0hPa | 2.5V | 00:00:00 | 00:00:00 | 08:30:00 | |
| S52SK | 2026-08-31 00:32:25 | 48.24853 | 17.13995 | 93° | 46km/h | 15947m | 4.0m/s | -56.9°C | 14.8% | 0hPa | 2.5V | 00:00:00 | 00:00:00 | 00:00:00 | |
| PG1ADW-2 | 2026-08-31 00:32:21 | 48.24854 | 17.13909 | 82° | 47km/h | 15925m | 4.2m/s | -56.8°C | 19.5% | 0hPa | 2.5V | 00:00:00 | 00:00:00 | 00:00:00 | |
| OE5DRO-10 | 2026-08-31 00:32:20 | 48.24852 | 17.13893 | 80° | 49km/h | 15921m | 4.1m/s | -56.8°C | 19.5% | 0hPa | 2.5V | 00:00:00 | 00:00:00 | 00:00:00 | |
| S52SK | 2026-08-31 00:32:19 | 48.24852 | 17.13893 | 80° | 42km/h | 15921m | 4.2m/s | -56.9°C | 14.9% | 0hPa | 2.5V | 00:00:00 | 00:00:00 | 00:00:00 | |
| GYPAP8-17 | 2026-08-31 00:32:13 | 48.24848 | 17.13788 | 93° | 51km/h | 15895m | 4.2m/s | 0°C | 0% | 0hPa | 2.5V | 00:00:00 | 00:00:00 | 00:00:00 | |
| OE3OSB-13 | 2026-08-31 00:31:55 | 48.24837 | 17.13402 | 81° | 53km/h | 15808m | 4.4m/s | -56.9°C | 14.9% | -1.0hPa | 2.5V | 00:00:00 | 00:00:00 | 00:00:00 | |
| OE5DRO-10 | 2026-08-31 00:31:42 | 48.24812 | 17.13159 | 77° | 60km/h | 15755m | 3.5m/s | -56.9°C | 19.7% | 0hPa | 2.5V | 00:00:00 | 00:00:00 | 00:00:00 | |
| PG1ADW-2 | 2026-08-31 00:31:41 | 48.24809 | 17.13137 | 80° | 60km/h | 15751m | 4.0m/s | -56.9°C | 19.6% | 0hPa | 2.5V | 00:00:00 | 00:00:00 | 00:00:00 | |
| ATIDSZ-14 | 2026-08-31 00:31:40 | 48.24809 | 17.13137 | 80° | 60km/h | 15751m | 4.1m/s | -56.9°C | 15.0% | 0hPa | 2.5V | 00:00:00 | 00:00:00 | 00:00:00 | |
| OE3JTB-15 | 2026-08-31 00:31:29 | 48.24774 | 17.12818 | 76° | 60km/h | 15691m | 3.6m/s | -57.2°C | 19.8% | 0hPa | 2.5V | 00:00:00 | 01:12:34 | 00:00:00 | |
| OE3OSB-13 | 2026-08-31 00:31:24 | 48.24763 | 17.12727 | 81° | 60km/h | 15674m | 5.1m/s | -57.5°C | 15.0% | -1.0hPa | 2.5V | 00:00:00 | 00:00:00 | 00:00:00 | |
| OE5DRO-10 | 2026-08-31 00:31:23 | 48.24763 | 17.12727 | 82° | 60km/h | 15674m | 5.0m/s | -57.4°C | 20.0% | 0hPa | 2.5V | 00:00:00 | 00:00:00 | 00:00:00 | |
| PG1ADW-2 | 2026-08-31 00:31:21 | 48.24758 | 17.12681 | 82° | 60km/h | 15666m | 4.0m/s | -57.6°C | 20.1% | 0hPa | 2.5V | 00:00:00 | 00:00:00 | 08:30:00 | |
| ATIDSZ-14 | 2026-08-31 00:31:19 | 48.24756 | 17.12659 | 83° | 60km/h | 15661m | 4.5m/s | -57.8°C | 15.7% | 0hPa | 2.6V | 00:00:00 | 00:00:00 | 00:00:00 | |
| HA6NAB-11 | 2026-08-31 00:31:15 | 48.24745 | 17.12569 | 80° | 60km/h | 15644m | 5.1m/s | -57.9°C | 15.9% | 0hPa | 2.6V | 00:00:00 | 00:00:00 | 00:00:00 | |
| HA6NAB-11 | 2026-08-31 00:31:10 | 48.24722 | 17.12431 | 77° | 58km/h | 15618m | 4.5m/s | -58.0°C | 16.1% | 0hPa | 2.6V | 00:00:00 | 00:00:00 | 00:00:00 | |
| OE5DRO-10 | 2026-08-31 00:31:04 | 48.24702 | 17.12307 | 80° | 58km/h | 15594m | 4.1m/s | -58.3°C | 21.4% | 0hPa | 2.6V | 00:00:00 | 00:00:00 | 00:00:00 | |
| OE3OSB-13 | 2026-08-31 00:30:53 | 48.24679 | 17.12045 | 83° | 57km/h | 15544m | 3.4m/s | -58.3°C | 16.3% | -1.0hPa | 2.6V | 00:00:00 | 00:00:00 | 00:00:00 | |
| GYPAP8-17 | 2026-08-31 00:30:49 | 48.24675 | 17.12000 | 84° | 60km/h | 15535m | 3.4m/s | 0°C | 0% | 0hPa | 2.6V | 00:00:00 | 00:00:00 | 00:00:00 | |
| HA6NAB-11 | 2026-08-31 00:30:47 | 48.24672 | 17.11956 | 84° | 58km/h | 15527m | 3.6m/s | -58.2°C | 16.7% | 0hPa | 2.6V | 00:00:00 | 00:00:00 | 00:00:00 | |
| OE5DRO-10 | 2026-08-31 00:30:45 | 48.24666 | 17.11889 | 82° | 68km/h | 15514m | 3.0m/s | -58.1°C | 21.6% | 0hPa | 2.6V | 00:00:00 | 00:00:00 | 00:00:00 | |
| PG1ADW-2 | 2026-08-31 00:30:41 | 48.24655 | 17.11801 | 76° | 60km/h | 15497m | 4.2m/s | -58.3°C | 21.8% | 0hPa | 2.5V | 00:00:00 | 01:11:48 | 00:00:00 | |
| ATIDSZ-14 | 2026-08-31 00:30:37 | 48.24643 | 17.11737 | 75° | 55km/h | 15485m | 4.5m/s | -58.4°C | 16.8% | 0hPa | 2.5V | 00:00:00 | 00:00:00 | 00:00:00 | |
| GYPAP8-17 | 2026-08-31 00:30:28 | 48.24612 | 17.11541 | 74° | 60km/h | 15446m | 5.0m/s | 0°C | 0% | 0hPa | 2.5V | 00:00:00 | 00:00:00 | 00:00:00 | |
| OE3OSB-13 | 2026-08-31 00:30:24 | 48.24572 | 17.11368 | 72° | 60km/h | 15411m | 5.0m/s | -58.4°C | 16.4% | -1.0hPa | 2.5V | 00:00:00 | 00:00:00 | 00:00:00 | |
| PG1ADW-2 | 2026-08-31 00:30:21 | 48.24572 | 17.11368 | 73° | 57km/h | 15411m | 5.0m/s | -58.4°C | 21.7% | 0hPa | 2.5V | 00:00:00 | 00:00:00 | 00:00:00 | |
| ATIDSZ-14 | 2026-08-31 00:30:17 | 48.24553 | 17.11282 | 69° | 57km/h | 15396m | 3.8m/s | -58.5°C | 16.7% | 0hPa | 2.5V | 00:00:00 | 00:00:00 | 00:00:00 | |
| OE5MMP-10 | 2026-08-31 00:30:11 | 48.24526 | 17.11158 | 82° | 55km/h | 15372m | 4.3m/s | 0°C | 0% | 0hPa | 2.5V | 00:00:00 | 01:11:18 | 00:00:00 | |
| OE3OSB-13 | 2026-08-31 00:29:50 | 48.24485 | 17.10724 | 86° | 53km/h | 15283m | 5.1m/s | -58.8°C | 17.2% | -1.0hPa | 2.5V | 00:00:00 | 00:00:00 | 00:00:00 | |
| OE3JTB-15 | 2026-08-31 00:29:44 | 48.24484 | 17.10553 | 94° | 66km/h | 15250m | 4.4m/s | -58.8°C | 22.9% | 0hPa | 2.5V | 00:00:00 | 01:10:49 | 00:00:00 | |
| OE5MMP-10 | 2026-08-31 00:29:41 | 48.24485 | 17.10531 | 95° | 62km/h | 15246m | 4.3m/s | 0°C | 0% | 0hPa | 2.5V | 00:00:00 | 01:10:48 | 00:00:00 | |
| S52SK | 2026-08-31 00:29:33 | 48.24493 | 17.10370 | 97° | 60km/h | 15216m | 5.0m/s | -58.8°C | 17.9% | 0hPa | 2.5V | 00:00:00 | 00:00:00 | 00:00:00 | |
| OE5MMP-10 | 2026-08-31 00:29:30 | 48.24501 | 17.10274 | 99° | 68km/h | 15199m | 3.8m/s | 0°C | 0% | 0hPa | 2.5V | 00:00:00 | 01:10:37 | 00:00:00 | |
| S52SK | 2026-08-31 00:29:27 | 48.24505 | 17.10225 | 95° | 66km/h | 15191m | 5.0m/s | -58.7°C | 18.1% | 0hPa | 2.5V | 00:00:00 | 00:00:00 | 00:00:00 | |
| PG1ADW-2 | 2026-08-31 00:29:21 | 48.24512 | 17.10053 | 97° | 68km/h | 15160m | 5.3m/s | -58.5°C | 22.7% | 0hPa | 2.5V | 00:00:00 | 01:10:28 | 00:00:00 | |
| OE3OSB-13 | 2026-08-31 00:29:19 | 48.24516 | 17.10003 | 95° | 68km/h | 15152m | 4.7m/s | -58.6°C | 17.2% | -1.0hPa | 2.5V | 00:00:00 | 00:00:00 | 00:00:00 | |
| ATIDSZ-14 | 2026-08-31 00:29:15 | 48.24519 | 17.09926 | 93° | 64km/h | 15139m | 5.9m/s | -58.6°C | 17.4% | 0hPa | 2.5V | 00:00:00 | 00:00:00 | 00:00:00 | |
| OE3JTB-15 | 2026-08-31 00:29:07 | 48.24514 | 17.09653 | 89° | 69km/h | 15090m | 4.8m/s | -58.8°C | 23.4% | 0hPa | 2.5V | 00:00:00 | 00:00:00 | 08:30:00 | |
| OE3OSB-13 | 2026-08-31 00:28:48 | 48.24495 | 17.09201 | 84° | 78km/h | 15021m | 4.8m/s | -59.1°C | 18.3% | -1.0hPa | 2.6V | 00:00:00 | 00:00:00 | 00:00:00 | |
| HA6NAB-11 | 2026-08-31 00:28:43 | 48.24488 | 17.09079 | 85° | 78km/h | 15004m | 4.6m/s | -59.1°C | 18.7% | 0hPa | 2.6V | 00:00:00 | 00:00:00 | 00:00:00 | |
| PG1ADW-2 | 2026-08-31 00:28:41 | 48.24484 | 17.08992 | 88° | 75km/h | 14990m | 4.5m/s | -59.0°C | 24.1% | 0hPa | 2.6V | 00:00:00 | 00:00:00 | 00:00:00 | |
| HA6NAB-11 | 2026-08-31 00:28:38 | 48.24481 | 17.08936 | 86° | 73km/h | 14982m | 4.4m/s | -59.0°C | 18.9% | 0hPa | 2.6V | 00:00:00 | 00:00:00 | 00:00:00 | |
| HA6NAB-11 | 2026-08-31 00:28:33 | 48.24473 | 17.08793 | 84° | 77km/h | 14961m | 4.7m/s | -58.9°C | 18.9% | 0hPa | 2.6V | 00:00:00 | 00:00:00 | 00:00:00 | |
| HA6NAB-11 | 2026-08-31 00:28:27 | 48.24459 | 17.08619 | 82° | 73km/h | 14934m | 4.2m/s | -58.8°C | 18.9% | 0hPa | 2.6V | 00:00:00 | 00:00:00 | 00:00:00 | |
| PG1ADW-2 | 2026-08-31 00:28:22 | 48.24435 | 17.08427 | 79° | 75km/h | 14904m | 5.0m/s | -58.7°C | 24.0% | 0hPa | 2.6V | 00:00:00 | 00:00:00 | 08:30:00 | |
| OE3OSB-13 | 2026-08-31 00:28:17 | 48.24419 | 17.08313 | 77° | 75km/h | 14886m | 4.3m/s | -58.7°C | 18.6% | -1.0hPa | 2.5V | 00:00:00 | 00:00:00 | 00:00:00 | |
| ATIDSZ-14 | 2026-08-31 00:28:12 | 48.24404 | 17.08201 | 79° | 77km/h | 14869m | 4.9m/s | -58.7°C | 19.1% | 0hPa | 2.5V | 00:00:00 | 00:00:00 | 00:00:00 | |
| HA6NAB-11 | 2026-08-31 00:28:11 | 48.24400 | 17.08173 | 78° | 77km/h | 14864m | 4.2m/s | -58.8°C | 19.2% | 0hPa | 2.5V | 00:00:00 | 00:00:00 | 00:00:00 | |
| PG1ADW-2 | 2026-08-31 00:27:41 | 48.24287 | 17.07347 | 81° | 64km/h | 14730m | 3.1m/s | -58.4°C | 25.3% | 0hPa | 2.5V | 00:00:00 | 00:00:00 | 00:00:00 | |
| OE5DRO-10 | 2026-08-31 00:27:33 | 48.24260 | 17.07146 | 79° | 64km/h | 14694m | 4.4m/s | -58.5°C | 25.2% | 0hPa | 2.5V | 00:00:00 | 00:00:00 | 00:00:00 | |
| ATIDSZ-14 | 2026-08-31 00:27:32 | 48.24260 | 17.07146 | 79° | 66km/h | 14694m | 4.4m/s | -58.5°C | 19.9% | 0hPa | 2.5V | 00:00:00 | 00:00:00 | 00:00:00 | |
| PG1ADW-2 | 2026-08-31 00:27:21 | 48.24222 | 17.06881 | 77° | 53km/h | 14643m | 4.1m/s | -58.3°C | 25.4% | 0hPa | 2.5V | 00:00:00 | 00:00:00 | 00:00:00 | |
| DO3MHA-11 | 2026-08-31 00:27:20 | 48.24219 | 17.06861 | 77° | 53km/h | 14638m | 3.9m/s | -58.3°C | 25.5% | 0hPa | 2.6V | 00:00:00 | 01:08:27 | 00:00:00 | |
| OE3OSB-13 | 2026-08-31 00:27:15 | 48.24207 | 17.06766 | 79° | 51km/h | 14616m | 5.3m/s | -58.4°C | 20.1% | -1.0hPa | 2.6V | 00:00:00 | 00:00:00 | 00:00:00 | |
| S52SK | 2026-08-31 00:27:12 | 48.24200 | 17.06706 | 82° | 57km/h | 14603m | 5.1m/s | -58.3°C | 20.4% | 0hPa | 2.6V | 00:00:00 | 00:00:00 | 00:00:00 | |
| DO3MHA-11 | 2026-08-31 00:27:09 | 48.24193 | 17.06642 | 79° | 51km/h | 14590m | 4.3m/s | -58.2°C | 25.8% | 0hPa | 2.6V | 00:00:00 | 01:08:16 | 00:00:00 | |
| S52SK | 2026-08-31 00:27:05 | 48.24186 | 17.06581 | 82° | 53km/h | 14577m | 4.4m/s | -58.2°C | 20.4% | 0hPa | 2.6V | 00:00:00 | 00:00:00 | 00:00:00 | |
| PG1ADW-2 | 2026-08-31 00:27:01 | 48.24176 | 17.06489 | 82° | 49km/h | 14555m | 3.9m/s | -58.1°C | 25.7% | 0hPa | 2.6V | 00:00:00 | 00:00:00 | 00:00:00 | |
| DO3MHA-11 | 2026-08-31 00:26:59 | 48.24172 | 17.06454 | 81° | 49km/h | 14546m | 3.7m/s | -58.1°C | 25.7% | 0hPa | 2.6V | 00:00:00 | 01:08:06 | 00:00:00 | |
| ATIDSZ-14 | 2026-08-31 00:26:51 | 48.24163 | 17.06328 | 92° | 49km/h | 14515m | 4.5m/s | -58.1°C | 20.6% | 0hPa | 2.6V | 00:00:00 | 00:00:00 | 00:00:00 | |
| DO3MHA-11 | 2026-08-31 00:26:49 | 48.24163 | 17.06268 | 92° | 51km/h | 14502m | 3.4m/s | -58.0°C | 25.9% | 0hPa | 2.6V | 00:00:00 | 01:07:56 | 00:00:00 | |
| OE3OSB-13 | 2026-08-31 00:26:44 | 48.24163 | 17.06172 | 85° | 51km/h | 14480m | 3.8m/s | -58.0°C | 20.3% | -1.0hPa | 2.6V | 00:00:00 | 00:00:00 | 00:00:00 | |
| PG1ADW-2 | 2026-08-31 00:26:41 | 48.24161 | 17.06116 | 86° | 55km/h | 14468m | 3.6m/s | -58.0°C | 25.9% | 0hPa | 2.6V | 00:00:00 | 01:07:48 | 00:00:00 | |
| DO3MHA-11 | 2026-08-31 00:26:34 | 48.24156 | 17.05984 | 91° | 57km/h | 14436m | 4.3m/s | -57.9°C | 26.3% | 0hPa | 2.6V | 00:00:00 | 01:07:41 | 00:00:00 | |
| ATIDSZ-14 | 2026-08-31 00:26:31 | 48.24156 | 17.05944 | 92° | 53km/h | 14428m | 5.1m/s | -58.0°C | 20.8% | 0hPa | 2.6V | 00:00:00 | 00:00:00 | 00:00:00 | |
| DO3MHA-11 | 2026-08-31 00:26:22 | 48.24161 | 17.05728 | 97° | 64km/h | 14383m | 5.0m/s | -58.1°C | 26.8% | 0hPa | 2.6V | 00:00:00 | 01:07:29 | 00:00:00 | |
| PG1ADW-2 | 2026-08-31 00:26:21 | 48.24162 | 17.05706 | 97° | 62km/h | 14379m | 4.3m/s | -58.1°C | 26.8% | 0hPa | 2.7V | 00:00:00 | 00:00:00 | 00:00:00 | |
| HA6NAB-11 | 2026-08-31 00:26:16 | 48.24167 | 17.05613 | 92° | 64km/h | 14361m | 4.9m/s | -58.2°C | 21.5% | 0hPa | 2.7V | 00:00:00 | 00:00:00 | 00:00:00 | |
| OE3OSB-13 | 2026-08-31 00:26:13 | 48.24167 | 17.05513 | 88° | 68km/h | 14344m | 4.0m/s | -58.2°C | 21.4% | -1.0hPa | 2.7V | 00:00:00 | 00:00:00 | 00:00:00 | |
| DO3MHA-11 | 2026-08-31 00:26:12 | 48.24166 | 17.05487 | 89° | 60km/h | 14340m | 4.4m/s | -58.2°C | 27.0% | 0hPa | 2.7V | 00:00:00 | 01:07:19 | 00:00:00 | |
| ATIDSZ-14 | 2026-08-31 00:26:10 | 48.24166 | 17.05462 | 92° | 62km/h | 14335m | 4.6m/s | -58.2°C | 21.7% | 0hPa | 2.7V | 00:00:00 | 00:00:00 | 00:00:00 | |
| DO3MHA-12 | 2026-08-31 00:26:04 | 48.24176 | 17.05305 | 97° | 68km/h | 14305m | 4.9m/s | -58.1°C | 26.0% | 0hPa | 2.7V | 00:00:00 | 01:07:11 | 00:00:00 | |
| DO3MHA-11 | 2026-08-31 00:26:02 | 48.24179 | 17.05259 | 94° | 66km/h | 14296m | 4.9m/s | -58.1°C | 26.0% | 0hPa | 2.7V | 00:00:00 | 01:07:09 | 00:00:00 | |
| PG1ADW-2 | 2026-08-31 00:26:01 | 48.24180 | 17.05236 | 94° | 68km/h | 14291m | 4.3m/s | -58.1°C | 26.1% | 0hPa | 2.7V | 00:00:00 | 00:00:00 | 00:00:00 | |
| HA6NAB-11 | 2026-08-31 00:25:59 | 48.24181 | 17.05212 | 96° | 64km/h | 14287m | 4.5m/s | -58.2°C | 20.9% | 0hPa | 2.7V | 00:00:00 | 00:00:00 | 00:00:00 | |
| HA6NAB-11 | 2026-08-31 00:25:53 | 48.24194 | 17.05063 | 103° | 69km/h | 14261m | 4.9m/s | -58.2°C | 21.9% | 0hPa | 2.7V | 00:00:00 | 00:00:00 | 00:00:00 | |
| DO3MHA-11 | 2026-08-31 00:25:52 | 48.24201 | 17.05011 | 100° | 69km/h | 14252m | 4.9m/s | -58.2°C | 27.2% | 0hPa | 2.7V | 00:00:00 | 01:06:59 | 08:30:00 | |
| ATIDSZ-14 | 2026-08-31 00:25:50 | 48.24204 | 17.04985 | 99° | 69km/h | 14248m | 4.7m/s | -58.3°C | 22.0% | 0hPa | 2.7V | 00:00:00 | 00:00:00 | 00:00:00 | |
| OE5DRO-10 | 2026-08-31 00:25:43 | 48.24220 | 17.04779 | 103° | 82km/h | 14212m | 3.7m/s | -58.8°C | 27.2% | 0hPa | 2.7V | 00:00:00 | 00:00:00 | 08:30:00 | |
| DO3MHA-11 | 2026-08-31 00:25:42 | 48.24223 | 17.04752 | 102° | 82km/h | 14208m | 4.6m/s | -58.8°C | 27.2% | 0hPa | 2.6V | 00:00:00 | 01:06:49 | 00:00:00 | |
| PG1ADW-2 | 2026-08-31 00:25:41 | 48.24227 | 17.04723 | 101° | 80km/h | 14203m | 5.0m/s | -58.8°C | 27.4% | 0hPa | 2.6V | 00:00:00 | 00:00:00 | 00:00:00 | |
| DO3MHA-12 | 2026-08-31 00:25:31 | 48.24244 | 17.04417 | 93° | 84km/h | 14157m | 4.2m/s | -58.7°C | 28.3% | 0hPa | 2.6V | 00:00:00 | 01:06:38 | 00:00:00 | |
| ATIDSZ-14 | 2026-08-31 00:25:29 | 48.24245 | 17.04385 | 94° | 82km/h | 14153m | 3.1m/s | -58.7°C | 22.7% | 0hPa | 2.6V | 00:00:00 | 00:00:00 | 00:00:00 | |
| DO3MHA-11 | 2026-08-31 00:25:28 | 48.24248 | 17.04325 | 95° | 82km/h | 14145m | 4.4m/s | -58.7°C | 27.8% | 0hPa | 2.6V | 00:00:00 | 01:06:35 | 00:00:00 | |
| PG1ADW-2 | 2026-08-31 00:25:21 | 48.24258 | 17.04110 | 93° | 80km/h | 14114m | 4.2m/s | -59.2°C | 29.1% | 0hPa | 2.6V | 00:00:00 | 01:06:28 | 08:30:00 | |
| DO3MHA-12 | 2026-08-31 00:25:19 | 48.24258 | 17.04045 | 91° | 82km/h | 14104m | 4.8m/s | -59.2°C | 29.2% | 0hPa | 2.7V | 00:00:00 | 01:06:26 | 00:00:00 | |
| DO3MHA-11 | 2026-08-31 00:25:18 | 48.24258 | 17.04012 | 91° | 78km/h | 14100m | 2.9m/s | -59.1°C | 29.4% | 0hPa | 2.7V | 00:00:00 | 01:06:25 | 00:00:00 | |
| OE3OSB-13 | 2026-08-31 00:25:11 | 48.24256 | 17.03803 | 89° | 73km/h | 14070m | 3.9m/s | -59.0°C | 23.6% | -1.0hPa | 2.7V | 00:00:00 | 00:00:00 | 00:00:00 | |
| DO3MHA-12 | 2026-08-31 00:25:09 | 48.24255 | 17.03745 | 88° | 86km/h | 14062m | 4.2m/s | -58.9°C | 29.8% | 0hPa | 2.7V | 00:00:00 | 01:06:16 | 00:00:00 | |
| DO3MHA-11 | 2026-08-31 00:25:08 | 48.24254 | 17.03716 | 88° | 77km/h | 14058m | 3.6m/s | -58.8°C | 29.4% | 0hPa | 2.7V | 00:00:00 | 01:06:15 | 00:00:00 | |
| PG1ADW-2 | 2026-08-31 00:25:01 | 48.24246 | 17.03509 | 88° | 75km/h | 14027m | 3.6m/s | -58.6°C | 28.5% | 0hPa | 2.7V | 00:00:00 | 00:00:00 | 00:00:00 | |
| DO3MHA-11 | 2026-08-31 00:24:58 | 48.24244 | 17.03425 | 90° | 77km/h | 14013m | 4.3m/s | -58.5°C | 28.1% | 0hPa | 2.7V | 00:00:00 | 01:06:05 | 00:00:00 | |
| S52SK | 2026-08-31 00:24:52 | 48.24240 | 17.03282 | 85° | 78km/h | 13993m | 3.6m/s | -58.7°C | 22.9% | 0hPa | 2.7V | 00:00:00 | 00:00:00 | 00:00:00 | |
| DO3MHA-11 | 2026-08-31 00:24:48 | 48.24235 | 17.03137 | 93° | 73km/h | 13972m | 3.8m/s | -58.6°C | 28.6% | 0hPa | 2.7V | 00:00:00 | 01:05:55 | 00:00:00 | |
| S52SK | 2026-08-31 00:24:47 | 48.24235 | 17.03136 | 93° | 77km/h | 13972m | 3.9m/s | -58.6°C | 23.3% | 0hPa | 2.6V | 00:00:00 | 00:00:00 | 00:00:00 | |
| PG1ADW-2 | 2026-08-31 00:24:41 | 48.24241 | 17.02941 | 92° | 69km/h | 13941m | 4.6m/s | -59.2°C | 30.1% | 0hPa | 2.6V | 00:00:00 | 00:00:00 | 00:00:00 | |
| OE3OSB-13 | 2026-08-31 00:24:40 | 48.24242 | 17.02887 | 92° | 71km/h | 13933m | 5.1m/s | -59.4°C | 24.0% | -1.0hPa | 2.6V | 00:00:00 | 00:00:00 | 00:00:00 | |
| DO3MHA-11 | 2026-08-31 00:24:38 | 48.24243 | 17.02859 | 93° | 78km/h | 13928m | 4.0m/s | -59.4°C | 30.7% | 0hPa | 2.6V | 00:00:00 | 01:05:45 | 00:00:00 | |
| ATIDSZ-14 | 2026-08-31 00:24:28 | 48.24245 | 17.02618 | 92° | 71km/h | 13889m | 5.2m/s | -59.3°C | 25.3% | 0hPa | 2.6V | 00:00:00 | 00:00:00 | 00:00:00 | |
| PG1ADW-2 | 2026-08-31 00:24:21 | 48.24247 | 17.02418 | 91° | 68km/h | 13856m | 4.5m/s | -59.0°C | 31.5% | 0hPa | 2.6V | 00:00:00 | 00:00:00 | 00:00:00 | |
| OE5DRO-10 | 2026-08-31 00:24:11 | 48.24251 | 17.02162 | 95° | 69km/h | 13815m | 4.4m/s | -58.7°C | 31.4% | 0hPa | 2.6V | 00:00:00 | 00:00:00 | 00:00:00 | |
| OE3OSB-13 | 2026-08-31 00:24:09 | 48.24254 | 17.02090 | 91° | 64km/h | 13801m | 3.9m/s | -58.7°C | 25.2% | -1.0hPa | 2.6V | 00:00:00 | 00:00:00 | 00:00:00 | |
| ATIDSZ-14 | 2026-08-31 00:24:07 | 48.24254 | 17.02090 | 92° | 64km/h | 13801m | 3.9m/s | -58.7°C | 25.6% | 0hPa | 2.6V | 00:00:00 | 00:00:00 | 00:00:00 | |
| PG1ADW-2 | 2026-08-31 00:24:01 | 48.24259 | 17.01908 | 95° | 71km/h | 13771m | 4.8m/s | -58.6°C | 31.5% | 0hPa | 2.6V | 00:00:00 | 01:05:08 | 00:00:00 | |
| OE5DRO-10 | 2026-08-31 00:23:50 | 48.24277 | 17.01617 | 99° | 71km/h | 13722m | 4.6m/s | -58.3°C | 31.8% | 0hPa | 2.6V | 00:00:00 | 00:00:00 | 00:00:00 | |
| ATIDSZ-14 | 2026-08-31 00:23:47 | 48.24283 | 17.01561 | 98° | 73km/h | 13713m | 4.6m/s | -58.4°C | 26.2% | 0hPa | 2.6V | 00:00:00 | 00:00:00 | 00:00:00 | |
| PG1ADW-2 | 2026-08-31 00:23:41 | 48.24302 | 17.01375 | 98° | 71km/h | 13685m | 3.5m/s | -58.3°C | 32.2% | 0hPa | 2.6V | 00:00:00 | 00:00:00 | 00:00:00 | |
| OE3OSB-13 | 2026-08-31 00:23:38 | 48.24313 | 17.01268 | 99° | 69km/h | 13669m | 5.0m/s | -58.3°C | 25.9% | -1.0hPa | 2.6V | 00:00:00 | 00:00:00 | 00:00:00 | |
| OE3JTB-15 | 2026-08-31 00:23:33 | 48.24332 | 17.01114 | 100° | 78km/h | 13643m | 4.2m/s | -58.3°C | 32.8% | 0hPa | 2.6V | 00:00:00 | 00:00:00 | 00:00:00 | |
| OE5DRO-10 | 2026-08-31 00:23:31 | 48.24332 | 17.01114 | 100° | 69km/h | 13643m | 4.2m/s | -58.3°C | 32.8% | 0hPa | 2.6V | 00:00:00 | 00:00:00 | 00:00:00 | |
| ATIDSZ-14 | 2026-08-31 00:23:27 | 48.24338 | 17.01036 | 96° | 69km/h | 13630m | 3.8m/s | -58.2°C | 27.0% | 0hPa | 2.6V | 00:00:00 | 00:00:00 | 00:00:00 | |
| PG1ADW-2 | 2026-08-31 00:23:21 | 48.24354 | 17.00842 | 101° | 69km/h | 13601m | 4.0m/s | -58.0°C | 32.9% | 0hPa | 2.6V | 00:00:00 | 00:00:00 | 00:00:00 | |
| OE5DRO-10 | 2026-08-31 00:23:12 | 48.24376 | 17.00615 | 98° | 86km/h | 13565m | 3.2m/s | -57.9°C | 33.3% | 0hPa | 2.7V | 00:00:00 | 00:00:00 | 00:00:00 | |
| OE3OSB-13 | 2026-08-31 00:23:07 | 48.24392 | 17.00456 | 98° | 68km/h | 13540m | 4.6m/s | -57.9°C | 27.0% | -1.0hPa | 2.7V | 00:00:00 | 00:00:00 | 00:00:00 | |
| PG1ADW-2 | 2026-08-31 00:23:01 | 48.24404 | 17.00327 | 100° | 71km/h | 13521m | 4.7m/s | -58.1°C | 33.5% | 0hPa | 2.7V | 00:00:00 | 00:00:00 | 00:00:00 | |
| HA6NAB-11 | 2026-08-31 00:22:50 | 48.24440 | 17.00073 | 110° | 69km/h | 13479m | 4.7m/s | -58.0°C | 27.6% | 0hPa | 2.7V | 00:00:00 | 00:00:00 | 00:00:00 | |
| ATIDSZ-14 | 2026-08-31 00:22:46 | 48.24461 | 16.99969 | 106° | 77km/h | 13462m | 4.3m/s | -58.1°C | 28.9% | 0hPa | 2.7V | 00:00:00 | 00:00:00 | 00:00:00 | |
| HA6NAB-11 | 2026-08-31 00:22:45 | 48.24466 | 16.99940 | 106° | 80km/h | 13458m | 4.3m/s | -58.1°C | 29.2% | 0hPa | 2.7V | 00:00:00 | 00:00:00 | 00:00:00 | |
| PG1ADW-2 | 2026-08-31 00:22:41 | 48.24488 | 16.99801 | 105° | 78km/h | 13439m | 3.6m/s | -58.0°C | 35.1% | 0hPa | 2.7V | 00:00:00 | 01:03:48 | 00:00:00 | |
| HA6NAB-11 | 2026-08-31 00:22:39 | 48.24493 | 16.99774 | 106° | 73km/h | 13435m | 4.5m/s | -58.1°C | 29.3% | 0hPa | 2.7V | 00:00:00 | 00:00:00 | 00:00:00 | |
| S52SK | 2026-08-31 00:22:35 | 48.24516 | 16.99668 | 108° | 73km/h | 13419m | 3.7m/s | -58.1°C | 29.6% | 0hPa | 2.7V | 00:00:00 | 00:00:00 | 00:00:00 | |
| HA6NAB-11 | 2026-08-31 00:22:33 | 48.24525 | 16.99614 | 103° | 77km/h | 13410m | 4.1m/s | -58.0°C | 29.6% | 0hPa | 2.7V | 00:00:00 | 00:00:00 | 00:00:00 | |
| S52SK | 2026-08-31 00:22:29 | 48.24541 | 16.99497 | 103° | 77km/h | 13394m | 4.4m/s | -57.9°C | 28.8% | 0hPa | 2.7V | 00:00:00 | 00:00:00 | 00:00:00 | |
| HA6NAB-11 | 2026-08-31 00:22:28 | 48.24550 | 16.99440 | 105° | 80km/h | 13384m | 4.4m/s | -57.9°C | 29.0% | 0hPa | 2.7V | 00:00:00 | 00:00:00 | 00:00:00 | |
| ATIDSZ-14 | 2026-08-31 00:22:25 | 48.24560 | 16.99379 | 106° | 88km/h | 13375m | 4.2m/s | -58.1°C | 29.4% | 0hPa | 2.7V | 00:00:00 | 00:00:00 | 00:00:00 | |
| OE3JTB-15 | 2026-08-31 00:22:22 | 48.24590 | 16.99221 | 106° | 93km/h | 13353m | 4.9m/s | -58.0°C | 34.9% | 0hPa | 2.7V | 00:00:00 | 01:03:28 | 00:00:00 | |
| PG1ADW-2 | 2026-08-31 00:22:21 | 48.24590 | 16.99221 | 106° | 89km/h | 13353m | 4.9m/s | -58.0°C | 34.9% | 0hPa | 2.7V | 00:00:00 | 00:00:00 | 08:30:00 | |
| DO3MHA-11 | 2026-08-31 00:22:07 | 48.24674 | 16.98770 | 106° | 97km/h | 13293m | 4.3m/s | -58.2°C | 37.5% | 0hPa | 2.7V | 00:00:00 | 01:03:14 | 00:00:00 | |
| OE3OSB-13 | 2026-08-31 00:22:05 | 48.24693 | 16.98668 | 104° | 91km/h | 13282m | 5.1m/s | -58.2°C | 30.8% | -1.0hPa | 2.7V | 00:00:00 | 00:00:00 | 00:00:00 | |
| PG1ADW-2 | 2026-08-31 00:22:01 | 48.24709 | 16.98566 | 104° | 93km/h | 13269m | 4.5m/s | -58.2°C | 36.7% | 0hPa | 2.7V | 00:00:00 | 00:00:00 | 00:00:00 | |
| DO3MHA-11 | 2026-08-31 00:21:56 | 48.24740 | 16.98388 | 104° | 91km/h | 13249m | 4.1m/s | -58.5°C | 37.6% | 0hPa | 2.7V | 00:00:00 | 01:03:03 | 08:30:00 | |
| OE3JTB-15 | 2026-08-31 00:21:52 | 48.24758 | 16.98254 | 102° | 97km/h | 13233m | 4.2m/s | -58.6°C | 38.2% | 0hPa | 2.6V | 00:00:00 | 00:00:00 | 00:00:00 | |
| OE5DRO-10 | 2026-08-31 00:21:51 | 48.24763 | 16.98220 | 103° | 95km/h | 13229m | 3.8m/s | -58.6°C | 38.5% | 0hPa | 2.7V | 00:00:00 | 00:00:00 | 00:00:00 | |
| DO3MHA-11 | 2026-08-31 00:21:46 | 48.24790 | 16.98053 | 104° | 95km/h | 13209m | 3.8m/s | -58.6°C | 38.4% | 0hPa | 2.6V | 00:00:00 | 01:02:53 | 00:00:00 | |
| ATIDSZ-14 | 2026-08-31 00:21:45 | 48.24790 | 16.98053 | 104° | 93km/h | 13209m | 3.9m/s | -58.6°C | 32.3% | 0hPa | 2.6V | 00:00:00 | 00:00:00 | 00:00:00 | |
| PG1ADW-2 | 2026-08-31 00:21:41 | 48.24821 | 16.97843 | 102° | 99km/h | 13185m | 4.1m/s | -58.7°C | 38.5% | 0hPa | 2.6V | 00:00:00 | 00:00:00 | 00:00:00 | |
| DO3MHA-11 | 2026-08-31 00:21:36 | 48.24843 | 16.97701 | 105° | 100km/h | 13168m | 3.5m/s | -58.8°C | 39.7% | 0hPa | 2.6V | 00:00:00 | 01:02:43 | 00:00:00 | |
| OE3OSB-13 | 2026-08-31 00:21:34 | 48.24862 | 16.97592 | 103° | 100km/h | 13155m | 4.3m/s | -59.0°C | 33.7% | -1.0hPa | 2.6V | 00:00:00 | 00:00:00 | 00:00:00 | |
| OE5DRO-10 | 2026-08-31 00:21:32 | 48.24874 | 16.97515 | 104° | 102km/h | 13148m | 2.6m/s | -58.9°C | 40.9% | 0hPa | 2.6V | 00:00:00 | 00:00:00 | 00:00:00 | |
| DO3MHA-11 | 2026-08-31 00:21:26 | 48.24904 | 16.97330 | 103° | 100km/h | 13127m | 4.7m/s | -58.9°C | 40.5% | 0hPa | 2.6V | 00:00:00 | 01:02:33 | 00:00:00 | |
| ATIDSZ-14 | 2026-08-31 00:21:24 | 48.24910 | 16.97293 | 103° | 100km/h | 13123m | 4.1m/s | -59.0°C | 34.6% | 0hPa | 2.7V | 00:00:00 | 00:00:00 | 00:00:00 | |
| OE3JTB-15 | 2026-08-31 00:21:23 | 48.24920 | 16.97220 | 102° | 104km/h | 13115m | 4.8m/s | -59.0°C | 40.8% | 0hPa | 2.7V | 00:00:00 | 00:00:00 | 00:00:00 | |
| PG1ADW-2 | 2026-08-31 00:21:21 | 48.24930 | 16.97147 | 102° | 106km/h | 13107m | 4.8m/s | -59.0°C | 40.9% | 0hPa | 2.7V | 00:00:00 | 01:02:28 | 00:00:00 | |
| DO3MHA-11 | 2026-08-31 00:21:16 | 48.24958 | 16.96955 | 102° | 106km/h | 13086m | 4.9m/s | -59.1°C | 41.2% | 0hPa | 2.7V | 00:00:00 | 01:02:23 | 00:00:00 | |
| DO3MHA-11 | 2026-08-31 00:21:06 | 48.25019 | 16.96565 | 101° | 106km/h | 13044m | 4.4m/s | -59.1°C | 42.6% | 0hPa | 2.7V | 00:00:00 | 01:02:13 | 00:00:00 | |
| ATIDSZ-14 | 2026-08-31 00:21:04 | 48.25028 | 16.96485 | 101° | 108km/h | 13035m | 4.0m/s | -59.2°C | 36.5% | 0hPa | 2.7V | 00:00:00 | 00:00:00 | 00:00:00 | |
| OE3OSB-13 | 2026-08-31 00:21:03 | 48.25039 | 16.96406 | 102° | 104km/h | 13027m | 3.9m/s | -59.2°C | 36.3% | -1.0hPa | 2.7V | 00:00:00 | 00:00:00 | 00:00:00 | |
| PG1ADW-2 | 2026-08-31 00:21:01 | 48.25050 | 16.96330 | 104° | 102km/h | 13019m | 3.6m/s | -59.1°C | 43.6% | 0hPa | 2.7V | 00:00:00 | 00:00:00 | 00:00:00 | |
| DO3MHA-12 | 2026-08-31 00:20:57 | 48.25070 | 16.96215 | 105° | 102km/h | 13007m | 4.3m/s | -59.1°C | 43.2% | 0hPa | 2.7V | 00:00:00 | 01:02:04 | 08:30:00 | |
| DO3MHA-11 | 2026-08-31 00:20:56 | 48.25076 | 16.96175 | 105° | 104km/h | 13003m | 3.5m/s | -59.1°C | 43.2% | 0hPa | 2.7V | 00:00:00 | 01:02:03 | 00:00:00 | |
| OE3JTB-15 | 2026-08-31 00:20:54 | 48.25089 | 16.96096 | 104° | 102km/h | 12996m | 4.4m/s | -59.1°C | 42.9% | 0hPa | 2.7V | 00:00:00 | 01:02:01 | 00:00:00 | |
| DO3MHA-11 | 2026-08-31 00:20:46 | 48.25135 | 16.95796 | 104° | 102km/h | 12963m | 4.3m/s | -59.3°C | 43.4% | 0hPa | 2.7V | 00:00:00 | 01:01:53 | 00:00:00 | |
| ATIDSZ-14 | 2026-08-31 00:20:43 | 48.25146 | 16.95725 | 104° | 97km/h | 12955m | 3.8m/s | -59.4°C | 37.4% | 0hPa | 2.7V | 00:00:00 | 00:00:00 | 00:00:00 | |
| PG1ADW-2 | 2026-08-31 00:20:41 | 48.25169 | 16.95577 | 103° | 104km/h | 12939m | 3.6m/s | -59.4°C | 45.4% | 0hPa | 2.7V | 00:00:00 | 00:00:00 | 00:00:00 | |
| DO3MHA-12 | 2026-08-31 00:20:36 | 48.25191 | 16.95419 | 102° | 100km/h | 12924m | 3.6m/s | -59.5°C | 45.2% | 0hPa | 2.7V | 00:00:00 | 01:01:43 | 00:00:00 | |
| OE3OSB-13 | 2026-08-31 00:20:32 | 48.25220 | 16.95234 | 102° | 99km/h | 12904m | 4.2m/s | -59.4°C | 0% | -1.0hPa | 2.7V | 00:00:00 | 00:00:00 | 00:00:00 | |
| OE5DRO-10 | 2026-08-31 00:20:28 | 48.25249 | 16.95045 | 104° | 110km/h | 12885m | 3.2m/s | -59.4°C | 47.5% | 0hPa | 2.7V | 00:00:00 | 00:00:00 | 00:00:00 | |
| DO3MHA-12 | 2026-08-31 00:20:26 | 48.25249 | 16.95045 | 104° | 108km/h | 12885m | 3.2m/s | -59.4°C | 47.5% | 0hPa | 2.7V | 00:00:00 | 01:01:33 | 00:00:00 | |
| OE3JTB-15 | 2026-08-31 00:20:25 | 48.25262 | 16.94964 | 104° | 108km/h | 12877m | 3.6m/s | -59.4°C | 47.8% | 0hPa | 2.7V | 00:00:00 | 00:00:00 | 00:00:00 | |
| ATIDSZ-14 | 2026-08-31 00:20:23 | 48.25262 | 16.94964 | 104° | 111km/h | 12877m | 3.7m/s | -59.5°C | 40.9% | 0hPa | 2.6V | 00:00:00 | 00:00:00 | 00:00:00 | |
| PG1ADW-2 | 2026-08-31 00:20:21 | 48.25282 | 16.94845 | 107° | 106km/h | 12865m | 4.0m/s | -59.4°C | 48.0% | 0hPa | 2.6V | 00:00:00 | 00:00:00 | 00:00:00 | |
| DO3MHA-11 | 2026-08-31 00:20:06 | 48.25393 | 16.94264 | 109° | 108km/h | 12804m | 5.1m/s | -59.3°C | 49.1% | 0hPa | 2.6V | 00:00:00 | 01:01:13 | 00:00:00 | |
| ATIDSZ-14 | 2026-08-31 00:20:03 | 48.25409 | 16.94186 | 107° | 106km/h | 12796m | 4.4m/s | -59.3°C | 41.9% | 0hPa | 2.6V | 00:00:00 | 00:00:00 | 00:00:00 | |
| OE3OSB-13 | 2026-08-31 00:20:00 | 48.25440 | 16.94032 | 108° | 110km/h | 12778m | 4.2m/s | -59.3°C | 42.0% | -1.0hPa | 2.6V | 00:00:00 | 00:00:00 | 00:00:00 | |
| DO3MHA-12 | 2026-08-31 00:19:56 | 48.25477 | 16.93872 | 109° | 115km/h | 12762m | 4.3m/s | 0°C | 0% | 0hPa | 2.6V | 00:00:00 | 01:01:03 | 00:00:00 | |
| DO3MHA-11 | 2026-08-31 00:19:46 | 48.25564 | 16.93459 | 109° | 111km/h | 12723m | 4.4m/s | -59.0°C | 49.8% | 0hPa | 2.6V | 00:00:00 | 01:00:53 | 00:00:00 | |
| OE5DXL-15 | 2026-08-31 00:19:42 | 48.25618 | 16.93217 | 108° | 111km/h | 12696m | 4.3m/s | -58.9°C | 50.3% | 0hPa | 2.6V | 00:00:00 | 00:00:00 | 00:00:00 | |
| PG1ADW-2 | 2026-08-31 00:19:41 | 48.25618 | 16.93217 | 108° | 111km/h | 12696m | 4.3m/s | -58.9°C | 50.3% | 0hPa | 2.6V | 00:00:00 | 00:00:00 | 00:00:00 | |
| DO3MHA-11 | 2026-08-31 00:19:36 | 48.25653 | 16.93055 | 110° | 111km/h | 12680m | 3.5m/s | 0°C | 0% | 0hPa | 2.6V | 00:00:00 | 01:00:43 | 00:00:00 | |
| OE5DRO-10 | 2026-08-31 00:19:33 | 48.25701 | 16.92854 | 110° | 111km/h | 12660m | 3.0m/s | -58.9°C | 51.4% | 0hPa | 2.6V | 00:00:00 | 00:00:00 | 08:30:00 | |
| OE3OSB-13 | 2026-08-31 00:19:29 | 48.25719 | 16.92775 | 108° | 108km/h | 12651m | 4.1m/s | -59.0°C | 44.6% | -1.0hPa | 2.6V | 00:00:00 | 00:00:00 | 00:00:00 | |
| S52SK | 2026-08-31 00:19:27 | 48.25728 | 16.92736 | 108° | 110km/h | 12648m | 3.5m/s | -59.0°C | 45.4% | 0hPa | 2.6V | 00:00:00 | 00:00:00 | 00:00:00 | |
| DO3MHA-11 | 2026-08-31 00:19:26 | 48.25745 | 16.92656 | 109° | 111km/h | 12640m | 3.6m/s | 0°C | 0% | 0hPa | 2.6V | 00:00:00 | 01:00:33 | 00:00:00 | |
| PG1ADW-2 | 2026-08-31 00:19:21 | 48.25834 | 16.92257 | 109° | 110km/h | 12600m | 3.7m/s | -58.9°C | 53.2% | 0hPa | 2.6V | 00:00:00 | 00:00:00 | 08:30:00 | |
| DO3MHA-11 | 2026-08-31 00:19:16 | 48.25834 | 16.92257 | 109° | 108km/h | 12600m | 3.7m/s | 0°C | 0% | 0hPa | 2.6V | 00:00:00 | 01:00:23 | 00:00:00 | |
| OE5DRO-10 | 2026-08-31 00:19:14 | 48.25852 | 16.92179 | 109° | 110km/h | 12591m | 4.5m/s | -58.8°C | 52.3% | 0hPa | 2.6V | 00:00:00 | 00:00:00 | 00:00:00 | |
| DO3MHA-11 | 2026-08-31 00:19:06 | 48.25923 | 16.91869 | 109° | 108km/h | 12559m | 3.4m/s | 0°C | 0% | 0hPa | 2.6V | 00:00:00 | 01:00:13 | 00:00:00 | |
| OE3OSB-13 | 2026-08-31 00:18:58 | 48.25992 | 16.91559 | 105° | 102km/h | 12528m | 4.1m/s | -58.7°C | 47.1% | -1.0hPa | 2.6V | 00:00:00 | 00:00:00 | 00:00:00 | |
| DO3MHA-11 | 2026-08-31 00:18:56 | 48.26007 | 16.91482 | 107° | 108km/h | 12520m | 4.6m/s | 0°C | 0% | 0hPa | 2.6V | 00:00:00 | 01:00:03 | 00:00:00 | |
| OE5DRO-10 | 2026-08-31 00:18:43 | 48.26128 | 16.90967 | 111° | 113km/h | 12466m | 4.3m/s | -58.5°C | 56.5% | 0hPa | 2.6V | 00:00:00 | 00:00:00 | 00:00:00 | |
| ATIDSZ-14 | 2026-08-31 00:18:41 | 48.26138 | 16.90927 | 111° | 110km/h | 12462m | 4.0m/s | -58.5°C | 49.4% | 0hPa | 2.6V | 00:00:00 | 00:00:00 | 00:00:00 | |
| HA6NAB-11 | 2026-08-31 00:18:37 | 48.26186 | 16.90730 | 111° | 115km/h | 12443m | 3.9m/s | -58.5°C | 49.7% | 0hPa | 2.6V | 00:00:00 | 00:00:00 | 00:00:00 | |
| HA6NAB-11 | 2026-08-31 00:18:30 | 48.26244 | 16.90484 | 110° | 115km/h | 12419m | 4.0m/s | -58.5°C | 50.2% | 0hPa | 2.6V | 00:00:00 | 00:00:00 | 00:00:00 | |
| OE3OSB-13 | 2026-08-31 00:18:27 | 48.26284 | 16.90322 | 110° | 111km/h | 12402m | 4.7m/s | -58.4°C | 50.1% | -1.0hPa | 2.6V | 00:00:00 | 00:00:00 | 00:00:00 | |
| HA6NAB-11 | 2026-08-31 00:18:25 | 48.26304 | 16.90242 | 112° | 113km/h | 12394m | 4.3m/s | -58.3°C | 50.9% | 0hPa | 2.6V | 00:00:00 | 00:00:00 | 00:00:00 | |
| OE5DRO-10 | 2026-08-31 00:18:24 | 48.26315 | 16.90202 | 113° | 108km/h | 12390m | 4.1m/s | -58.3°C | 58.2% | 0hPa | 2.6V | 00:00:00 | 00:00:00 | 00:00:00 | |
| PG1ADW-2 | 2026-08-31 00:18:21 | 48.26346 | 16.90081 | 111° | 111km/h | 12377m | 3.3m/s | -58.2°C | 58.5% | 0hPa | 2.7V | 00:00:00 | 00:00:00 | 00:00:00 | |
| ATIDSZ-14 | 2026-08-31 00:18:20 | 48.26346 | 16.90081 | 112° | 113km/h | 12377m | 3.4m/s | -58.2°C | 51.4% | 0hPa | 2.7V | 00:00:00 | 00:00:00 | 00:00:00 | |
| HA6NAB-11 | 2026-08-31 00:18:18 | 48.26368 | 16.90001 | 113° | 113km/h | 12369m | 4.0m/s | -58.2°C | 51.5% | 0hPa | 2.7V | 00:00:00 | 00:00:00 | 00:00:00 | |
| HA6NAB-11 | 2026-08-31 00:18:12 | 48.26431 | 16.89763 | 114° | 111km/h | 12344m | 4.3m/s | -58.1°C | 51.2% | 0hPa | 2.7V | 00:00:00 | 00:00:00 | 00:00:00 | |
| OE3OSB-13 | 2026-08-31 00:17:56 | 48.26615 | 16.89106 | 112° | 111km/h | 12275m | 3.9m/s | -57.7°C | 51.1% | -1.0hPa | 2.7V | 00:00:00 | 00:00:00 | 00:00:00 | |
| PG1ADW-2 | 2026-08-31 00:17:41 | 48.26773 | 16.88544 | 116° | 106km/h | 12213m | 3.8m/s | -57.3°C | 57.2% | 0hPa | 2.7V | 00:00:00 | 00:00:00 | 00:00:00 | |
| ATIDSZ-14 | 2026-08-31 00:17:39 | 48.26785 | 16.88507 | 116° | 106km/h | 12208m | 4.6m/s | -57.3°C | 50.6% | 0hPa | 2.7V | 00:00:00 | 00:00:00 | 00:00:00 | |
| HA6NAB-11 | 2026-08-31 00:17:37 | 48.26807 | 16.88434 | 114° | 106km/h | 12200m | 4.6m/s | -57.3°C | 50.9% | 0hPa | 2.7V | 00:00:00 | 00:00:00 | 00:00:00 | |
| OE5DRO-10 | 2026-08-31 00:17:36 | 48.26827 | 16.88361 | 111° | 102km/h | 12191m | -0.5m/s | -57.2°C | 58.6% | 0hPa | 2.7V | 00:00:00 | 00:00:00 | 00:00:00 | |
| HA6NAB-11 | 2026-08-31 00:17:31 | 48.26866 | 16.88216 | 112° | 106km/h | 12177m | 4.4m/s | -57.2°C | 52.0% | 0hPa | 2.7V | 00:00:00 | 00:00:00 | 00:00:00 | |
| OE3OSB-13 | 2026-08-31 00:17:25 | 48.26950 | 16.87917 | 113° | 110km/h | 12145m | 4.3m/s | -57.0°C | 51.2% | -1.0hPa | 2.7V | 00:00:00 | 00:00:00 | 00:00:00 | |
| HA6NAB-11 | 2026-08-31 00:17:20 | 48.26981 | 16.87801 | 112° | 108km/h | 12133m | 4.4m/s | -57.0°C | 51.0% | 0hPa | 2.7V | 00:00:00 | 00:00:00 | 00:00:00 | |
| ATIDSZ-14 | 2026-08-31 00:17:19 | 48.26991 | 16.87764 | 112° | 106km/h | 12128m | 4.2m/s | -56.9°C | 50.9% | 0hPa | 2.7V | 00:00:00 | 00:00:00 | 00:00:00 | |
| OE5DRO-10 | 2026-08-31 00:17:15 | 48.27039 | 16.87581 | 113° | 104km/h | 12106m | 3.9m/s | -56.7°C | 58.0% | 0hPa | 2.7V | 00:00:00 | 00:00:00 | 00:00:00 | |
| HA6NAB-11 | 2026-08-31 00:17:14 | 48.27039 | 16.87581 | 113° | 102km/h | 12106m | 3.9m/s | -56.8°C | 51.3% | 0hPa | 2.7V | 00:00:00 | 00:00:00 | 00:00:00 | |
| HA6NAB-11 | 2026-08-31 00:17:08 | 48.27103 | 16.87364 | 116° | 108km/h | 12081m | 5.0m/s | -56.6°C | 51.5% | 0hPa | 2.7V | 00:00:00 | 00:00:00 | 00:00:00 | |
| OE3OSB-13 | 2026-08-31 00:16:54 | 48.27273 | 16.86785 | 115° | 104km/h | 12015m | 4.3m/s | -56.2°C | 50.3% | -1.0hPa | 2.7V | 00:00:00 | 00:00:00 | 00:00:00 | |
| S52SK | 2026-08-31 00:16:53 | 48.27261 | 16.86821 | 116° | 106km/h | 12019m | 4.4m/s | -56.2°C | 50.6% | 0hPa | 2.7V | 00:00:00 | 00:00:00 | 00:00:00 | |
| S52SK | 2026-08-31 00:16:47 | 48.27330 | 16.86598 | 114° | 108km/h | 11995m | 4.5m/s | -56.1°C | 49.6% | 0hPa | 2.7V | 00:00:00 | 00:00:00 | 00:00:00 | |
| PG1ADW-2 | 2026-08-31 00:16:41 | 48.27402 | 16.86356 | 115° | 102km/h | 11964m | 4.4m/s | -55.8°C | 57.3% | 0hPa | 2.7V | 00:00:00 | 00:00:00 | 00:00:00 | |
| ATIDSZ-14 | 2026-08-31 00:16:38 | 48.27423 | 16.86287 | 117° | 104km/h | 11955m | 4.5m/s | -55.8°C | 50.8% | 0hPa | 2.7V | 00:00:00 | 00:00:00 | 00:00:00 | |
| OE5DRO-10 | 2026-08-31 00:16:37 | 48.27445 | 16.86215 | 115° | 104km/h | 11947m | 4.9m/s | -55.7°C | 57.0% | 0hPa | 2.7V | 00:00:00 | 00:00:00 | 00:00:00 | |
| OE3OSB-13 | 2026-08-31 00:16:23 | 48.27594 | 16.85672 | 112° | 102km/h | 11880m | 3.6m/s | -55.4°C | 50.1% | -1.0hPa | 2.7V | 00:00:00 | 00:00:00 | 00:00:00 | |
| PG1ADW-2 | 2026-08-31 00:16:21 | 48.27603 | 16.85636 | 113° | 100km/h | 11876m | 5.2m/s | -55.3°C | 56.2% | 0hPa | 2.7V | 00:00:00 | 00:00:00 | 08:30:00 | |
| OE5DRO-10 | 2026-08-31 00:16:17 | 48.27641 | 16.85492 | 112° | 100km/h | 11858m | 4.9m/s | -55.2°C | 55.8% | 0hPa | 2.7V | 00:00:00 | 00:00:00 | 00:00:00 | |
| OE3OSB-13 | 2026-08-31 00:15:52 | 48.27895 | 16.84571 | 113° | 102km/h | 11748m | 4.9m/s | -54.5°C | 48.3% | -1.0hPa | 2.7V | 00:00:00 | 00:00:00 | 00:00:00 | |
| PG1ADW-2 | 2026-08-31 00:15:41 | 48.27992 | 16.84225 | 115° | 100km/h | 11704m | 4.8m/s | -54.1°C | 54.4% | 0hPa | 2.7V | 00:00:00 | 00:00:00 | 00:00:00 | |
| HA6NAB-11 | 2026-08-31 00:15:40 | 48.27992 | 16.84225 | 116° | 100km/h | 11704m | 4.8m/s | -54.2°C | 48.4% | 0hPa | 2.7V | 00:00:00 | 00:00:00 | 00:00:00 | |
| OE5DRO-10 | 2026-08-31 00:15:38 | 48.28026 | 16.84119 | 116° | 100km/h | 11692m | 4.9m/s | -54.1°C | 53.9% | 0hPa | 2.7V | 00:00:00 | 00:00:00 | 08:30:00 | |
| ATIDSZ-14 | 2026-08-31 00:15:37 | 48.28037 | 16.84082 | 115° | 106km/h | 11688m | 3.8m/s | -54.2°C | 48.1% | 0hPa | 2.7V | 00:00:00 | 00:00:00 | 00:00:00 | |
| HA6NAB-11 | 2026-08-31 00:15:36 | 48.28048 | 16.84046 | 115° | 104km/h | 11684m | 4.2m/s | -54.2°C | 47.9% | 0hPa | 2.7V | 00:00:00 | 00:00:00 | 00:00:00 | |
| HA6NAB-11 | 2026-08-31 00:15:29 | 48.28108 | 16.83838 | 115° | 97km/h | 11658m | 3.1m/s | -54.0°C | 47.8% | 0hPa | 2.7V | 00:00:00 | 00:00:00 | 00:00:00 | |
| HA6NAB-11 | 2026-08-31 00:15:23 | 48.28166 | 16.83631 | 114° | 102km/h | 11632m | 4.4m/s | -53.8°C | 46.6% | 0hPa | 2.7V | 00:00:00 | 00:00:00 | 00:00:00 | |
| OE3OSB-13 | 2026-08-31 00:15:21 | 48.28204 | 16.83489 | 111° | 99km/h | 11614m | 4.4m/s | -53.6°C | 45.5% | -1.0hPa | 2.7V | 00:00:00 | 00:00:00 | 00:00:00 | |
| ATIDSZ-14 | 2026-08-31 00:15:17 | 48.28231 | 16.83386 | 113° | 99km/h | 11601m | 4.1m/s | -53.5°C | 45.8% | 0hPa | 2.7V | 00:00:00 | 00:00:00 | 00:00:00 | |
| HA6NAB-11 | 2026-08-31 00:15:12 | 48.28269 | 16.83249 | 112° | 99km/h | 11584m | 3.5m/s | -53.4°C | 46.4% | 0hPa | 2.7V | 00:00:00 | 00:00:00 | 00:00:00 | |
| OE3OSB-13 | 2026-08-31 00:14:50 | 48.28477 | 16.82393 | 108° | 102km/h | 11484m | 3.4m/s | -52.8°C | 46.4% | -1.0hPa | 2.7V | 00:00:00 | 00:00:00 | 00:00:00 | |
| PG1ADW-2 | 2026-08-31 00:14:41 | 48.28546 | 16.82100 | 109° | 102km/h | 11451m | 4.5m/s | -52.5°C | 51.9% | 0hPa | 2.7V | 00:00:00 | 00:55:48 | 00:00:00 | |
| ATIDSZ-14 | 2026-08-31 00:14:35 | 48.28585 | 16.81916 | 110° | 100km/h | 11430m | 4.2m/s | -52.4°C | 47.8% | 0hPa | 2.7V | 00:00:00 | 00:00:00 | 00:00:00 | |
| OE5DRO-10 | 2026-08-31 00:14:31 | 48.28627 | 16.81735 | 108° | 102km/h | 11410m | 4.6m/s | -52.2°C | 52.8% | 0hPa | 2.7V | 00:00:00 | 00:00:00 | 00:00:00 | |
| PG1ADW-2 | 2026-08-31 00:14:21 | 48.28699 | 16.81366 | 108° | 99km/h | 11365m | 4.3m/s | -51.8°C | 51.8% | 0hPa | 2.7V | 00:00:00 | 00:00:00 | 00:00:00 | |
| OE3OSB-13 | 2026-08-31 00:14:19 | 48.28719 | 16.81257 | 103° | 99km/h | 11351m | 4.0m/s | -51.8°C | 47.1% | -1.0hPa | 2.7V | 00:00:00 | 00:00:00 | 00:00:00 | |
| ATIDSZ-14 | 2026-08-31 00:14:14 | 48.28736 | 16.81146 | 104° | 99km/h | 11339m | 3.2m/s | -51.7°C | 48.3% | 0hPa | 2.7V | 00:00:00 | 00:00:00 | 00:00:00 | |
| OE3OSB-13 | 2026-08-31 00:13:47 | 48.28881 | 16.80122 | 98° | 95km/h | 11221m | 4.2m/s | -50.8°C | 46.1% | -1.0hPa | 2.7V | 00:00:00 | 00:00:00 | 00:00:00 | |
| PG1ADW-2 | 2026-08-31 00:13:41 | 48.28906 | 16.79908 | 102° | 97km/h | 11195m | 4.5m/s | -50.5°C | 52.4% | 0hPa | 2.7V | 00:00:00 | 00:00:00 | 00:00:00 | |
| ATIDSZ-14 | 2026-08-31 00:13:34 | 48.28934 | 16.79689 | 100° | 99km/h | 11171m | 4.1m/s | -50.3°C | 47.0% | 0hPa | 2.7V | 00:00:00 | 00:00:00 | 00:00:00 | |
| HA6NAB-11 | 2026-08-31 00:13:25 | 48.28970 | 16.79367 | 101° | 95km/h | 11134m | 4.3m/s | -50.0°C | 46.4% | 0hPa | 2.7V | 00:00:00 | 00:00:00 | 00:00:00 | |
| OE5DRO-10 | 2026-08-31 00:13:22 | 48.28986 | 16.79224 | 99° | 97km/h | 11118m | 4.2m/s | -49.8°C | 50.6% | 0hPa | 2.7V | 00:00:00 | 00:00:00 | 00:00:00 | |
| PG1ADW-2 | 2026-08-31 00:13:21 | 48.28990 | 16.79188 | 99° | 97km/h | 11113m | 4.1m/s | -49.8°C | 50.4% | 0hPa | 2.7V | 00:00:00 | 00:54:28 | 08:30:00 | |
| HA6NAB-11 | 2026-08-31 00:13:19 | 48.28993 | 16.79151 | 99° | 97km/h | 11109m | 4.1m/s | -49.8°C | 45.2% | 0hPa | 2.7V | 00:00:00 | 00:00:00 | 00:00:00 | |
| OE3OSB-13 | 2026-08-31 00:13:16 | 48.29009 | 16.79006 | 98° | 97km/h | 11093m | 4.0m/s | -49.7°C | 45.0% | -1.0hPa | 2.7V | 00:00:00 | 00:00:00 | 00:00:00 | |
| HA6NAB-11 | 2026-08-31 00:13:14 | 48.29012 | 16.78969 | 99° | 97km/h | 11089m | 4.3m/s | -49.7°C | 45.2% | 0hPa | 2.7V | 00:00:00 | 00:00:00 | 00:00:00 | |
| ATIDSZ-14 | 2026-08-31 00:13:13 | 48.29016 | 16.78933 | 99° | 95km/h | 11084m | 4.4m/s | -49.6°C | 45.5% | 0hPa | 2.7V | 00:00:00 | 00:00:00 | 00:00:00 | |
| OE5DRO-10 | 2026-08-31 00:13:03 | 48.29060 | 16.78536 | 101° | 97km/h | 11039m | 4.3m/s | -49.2°C | 50.8% | 0hPa | 2.7V | 00:00:00 | 00:00:00 | 00:00:00 | |
| HA6NAB-11 | 2026-08-31 00:13:02 | 48.29060 | 16.78536 | 102° | 99km/h | 11039m | 4.3m/s | -49.3°C | 45.7% | 0hPa | 2.7V | 00:00:00 | 00:00:00 | 00:00:00 | |
| OE3OSB-13 | 2026-08-31 00:12:45 | 48.29132 | 16.77905 | 100° | 99km/h | 10964m | 4.6m/s | -48.6°C | 43.5% | -1.0hPa | 2.7V | 00:00:00 | 00:00:00 | 00:00:00 | |
| PG1ADW-2 | 2026-08-31 00:12:41 | 48.29146 | 16.77752 | 95° | 95km/h | 10948m | 3.5m/s | -48.4°C | 48.6% | 0hPa | 2.7V | 00:00:00 | 00:00:00 | 00:00:00 | |
| OE3JTB-15 | 2026-08-31 00:12:36 | 48.29160 | 16.77576 | 101° | 97km/h | 10926m | 4.5m/s | -48.3°C | 47.9% | 0hPa | 2.7V | 00:00:00 | 00:00:00 | 08:30:00 | |
| OE5DRO-10 | 2026-08-31 00:12:35 | 48.29165 | 16.77542 | 102° | 97km/h | 10922m | 4.5m/s | -48.3°C | 48.1% | 0hPa | 2.7V | 00:00:00 | 00:00:00 | 00:00:00 | |
| ATIDSZ-14 | 2026-08-31 00:12:32 | 48.29174 | 16.77472 | 102° | 93km/h | 10913m | 3.7m/s | -48.2°C | 43.3% | 0hPa | 2.7V | 00:00:00 | 00:00:00 | 00:00:00 | |
| PG1ADW-2 | 2026-08-31 00:12:21 | 48.29212 | 16.77038 | 98° | 97km/h | 10869m | 4.8m/s | -47.7°C | 47.6% | 0hPa | 2.7V | 00:00:00 | 00:00:00 | 00:00:00 | |
| OE5DRO-10 | 2026-08-31 00:12:16 | 48.29229 | 16.76859 | 96° | 99km/h | 10848m | 4.7m/s | -47.5°C | 47.3% | 0hPa | 2.7V | 00:00:00 | 00:00:00 | 08:30:00 | |
| OE3OSB-13 | 2026-08-31 00:12:14 | 48.29235 | 16.76787 | 97° | 95km/h | 10839m | 4.7m/s | -47.5°C | 42.6% | -1.0hPa | 2.7V | 00:00:00 | 00:00:00 | 00:00:00 | |
| ATIDSZ-14 | 2026-08-31 00:12:11 | 48.29241 | 16.76714 | 98° | 99km/h | 10832m | 4.0m/s | -47.4°C | 42.9% | 0hPa | 2.7V | 00:00:00 | 00:00:00 | 00:00:00 | |
| OE3JTB-15 | 2026-08-31 00:12:06 | 48.29262 | 16.76491 | 98° | 97km/h | 10807m | 4.5m/s | -47.2°C | 46.9% | 0hPa | 2.7V | 00:00:00 | 00:00:00 | 00:00:00 | |
| PG1ADW-2 | 2026-08-31 00:12:01 | 48.29277 | 16.76311 | 96° | 99km/h | 10786m | 3.7m/s | -47.0°C | 46.5% | 0hPa | 2.7V | 00:00:00 | 00:53:08 | 00:00:00 | |
| S52SK | 2026-08-31 00:11:57 | 48.29284 | 16.76158 | 97° | 100km/h | 10769m | 5.3m/s | -46.9°C | 41.9% | 0hPa | 2.7V | 00:00:00 | 00:00:00 | 00:00:00 | |
| S52SK | 2026-08-31 00:11:51 | 48.29301 | 16.75969 | 99° | 102km/h | 10749m | 3.8m/s | -46.7°C | 42.2% | 0hPa | 2.7V | 00:00:00 | 00:00:00 | 00:00:00 | |
| OE3OSB-13 | 2026-08-31 00:11:43 | 48.29329 | 16.75647 | 96° | 99km/h | 10714m | 4.5m/s | -46.3°C | 40.9% | -1.0hPa | 2.7V | 00:00:00 | 00:00:00 | 00:00:00 | |
| PG1ADW-2 | 2026-08-31 00:11:41 | 48.29335 | 16.75572 | 98° | 100km/h | 10705m | 3.9m/s | -46.2°C | 45.9% | 0hPa | 2.7V | 00:00:00 | 00:00:00 | 00:00:00 | |
| OE5DRO-10 | 2026-08-31 00:11:38 | 48.29344 | 16.75459 | 95° | 100km/h | 10692m | 4.8m/s | -46.1°C | 45.6% | 0hPa | 2.7V | 00:00:00 | 00:00:00 | 00:00:00 | |
| OE3JTB-15 | 2026-08-31 00:11:33 | 48.29354 | 16.75272 | 95° | 102km/h | 10672m | 3.9m/s | -45.9°C | 45.8% | 0hPa | 2.7V | 00:00:00 | 00:52:40 | 00:00:00 | |
| ATIDSZ-14 | 2026-08-31 00:11:30 | 48.29358 | 16.75198 | 96° | 100km/h | 10665m | 3.2m/s | -45.9°C | 41.3% | 0hPa | 2.7V | 00:00:00 | 00:00:00 | 00:00:00 | |
| PG1ADW-2 | 2026-08-31 00:11:21 | 48.29389 | 16.74820 | 98° | 102km/h | 10625m | 5.2m/s | -45.5°C | 45.5% | 0hPa | 2.7V | 00:00:00 | 00:00:00 | 00:00:00 | |
| OE5DRO-10 | 2026-08-31 00:11:19 | 48.29395 | 16.74743 | 98° | 102km/h | 10616m | 4.9m/s | -45.4°C | 45.8% | 0hPa | 2.7V | 00:00:00 | 00:00:00 | 00:00:00 | |
| OE3OSB-13 | 2026-08-31 00:11:12 | 48.29415 | 16.74477 | 93° | 99km/h | 10588m | 4.6m/s | -45.3°C | 41.5% | -1.0hPa | 2.7V | 00:00:00 | 00:00:00 | 00:00:00 | |
| ATIDSZ-14 | 2026-08-31 00:11:10 | 48.29417 | 16.74439 | 95° | 100km/h | 10584m | 4.1m/s | -45.3°C | 42.0% | 0hPa | 2.7V | 00:00:00 | 00:00:00 | 00:00:00 | |
| OE3JTB-15 | 2026-08-31 00:11:02 | 48.29444 | 16.74086 | 97° | 100km/h | 10548m | 4.1m/s | -45.1°C | 48.6% | 0hPa | 2.7V | 00:00:00 | 00:00:00 | 00:00:00 | |
| PG1ADW-2 | 2026-08-31 00:11:01 | 48.29447 | 16.74046 | 96° | 104km/h | 10544m | 4.3m/s | -45.1°C | 49.0% | 0hPa | 2.7V | 00:00:00 | 00:00:00 | 00:00:00 | |
| OE5DRO-10 | 2026-08-31 00:11:00 | 48.29450 | 16.74006 | 96° | 104km/h | 10540m | 3.8m/s | -45.1°C | 49.3% | 0hPa | 2.7V | 00:00:00 | 00:00:00 | 00:00:00 | |
| HA6NAB-11 | 2026-08-31 00:10:57 | 48.29455 | 16.73932 | 99° | 97km/h | 10531m | 3.2m/s | -45.1°C | 45.7% | 0hPa | 2.7V | 00:00:00 | 00:00:00 | 00:00:00 | |
| HA6NAB-11 | 2026-08-31 00:10:51 | 48.29476 | 16.73703 | 97° | 106km/h | 10505m | 5.0m/s | -45.1°C | 48.0% | 0hPa | 2.7V | 00:00:00 | 00:00:00 | 00:00:00 | |
| ATIDSZ-14 | 2026-08-31 00:10:49 | 48.29482 | 16.73623 | 97° | 106km/h | 10496m | 3.8m/s | -45.2°C | 49.1% | 0hPa | 2.7V | 00:00:00 | 00:00:00 | 00:00:00 | |
| HA6NAB-11 | 2026-08-31 00:10:45 | 48.29494 | 16.73462 | 98° | 106km/h | 10479m | 4.0m/s | -45.2°C | 50.4% | 0hPa | 2.7V | 00:00:00 | 00:00:00 | 00:00:00 | |
| PG1ADW-2 | 2026-08-31 00:10:41 | 48.29510 | 16.73269 | 97° | 97km/h | 10456m | 4.7m/s | -45.0°C | 55.7% | 0hPa | 2.7V | 00:00:00 | 00:51:48 | 00:00:00 | |
| HA6NAB-11 | 2026-08-31 00:10:40 | 48.29510 | 16.73269 | 98° | 102km/h | 10456m | 4.8m/s | -45.1°C | 51.1% | 0hPa | 2.7V | 00:00:00 | 00:00:00 | 00:00:00 | |
| HA6NAB-11 | 2026-08-31 00:10:34 | 48.29526 | 16.73047 | 99° | 97km/h | 10431m | 4.1m/s | -44.9°C | 51.4% | 0hPa | 2.7V | 00:00:00 | 00:00:00 | 00:00:00 | |
| OE3JTB-15 | 2026-08-31 00:10:33 | 48.29532 | 16.72975 | 96° | 97km/h | 10424m | 4.8m/s | -44.7°C | 54.9% | 0hPa | 2.7V | 00:00:00 | 00:00:00 | 00:00:00 | |
| ATIDSZ-14 | 2026-08-31 00:10:28 | 48.29542 | 16.72832 | 98° | 97km/h | 10406m | 3.5m/s | -44.6°C | 50.8% | 0hPa | 2.7V | 00:00:00 | 00:00:00 | 00:00:00 | |
| OE5DRO-10 | 2026-08-31 00:10:22 | 48.29561 | 16.72575 | 95° | 100km/h | 10378m | 2.5m/s | -44.3°C | 55.1% | 0hPa | 2.7V | 00:00:00 | 00:00:00 | 00:00:00 | |
| PG1ADW-2 | 2026-08-31 00:10:21 | 48.29563 | 16.72538 | 96° | 99km/h | 10375m | 4.6m/s | -44.3°C | 54.0% | 0hPa | 2.7V | 00:00:00 | 00:00:00 | 08:30:00 | |
| OE3OSB-13 | 2026-08-31 00:10:10 | 48.29595 | 16.72087 | 96° | 100km/h | 10324m | 4.5m/s | -43.9°C | 49.4% | -1.0hPa | 2.7V | 00:00:00 | 00:00:00 | 00:00:00 | |
| ATIDSZ-14 | 2026-08-31 00:10:08 | 48.29595 | 16.72086 | 97° | 100km/h | 10324m | 4.5m/s | -43.9°C | 49.6% | 0hPa | 2.7V | 00:00:00 | 00:00:00 | 00:00:00 | |
| OE5DRO-10 | 2026-08-31 00:10:03 | 48.29613 | 16.71862 | 98° | 102km/h | 10299m | 4.6m/s | -43.6°C | 54.0% | 0hPa | 2.7V | 00:00:00 | 00:00:00 | 00:00:00 | |
| ATIDSZ-14 | 2026-08-31 00:09:47 | 48.29656 | 16.71297 | 96° | 106km/h | 10236m | 3.0m/s | 0°C | 0% | 0hPa | 2.7V | 00:00:00 | 00:00:00 | 00:00:00 | |
| OE5DRO-10 | 2026-08-31 00:09:44 | 48.29670 | 16.71135 | 99° | 97km/h | 10221m | 4.1m/s | -43.2°C | 57.3% | 0hPa | 2.7V | 00:00:00 | 00:00:00 | 00:00:00 | |
| PG1ADW-2 | 2026-08-31 00:09:41 | 48.29679 | 16.71026 | 96° | 95km/h | 10207m | 5.1m/s | -43.0°C | 57.3% | 0hPa | 2.7V | 00:00:00 | 00:00:00 | 00:00:00 | |
| OE3OSB-13 | 2026-08-31 00:09:39 | 48.29686 | 16.70918 | 96° | 99km/h | 10193m | 4.3m/s | -43.0°C | 53.4% | -1.0hPa | 2.7V | 00:00:00 | 00:00:00 | 00:00:00 | |
| OE3JTB-15 | 2026-08-31 00:09:32 | 48.29702 | 16.70697 | 97° | 91km/h | 10164m | 5.4m/s | -42.9°C | 59.3% | 0hPa | 2.7V | 00:00:00 | 00:50:39 | 00:00:00 | |
| ATIDSZ-14 | 2026-08-31 00:09:27 | 48.29713 | 16.70555 | 97° | 93km/h | 10146m | 4.3m/s | 0°C | 0% | 0hPa | 2.7V | 00:00:00 | 00:00:00 | 00:00:00 | |
| OE5DRO-10 | 2026-08-31 00:09:25 | 48.29721 | 16.70447 | 97° | 89km/h | 10131m | 5.5m/s | -42.7°C | 59.0% | 0hPa | 2.7V | 00:00:00 | 00:00:00 | 08:30:00 | |
| HA6NAB-11 | 2026-08-31 00:09:22 | 48.29727 | 16.70378 | 99° | 88km/h | 10121m | 2.8m/s | -42.6°C | 55.9% | 0hPa | 2.7V | 00:00:00 | 00:00:00 | 00:00:00 | |
| PG1ADW-2 | 2026-08-31 00:09:21 | 48.29732 | 16.70312 | 95° | 89km/h | 10114m | 4.7m/s | -42.5°C | 59.4% | 0hPa | 2.7V | 00:00:00 | 00:50:28 | 00:00:00 | |
| HA6NAB-11 | 2026-08-31 00:09:16 | 48.29739 | 16.70173 | 96° | 93km/h | 10096m | 5.0m/s | -42.4°C | 54.0% | 0hPa | 2.7V | 00:00:00 | 00:00:00 | 00:00:00 | |
| S52SK | 2026-08-31 00:09:12 | 48.29749 | 16.70036 | 96° | 89km/h | 10078m | 4.2m/s | -42.3°C | 53.5% | 0hPa | 2.7V | 00:00:00 | 00:00:00 | 00:00:00 | |
| HA6NAB-11 | 2026-08-31 00:09:10 | 48.29752 | 16.69968 | 93° | 91km/h | 10069m | 4.7m/s | -42.2°C | 53.7% | 0hPa | 2.7V | 00:00:00 | 00:00:00 | 00:00:00 | |
| OE3OSB-13 | 2026-08-31 00:09:08 | 48.29758 | 16.69835 | 97° | 86km/h | 10052m | 3.7m/s | -42.1°C | 54.2% | -1.0hPa | 2.7V | 00:00:00 | 00:00:00 | 00:00:00 | |
| OE5DRO-10 | 2026-08-31 00:09:06 | 48.29760 | 16.69803 | 97° | 88km/h | 10048m | 4.1m/s | -42.0°C | 58.5% | 0hPa | 2.7V | 00:00:00 | 00:00:00 | 00:00:00 | |
| HA6NAB-11 | 2026-08-31 00:09:05 | 48.29763 | 16.69769 | 97° | 89km/h | 10044m | 4.1m/s | -42.1°C | 54.2% | 0hPa | 2.7V | 00:00:00 | 00:00:00 | 00:00:00 | |
| OE3JTB-15 | 2026-08-31 00:09:03 | 48.29767 | 16.69702 | 95° | 82km/h | 10037m | 4.6m/s | -42.0°C | 57.8% | 0hPa | 2.7V | 00:00:00 | 00:00:00 | 00:00:00 | |
| PG1ADW-2 | 2026-08-31 00:09:01 | 48.29771 | 16.69636 | 96° | 86km/h | 10028m | 3.9m/s | -41.9°C | 58.1% | 0hPa | 2.7V | 00:00:00 | 00:00:00 | 00:00:00 | |
| HA6NAB-11 | 2026-08-31 00:08:59 | 48.29773 | 16.69603 | 96° | 88km/h | 10023m | 4.6m/s | -41.9°C | 53.3% | 0hPa | 2.7V | 00:00:00 | 00:00:00 | 00:00:00 | |
| HA6NAB-11 | 2026-08-31 00:08:53 | 48.29787 | 16.69408 | 97° | 84km/h | 9997m | 4.3m/s | -41.7°C | 54.5% | 0hPa | 2.7V | 00:00:00 | 00:00:00 | 00:00:00 | |
| OE5DXL-15 | 2026-08-31 00:08:52 | 48.29795 | 16.69280 | 97° | 86km/h | 9982m | 4.1m/s | -41.6°C | 57.5% | 0hPa | 2.7V | 00:00:00 | 00:49:57 | 00:00:00 | |
| OE5DRO-10 | 2026-08-31 00:08:47 | 48.29803 | 16.69179 | 97° | 86km/h | 9968m | 5.0m/s | -41.4°C | 56.9% | 0hPa | 2.7V | 00:00:00 | 00:00:00 | 00:00:00 | |
| PG1ADW-2 | 2026-08-31 00:08:41 | 48.29821 | 16.68985 | 100° | 86km/h | 9943m | 5.0m/s | -41.2°C | 56.3% | 0hPa | 2.7V | 00:00:00 | 00:00:00 | 00:00:00 | |
| OE3OSB-13 | 2026-08-31 00:08:37 | 48.29835 | 16.68825 | 96° | 84km/h | 9920m | 5.2m/s | -41.0°C | 51.2% | -1.0hPa | 2.7V | 00:00:00 | 00:00:00 | 00:00:00 | |
| OE5DRO-10 | 2026-08-31 00:08:28 | 48.29859 | 16.68570 | 95° | 84km/h | 9883m | 4.6m/s | -40.7°C | 55.0% | 0hPa | 2.7V | 00:00:00 | 00:00:00 | 00:00:00 | |
| PG1ADW-2 | 2026-08-31 00:08:21 | 48.29873 | 16.68342 | 95° | 82km/h | 9852m | 4.6m/s | -40.4°C | 53.7% | 0hPa | 2.7V | 00:00:00 | 00:00:00 | 00:00:00 | |
| OE5DRO-10 | 2026-08-31 00:08:09 | 48.29902 | 16.67967 | 94° | 80km/h | 9794m | 5.0m/s | -39.9°C | 50.4% | 0hPa | 2.7V | 00:00:00 | 00:00:00 | 00:00:00 | |
| OE3OSB-13 | 2026-08-31 00:08:06 | 48.29906 | 16.67846 | 93° | 75km/h | 9774m | 5.3m/s | -39.8°C | 45.3% | -1.0hPa | 2.7V | 00:00:00 | 00:00:00 | 00:00:00 | |
| PG1ADW-2 | 2026-08-31 00:08:01 | 48.29916 | 16.67724 | 99° | 78km/h | 9755m | 4.3m/s | -39.5°C | 47.7% | 0hPa | 2.7V | 00:00:00 | 00:49:08 | 00:00:00 | |
| OE5DRO-10 | 2026-08-31 00:07:50 | 48.29940 | 16.67393 | 95° | 78km/h | 9703m | 4.4m/s | -39.1°C | 48.2% | 0hPa | 2.7V | 00:00:00 | 00:00:00 | 00:00:00 | |
| OE3JTB-15 | 2026-08-31 00:07:49 | 48.29942 | 16.67364 | 96° | 78km/h | 9699m | 3.6m/s | -39.1°C | 48.2% | 0hPa | 2.7V | 00:00:00 | 00:00:00 | 00:00:00 | |
| PG1ADW-2 | 2026-08-31 00:07:41 | 48.29953 | 16.67127 | 98° | 78km/h | 9663m | 4.7m/s | -38.7°C | 48.8% | 0hPa | 2.7V | 00:00:00 | 00:00:00 | 00:00:00 | |
| OE3OSB-13 | 2026-08-31 00:07:35 | 48.29968 | 16.66922 | 93° | 77km/h | 9631m | 3.7m/s | -38.5°C | 45.0% | -1.0hPa | 2.7V | 00:00:00 | 00:00:00 | 00:00:00 | |
| OE5DRO-10 | 2026-08-31 00:07:31 | 48.29973 | 16.66832 | 97° | 78km/h | 9616m | 4.2m/s | -38.3°C | 48.7% | 0hPa | 2.7V | 00:00:00 | 00:00:00 | 00:00:00 | |
| PG1ADW-2 | 2026-08-31 00:07:21 | 48.29982 | 16.66535 | 93° | 80km/h | 9570m | 5.3m/s | -37.9°C | 48.6% | 0hPa | 2.7V | 00:00:00 | 00:00:00 | 08:30:00 | |
| OE3JTB-15 | 2026-08-31 00:07:20 | 48.29984 | 16.66505 | 95° | 80km/h | 9565m | 5.1m/s | -37.8°C | 48.8% | 0hPa | 2.7V | 00:00:00 | 00:48:27 | 00:00:00 | |
| OE5DRO-10 | 2026-08-31 00:07:12 | 48.29996 | 16.66263 | 94° | 80km/h | 9530m | 4.2m/s | -37.5°C | 48.5% | 0hPa | 2.7V | 00:00:00 | 00:00:00 | 00:00:00 | |
| OE3OSB-13 | 2026-08-31 00:07:04 | 48.30010 | 16.65987 | 86° | 82km/h | 9490m | 3.3m/s | -37.2°C | 44.5% | -1.0hPa | 2.7V | 00:00:00 | 00:00:00 | 00:00:00 | |
| PG1ADW-2 | 2026-08-31 00:07:01 | 48.30007 | 16.65925 | 87° | 80km/h | 9483m | 2.6m/s | -37.1°C | 48.2% | 0hPa | 2.7V | 00:00:00 | 00:00:00 | 00:00:00 | |
| S52SK | 2026-08-31 00:07:00 | 48.30007 | 16.65925 | 87° | 78km/h | 9483m | 2.7m/s | -37.2°C | 44.9% | 0hPa | 2.7V | 00:00:00 | 00:00:00 | 00:00:00 | |
| S52SK | 2026-08-31 00:06:54 | 48.30010 | 16.65743 | 94° | 78km/h | 9458m | 5.0m/s | -36.9°C | 43.8% | 0hPa | 2.7V | 00:00:00 | 00:00:00 | 00:00:00 | |
| OE5DRO-10 | 2026-08-31 00:06:53 | 48.30012 | 16.65684 | 94° | 78km/h | 9449m | 4.4m/s | -36.8°C | 46.8% | 0hPa | 2.7V | 00:00:00 | 00:00:00 | 00:00:00 | |
| OE3JTB-15 | 2026-08-31 00:06:51 | 48.30014 | 16.65624 | 94° | 78km/h | 9440m | 5.4m/s | -36.8°C | 47.0% | 0hPa | 2.7V | 00:00:00 | 00:00:00 | 08:30:00 | |
| PG1ADW-2 | 2026-08-31 00:06:41 | 48.30023 | 16.65320 | 91° | 78km/h | 9397m | 4.0m/s | -36.4°C | 44.7% | 0hPa | 2.7V | 00:00:00 | 00:47:48 | 00:00:00 | |
| HA6NAB-11 | 2026-08-31 00:06:35 | 48.30022 | 16.65173 | 93° | 77km/h | 9375m | 4.3m/s | -36.2°C | 41.0% | 0hPa | 2.7V | 00:00:00 | 00:00:00 | 00:00:00 | |
| OE5DRO-10 | 2026-08-31 00:06:34 | 48.30024 | 16.65115 | 95° | 77km/h | 9363m | 4.8m/s | -36.1°C | 43.8% | 0hPa | 2.7V | 00:00:00 | 00:00:00 | 08:30:00 | |
| OE3OSB-13 | 2026-08-31 00:06:32 | 48.30028 | 16.65058 | 96° | 75km/h | 9353m | 5.7m/s | -36.1°C | 40.0% | -1.0hPa | 2.7V | 00:00:00 | 00:00:00 | 00:00:00 | |
| HA6NAB-11 | 2026-08-31 00:06:29 | 48.30032 | 16.64999 | 97° | 82km/h | 9342m | 5.5m/s | -36.0°C | 40.2% | 0hPa | 2.7V | 00:00:00 | 00:00:00 | 00:00:00 | |
| HA6NAB-11 | 2026-08-31 00:06:23 | 48.30035 | 16.64813 | 88° | 78km/h | 9311m | 6.3m/s | -35.8°C | 40.0% | 0hPa | 2.7V | 00:00:00 | 00:00:00 | 00:00:00 | |
| OE3JTB-15 | 2026-08-31 00:06:22 | 48.30034 | 16.64757 | 90° | 77km/h | 9301m | 5.2m/s | -35.7°C | 43.6% | 0hPa | 2.7V | 00:00:00 | 00:00:00 | 00:00:00 | |
| PG1ADW-2 | 2026-08-31 00:06:21 | 48.30034 | 16.64730 | 93° | 77km/h | 9295m | 5.3m/s | -35.6°C | 43.8% | 0hPa | 2.7V | 00:00:00 | 00:00:00 | 00:00:00 | |
| HA6NAB-11 | 2026-08-31 00:06:18 | 48.30037 | 16.64650 | 94° | 71km/h | 9281m | 4.6m/s | -35.5°C | 40.8% | 0hPa | 2.7V | 00:00:00 | 00:00:00 | 00:00:00 | |
| OE5DRO-10 | 2026-08-31 00:06:15 | 48.30038 | 16.64565 | 89° | 78km/h | 9266m | 4.4m/s | -35.4°C | 43.9% | 0hPa | 2.7V | 00:00:00 | 00:00:00 | 00:00:00 | |
| HA6NAB-11 | 2026-08-31 00:06:11 | 48.30036 | 16.64476 | 91° | 78km/h | 9251m | 4.8m/s | -35.3°C | 41.2% | 0hPa | 2.7V | 00:00:00 | 00:00:00 | 00:00:00 | |
| HA6NAB-11 | 2026-08-31 00:06:05 | 48.30046 | 16.64299 | 93° | 75km/h | 9224m | 4.1m/s | -35.1°C | 43.0% | 0hPa | 2.7V | 00:00:00 | 00:00:00 | 00:00:00 | |
| PG1ADW-2 | 2026-08-31 00:06:01 | 48.30049 | 16.64153 | 93° | 78km/h | 9202m | 4.2m/s | -34.8°C | 46.7% | 0hPa | 2.7V | 00:00:00 | 00:00:00 | 00:00:00 | |
| OE5DRO-10 | 2026-08-31 00:05:56 | 48.30052 | 16.64001 | 93° | 77km/h | 9181m | 4.2m/s | -34.6°C | 48.4% | 0hPa | 2.7V | 00:00:00 | 00:00:00 | 00:00:00 | |
| OE3JTB-15 | 2026-08-31 00:05:53 | 48.30055 | 16.63917 | 94° | 77km/h | 9168m | 4.1m/s | -34.5°C | 49.9% | 0hPa | 2.7V | 00:00:00 | 00:47:00 | 00:00:00 | |
| PG1ADW-2 | 2026-08-31 00:05:41 | 48.30062 | 16.63562 | 93° | 75km/h | 9116m | 4.9m/s | -34.4°C | 57.6% | 0hPa | 2.7V | 00:00:00 | 00:00:00 | 00:00:00 | |
| OE5DRO-10 | 2026-08-31 00:05:37 | 48.30063 | 16.63447 | 91° | 75km/h | 9099m | 3.9m/s | -34.3°C | 58.4% | 0hPa | 2.7V | 00:00:00 | 00:00:00 | 00:00:00 | |
| OE3OSB-13 | 2026-08-31 00:05:30 | 48.30061 | 16.63253 | 90° | 75km/h | 9069m | 4.2m/s | -34.2°C | 54.4% | -1.0hPa | 2.7V | 00:00:00 | 00:00:00 | 00:00:00 | |
| OE3JTB-15 | 2026-08-31 00:05:24 | 48.30063 | 16.63079 | 91° | 77km/h | 9043m | 4.5m/s | -33.9°C | 59.1% | 0hPa | 2.7V | 00:00:00 | 00:00:00 | 00:00:00 | |
| PG1ADW-2 | 2026-08-31 00:05:21 | 48.30062 | 16.62995 | 91° | 77km/h | 9031m | 4.6m/s | -33.8°C | 58.9% | 0hPa | 2.7V | 00:00:00 | 00:46:28 | 00:00:00 | |
| OE5DRO-10 | 2026-08-31 00:05:18 | 48.30064 | 16.62912 | 90° | 77km/h | 9018m | 4.6m/s | -33.7°C | 59.4% | 0hPa | 2.7V | 00:00:00 | 00:00:00 | 00:00:00 | |
| PG1ADW-2 | 2026-08-31 00:05:01 | 48.30056 | 16.62418 | 87° | 77km/h | 8947m | 5.1m/s | -33.1°C | 59.6% | 0hPa | 2.7V | 00:00:00 | 00:00:00 | 00:00:00 | |
| OE5DRO-10 | 2026-08-31 00:04:59 | 48.30055 | 16.62358 | 90° | 77km/h | 8938m | 3.3m/s | -33.1°C | 59.6% | 0hPa | 2.7V | 00:00:00 | 00:00:00 | 00:00:00 | |
| OE3JTB-15 | 2026-08-31 00:04:56 | 48.30052 | 16.62243 | 89° | 75km/h | 8920m | 4.6m/s | -32.9°C | 59.4% | 0hPa | 2.7V | 00:00:00 | 00:00:00 | 00:00:00 | |
| S52SK | 2026-08-31 00:04:44 | 48.30048 | 16.61923 | 90° | 77km/h | 8872m | 4.1m/s | -32.6°C | 56.4% | 0hPa | 2.7V | 00:00:00 | 00:00:00 | 00:00:00 | |
| PG1ADW-2 | 2026-08-31 00:04:42 | 48.30047 | 16.61835 | 91° | 75km/h | 8860m | 3.9m/s | -32.4°C | 59.5% | 0hPa | 2.7V | 00:00:00 | 00:00:00 | 00:00:00 | |
| OE5DRO-10 | 2026-08-31 00:04:40 | 48.30047 | 16.61805 | 90° | 75km/h | 8856m | 3.3m/s | -32.4°C | 59.3% | 0hPa | 2.7V | 00:00:00 | 00:00:00 | 00:00:00 | |
| S52SK | 2026-08-31 00:04:39 | 48.30047 | 16.61776 | 90° | 77km/h | 8852m | 4.3m/s | -32.4°C | 56.0% | 0hPa | 2.7V | 00:00:00 | 00:00:00 | 00:00:00 | |
| S52SK | 2026-08-31 00:04:32 | 48.30042 | 16.61606 | 85° | 77km/h | 8828m | 4.7m/s | -32.2°C | 55.4% | 0hPa | 2.7V | 00:00:00 | 00:00:00 | 00:00:00 | |
| OE3OSB-13 | 2026-08-31 00:04:29 | 48.30037 | 16.61469 | 92° | 71km/h | 8808m | 4.1m/s | -32.1°C | 55.2% | -1.0hPa | 2.7V | 00:00:00 | 00:00:00 | 00:00:00 | |
| OE3JTB-15 | 2026-08-31 00:04:26 | 48.30040 | 16.61413 | 95° | 75km/h | 8800m | 3.5m/s | -31.9°C | 58.2% | 0hPa | 2.7V | 00:00:00 | 00:45:33 | 00:00:00 | |
| HA6NAB-11 | 2026-08-31 00:04:23 | 48.30042 | 16.61354 | 92° | 78km/h | 8792m | 4.6m/s | -31.9°C | 54.5% | 0hPa | 2.7V | 00:00:00 | 00:00:00 | 00:00:00 | |
| PG1ADW-2 | 2026-08-31 00:04:21 | 48.30039 | 16.61264 | 87° | 75km/h | 8781m | 4.4m/s | -31.8°C | 57.1% | 0hPa | 2.7V | 00:00:00 | 00:00:00 | 08:30:00 | |
| HA6NAB-11 | 2026-08-31 00:04:19 | 48.30037 | 16.61205 | 88° | 75km/h | 8773m | 3.8m/s | -31.7°C | 54.3% | 0hPa | 2.7V | 00:00:00 | 00:00:00 | 00:00:00 | |
| HA6NAB-11 | 2026-08-31 00:04:13 | 48.30036 | 16.61031 | 95° | 75km/h | 8748m | 3.2m/s | -31.6°C | 54.8% | 0hPa | 2.7V | 00:00:00 | 00:00:00 | 00:00:00 | |
| HA6NAB-11 | 2026-08-31 00:04:08 | 48.30042 | 16.60890 | 93° | 73km/h | 8729m | 4.4m/s | -31.4°C | 55.0% | 0hPa | 2.7V | 00:00:00 | 00:00:00 | 00:00:00 | |
| OE5DRO-10 | 2026-08-31 00:04:03 | 48.30036 | 16.60728 | 90° | 71km/h | 8704m | 4.6m/s | -31.1°C | 57.1% | 0hPa | 2.7V | 00:00:00 | 00:00:00 | 00:00:00 | |
| PG1ADW-2 | 2026-08-31 00:04:02 | 48.30036 | 16.60700 | 92° | 71km/h | 8701m | 3.4m/s | -31.1°C | 57.2% | 0hPa | 2.7V | 00:00:00 | 00:45:08 | 00:00:00 | |
| OE3JTB-15 | 2026-08-31 00:03:57 | 48.30040 | 16.60590 | 93° | 69km/h | 8684m | 3.8m/s | -31.0°C | 56.9% | 0hPa | 2.7V | 00:00:00 | 00:00:00 | 00:00:00 | |
| HA6NAB-11 | 2026-08-31 00:03:56 | 48.30041 | 16.60562 | 93° | 75km/h | 8679m | 5.3m/s | -31.1°C | 53.9% | 0hPa | 2.7V | 00:00:00 | 00:00:00 | 00:00:00 | |
| OE5DRO-10 | 2026-08-31 00:03:43 | 48.30045 | 16.60219 | 93° | 68km/h | 8626m | 4.4m/s | -30.6°C | 56.4% | 0hPa | 2.7V | 00:00:00 | 00:00:00 | 08:30:00 | |
| PG1ADW-2 | 2026-08-31 00:03:41 | 48.30047 | 16.60168 | 93° | 68km/h | 8618m | 3.9m/s | -30.5°C | 55.7% | 0hPa | 2.7V | 00:00:00 | 00:00:00 | 00:00:00 | |
| OE3JTB-15 | 2026-08-31 00:03:31 | 48.30050 | 16.59834 | 89° | 68km/h | 8566m | 3.8m/s | -30.1°C | 54.9% | 0hPa | 2.7V | 00:00:00 | 00:00:00 | 00:00:00 | |
| OE3OSB-13 | 2026-08-31 00:03:27 | 48.30051 | 16.59782 | 91° | 68km/h | 8558m | 4.2m/s | -30.1°C | 53.0% | -1.0hPa | 2.7V | 00:00:00 | 00:00:00 | 00:00:00 | |
| OE5DRO-10 | 2026-08-31 00:03:24 | 48.30051 | 16.59729 | 91° | 68km/h | 8549m | 4.3m/s | -30.1°C | 55.7% | 0hPa | 2.7V | 00:00:00 | 00:00:00 | 00:00:00 | |
| PG1ADW-2 | 2026-08-31 00:03:21 | 48.30053 | 16.59654 | 94° | 68km/h | 8537m | 3.5m/s | -30.0°C | 54.5% | 0hPa | 2.7V | 00:00:00 | 00:00:00 | 00:00:00 | |
| OE5DRO-10 | 2026-08-31 00:03:05 | 48.30070 | 16.59247 | 94° | 66km/h | 8474m | 3.8m/s | -29.7°C | 58.2% | 0hPa | 2.7V | 00:00:00 | 00:00:00 | 00:00:00 | |
| HA6NAB-11 | 2026-08-31 00:02:56 | 48.30037 | 16.58075 | 82° | 64km/h | 8278m | 4.9m/s | 0°C | 0% | 0hPa | 2.7V | 00:00:00 | 00:00:00 | 00:00:00 | |
| HA6NAB-11 | 2026-08-31 00:02:45 | 48.30030 | 16.57931 | 87° | 58km/h | 8255m | 4.0m/s | 0°C | 0% | 0hPa | 2.7V | 00:00:00 | 00:00:00 | 00:00:00 | |
| OE5DRO-10 | 2026-08-31 00:02:41 | 48.30025 | 16.57862 | 83° | 62km/h | 8243m | 3.7m/s | -27.9°C | 51.9% | 0hPa | 2.7V | 00:00:00 | 00:00:00 | 00:00:00 | |
| HA6NAB-11 | 2026-08-31 00:02:36 | 48.30022 | 16.57812 | 89° | 68km/h | 8235m | 3.9m/s | 0°C | 0% | 0hPa | 2.7V | 00:00:00 | 00:00:00 | 00:00:00 | |
| PG1ADW-2 | 2026-08-31 00:02:32 | 48.30015 | 16.57693 | 81° | 62km/h | 8217m | 3.6m/s | -27.6°C | 50.3% | 0hPa | 2.7V | 00:00:00 | 00:00:00 | 00:00:00 | |
| OE3JTB-15 | 2026-08-31 00:02:27 | 48.30003 | 16.57578 | 86° | 62km/h | 8196m | 4.2m/s | -27.4°C | 48.8% | 0hPa | 2.7V | 00:00:00 | 00:00:00 | 00:00:00 | |
| HA6NAB-11 | 2026-08-31 00:02:22 | 48.30003 | 16.57553 | 88° | 66km/h | 8192m | 4.3m/s | 0°C | 0% | 0hPa | 2.7V | 00:00:00 | 00:00:00 | 00:00:00 | |
| OE3OSB-13 | 2026-08-31 00:02:21 | 48.30001 | 16.57503 | 87° | 64km/h | 8183m | 4.1m/s | -27.3°C | 45.7% | -1.0hPa | 2.7V | 00:00:00 | 00:00:00 | 00:00:00 | |
| HA6NAB-11 | 2026-08-31 00:02:14 | 48.29998 | 16.57413 | 86° | 58km/h | 8167m | 3.6m/s | 0°C | 0% | 0hPa | 2.7V | 00:00:00 | 00:00:00 | 00:00:00 | |
| PG1ADW-2 | 2026-08-31 00:02:04 | 48.29978 | 16.57131 | 89° | 62km/h | 8121m | 3.9m/s | -26.7°C | 47.1% | 0hPa | 2.7V | 00:00:00 | 00:00:00 | 00:00:00 | |
| OE5DRO-10 | 2026-08-31 00:01:46 | 48.29969 | 16.56960 | 81° | 62km/h | 8091m | 4.1m/s | -26.4°C | 44.7% | 0hPa | 2.7V | 00:00:00 | 00:00:00 | 00:00:00 | |
| OE3JTB-15 | 2026-08-31 00:01:36 | 48.29956 | 16.56799 | 85° | 64km/h | 8059m | 3.8m/s | -26.1°C | 43.1% | 0hPa | 2.7V | 00:00:00 | 00:42:30 | 00:00:00 | |
| PG1ADW-2 | 2026-08-31 00:01:31 | 48.29954 | 16.56728 | 87° | 64km/h | 8048m | 4.5m/s | -26.0°C | 42.3% | 0hPa | 2.7V | 00:00:00 | 00:42:27 | 08:30:00 | |
| S52SK | 2026-08-31 00:01:28 | 48.29953 | 16.56706 | 88° | 55km/h | 8043m | 4.6m/s | -26.0°C | 40.2% | 0hPa | 2.7V | 00:00:00 | 00:00:00 | 00:00:00 | |
| S52SK | 2026-08-31 00:01:22 | 48.29950 | 16.56563 | 90° | 69km/h | 8021m | 3.5m/s | -25.7°C | 38.8% | 0hPa | 2.7V | 00:00:00 | 00:00:00 | 00:00:00 | |
| OE5DRO-10 | 2026-08-31 00:01:19 | 48.29949 | 16.56513 | 84° | 64km/h | 8013m | 4.2m/s | -25.6°C | 40.3% | 0hPa | 2.7V | 00:00:00 | 00:00:00 | 00:00:00 | |
| PG1ADW-2 | 2026-08-31 00:01:07 | 48.29932 | 16.56249 | 87° | 64km/h | 7968m | 3.6m/s | -25.2°C | 37.0% | 0hPa | 2.7V | 00:00:00 | 00:00:00 | 00:00:00 | |
| OE3OSB-13 | 2026-08-31 00:00:54 | 48.29929 | 16.56010 | 88° | 66km/h | 7930m | 3.8m/s | -24.9°C | 31.5% | -1.0hPa | 2.7V | 00:00:00 | 00:00:00 | 00:00:00 | |
| OE3JTB-15 | 2026-08-31 00:00:53 | 48.29927 | 16.55960 | 85° | 64km/h | 7921m | 3.8m/s | -24.7°C | 32.9% | 0hPa | 2.7V | 00:00:00 | 00:00:00 | 00:00:00 | |
| PG1ADW-2 | 2026-08-31 00:00:43 | 48.29914 | 16.55719 | 88° | 64km/h | 7883m | 3.6m/s | -24.3°C | 27.4% | 0hPa | 2.9V | 00:00:00 | 00:00:00 | 00:00:00 | |
| OE5DRO-10 | 2026-08-31 00:00:35 | 48.29910 | 16.55595 | 85° | 64km/h | 7864m | 3.8m/s | -24.1°C | 26.5% | 0hPa | 2.9V | 00:00:00 | 00:00:00 | 00:00:00 | |
| OE3JTB-15 | 2026-08-31 00:00:26 | 48.29892 | 16.55232 | 85° | 62km/h | 7804m | 4.4m/s | -23.7°C | 24.9% | 0hPa | 2.9V | 00:00:00 | 00:00:00 | 00:00:00 | |
| PG1ADW-2 | 2026-08-31 00:00:25 | 48.29896 | 16.55282 | 84° | 66km/h | 7812m | 3.4m/s | -23.7°C | 24.6% | 0hPa | 2.9V | 00:00:00 | 00:00:00 | 00:00:00 | |
| OE3OSB-13 | 2026-08-31 00:00:24 | 48.29894 | 16.55256 | 83° | 66km/h | 7808m | 3.4m/s | -23.8°C | 23.3% | -1.0hPa | 2.9V | 00:00:00 | 00:00:00 | 00:00:00 | |
| OE5DRO-10 | 2026-08-31 00:00:14 | 48.29886 | 16.55131 | 84° | 68km/h | 7789m | 3.1m/s | -23.6°C | 26.5% | 0hPa | 2.9V | 00:00:00 | 00:00:00 | 00:00:00 | |
| PG1ADW-2 | 2026-08-31 00:00:00 | 48.29866 | 16.54752 | 86° | 60km/h | 7729m | 3.3m/s | -23.6°C | 37.8% | 0hPa | 2.9V | 00:00:00 | 00:41:06 | 00:00:00 | |
| OE5DRO-10 | 2026-08-30 23:59:55 | 48.29858 | 16.54652 | 80° | 58km/h | 7713m | 4.5m/s | -23.4°C | 37.0% | 0hPa | 2.9V | 00:00:00 | 00:00:00 | 00:00:00 | |
| OE3OSB-13 | 2026-08-30 23:59:49 | 48.29839 | 16.54491 | 77° | 58km/h | 7685m | 3.5m/s | -23.2°C | 33.0% | -1.0hPa | 2.9V | 00:00:00 | 00:00:00 | 00:00:00 | |
| OE3JTB-15 | 2026-08-30 23:59:44 | 48.29827 | 16.54366 | 83° | 58km/h | 7661m | 3.5m/s | -22.9°C | 31.9% | 0hPa | 2.9V | 00:00:00 | 00:40:49 | 00:00:00 | |
| PG1ADW-2 | 2026-08-30 23:59:40 | 48.29814 | 16.54255 | 79° | 57km/h | 7642m | 3.5m/s | -22.8°C | 29.5% | 0hPa | 2.9V | 00:00:00 | 00:00:00 | 00:00:00 | |
| OE5DRO-10 | 2026-08-30 23:59:36 | 48.29811 | 16.54234 | 78° | 58km/h | 7639m | 2.9m/s | -22.7°C | 28.7% | 0hPa | 2.9V | 00:00:00 | 00:00:00 | 00:00:00 | |
| HA6NAB-11 | 2026-08-30 23:59:27 | 48.29781 | 16.54062 | 77° | 55km/h | 7606m | 4.9m/s | 0°C | 0% | 0hPa | 2.9V | 00:00:00 | 00:00:00 | 00:00:00 | |
| S52SK | 2026-08-30 23:59:25 | 48.29775 | 16.54020 | 79° | 58km/h | 7599m | 4.5m/s | -22.4°C | 19.4% | 0hPa | 2.9V | 00:00:00 | 00:00:00 | 00:00:00 | |
| HA6NAB-11 | 2026-08-30 23:59:22 | 48.29764 | 16.53952 | 81° | 64km/h | 7586m | 3.6m/s | 0°C | 0% | 0hPa | 2.9V | 00:00:00 | 00:00:00 | 00:00:00 | |
| S52SK | 2026-08-30 23:59:19 | 48.29758 | 16.53886 | 82° | 53km/h | 7574m | 4.6m/s | -22.2°C | 0% | 0hPa | 2.9V | 00:00:00 | 00:00:00 | 00:00:00 | |
| OE3OSB-13 | 2026-08-30 23:59:18 | 48.29750 | 16.53829 | 74° | 53km/h | 7562m | 4.2m/s | -22.1°C | 6.4% | -1.0hPa | 2.9V | 00:00:00 | 00:00:00 | 00:00:00 | |
| OE5DRO-10 | 2026-08-30 23:59:17 | 48.29749 | 16.53829 | 75° | 58km/h | 7562m | 4.1m/s | -22.1°C | 7.2% | 0hPa | 2.9V | 00:00:00 | 00:00:00 | 00:00:00 | |
| PG1ADW-2 | 2026-08-30 23:59:16 | 48.29746 | 16.53809 | 74° | 58km/h | 7558m | 4.4m/s | -22.1°C | 6.9% | 0hPa | 2.9V | 00:00:00 | 00:00:00 | 00:00:00 | |
| OE3JTB-15 | 2026-08-30 23:59:15 | 48.29738 | 16.53767 | 78° | 58km/h | 7548m | 4.5m/s | -22.0°C | 6.7% | 0hPa | 2.9V | 00:00:00 | 00:00:00 | 00:00:00 | |
| HA6NAB-11 | 2026-08-30 23:59:11 | 48.29732 | 16.53722 | 80° | 60km/h | 7537m | 5.7m/s | 0°C | 0% | 0hPa | 2.9V | 00:00:00 | 00:00:00 | 00:00:00 | |
| HA6NAB-11 | 2026-08-30 23:58:59 | 48.29703 | 16.53459 | 83° | 57km/h | 7484m | 2.8m/s | 0°C | 0% | 0hPa | 2.9V | 00:00:00 | 00:00:00 | 00:00:00 | |
| OE5DRO-10 | 2026-08-30 23:58:58 | 48.29699 | 16.53415 | 82° | 57km/h | 7476m | 3.7m/s | -21.5°C | 6.7% | 0hPa | 2.9V | 00:00:00 | 00:00:00 | 00:00:00 | |
| PG1ADW-2 | 2026-08-30 23:58:56 | 48.29695 | 16.53372 | 81° | 57km/h | 7468m | 4.1m/s | -21.4°C | 6.6% | 0hPa | 2.7V | 00:00:00 | 00:00:00 | 00:00:00 | |
| HA6NAB-11 | 2026-08-30 23:58:53 | 48.29689 | 16.53329 | 79° | 58km/h | 7459m | 4.1m/s | 0°C | 0% | 0hPa | 2.7V | 00:00:00 | 00:00:00 | 00:00:00 | |
| HA6NAB-11 | 2026-08-30 23:58:48 | 48.29674 | 16.53219 | 79° | 60km/h | 7440m | 2.6m/s | 0°C | 0% | 0hPa | 2.7V | 00:00:00 | 00:00:00 | 00:00:00 | |
| OE3JTB-15 | 2026-08-30 23:58:46 | 48.29665 | 16.53136 | 83° | 58km/h | 7423m | 3.3m/s | -21.1°C | 6.9% | 0hPa | 2.7V | 00:00:00 | 00:00:00 | 00:00:00 | |
| HA6NAB-11 | 2026-08-30 23:58:43 | 48.29660 | 16.53095 | 80° | 57km/h | 7415m | 3.9m/s | 0°C | 0% | 0hPa | 2.7V | 00:00:00 | 00:00:00 | 00:00:00 | |
| OE5DRO-10 | 2026-08-30 23:58:39 | 48.29653 | 16.53008 | 86° | 58km/h | 7400m | 4.4m/s | -20.9°C | 7.1% | 0hPa | 2.7V | 00:00:00 | 00:00:00 | 00:00:00 | |
| PG1ADW-2 | 2026-08-30 23:58:36 | 48.29647 | 16.52945 | 80° | 58km/h | 7388m | 3.8m/s | -20.8°C | 7.3% | 0hPa | 2.7V | 00:00:00 | 00:39:43 | 00:00:00 | |
| HA6NAB-11 | 2026-08-30 23:58:31 | 48.29639 | 16.52856 | 82° | 57km/h | 7372m | 4.9m/s | 0°C | 0% | 0hPa | 2.7V | 00:00:00 | 00:00:00 | 00:00:00 | |
| HA6NAB-11 | 2026-08-30 23:58:25 | 48.29626 | 16.52728 | 85° | 57km/h | 7347m | 3.6m/s | 0°C | 0% | 0hPa | 2.7V | 00:00:00 | 00:00:00 | 00:00:00 | |
| OE5DRO-10 | 2026-08-30 23:58:20 | 48.29612 | 16.52595 | 81° | 58km/h | 7323m | 4.0m/s | -20.3°C | 8.5% | 0hPa | 2.7V | 00:00:00 | 00:00:00 | 00:00:00 | |
| OE3JTB-15 | 2026-08-30 23:58:17 | 48.29603 | 16.52531 | 76° | 58km/h | 7311m | 3.2m/s | -20.3°C | 9.0% | 0hPa | 2.7V | 00:00:00 | 00:39:24 | 00:00:00 | |
| PG1ADW-2 | 2026-08-30 23:58:16 | 48.29599 | 16.52510 | 77° | 58km/h | 7307m | 4.7m/s | -20.3°C | 9.1% | 0hPa | 2.7V | 00:00:00 | 00:00:00 | 08:30:00 | |
| OE5DRO-10 | 2026-08-30 23:58:01 | 48.29560 | 16.52177 | 74° | 58km/h | 7244m | 4.3m/s | -19.8°C | 11.6% | 0hPa | 2.9V | 00:00:00 | 00:00:00 | 08:30:00 | |
| PG1ADW-2 | 2026-08-30 23:57:56 | 48.29540 | 16.52075 | 77° | 58km/h | 7224m | 3.5m/s | -19.6°C | 11.7% | 0hPa | 2.9V | 00:00:00 | 00:00:00 | 00:00:00 | |
| OE3JTB-15 | 2026-08-30 23:57:48 | 48.29509 | 16.51901 | 77° | 57km/h | 7191m | 3.9m/s | -19.4°C | 11.3% | 0hPa | 2.9V | 00:00:00 | 00:00:00 | 08:30:00 | |
| OE3OSB-13 | 2026-08-30 23:57:44 | 48.29497 | 16.51812 | 77° | 58km/h | 7175m | 4.8m/s | -19.3°C | 10.3% | -1.0hPa | 2.9V | 00:00:00 | 00:00:00 | 00:00:00 | |
| OE5DRO-10 | 2026-08-30 23:57:42 | 48.29491 | 16.51770 | 79° | 57km/h | 7167m | 3.8m/s | -19.2°C | 11.1% | 0hPa | 2.9V | 00:00:00 | 00:00:00 | 00:00:00 | |
| PG1ADW-2 | 2026-08-30 23:57:36 | 48.29470 | 16.51639 | 77° | 55km/h | 7144m | 3.5m/s | -19.0°C | 10.9% | 0hPa | 2.9V | 00:00:00 | 00:00:00 | 00:00:00 | |
| OE5DRO-10 | 2026-08-30 23:57:23 | 48.29430 | 16.51375 | 75° | 57km/h | 7091m | 4.5m/s | -18.5°C | 10.3% | 0hPa | 2.9V | 00:00:00 | 00:00:00 | 00:00:00 | |
| OE3JTB-15 | 2026-08-30 23:57:19 | 48.29417 | 16.51292 | 79° | 55km/h | 7073m | 3.6m/s | -18.3°C | 10.0% | 0hPa | 2.9V | 00:00:00 | 00:00:00 | 00:00:00 | |
| PG1ADW-2 | 2026-08-30 23:57:16 | 48.29409 | 16.51228 | 79° | 55km/h | 7061m | 4.5m/s | -18.2°C | 9.6% | 0hPa | 2.9V | 00:00:00 | 00:38:23 | 00:00:00 | |
| OE3OSB-13 | 2026-08-30 23:57:14 | 48.29400 | 16.51166 | 76° | 57km/h | 7048m | 4.4m/s | -18.1°C | 8.5% | -1.0hPa | 2.9V | 00:00:00 | 00:00:00 | 00:00:00 | |
| OE5DRO-10 | 2026-08-30 23:57:04 | 48.29372 | 16.50979 | 79° | 55km/h | 7011m | 4.3m/s | -17.8°C | 8.1% | 0hPa | 2.9V | 00:00:00 | 00:00:00 | 00:00:00 | |
| PG1ADW-2 | 2026-08-30 23:56:56 | 48.29345 | 16.50826 | 81° | 55km/h | 6980m | 3.7m/s | -17.6°C | 7.3% | 0hPa | 2.7V | 00:00:00 | 00:00:00 | 00:00:00 | |
| OE3JTB-15 | 2026-08-30 23:56:48 | 48.29315 | 16.50661 | 74° | 55km/h | 6948m | 4.2m/s | -17.3°C | 6.8% | 0hPa | 2.7V | 00:00:00 | 00:37:55 | 00:00:00 | |
| OE5DRO-10 | 2026-08-30 23:56:45 | 48.29301 | 16.50601 | 72° | 55km/h | 6935m | 3.6m/s | -17.2°C | 6.7% | 0hPa | 2.7V | 00:00:00 | 00:00:00 | 00:00:00 | |
| OE3OSB-13 | 2026-08-30 23:56:42 | 48.29292 | 16.50543 | 79° | 53km/h | 6922m | 3.7m/s | -17.1°C | 6.2% | -1.0hPa | 2.7V | 00:00:00 | 00:00:00 | 00:00:00 | |
| PG1ADW-2 | 2026-08-30 23:56:36 | 48.29270 | 16.50419 | 75° | 57km/h | 6899m | 4.8m/s | -17.0°C | 7.1% | 0hPa | 2.7V | 00:00:00 | 00:00:00 | 00:00:00 | |
| OE5DRO-10 | 2026-08-30 23:56:26 | 48.29225 | 16.50221 | 69° | 57km/h | 6856m | 3.3m/s | -16.7°C | 7.8% | 0hPa | 2.7V | 00:00:00 | 00:00:00 | 00:00:00 | |
| OE3JTB-15 | 2026-08-30 23:56:19 | 48.29195 | 16.50079 | 74° | 57km/h | 6827m | 4.0m/s | -16.6°C | 9.5% | 0hPa | 2.7V | 00:00:00 | 00:00:00 | 00:00:00 | |
| PG1ADW-2 | 2026-08-30 23:56:16 | 48.29181 | 16.50019 | 71° | 57km/h | 6815m | 3.5m/s | -16.5°C | 10.2% | 0hPa | 2.9V | 00:00:00 | 00:00:00 | 00:00:00 | |
| OE3OSB-13 | 2026-08-30 23:56:13 | 48.29162 | 16.49916 | 78° | 55km/h | 6794m | 4.9m/s | -16.4°C | 9.5% | -1.0hPa | 2.9V | 00:00:00 | 00:00:00 | 00:00:00 | |
| OE5DRO-10 | 2026-08-30 23:56:07 | 48.29148 | 16.49835 | 76° | 58km/h | 6777m | 3.3m/s | -16.2°C | 10.2% | 0hPa | 2.9V | 00:00:00 | 00:00:00 | 00:00:00 | |
| PG1ADW-2 | 2026-08-30 23:55:56 | 48.29105 | 16.49601 | 76° | 57km/h | 6730m | 4.4m/s | -15.8°C | 9.9% | 0hPa | 2.9V | 00:00:00 | 00:37:03 | 00:00:00 | |
| OE3JTB-15 | 2026-08-30 23:55:50 | 48.29080 | 16.49473 | 69° | 57km/h | 6705m | 3.1m/s | -15.6°C | 9.8% | 0hPa | 2.9V | 00:00:00 | 00:00:00 | 00:00:00 | |
| OE5DRO-10 | 2026-08-30 23:55:48 | 48.29070 | 16.49433 | 70° | 57km/h | 6696m | 4.8m/s | -15.5°C | 9.7% | 0hPa | 2.9V | 00:00:00 | 00:00:00 | 00:00:00 | |
| OE3OSB-13 | 2026-08-30 23:55:40 | 48.29041 | 16.49275 | 73° | 58km/h | 6661m | 4.6m/s | -15.2°C | 8.7% | -1.0hPa | 2.9V | 00:00:00 | 00:00:00 | 00:00:00 | |
| PG1ADW-2 | 2026-08-30 23:55:36 | 48.29023 | 16.49190 | 75° | 57km/h | 6645m | 4.5m/s | -15.1°C | 9.1% | 0hPa | 2.9V | 00:00:00 | 00:00:00 | 00:00:00 | |
| S52SK | 2026-08-30 23:55:35 | 48.29023 | 16.49190 | 76° | 58km/h | 6645m | 4.6m/s | -15.1°C | 0% | 0hPa | 2.9V | 00:00:00 | 00:00:00 | 00:00:00 | |
| S52SK | 2026-08-30 23:55:30 | 48.29003 | 16.49083 | 74° | 57km/h | 6625m | 4.1m/s | -14.9°C | 0% | 0hPa | 2.9V | 00:00:00 | 00:00:00 | 00:00:00 | |
| OE5DRO-10 | 2026-08-30 23:55:29 | 48.28995 | 16.49042 | 72° | 57km/h | 6616m | 4.7m/s | -14.8°C | 9.1% | 0hPa | 2.9V | 00:00:00 | 00:00:00 | 00:00:00 | |
| S52SK | 2026-08-30 23:55:24 | 48.28982 | 16.48960 | 81° | 58km/h | 6600m | 3.8m/s | -14.7°C | 0% | 0hPa | 2.9V | 00:00:00 | 00:00:00 | 00:00:00 | |
| OE3JTB-15 | 2026-08-30 23:55:21 | 48.28967 | 16.48877 | 70° | 55km/h | 6585m | 4.0m/s | -14.6°C | 9.0% | 0hPa | 2.9V | 00:00:00 | 00:36:28 | 00:00:00 | |
| PG1ADW-2 | 2026-08-30 23:55:16 | 48.28946 | 16.48777 | 74° | 55km/h | 6564m | 3.6m/s | -14.4°C | 9.0% | 0hPa | 2.9V | 00:00:00 | 00:00:00 | 08:30:00 | |
| OE5DRO-10 | 2026-08-30 23:55:10 | 48.28925 | 16.48653 | 75° | 55km/h | 6541m | 4.4m/s | -14.2°C | 8.9% | 0hPa | 2.9V | 00:00:00 | 00:00:00 | 08:30:00 | |
| OE3OSB-13 | 2026-08-30 23:55:09 | 48.28916 | 16.48614 | 68° | 53km/h | 6534m | 4.1m/s | -14.2°C | 8.4% | -1.0hPa | 2.9V | 00:00:00 | 00:00:00 | 00:00:00 | |
| PG1ADW-2 | 2026-08-30 23:54:56 | 48.28865 | 16.48380 | 73° | 53km/h | 6486m | 4.7m/s | -13.8°C | 8.9% | 0hPa | 2.9V | 00:00:00 | 00:00:00 | 00:00:00 | |
| OE3JTB-15 | 2026-08-30 23:54:52 | 48.28849 | 16.48296 | 74° | 53km/h | 6468m | 4.1m/s | -13.6°C | 8.8% | 0hPa | 2.9V | 00:00:00 | 00:00:00 | 00:00:00 | |
| OE5DRO-10 | 2026-08-30 23:54:51 | 48.28846 | 16.48277 | 72° | 53km/h | 6465m | 3.5m/s | -13.6°C | 8.8% | 0hPa | 2.9V | 00:00:00 | 00:00:00 | 00:00:00 | |
| OE3OSB-13 | 2026-08-30 23:54:38 | 48.28779 | 16.48017 | 70° | 51km/h | 6409m | 3.5m/s | -13.2°C | 8.0% | -1.0hPa | 2.9V | 00:00:00 | 00:00:00 | 00:00:00 | |
| PG1ADW-2 | 2026-08-30 23:54:36 | 48.28775 | 16.47998 | 71° | 53km/h | 6405m | 4.3m/s | -13.1°C | 8.5% | 0hPa | 2.9V | 00:00:00 | 00:35:43 | 00:00:00 | |
| OE5DRO-10 | 2026-08-30 23:54:32 | 48.28758 | 16.47920 | 75° | 53km/h | 6391m | 3.1m/s | -13.0°C | 8.4% | 0hPa | 2.9V | 00:00:00 | 00:00:00 | 00:00:00 | |
| OE3JTB-15 | 2026-08-30 23:54:23 | 48.28725 | 16.47747 | 70° | 53km/h | 6357m | 2.8m/s | -12.8°C | 8.6% | 0hPa | 2.9V | 00:00:00 | 00:00:00 | 00:00:00 | |
| PG1ADW-2 | 2026-08-30 23:54:16 | 48.28699 | 16.47617 | 72° | 53km/h | 6328m | 5.0m/s | -12.6°C | 8.0% | 0hPa | 2.9V | 00:00:00 | 00:00:00 | 00:00:00 | |
| OE5DRO-10 | 2026-08-30 23:54:13 | 48.28685 | 16.47562 | 69° | 53km/h | 6315m | 3.6m/s | -12.5°C | 7.9% | 0hPa | 2.9V | 00:00:00 | 00:00:00 | 00:00:00 | |
| OE3OSB-13 | 2026-08-30 23:54:07 | 48.28662 | 16.47435 | 77° | 53km/h | 6288m | 4.9m/s | -12.3°C | 7.1% | -1.0hPa | 2.9V | 00:00:00 | 00:00:00 | 00:00:00 | |
| PG1ADW-2 | 2026-08-30 23:53:56 | 48.28629 | 16.47228 | 76° | 55km/h | 6251m | 3.5m/s | -11.9°C | 6.7% | 0hPa | 2.9V | 00:00:00 | 00:00:00 | 00:00:00 | |
| OE5DRO-10 | 2026-08-30 23:53:54 | 48.28623 | 16.47187 | 80° | 55km/h | 6244m | 2.5m/s | -11.9°C | 6.3% | 0hPa | 2.9V | 00:00:00 | 00:00:00 | 00:00:00 | |
| S52SK | 2026-08-30 23:53:50 | 48.28614 | 16.47121 | 75° | 62km/h | 6232m | 3.8m/s | -11.8°C | 0% | 0hPa | 2.9V | 00:00:00 | 00:00:00 | 00:00:00 | |
| PG1ADW-2 | 2026-08-30 23:53:36 | 48.28563 | 16.46822 | 73° | 55km/h | 6178m | 3.1m/s | -11.7°C | 7.4% | 0hPa | 2.9V | 00:00:00 | 00:00:00 | 00:00:00 | |
| OE5DRO-10 | 2026-08-30 23:53:35 | 48.28559 | 16.46802 | 72° | 55km/h | 6174m | 3.6m/s | -11.7°C | 7.2% | 0hPa | 2.9V | 00:00:00 | 00:00:00 | 00:00:00 | |
| OE3JTB-15 | 2026-08-30 23:53:25 | 48.28514 | 16.46601 | 70° | 53km/h | 6138m | 3.8m/s | -11.5°C | 6.2% | 0hPa | 2.9V | 00:00:00 | 00:00:00 | 08:30:00 | |
| PG1ADW-2 | 2026-08-30 23:53:16 | 48.28473 | 16.46422 | 72° | 53km/h | 6105m | 3.4m/s | -11.5°C | 5.1% | 0hPa | 2.7V | 00:00:00 | 00:34:23 | 00:00:00 | |
| OE3OSB-13 | 2026-08-30 23:53:05 | 48.28413 | 16.46195 | 64° | 53km/h | 6062m | 4.1m/s | -11.4°C | 5.0% | -1.0hPa | 2.9V | 00:00:00 | 00:00:00 | 00:00:00 | |
| OE5DRO-10 | 2026-08-30 23:52:57 | 48.28380 | 16.46070 | 67° | 46km/h | 6038m | 3.5m/s | -11.2°C | 5.5% | 0hPa | 2.9V | 00:00:00 | 00:00:00 | 00:00:00 | |
| OE3JTB-15 | 2026-08-30 23:52:56 | 48.28376 | 16.46053 | 69° | 46km/h | 6035m | 3.1m/s | -11.2°C | 5.5% | 0hPa | 2.9V | 00:00:00 | 00:00:00 | 00:00:00 | |
| OE5DRO-10 | 2026-08-30 23:52:38 | 48.28304 | 16.45758 | 73° | 46km/h | 5973m | 3.4m/s | -10.9°C | 6.1% | 0hPa | 2.9V | 00:00:00 | 00:00:00 | 00:00:00 | |
| PG1ADW-2 | 2026-08-30 23:52:36 | 48.28297 | 16.45723 | 73° | 46km/h | 5967m | 3.7m/s | -10.8°C | 6.1% | 0hPa | 2.9V | 00:00:00 | 00:00:00 | 00:00:00 | |
| OE3OSB-13 | 2026-08-30 23:52:34 | 48.28287 | 16.45671 | 75° | 44km/h | 5956m | 3.7m/s | -10.9°C | 5.8% | -1.0hPa | 2.9V | 00:00:00 | 00:00:00 | 00:00:00 | |
| OE5DRO-10 | 2026-08-30 23:52:19 | 48.28258 | 16.45439 | 80° | 47km/h | 5905m | 3.2m/s | -10.4°C | 6.1% | 0hPa | 2.9V | 00:00:00 | 00:00:00 | 08:30:00 | |
| S52SK | 2026-08-30 23:52:18 | 48.28258 | 16.45439 | 81° | 44km/h | 5905m | 3.3m/s | -10.4°C | 0% | 0hPa | 2.9V | 00:00:00 | 00:00:00 | 00:00:00 | |
| PG1ADW-2 | 2026-08-30 23:52:16 | 48.28252 | 16.45387 | 81° | 47km/h | 5895m | 4.0m/s | -10.3°C | 6.1% | 0hPa | 2.9V | 00:00:00 | 00:00:00 | 08:30:00 | |
| S52SK | 2026-08-30 23:52:13 | 48.28248 | 16.45351 | 82° | 47km/h | 5887m | 3.0m/s | -10.3°C | 0% | 0hPa | 2.9V | 00:00:00 | 00:00:00 | 00:00:00 | |
| OE3OSB-13 | 2026-08-30 23:52:03 | 48.28227 | 16.45140 | 78° | 49km/h | 5843m | 2.5m/s | -9.9°C | 5.7% | -1.0hPa | 2.9V | 00:00:00 | 00:00:00 | 00:00:00 | |
| OE5DRO-10 | 2026-08-30 23:52:00 | 48.28223 | 16.45104 | 83° | 49km/h | 5837m | 2.1m/s | -9.8°C | 6.0% | 0hPa | 2.9V | 00:00:00 | 00:00:00 | 00:00:00 | |
| OE3JTB-15 | 2026-08-30 23:51:58 | 48.28219 | 16.45070 | 79° | 49km/h | 5831m | 3.8m/s | -9.8°C | 5.9% | 0hPa | 2.9V | 00:00:00 | 00:00:00 | 00:00:00 | |
| PG1ADW-2 | 2026-08-30 23:51:56 | 48.28215 | 16.45034 | 80° | 49km/h | 5824m | 3.8m/s | -9.7°C | 5.9% | 0hPa | 2.9V | 00:00:00 | 00:33:03 | 00:00:00 | |
| OE5DRO-10 | 2026-08-30 23:51:41 | 48.28182 | 16.44756 | 80° | 46km/h | 5770m | 3.1m/s | -9.3°C | 6.0% | 0hPa | 2.9V | 00:00:00 | 00:00:00 | 00:00:00 | |
| PG1ADW-2 | 2026-08-30 23:51:36 | 48.28171 | 16.44662 | 82° | 44km/h | 5750m | 4.4m/s | -9.2°C | 6.0% | 0hPa | 2.9V | 00:00:00 | 00:00:00 | 00:00:00 | |
| OE3OSB-13 | 2026-08-30 23:51:32 | 48.28163 | 16.44576 | 83° | 44km/h | 5731m | 3.6m/s | -9.1°C | 5.6% | -1.0hPa | 2.9V | 00:00:00 | 00:00:00 | 00:00:00 | |
| OE3JTB-15 | 2026-08-30 23:51:29 | 48.28159 | 16.44544 | 78° | 42km/h | 5723m | 3.4m/s | -9.0°C | 5.8% | 0hPa | 2.9V | 00:00:00 | 00:00:00 | 00:00:00 | |
| OE5DRO-10 | 2026-08-30 23:51:22 | 48.28140 | 16.44434 | 77° | 44km/h | 5701m | 3.3m/s | -8.9°C | 5.9% | 0hPa | 2.9V | 00:00:00 | 00:00:00 | 00:00:00 | |
| PG1ADW-2 | 2026-08-30 23:51:16 | 48.28124 | 16.44335 | 78° | 42km/h | 5680m | 2.9m/s | -8.8°C | 5.9% | 0hPa | 2.9V | 00:00:00 | 00:00:00 | 00:00:00 | |
| OE5DRO-10 | 2026-08-30 23:51:03 | 48.28091 | 16.44133 | 79° | 42km/h | 5631m | 4.0m/s | -8.5°C | 6.2% | 0hPa | 2.9V | 00:00:00 | 00:00:00 | 00:00:00 | |
| OE3JTB-15 | 2026-08-30 23:51:00 | 48.28083 | 16.44091 | 73° | 44km/h | 5620m | 2.6m/s | -8.5°C | 6.3% | 0hPa | 2.9V | 00:00:00 | 00:32:07 | 00:00:00 | |
| PG1ADW-2 | 2026-08-30 23:50:56 | 48.28073 | 16.44027 | 81° | 44km/h | 5606m | 4.1m/s | -8.4°C | 6.3% | 0hPa | 2.9V | 00:00:00 | 00:00:00 | 00:00:00 | |
| OE5DRO-10 | 2026-08-30 23:50:44 | 48.28047 | 16.43832 | 72° | 44km/h | 5560m | 3.5m/s | -8.2°C | 6.4% | 0hPa | 2.9V | 00:00:00 | 00:00:00 | 00:00:00 | |
| S52SK | 2026-08-30 23:50:38 | 48.28032 | 16.43754 | 82° | 42km/h | 5540m | 3.8m/s | -8.3°C | 0% | 0hPa | 2.9V | 00:00:00 | 00:00:00 | 00:00:00 | |
| PG1ADW-2 | 2026-08-30 23:50:36 | 48.28024 | 16.43705 | 71° | 44km/h | 5529m | 3.2m/s | -8.2°C | 7.4% | 0hPa | 2.9V | 00:00:00 | 00:31:43 | 00:00:00 | |
| S52SK | 2026-08-30 23:50:32 | 48.28012 | 16.43658 | 69° | 42km/h | 5518m | 2.5m/s | -8.2°C | 0% | 0hPa | 2.9V | 00:00:00 | 00:00:00 | 00:00:00 | |
| OE3JTB-15 | 2026-08-30 23:50:31 | 48.28005 | 16.43627 | 72° | 40km/h | 5511m | 3.5m/s | -8.2°C | 7.7% | 0hPa | 2.9V | 00:00:00 | 00:00:00 | 00:00:00 | |
| OE3OSB-13 | 2026-08-30 23:50:29 | 48.27998 | 16.43596 | 70° | 42km/h | 5504m | 3.6m/s | -8.1°C | 7.3% | -1.0hPa | 2.9V | 00:00:00 | 00:00:00 | 00:00:00 | |
| OE5DRO-10 | 2026-08-30 23:50:25 | 48.27982 | 16.43536 | 69° | 40km/h | 5488m | 3.9m/s | -8.0°C | 7.6% | 0hPa | 2.9V | 00:00:00 | 00:00:00 | 00:00:00 | |
| PG1ADW-2 | 2026-08-30 23:50:16 | 48.27958 | 16.43392 | 75° | 38km/h | 5448m | 4.1m/s | -7.9°C | 7.0% | 0hPa | 2.7V | 00:00:00 | 00:00:00 | 00:00:00 | |
| OE5DRO-10 | 2026-08-30 23:50:06 | 48.27937 | 16.43252 | 79° | 38km/h | 5409m | 5.1m/s | -7.7°C | 6.8% | 0hPa | 2.9V | 00:00:00 | 00:00:00 | 00:00:00 | |
| OE3JTB-15 | 2026-08-30 23:50:02 | 48.27927 | 16.43198 | 80° | 38km/h | 5393m | 3.8m/s | -7.6°C | 6.7% | 0hPa | 2.9V | 00:00:00 | 00:00:00 | 00:00:00 | |
| PG1ADW-2 | 2026-08-30 23:49:56 | 48.27915 | 16.43113 | 79° | 38km/h | 5371m | 3.6m/s | -7.4°C | 6.6% | 0hPa | 2.9V | 00:00:00 | 00:00:00 | 00:00:00 | |
| OE5DRO-10 | 2026-08-30 23:49:47 | 48.27900 | 16.42986 | 85° | 37km/h | 5336m | 4.2m/s | -7.2°C | 6.0% | 0hPa | 2.9V | 00:00:00 | 00:00:00 | 00:00:00 | |
| PG1ADW-2 | 2026-08-30 23:49:36 | 48.27882 | 16.42824 | 77° | 35km/h | 5292m | 3.8m/s | -6.9°C | 5.5% | 0hPa | 2.9V | 00:00:00 | 00:00:00 | 00:00:00 | |
| OE5DRO-10 | 2026-08-30 23:49:28 | 48.27861 | 16.42730 | 69° | 38km/h | 5257m | 3.6m/s | -6.7°C | 5.9% | 0hPa | 2.9V | 00:00:00 | 00:00:00 | 08:30:00 | |
| OE3OSB-13 | 2026-08-30 23:49:27 | 48.27858 | 16.42717 | 71° | 37km/h | 5253m | 4.6m/s | -6.7°C | 5.7% | -1.0hPa | 2.9V | 00:00:00 | 00:00:00 | 00:00:00 | |
| PG1ADW-2 | 2026-08-30 23:49:16 | 48.27821 | 16.42573 | 67° | 37km/h | 5206m | 4.3m/s | -6.5°C | 6.3% | 0hPa | 2.9V | 00:00:00 | 00:30:23 | 08:30:00 | |
| OE5DRO-10 | 2026-08-30 23:49:09 | 48.27795 | 16.42475 | 65° | 35km/h | 5176m | 4.4m/s | -6.3°C | 6.3% | 0hPa | 2.9V | 00:00:00 | 00:00:00 | 00:00:00 | |
| OE3JTB-15 | 2026-08-30 23:49:04 | 48.27780 | 16.42421 | 75° | 35km/h | 5153m | 3.9m/s | -6.2°C | 6.6% | 0hPa | 2.9V | 00:00:00 | 00:00:00 | 08:30:00 | |
| PG1ADW-2 | 2026-08-30 23:48:56 | 48.27756 | 16.42321 | 72° | 37km/h | 5119m | 4.2m/s | -6.0°C | 7.5% | 0hPa | 2.9V | 00:00:00 | 00:00:00 | 00:00:00 | |
| S52SK | 2026-08-30 23:48:51 | 48.27745 | 16.42269 | 69° | 35km/h | 5104m | 3.6m/s | -6.0°C | 0% | 0hPa | 2.9V | 00:00:00 | 00:00:00 | 00:00:00 | |
| OE5DRO-10 | 2026-08-30 23:48:50 | 48.27738 | 16.42244 | 68° | 35km/h | 5095m | 4.5m/s | -5.9°C | 8.2% | 0hPa | 2.9V | 00:00:00 | 00:00:00 | 00:00:00 | |
| S52SK | 2026-08-30 23:48:46 | 48.27723 | 16.42192 | 69° | 38km/h | 5077m | 3.9m/s | -5.9°C | 0% | 0hPa | 2.9V | 00:00:00 | 00:00:00 | 00:00:00 | |
| PG1ADW-2 | 2026-08-30 23:48:36 | 48.27683 | 16.42074 | 68° | 33km/h | 5035m | 4.1m/s | -5.7°C | 9.1% | 0hPa | 2.9V | 00:00:00 | 00:00:00 | 00:00:00 | |
| OE3JTB-15 | 2026-08-30 23:48:35 | 48.27680 | 16.42064 | 65° | 31km/h | 5030m | 4.5m/s | -5.6°C | 9.1% | 0hPa | 2.9V | 00:00:00 | 00:00:00 | 00:00:00 | |
| OE5DRO-10 | 2026-08-30 23:48:31 | 48.27665 | 16.42019 | 64° | 33km/h | 5014m | 3.5m/s | -5.5°C | 9.0% | 0hPa | 2.9V | 00:00:00 | 00:00:00 | 00:00:00 | |
| OE3OSB-13 | 2026-08-30 23:48:25 | 48.27642 | 16.41955 | 60° | 29km/h | 4987m | 5.4m/s | -5.3°C | 8.6% | -1.0hPa | 2.9V | 00:00:00 | 00:00:00 | 00:00:00 | |
| PG1ADW-2 | 2026-08-30 23:48:16 | 48.27607 | 16.41857 | 66° | 31km/h | 4948m | 4.9m/s | -5.0°C | 9.1% | 0hPa | 2.9V | 00:00:00 | 00:00:00 | 00:00:00 | |
| OE5DRO-10 | 2026-08-30 23:48:12 | 48.27592 | 16.41813 | 57° | 29km/h | 4930m | 4.3m/s | -4.9°C | 9.0% | 0hPa | 2.9V | 00:00:00 | 00:00:00 | 00:00:00 | |
| OE3JTB-15 | 2026-08-30 23:48:06 | 48.27572 | 16.41754 | 66° | 33km/h | 4904m | 3.9m/s | -4.8°C | 9.1% | 0hPa | 2.9V | 00:00:00 | 00:29:13 | 00:00:00 | |
| OE3OSB-13 | 2026-08-30 23:47:54 | 48.27536 | 16.41619 | 62° | 29km/h | 4848m | 4.6m/s | -4.5°C | 8.4% | -1.0hPa | 2.9V | 00:00:00 | 00:00:00 | 00:00:00 | |
| OE5DRO-10 | 2026-08-30 23:47:53 | 48.27536 | 16.41619 | 63° | 33km/h | 4848m | 4.6m/s | -4.4°C | 8.7% | 0hPa | 2.9V | 00:00:00 | 00:00:00 | 00:00:00 | |
| OE3JTB-15 | 2026-08-30 23:47:37 | 48.27477 | 16.41433 | 56° | 31km/h | 4781m | 4.3m/s | -4.0°C | 9.4% | 0hPa | 2.9V | 00:00:00 | 00:00:00 | 00:00:00 | |
| PG1ADW-2 | 2026-08-30 23:47:36 | 48.27472 | 16.41423 | 53° | 33km/h | 4777m | 4.2m/s | -4.0°C | 9.5% | 0hPa | 2.9V | 00:00:00 | 00:00:00 | 00:00:00 | |
| OE5DRO-10 | 2026-08-30 23:47:34 | 48.27463 | 16.41406 | 58° | 33km/h | 4769m | 4.1m/s | -4.0°C | 9.9% | 0hPa | 2.9V | 00:00:00 | 00:00:00 | 00:00:00 | |
| OE3OSB-13 | 2026-08-30 23:47:23 | 48.27413 | 16.41271 | 51° | 35km/h | 4720m | 3.3m/s | -4.0°C | 11.3% | -1.0hPa | 2.9V | 00:00:00 | 00:00:00 | 00:00:00 | |
| PG1ADW-2 | 2026-08-30 23:47:16 | 48.27389 | 16.41213 | 69° | 27km/h | 4697m | 4.2m/s | -3.8°C | 11.2% | 0hPa | 2.9V | 00:00:00 | 00:00:00 | 00:00:00 | |
| OE5DRO-10 | 2026-08-30 23:47:15 | 48.27387 | 16.41204 | 68° | 27km/h | 4692m | 5.0m/s | -3.8°C | 11.2% | 0hPa | 2.9V | 00:00:00 | 00:00:00 | 00:00:00 | |
| OE3JTB-15 | 2026-08-30 23:47:08 | 48.27364 | 16.41138 | 61° | 26km/h | 4662m | 4.3m/s | -3.6°C | 11.4% | 0hPa | 2.9V | 00:00:00 | 00:00:00 | 00:00:00 | |
| OE3OSB-13 | 2026-08-30 23:46:52 | 48.27303 | 16.40995 | 55° | 20km/h | 4595m | 4.2m/s | -3.2°C | 11.5% | -1.0hPa | 2.9V | 00:00:00 | 00:00:00 | 00:00:00 | |
| OE3JTB-15 | 2026-08-30 23:46:39 | 48.27259 | 16.40895 | 66° | 26km/h | 4549m | 3.9m/s | -2.8°C | 11.9% | 0hPa | 2.9V | 00:00:00 | 00:27:46 | 00:00:00 | |
| OE5DRO-10 | 2026-08-30 23:46:37 | 48.27253 | 16.40875 | 65° | 26km/h | 4541m | 4.5m/s | -2.7°C | 11.7% | 0hPa | 2.9V | 00:00:00 | 00:00:00 | 08:30:00 | |
| PG1ADW-2 | 2026-08-30 23:46:36 | 48.27250 | 16.40865 | 68° | 26km/h | 4536m | 4.5m/s | -2.6°C | 11.7% | 0hPa | 2.9V | 00:00:00 | 00:27:43 | 00:00:00 | |
| OE3OSB-13 | 2026-08-30 23:46:21 | 48.27200 | 16.40736 | 55° | 29km/h | 4466m | 4.7m/s | -2.2°C | 11.3% | -1.0hPa | 2.9V | 00:00:00 | 00:00:00 | 00:00:00 | |
| OE5DRO-10 | 2026-08-30 23:46:18 | 48.27192 | 16.40717 | 62° | 24km/h | 4458m | 3.6m/s | -2.1°C | 11.5% | 0hPa | 2.9V | 00:00:00 | 00:00:00 | 00:00:00 | |
| PG1ADW-2 | 2026-08-30 23:46:16 | 48.27186 | 16.40700 | 67° | 22km/h | 4450m | 2.8m/s | -2.1°C | 11.3% | 0hPa | 2.9V | 00:00:00 | 00:00:00 | 08:30:00 | |
| OE3JTB-15 | 2026-08-30 23:46:10 | 48.27168 | 16.40658 | 49° | 24km/h | 4423m | 4.5m/s | -1.8°C | 10.8% | 0hPa | 2.9V | 00:00:00 | 00:00:00 | 00:00:00 | |
| S52SK | 2026-08-30 23:46:03 | 48.27144 | 16.40612 | 48° | 22km/h | 4397m | 3.8m/s | -1.7°C | 0% | 0hPa | 2.9V | 00:00:00 | 00:00:00 | 00:00:00 | |
| OE3OSB-13 | 2026-08-30 23:45:50 | 48.27092 | 16.40507 | 62° | 26km/h | 4339m | 3.0m/s | -1.3°C | 8.5% | -1.0hPa | 2.9V | 00:00:00 | 00:00:00 | 00:00:00 | |
| OE3JTB-15 | 2026-08-30 23:45:41 | 48.27062 | 16.40440 | 58° | 24km/h | 4310m | 4.0m/s | -1.2°C | 10.5% | 0hPa | 2.9V | 00:00:00 | 00:00:00 | 00:00:00 | |
| OE5DRO-10 | 2026-08-30 23:45:40 | 48.27059 | 16.40433 | 59° | 24km/h | 4307m | 2.6m/s | -1.2°C | 11.1% | 0hPa | 2.9V | 00:00:00 | 00:00:00 | 00:00:00 | |
| PG1ADW-2 | 2026-08-30 23:45:36 | 48.27041 | 16.40388 | 60° | 26km/h | 4284m | 3.3m/s | -1.3°C | 14.2% | 0hPa | 2.9V | 00:00:00 | 00:00:00 | 00:00:00 | |
| OE5DRO-10 | 2026-08-30 23:45:21 | 48.27012 | 16.40277 | 69° | 26km/h | 4233m | 4.2m/s | -1.1°C | 17.4% | 0hPa | 2.9V | 00:00:00 | 00:00:00 | 00:00:00 | |
| OE3OSB-13 | 2026-08-30 23:45:19 | 48.27005 | 16.40246 | 70° | 26km/h | 4221m | 4.2m/s | -1.1°C | 18.1% | -1.0hPa | 2.9V | 00:00:00 | 00:00:00 | 00:00:00 | |
| PG1ADW-2 | 2026-08-30 23:45:15 | 48.26999 | 16.40221 | 71° | 24km/h | 4210m | 3.5m/s | -0.9°C | 19.3% | 0hPa | 2.9V | 00:00:00 | 00:26:22 | 00:00:00 | |
| OE3JTB-15 | 2026-08-30 23:45:12 | 48.26993 | 16.40198 | 72° | 26km/h | 4196m | 3.8m/s | -0.9°C | 21.1% | 0hPa | 2.9V | 00:00:00 | 00:26:19 | 00:00:00 | |
| OE3OSB-13 | 2026-08-30 23:44:48 | 48.26990 | 16.39966 | 98° | 24km/h | 4103m | 4.1m/s | -1.5°C | 53.1% | -1.0hPa | 2.9V | 00:00:00 | 00:00:00 | 00:00:00 | |
| OE3JTB-15 | 2026-08-30 23:44:43 | 48.26993 | 16.39925 | 88° | 37km/h | 4089m | 3.6m/s | -1.5°C | 62.2% | 0hPa | 2.9V | 00:00:00 | 00:00:00 | 08:30:00 | |
| PG1ADW-2 | 2026-08-30 23:44:35 | 48.26996 | 16.39838 | 90° | 38km/h | 4058m | 4.7m/s | -2.6°C | 83.9% | 0hPa | 2.9V | 00:00:00 | 00:00:00 | 00:00:00 | |
| S52SK | 2026-08-30 23:44:26 | 48.26998 | 16.39734 | 98° | 38km/h | 4027m | 4.2m/s | 0°C | 0% | 0hPa | 2.9V | 00:00:00 | 00:00:00 | 00:00:00 | |
| OE5DRO-10 | 2026-08-30 23:44:24 | 48.27002 | 16.39690 | 98° | 42km/h | 4017m | 3.4m/s | -2.5°C | 95.0% | 0hPa | 2.9V | 00:00:00 | 00:00:00 | 00:00:00 | |
| S52SK | 2026-08-30 23:44:20 | 48.27006 | 16.39648 | 98° | 38km/h | 4005m | 4.2m/s | 0°C | 0% | 0hPa | 2.9V | 00:00:00 | 00:00:00 | 00:00:00 | |
| OE3OSB-13 | 2026-08-30 23:44:17 | 48.27010 | 16.39560 | 96° | 44km/h | 3984m | 6.8m/s | -2.3°C | 92.3% | -1.0hPa | 2.9V | 00:00:00 | 00:00:00 | 00:00:00 | |
| PG1ADW-2 | 2026-08-30 23:44:15 | 48.27012 | 16.39544 | 99° | 42km/h | 3978m | 5.3m/s | 0°C | 0% | 0hPa | 2.9V | 00:00:00 | 00:00:00 | 00:00:00 | |
| OE3JTB-15 | 2026-08-30 23:44:14 | 48.27013 | 16.39530 | 98° | 42km/h | 3973m | 4.1m/s | -2.1°C | 93.8% | 0hPa | 2.9V | 00:00:00 | 00:00:00 | 00:00:00 | |
| OE5DRO-10 | 2026-08-30 23:44:05 | 48.27011 | 16.39385 | 80° | 42km/h | 3927m | 4.1m/s | -1.7°C | 90.6% | 0hPa | 2.9V | 00:00:00 | 00:00:00 | 00:00:00 | |
| OE3OSB-13 | 2026-08-30 23:43:46 | 48.26995 | 16.39071 | 73° | 37km/h | 3830m | 4.8m/s | -0.8°C | 85.4% | -1.0hPa | 2.9V | 00:00:00 | 00:00:00 | 00:00:00 | |
| OE3JTB-15 | 2026-08-30 23:43:45 | 48.26995 | 16.39071 | 74° | 37km/h | 3830m | 4.8m/s | -0.8°C | 86.7% | 0hPa | 2.9V | 00:00:00 | 00:24:52 | 00:00:00 | |
| PG1ADW-2 | 2026-08-30 23:43:35 | 48.26975 | 16.38919 | 78° | 35km/h | 3773m | 7.2m/s | 0°C | 0% | 0hPa | 2.9V | 00:00:00 | 00:00:00 | 00:00:00 | |
| OE5DRO-10 | 2026-08-30 23:43:27 | 48.26964 | 16.38810 | 99° | 33km/h | 3727m | 5.6m/s | 0°C | 0% | 0hPa | 2.9V | 00:00:00 | 00:00:00 | 00:00:00 | |
| OE3JTB-15 | 2026-08-30 23:43:16 | 48.26970 | 16.38672 | 76° | 37km/h | 3683m | 4.1m/s | 0.6°C | 79.5% | 0hPa | 2.9V | 00:00:00 | 00:00:00 | 00:00:00 | |
| OE3OSB-13 | 2026-08-30 23:43:15 | 48.26967 | 16.38648 | 79° | 29km/h | 3673m | 4.5m/s | 0.7°C | 79.0% | -1.0hPa | 2.9V | 00:00:00 | 00:00:00 | 00:00:00 | |
| PG1ADW-2 | 2026-08-30 23:43:09 | 48.26962 | 16.38582 | 79° | 38km/h | 3651m | 4.7m/s | 0°C | 0% | 0hPa | 2.9V | 00:00:00 | 00:00:00 | 00:00:00 | |
| OE5DRO-10 | 2026-08-30 23:43:08 | 48.26962 | 16.38582 | 79° | 40km/h | 3651m | 4.7m/s | 0°C | 0% | 0hPa | 2.9V | 00:00:00 | 00:00:00 | 00:00:00 | |
| S52SK | 2026-08-30 23:43:05 | 48.26959 | 16.38554 | 84° | 44km/h | 3641m | 4.7m/s | 0°C | 0% | 0hPa | 2.9V | 00:00:00 | 00:00:00 | 00:00:00 | |
| S52SK | 2026-08-30 23:42:59 | 48.26959 | 16.38456 | 95° | 38km/h | 3613m | 5.1m/s | 0°C | 0% | 0hPa | 2.9V | 00:00:00 | 00:00:00 | 00:00:00 | |
| OE5DRO-10 | 2026-08-30 23:42:49 | 48.26956 | 16.38295 | 85° | 38km/h | 3571m | 3.3m/s | 0°C | 0% | 0hPa | 2.9V | 00:00:00 | 00:00:00 | 00:00:00 | |
| OE3JTB-15 | 2026-08-30 23:42:47 | 48.26954 | 16.38267 | 83° | 37km/h | 3563m | 4.1m/s | 1.6°C | 74.2% | 0hPa | 2.9V | 00:00:00 | 00:00:00 | 00:00:00 | |
| OE3OSB-13 | 2026-08-30 23:42:43 | 48.26949 | 16.38207 | 79° | 38km/h | 3548m | 4.2m/s | 1.8°C | 73.2% | -1.0hPa | 2.9V | 00:00:00 | 00:00:00 | 00:00:00 | |
| OE5DRO-10 | 2026-08-30 23:42:30 | 48.26964 | 16.38027 | 105° | 35km/h | 3491m | 3.6m/s | 0°C | 0% | 0hPa | 2.9V | 00:00:00 | 00:00:00 | 00:00:00 | |
| OE3JTB-15 | 2026-08-30 23:42:18 | 48.26964 | 16.37876 | 103° | 33km/h | 3441m | 3.7m/s | 2.5°C | 72.3% | 0hPa | 2.9V | 00:00:00 | 00:23:25 | 00:00:00 | |
| OE3OSB-13 | 2026-08-30 23:42:12 | 48.26977 | 16.37802 | 97° | 33km/h | 3412m | 4.9m/s | 2.8°C | 71.6% | -1.0hPa | 2.9V | 00:00:00 | 00:00:00 | 00:00:00 | |
| OE5DRO-10 | 2026-08-30 23:42:11 | 48.26978 | 16.37788 | 98° | 33km/h | 3406m | 5.7m/s | 0°C | 0% | 0hPa | 2.9V | 00:00:00 | 00:00:00 | 00:00:00 | |
| OE5DRO-10 | 2026-08-30 23:41:52 | 48.26990 | 16.37545 | 102° | 26km/h | 3325m | 5.2m/s | 0°C | 0% | 0hPa | 2.9V | 00:00:00 | 00:00:00 | 00:00:00 | |
| OE3JTB-15 | 2026-08-30 23:41:49 | 48.26993 | 16.37511 | 91° | 27km/h | 3311m | 4.2m/s | 3.0°C | 78.3% | 0hPa | 2.9V | 00:00:00 | 00:00:00 | 00:00:00 | |
| S52SK | 2026-08-30 23:41:43 | 48.26997 | 16.37457 | 100° | 24km/h | 3291m | 3.0m/s | 0°C | 0% | 0hPa | 2.9V | 00:00:00 | 00:00:00 | 00:00:00 | |
| OE3OSB-13 | 2026-08-30 23:41:41 | 48.27001 | 16.37428 | 103° | 29km/h | 3278m | 3.3m/s | 3.3°C | 78.8% | -1.0hPa | 2.9V | 00:00:00 | 00:00:00 | 00:00:00 | |
| S52SK | 2026-08-30 23:41:38 | 48.27006 | 16.37405 | 111° | 33km/h | 3272m | 3.1m/s | 0°C | 0% | 0hPa | 2.9V | 00:00:00 | 00:00:00 | 00:00:00 | |
| S52SK | 2026-08-30 23:41:34 | 48.27019 | 16.37345 | 104° | 31km/h | 3254m | 4.1m/s | 0°C | 0% | 0hPa | 2.9V | 00:00:00 | 00:00:00 | 00:00:00 | |
| OE3JTB-15 | 2026-08-30 23:41:20 | 48.27034 | 16.37223 | 101° | 22km/h | 3198m | 4.7m/s | 3.9°C | 76.0% | 0hPa | 2.9V | 00:00:00 | 00:00:00 | 00:00:00 | |
| OE3OSB-13 | 2026-08-30 23:41:10 | 48.27044 | 16.37139 | 103° | 24km/h | 3160m | 3.3m/s | 4.3°C | 74.2% | -1.0hPa | 2.9V | 00:00:00 | 00:00:00 | 00:00:00 | |
| OE5DRO-10 | 2026-08-30 23:40:53 | 48.27067 | 16.37010 | 109° | 22km/h | 3096m | 4.6m/s | 0°C | 0% | 0hPa | 2.9V | 00:00:00 | 00:00:00 | 00:00:00 | |
| OE3JTB-15 | 2026-08-30 23:40:51 | 48.27069 | 16.36993 | 94° | 22km/h | 3088m | 3.0m/s | 4.8°C | 75.7% | 0hPa | 2.9V | 00:00:00 | 00:21:58 | 00:00:00 | |
| OE3OSB-13 | 2026-08-30 23:40:39 | 48.27075 | 16.36890 | 118° | 20km/h | 3036m | 3.2m/s | 5.3°C | 74.4% | -1.0hPa | 2.9V | 00:00:00 | 00:00:00 | 00:00:00 | |
| OE5DRO-10 | 2026-08-30 23:40:34 | 48.27088 | 16.36853 | 113° | 22km/h | 3018m | 3.9m/s | 0°C | 0% | 0hPa | 2.9V | 00:00:00 | 00:00:00 | 00:00:00 | |
| OE3JTB-15 | 2026-08-30 23:40:22 | 48.27105 | 16.36758 | 100° | 18km/h | 2968m | 4.8m/s | 5.9°C | 72.3% | 0hPa | 2.9V | 00:00:00 | 00:00:00 | 08:30:00 | |
| OE5DRO-10 | 2026-08-30 23:40:15 | 48.27107 | 16.36702 | 108° | 20km/h | 2933m | 4.1m/s | 0°C | 0% | 0hPa | 2.9V | 00:00:00 | 00:00:00 | 00:00:00 | |
| OE3OSB-13 | 2026-08-30 23:40:08 | 48.27108 | 16.36652 | 84° | 18km/h | 2899m | 3.5m/s | 6.6°C | 69.7% | -1.0hPa | 2.9V | 00:00:00 | 00:00:00 | 00:00:00 | |
| OE3JTB-15 | 2026-08-30 23:39:53 | 48.27097 | 16.36570 | 69° | 18km/h | 2847m | 3.7m/s | 7.0°C | 67.9% | 0hPa | 2.9V | 00:00:00 | 00:00:00 | 00:00:00 | |
| OE3OSB-13 | 2026-08-30 23:39:37 | 48.27082 | 16.36464 | 78° | 13km/h | 2777m | 4.0m/s | 7.8°C | 64.3% | -1.0hPa | 2.9V | 00:00:00 | 00:00:00 | 00:00:00 | |
| OE3JTB-15 | 2026-08-30 23:39:24 | 48.27057 | 16.36383 | 72° | 18km/h | 2726m | 4.2m/s | 8.2°C | 63.2% | 0hPa | 2.9V | 00:00:00 | 00:20:31 | 00:00:00 | |
| OE3OSB-13 | 2026-08-30 23:39:06 | 48.27047 | 16.36270 | 61° | 13km/h | 2643m | 5.0m/s | 9.0°C | 62.4% | -1.0hPa | 2.9V | 00:00:00 | 00:00:00 | 00:00:00 | |
| OE3JTB-15 | 2026-08-30 23:38:55 | 48.27028 | 16.36200 | 38° | 15km/h | 2595m | 3.8m/s | 9.5°C | 61.5% | 0hPa | 2.9V | 00:00:00 | 00:00:00 | 00:00:00 | |
| OE3OSB-13 | 2026-08-30 23:38:35 | 48.26993 | 16.36096 | 60° | 20km/h | 2490m | 4.5m/s | 10.5°C | 57.2% | -1.0hPa | 2.9V | 00:00:00 | 00:00:00 | 00:00:00 | |
| OE3JTB-15 | 2026-08-30 23:38:26 | 48.26976 | 16.36055 | 85° | 16km/h | 2460m | 4.6m/s | 10.8°C | 57.2% | 0hPa | 2.9V | 00:00:00 | 00:00:00 | 00:00:00 | |
| OE3OSB-13 | 2026-08-30 23:38:04 | 48.26924 | 16.35947 | 67° | 5km/h | 2341m | 5.6m/s | 11.9°C | 52.9% | -1.0hPa | 2.9V | 00:00:00 | 00:00:00 | 00:00:00 | |
| OE3JTB-15 | 2026-08-30 23:37:57 | 48.26904 | 16.35916 | 40° | 20km/h | 2315m | 4.6m/s | 12.2°C | 53.1% | 0hPa | 2.9V | 00:00:00 | 00:19:04 | 00:00:00 | |
| OE3OSB-13 | 2026-08-30 23:37:33 | 48.26817 | 16.35796 | 55° | 26km/h | 2204m | 5.6m/s | 13.0°C | 54.1% | -1.0hPa | 2.9V | 00:00:00 | 00:00:00 | 00:00:00 | |
| OE3JTB-15 | 2026-08-30 23:37:28 | 48.26805 | 16.35772 | 58° | 18km/h | 2182m | 7.4m/s | 13.0°C | 54.5% | 0hPa | 2.9V | 00:00:00 | 00:00:00 | 00:00:00 | |
| OE3OSB-13 | 2026-08-30 23:37:01 | 48.26697 | 16.35696 | 10° | 9km/h | 2056m | 5.4m/s | 13.7°C | 57.2% | -1.0hPa | 2.9V | 00:00:00 | 00:00:00 | 00:00:00 | |
| OE3JTB-15 | 2026-08-30 23:36:59 | 48.26691 | 16.35692 | 37° | 18km/h | 2046m | 3.8m/s | 13.7°C | 58.8% | 0hPa | 2.9V | 00:00:00 | 00:00:00 | 00:00:00 | |
| OE3OSB-13 | 2026-08-30 23:36:30 | 48.26576 | 16.35609 | 352° | 20km/h | 1905m | 7.6m/s | 15.0°C | 53.2% | -1.0hPa | 2.9V | 00:00:00 | 00:00:00 | 00:00:00 | |
| OE3JTB-15 | 2026-08-30 23:36:30 | 48.26576 | 16.35609 | 353° | 15km/h | 1905m | 7.6m/s | 15.0°C | 53.6% | 0hPa | 2.9V | 00:00:00 | 00:17:37 | 00:00:00 | |
| OE3OSB-13 | 2026-08-30 23:35:59 | 48.26482 | 16.35620 | 321° | 9km/h | 1751m | 4.8m/s | 15.8°C | 55.6% | -1.0hPa | 2.9V | 00:00:00 | 00:00:00 | 00:00:00 | |
| OE3JTB-15 | 2026-08-30 23:35:32 | 48.26372 | 16.35642 | 350° | 20km/h | 1643m | 3.6m/s | 16.7°C | 53.1% | 0hPa | 2.9V | 00:00:00 | 00:00:00 | 00:00:00 | |
| OE3OSB-13 | 2026-08-30 23:35:28 | 48.26350 | 16.35644 | 13° | 15km/h | 1626m | 3.6m/s | 16.9°C | -1.0% | -1.0hPa | 2.9V | 00:00:00 | 00:00:00 | 00:00:00 | |
| OE3JTB-15 | 2026-08-30 23:35:03 | 48.26228 | 16.35653 | 18° | 22km/h | 1509m | 3.9m/s | 17.9°C | 50.2% | 0hPa | 2.9V | 00:00:00 | 00:16:10 | 00:00:00 | |
| OE3JTB-15 | 2026-08-30 23:34:34 | 48.26067 | 16.35672 | 10° | 27km/h | 1376m | 3.9m/s | 18.8°C | 51.6% | 0hPa | 2.9V | 00:00:00 | 00:00:00 | 00:00:00 | |
| OE3JTB-15 | 2026-08-30 23:34:05 | 48.25879 | 16.35711 | 357° | 26km/h | 1237m | 4.4m/s | 19.9°C | 52.7% | 0hPa | 2.7V | 00:00:00 | 00:00:00 | 00:00:00 | |
| OE3JTB-15 | 2026-08-30 23:33:36 | 48.25695 | 16.35706 | 350° | 24km/h | 1102m | 4.1m/s | 21.2°C | 48.1% | 0hPa | 2.7V | 00:00:00 | 00:14:43 | 00:00:00 | |
| OE3JTB-15 | 2026-08-30 23:33:07 | 48.25518 | 16.35703 | 3° | 26km/h | 986m | 3.8m/s | 0°C | 0% | 0hPa | 2.7V | 00:00:00 | 00:00:00 | 00:00:00 | |
| OE3JTB-15 | 2026-08-30 23:32:38 | 48.25333 | 16.35712 | 360° | 22km/h | 848m | 5.5m/s | 0°C | 0% | 0hPa | 2.7V | 00:00:00 | 00:00:00 | 00:00:00 | |
| OE3JTB-15 | 2026-08-30 23:32:09 | 48.25167 | 16.35695 | 15° | 16km/h | 723m | 5.1m/s | 0°C | 0% | 0hPa | 2.7V | 00:00:00 | 00:13:16 | 00:00:00 | |
| OE3JTB-15 | 2026-08-30 23:31:40 | 48.25055 | 16.35688 | 7° | 20km/h | 597m | 3.8m/s | 0°C | 0% | 0hPa | 2.7V | 00:00:00 | 00:00:00 | 00:00:00 |